<?xml version="1.0" encoding="UTF-8" standalone="no" ?>
<gpx xmlns="http://www.topografix.com/GPX/1/1" xmlns:xsi="http://www.w3.org/2001/XMLSchema-instance" xsi:schemaLocation="http://www.topografix.com/GPX/1/1 http://www.topografix.com/GPX/1/1/gpx.xsd" version="1.1" creator="VisuGPX - https://www.visugpx.com">
  <metadata>
    <name>[18/09/2016] Transloverienne - 65 km</name>
    <desc><![CDATA[Parcours de 65 km proposé par l'ULV et ses différents partenaires]]></desc>
  </metadata>
  <trk>
    <name><![CDATA[[18/09/2016] Transloverienne - 65 km_1]]></name>
    <trkseg>
      <trkpt lat="49.2102" lon="1.1713">
        <ele>17.96579</ele>
        <time>2016-09-18T05:51:52Z</time>
      </trkpt>
      <trkpt lat="49.2102" lon="1.17128">
        <ele>17.96579</ele>
        <time>2016-09-18T05:51:53Z</time>
      </trkpt>
      <trkpt lat="49.21022" lon="1.17112">
        <ele>18.232931</ele>
        <time>2016-09-18T05:52:01Z</time>
      </trkpt>
      <trkpt lat="49.21025" lon="1.17098">
        <ele>18.527308</ele>
        <time>2016-09-18T05:52:08Z</time>
      </trkpt>
      <trkpt lat="49.21025" lon="1.17082">
        <ele>18.669476</ele>
        <time>2016-09-18T05:52:13Z</time>
      </trkpt>
      <trkpt lat="49.21024" lon="1.17067">
        <ele>18.772432</ele>
        <time>2016-09-18T05:52:18Z</time>
      </trkpt>
      <trkpt lat="49.21021" lon="1.17051">
        <ele>18.897076</ele>
        <time>2016-09-18T05:52:23Z</time>
      </trkpt>
      <trkpt lat="49.21019" lon="1.17038">
        <ele>19.024323</ele>
        <time>2016-09-18T05:52:27Z</time>
      </trkpt>
      <trkpt lat="49.21016" lon="1.17022">
        <ele>19</ele>
        <time>2016-09-18T05:52:32Z</time>
      </trkpt>
      <trkpt lat="49.21012" lon="1.17004">
        <ele>19</ele>
        <time>2016-09-18T05:52:38Z</time>
      </trkpt>
      <trkpt lat="49.21012" lon="1.16989">
        <ele>19.717783</ele>
        <time>2016-09-18T05:52:42Z</time>
      </trkpt>
      <trkpt lat="49.21011" lon="1.1697">
        <ele>20.11121</ele>
        <time>2016-09-18T05:52:47Z</time>
      </trkpt>
      <trkpt lat="49.2101" lon="1.16955">
        <ele>20.4</ele>
        <time>2016-09-18T05:52:51Z</time>
      </trkpt>
      <trkpt lat="49.21009" lon="1.1694">
        <ele>20.8</ele>
        <time>2016-09-18T05:52:55Z</time>
      </trkpt>
      <trkpt lat="49.2101" lon="1.16926">
        <ele>21.2</ele>
        <time>2016-09-18T05:52:58Z</time>
      </trkpt>
      <trkpt lat="49.21011" lon="1.16912">
        <ele>21.5</ele>
        <time>2016-09-18T05:53:01Z</time>
      </trkpt>
      <trkpt lat="49.21011" lon="1.16898">
        <ele>21.8</ele>
        <time>2016-09-18T05:53:04Z</time>
      </trkpt>
      <trkpt lat="49.2101" lon="1.16884">
        <ele>22.1</ele>
        <time>2016-09-18T05:53:07Z</time>
      </trkpt>
      <trkpt lat="49.2101" lon="1.16869">
        <ele>22.3</ele>
        <time>2016-09-18T05:53:10Z</time>
      </trkpt>
      <trkpt lat="49.21009" lon="1.16855">
        <ele>22.5</ele>
        <time>2016-09-18T05:53:13Z</time>
      </trkpt>
      <trkpt lat="49.21008" lon="1.1684">
        <ele>22.7</ele>
        <time>2016-09-18T05:53:16Z</time>
      </trkpt>
      <trkpt lat="49.21007" lon="1.16826">
        <ele>22.9</ele>
        <time>2016-09-18T05:53:19Z</time>
      </trkpt>
      <trkpt lat="49.21006" lon="1.16811">
        <ele>23</ele>
        <time>2016-09-18T05:53:22Z</time>
      </trkpt>
      <trkpt lat="49.21006" lon="1.16796">
        <ele>23.2</ele>
        <time>2016-09-18T05:53:25Z</time>
      </trkpt>
      <trkpt lat="49.21006" lon="1.16779">
        <ele>23.4</ele>
        <time>2016-09-18T05:53:28Z</time>
      </trkpt>
      <trkpt lat="49.21006" lon="1.16763">
        <ele>23.6</ele>
        <time>2016-09-18T05:53:31Z</time>
      </trkpt>
      <trkpt lat="49.21004" lon="1.16747">
        <ele>23.7</ele>
        <time>2016-09-18T05:53:34Z</time>
      </trkpt>
      <trkpt lat="49.21003" lon="1.16733">
        <ele>23.8</ele>
        <time>2016-09-18T05:53:37Z</time>
      </trkpt>
      <trkpt lat="49.21002" lon="1.16715">
        <ele>23.9</ele>
        <time>2016-09-18T05:53:40Z</time>
      </trkpt>
      <trkpt lat="49.21002" lon="1.167">
        <ele>24</ele>
        <time>2016-09-18T05:53:42Z</time>
      </trkpt>
      <trkpt lat="49.21002" lon="1.16686">
        <ele>24</ele>
        <time>2016-09-18T05:53:44Z</time>
      </trkpt>
      <trkpt lat="49.21003" lon="1.16672">
        <ele>24</ele>
        <time>2016-09-18T05:53:46Z</time>
      </trkpt>
      <trkpt lat="49.21004" lon="1.16652">
        <ele>24.1</ele>
        <time>2016-09-18T05:53:49Z</time>
      </trkpt>
      <trkpt lat="49.21006" lon="1.16634">
        <ele>24.1</ele>
        <time>2016-09-18T05:53:52Z</time>
      </trkpt>
      <trkpt lat="49.21009" lon="1.16616">
        <ele>24.1</ele>
        <time>2016-09-18T05:53:55Z</time>
      </trkpt>
      <trkpt lat="49.21014" lon="1.16599">
        <ele>24.1</ele>
        <time>2016-09-18T05:53:58Z</time>
      </trkpt>
      <trkpt lat="49.21021" lon="1.16584">
        <ele>24.1</ele>
        <time>2016-09-18T05:54:01Z</time>
      </trkpt>
      <trkpt lat="49.21032" lon="1.16576">
        <ele>24</ele>
        <time>2016-09-18T05:54:04Z</time>
      </trkpt>
      <trkpt lat="49.21046" lon="1.16567">
        <ele>23</ele>
        <time>2016-09-18T05:54:08Z</time>
      </trkpt>
      <trkpt lat="49.21056" lon="1.16562">
        <ele>23.9</ele>
        <time>2016-09-18T05:54:11Z</time>
      </trkpt>
      <trkpt lat="49.21067" lon="1.16558">
        <ele>23.8</ele>
        <time>2016-09-18T05:54:14Z</time>
      </trkpt>
      <trkpt lat="49.21077" lon="1.16552">
        <ele>23.8</ele>
        <time>2016-09-18T05:54:17Z</time>
      </trkpt>
      <trkpt lat="49.21088" lon="1.16548">
        <ele>23.8</ele>
        <time>2016-09-18T05:54:20Z</time>
      </trkpt>
      <trkpt lat="49.21098" lon="1.16545">
        <ele>23.7</ele>
        <time>2016-09-18T05:54:23Z</time>
      </trkpt>
      <trkpt lat="49.21109" lon="1.16542">
        <ele>23.7</ele>
        <time>2016-09-18T05:54:27Z</time>
      </trkpt>
      <trkpt lat="49.21117" lon="1.16538">
        <ele>23.8</ele>
        <time>2016-09-18T05:54:30Z</time>
      </trkpt>
      <trkpt lat="49.21127" lon="1.16533">
        <ele>23.8</ele>
        <time>2016-09-18T05:54:33Z</time>
      </trkpt>
      <trkpt lat="49.21136" lon="1.16528">
        <ele>23.9</ele>
        <time>2016-09-18T05:54:36Z</time>
      </trkpt>
      <trkpt lat="49.21146" lon="1.1652">
        <ele>23.9</ele>
        <time>2016-09-18T05:54:39Z</time>
      </trkpt>
      <trkpt lat="49.21155" lon="1.16513">
        <ele>23.9</ele>
        <time>2016-09-18T05:54:42Z</time>
      </trkpt>
      <trkpt lat="49.21152" lon="1.16497">
        <ele>24</ele>
        <time>2016-09-18T05:54:46Z</time>
      </trkpt>
      <trkpt lat="49.21147" lon="1.16471">
        <ele>24</ele>
        <time>2016-09-18T05:54:50Z</time>
      </trkpt>
      <trkpt lat="49.21144" lon="1.16448">
        <ele>24</ele>
        <time>2016-09-18T05:54:54Z</time>
      </trkpt>
      <trkpt lat="49.21143" lon="1.1643">
        <ele>24</ele>
        <time>2016-09-18T05:54:57Z</time>
      </trkpt>
      <trkpt lat="49.2114" lon="1.16416">
        <ele>24</ele>
        <time>2016-09-18T05:55:00Z</time>
      </trkpt>
      <trkpt lat="49.21139" lon="1.16396">
        <ele>24.1</ele>
        <time>2016-09-18T05:55:03Z</time>
      </trkpt>
      <trkpt lat="49.21137" lon="1.16378">
        <ele>24.1</ele>
        <time>2016-09-18T05:55:06Z</time>
      </trkpt>
      <trkpt lat="49.21134" lon="1.16362">
        <ele>24.1</ele>
        <time>2016-09-18T05:55:09Z</time>
      </trkpt>
      <trkpt lat="49.21132" lon="1.16345">
        <ele>24.1</ele>
        <time>2016-09-18T05:55:12Z</time>
      </trkpt>
      <trkpt lat="49.21127" lon="1.16327">
        <ele>24</ele>
        <time>2016-09-18T05:55:17Z</time>
      </trkpt>
      <trkpt lat="49.21123" lon="1.16314">
        <ele>24</ele>
        <time>2016-09-18T05:55:21Z</time>
      </trkpt>
      <trkpt lat="49.21119" lon="1.16294">
        <ele>24</ele>
        <time>2016-09-18T05:55:25Z</time>
      </trkpt>
      <trkpt lat="49.21116" lon="1.16272">
        <ele>24</ele>
        <time>2016-09-18T05:55:29Z</time>
      </trkpt>
      <trkpt lat="49.21116" lon="1.16251">
        <ele>24.3</ele>
        <time>2016-09-18T05:55:32Z</time>
      </trkpt>
      <trkpt lat="49.21113" lon="1.16233">
        <ele>24.3</ele>
        <time>2016-09-18T05:55:35Z</time>
      </trkpt>
      <trkpt lat="49.2111" lon="1.16216">
        <ele>24.4</ele>
        <time>2016-09-18T05:55:38Z</time>
      </trkpt>
      <trkpt lat="49.21107" lon="1.16198">
        <ele>24.5</ele>
        <time>2016-09-18T05:55:41Z</time>
      </trkpt>
      <trkpt lat="49.21104" lon="1.16178">
        <ele>24.5</ele>
        <time>2016-09-18T05:55:44Z</time>
      </trkpt>
      <trkpt lat="49.21102" lon="1.16159">
        <ele>24.6</ele>
        <time>2016-09-18T05:55:47Z</time>
      </trkpt>
      <trkpt lat="49.21103" lon="1.1614">
        <ele>24.6</ele>
        <time>2016-09-18T05:55:50Z</time>
      </trkpt>
      <trkpt lat="49.21103" lon="1.16121">
        <ele>24</ele>
        <time>2016-09-18T05:55:53Z</time>
      </trkpt>
      <trkpt lat="49.21104" lon="1.16094">
        <ele>24</ele>
        <time>2016-09-18T05:55:57Z</time>
      </trkpt>
      <trkpt lat="49.21105" lon="1.16074">
        <ele>25.1</ele>
        <time>2016-09-18T05:56:00Z</time>
      </trkpt>
      <trkpt lat="49.21106" lon="1.16061">
        <ele>25.2</ele>
        <time>2016-09-18T05:56:02Z</time>
      </trkpt>
      <trkpt lat="49.21107" lon="1.1604">
        <ele>25.3</ele>
        <time>2016-09-18T05:56:05Z</time>
      </trkpt>
      <trkpt lat="49.21108" lon="1.16026">
        <ele>25.4</ele>
        <time>2016-09-18T05:56:07Z</time>
      </trkpt>
      <trkpt lat="49.21109" lon="1.16006">
        <ele>25.5</ele>
        <time>2016-09-18T05:56:10Z</time>
      </trkpt>
      <trkpt lat="49.21111" lon="1.15986">
        <ele>25.6</ele>
        <time>2016-09-18T05:56:13Z</time>
      </trkpt>
      <trkpt lat="49.21112" lon="1.15967">
        <ele>25.7</ele>
        <time>2016-09-18T05:56:16Z</time>
      </trkpt>
      <trkpt lat="49.21113" lon="1.15947">
        <ele>25.8</ele>
        <time>2016-09-18T05:56:19Z</time>
      </trkpt>
      <trkpt lat="49.21114" lon="1.15928">
        <ele>25.9</ele>
        <time>2016-09-18T05:56:22Z</time>
      </trkpt>
      <trkpt lat="49.21115" lon="1.15908">
        <ele>26</ele>
        <time>2016-09-18T05:56:25Z</time>
      </trkpt>
      <trkpt lat="49.21117" lon="1.15889">
        <ele>26.3</ele>
        <time>2016-09-18T05:56:28Z</time>
      </trkpt>
      <trkpt lat="49.21118" lon="1.15875">
        <ele>26.4</ele>
        <time>2016-09-18T05:56:30Z</time>
      </trkpt>
      <trkpt lat="49.21119" lon="1.15855">
        <ele>26.5</ele>
        <time>2016-09-18T05:56:33Z</time>
      </trkpt>
      <trkpt lat="49.21121" lon="1.15835">
        <ele>26.6</ele>
        <time>2016-09-18T05:56:36Z</time>
      </trkpt>
      <trkpt lat="49.21123" lon="1.15814">
        <ele>26.8</ele>
        <time>2016-09-18T05:56:39Z</time>
      </trkpt>
      <trkpt lat="49.21125" lon="1.15794">
        <ele>26.9</ele>
        <time>2016-09-18T05:56:42Z</time>
      </trkpt>
      <trkpt lat="49.21127" lon="1.15775">
        <ele>27</ele>
        <time>2016-09-18T05:56:45Z</time>
      </trkpt>
      <trkpt lat="49.21129" lon="1.15755">
        <ele>27.2</ele>
        <time>2016-09-18T05:56:48Z</time>
      </trkpt>
      <trkpt lat="49.21131" lon="1.15736">
        <ele>27.4</ele>
        <time>2016-09-18T05:56:51Z</time>
      </trkpt>
      <trkpt lat="49.21133" lon="1.15719">
        <ele>27.6</ele>
        <time>2016-09-18T05:56:54Z</time>
      </trkpt>
      <trkpt lat="49.21135" lon="1.15701">
        <ele>27.8</ele>
        <time>2016-09-18T05:56:57Z</time>
      </trkpt>
      <trkpt lat="49.21137" lon="1.15684">
        <ele>28.1</ele>
        <time>2016-09-18T05:57:00Z</time>
      </trkpt>
      <trkpt lat="49.21139" lon="1.15668">
        <ele>28.5</ele>
        <time>2016-09-18T05:57:03Z</time>
      </trkpt>
      <trkpt lat="49.21141" lon="1.15652">
        <ele>28.8</ele>
        <time>2016-09-18T05:57:06Z</time>
      </trkpt>
      <trkpt lat="49.21143" lon="1.15636">
        <ele>29.1</ele>
        <time>2016-09-18T05:57:09Z</time>
      </trkpt>
      <trkpt lat="49.21146" lon="1.1562">
        <ele>29.6</ele>
        <time>2016-09-18T05:57:12Z</time>
      </trkpt>
      <trkpt lat="49.21148" lon="1.15605">
        <ele>29.9</ele>
        <time>2016-09-18T05:57:15Z</time>
      </trkpt>
      <trkpt lat="49.21153" lon="1.15591">
        <ele>30.3</ele>
        <time>2016-09-18T05:57:18Z</time>
      </trkpt>
      <trkpt lat="49.21161" lon="1.15582">
        <ele>30.8</ele>
        <time>2016-09-18T05:57:21Z</time>
      </trkpt>
      <trkpt lat="49.21171" lon="1.15579">
        <ele>31.3</ele>
        <time>2016-09-18T05:57:24Z</time>
      </trkpt>
      <trkpt lat="49.21181" lon="1.15578">
        <ele>31.7</ele>
        <time>2016-09-18T05:57:27Z</time>
      </trkpt>
      <trkpt lat="49.21192" lon="1.15576">
        <ele>32.2</ele>
        <time>2016-09-18T05:57:30Z</time>
      </trkpt>
      <trkpt lat="49.21203" lon="1.15575">
        <ele>32.7</ele>
        <time>2016-09-18T05:57:33Z</time>
      </trkpt>
      <trkpt lat="49.21217" lon="1.15573">
        <ele>33</ele>
        <time>2016-09-18T05:57:37Z</time>
      </trkpt>
      <trkpt lat="49.21227" lon="1.15571">
        <ele>33.8</ele>
        <time>2016-09-18T05:57:40Z</time>
      </trkpt>
      <trkpt lat="49.21238" lon="1.1557">
        <ele>34.4</ele>
        <time>2016-09-18T05:57:43Z</time>
      </trkpt>
      <trkpt lat="49.21248" lon="1.15569">
        <ele>35</ele>
        <time>2016-09-18T05:57:46Z</time>
      </trkpt>
      <trkpt lat="49.21258" lon="1.15568">
        <ele>35.5</ele>
        <time>2016-09-18T05:57:49Z</time>
      </trkpt>
      <trkpt lat="49.21269" lon="1.15566">
        <ele>36</ele>
        <time>2016-09-18T05:57:52Z</time>
      </trkpt>
      <trkpt lat="49.21279" lon="1.15564">
        <ele>36.6</ele>
        <time>2016-09-18T05:57:55Z</time>
      </trkpt>
      <trkpt lat="49.2129" lon="1.15562">
        <ele>37.1</ele>
        <time>2016-09-18T05:57:58Z</time>
      </trkpt>
      <trkpt lat="49.213" lon="1.15561">
        <ele>37.6</ele>
        <time>2016-09-18T05:58:01Z</time>
      </trkpt>
      <trkpt lat="49.2131" lon="1.1556">
        <ele>38.1</ele>
        <time>2016-09-18T05:58:04Z</time>
      </trkpt>
      <trkpt lat="49.2132" lon="1.15559">
        <ele>38.6</ele>
        <time>2016-09-18T05:58:07Z</time>
      </trkpt>
      <trkpt lat="49.2133" lon="1.15557">
        <ele>39.1</ele>
        <time>2016-09-18T05:58:10Z</time>
      </trkpt>
      <trkpt lat="49.2134" lon="1.15556">
        <ele>39.6</ele>
        <time>2016-09-18T05:58:13Z</time>
      </trkpt>
      <trkpt lat="49.21349" lon="1.15554">
        <ele>40.2</ele>
        <time>2016-09-18T05:58:16Z</time>
      </trkpt>
      <trkpt lat="49.21359" lon="1.15553">
        <ele>40.7</ele>
        <time>2016-09-18T05:58:19Z</time>
      </trkpt>
      <trkpt lat="49.21369" lon="1.15552">
        <ele>41.2</ele>
        <time>2016-09-18T05:58:22Z</time>
      </trkpt>
      <trkpt lat="49.21379" lon="1.1555">
        <ele>41.8</ele>
        <time>2016-09-18T05:58:25Z</time>
      </trkpt>
      <trkpt lat="49.21388" lon="1.15549">
        <ele>42.4</ele>
        <time>2016-09-18T05:58:28Z</time>
      </trkpt>
      <trkpt lat="49.21398" lon="1.15548">
        <ele>42.9</ele>
        <time>2016-09-18T05:58:31Z</time>
      </trkpt>
      <trkpt lat="49.21408" lon="1.15546">
        <ele>43.4</ele>
        <time>2016-09-18T05:58:34Z</time>
      </trkpt>
      <trkpt lat="49.21417" lon="1.15545">
        <ele>43.9</ele>
        <time>2016-09-18T05:58:37Z</time>
      </trkpt>
      <trkpt lat="49.21427" lon="1.15544">
        <ele>44.4</ele>
        <time>2016-09-18T05:58:40Z</time>
      </trkpt>
      <trkpt lat="49.21437" lon="1.15542">
        <ele>44.9</ele>
        <time>2016-09-18T05:58:43Z</time>
      </trkpt>
      <trkpt lat="49.21447" lon="1.15541">
        <ele>45.4</ele>
        <time>2016-09-18T05:58:46Z</time>
      </trkpt>
      <trkpt lat="49.21457" lon="1.15539">
        <ele>45.8</ele>
        <time>2016-09-18T05:58:49Z</time>
      </trkpt>
      <trkpt lat="49.21466" lon="1.15537">
        <ele>46.3</ele>
        <time>2016-09-18T05:58:52Z</time>
      </trkpt>
      <trkpt lat="49.21476" lon="1.15536">
        <ele>46.8</ele>
        <time>2016-09-18T05:58:55Z</time>
      </trkpt>
      <trkpt lat="49.21486" lon="1.15534">
        <ele>47.2</ele>
        <time>2016-09-18T05:58:58Z</time>
      </trkpt>
      <trkpt lat="49.21496" lon="1.15533">
        <ele>47.7</ele>
        <time>2016-09-18T05:59:01Z</time>
      </trkpt>
      <trkpt lat="49.21506" lon="1.15532">
        <ele>48.2</ele>
        <time>2016-09-18T05:59:04Z</time>
      </trkpt>
      <trkpt lat="49.21517" lon="1.15533">
        <ele>48.7</ele>
        <time>2016-09-18T05:59:07Z</time>
      </trkpt>
      <trkpt lat="49.21527" lon="1.15532">
        <ele>49.1</ele>
        <time>2016-09-18T05:59:10Z</time>
      </trkpt>
      <trkpt lat="49.21537" lon="1.15529">
        <ele>49.6</ele>
        <time>2016-09-18T05:59:13Z</time>
      </trkpt>
      <trkpt lat="49.21547" lon="1.15528">
        <ele>50</ele>
        <time>2016-09-18T05:59:16Z</time>
      </trkpt>
      <trkpt lat="49.21557" lon="1.15526">
        <ele>50.5</ele>
        <time>2016-09-18T05:59:19Z</time>
      </trkpt>
      <trkpt lat="49.21566" lon="1.15526">
        <ele>51</ele>
        <time>2016-09-18T05:59:22Z</time>
      </trkpt>
      <trkpt lat="49.21576" lon="1.15526">
        <ele>51.4</ele>
        <time>2016-09-18T05:59:25Z</time>
      </trkpt>
      <trkpt lat="49.21586" lon="1.15526">
        <ele>51.8</ele>
        <time>2016-09-18T05:59:28Z</time>
      </trkpt>
      <trkpt lat="49.21595" lon="1.15527">
        <ele>52.3</ele>
        <time>2016-09-18T05:59:31Z</time>
      </trkpt>
      <trkpt lat="49.21604" lon="1.15529">
        <ele>52.7</ele>
        <time>2016-09-18T05:59:34Z</time>
      </trkpt>
      <trkpt lat="49.21617" lon="1.15531">
        <ele>53.2</ele>
        <time>2016-09-18T05:59:38Z</time>
      </trkpt>
      <trkpt lat="49.21628" lon="1.15538">
        <ele>53.6</ele>
        <time>2016-09-18T05:59:41Z</time>
      </trkpt>
      <trkpt lat="49.2164" lon="1.15545">
        <ele>54</ele>
        <time>2016-09-18T05:59:44Z</time>
      </trkpt>
      <trkpt lat="49.2165" lon="1.15547">
        <ele>54.2</ele>
        <time>2016-09-18T05:59:46Z</time>
      </trkpt>
      <trkpt lat="49.2166" lon="1.1555">
        <ele>54.4</ele>
        <time>2016-09-18T05:59:48Z</time>
      </trkpt>
      <trkpt lat="49.21671" lon="1.15557">
        <ele>54.7</ele>
        <time>2016-09-18T05:59:51Z</time>
      </trkpt>
      <trkpt lat="49.21683" lon="1.15562">
        <ele>54.8</ele>
        <time>2016-09-18T05:59:53Z</time>
      </trkpt>
      <trkpt lat="49.21692" lon="1.15567">
        <ele>54.9</ele>
        <time>2016-09-18T05:59:55Z</time>
      </trkpt>
      <trkpt lat="49.21701" lon="1.15572">
        <ele>55</ele>
        <time>2016-09-18T05:59:57Z</time>
      </trkpt>
      <trkpt lat="49.21711" lon="1.15574">
        <ele>55</ele>
        <time>2016-09-18T05:59:59Z</time>
      </trkpt>
      <trkpt lat="49.2172" lon="1.15577">
        <ele>55.1</ele>
        <time>2016-09-18T06:00:01Z</time>
      </trkpt>
      <trkpt lat="49.21729" lon="1.15581">
        <ele>55.1</ele>
        <time>2016-09-18T06:00:03Z</time>
      </trkpt>
      <trkpt lat="49.21742" lon="1.15582">
        <ele>55.2</ele>
        <time>2016-09-18T06:00:06Z</time>
      </trkpt>
      <trkpt lat="49.21752" lon="1.15583">
        <ele>55.2</ele>
        <time>2016-09-18T06:00:08Z</time>
      </trkpt>
      <trkpt lat="49.21766" lon="1.15586">
        <ele>55.3</ele>
        <time>2016-09-18T06:00:12Z</time>
      </trkpt>
      <trkpt lat="49.21778" lon="1.15589">
        <ele>55.4</ele>
        <time>2016-09-18T06:00:15Z</time>
      </trkpt>
      <trkpt lat="49.2179" lon="1.15592">
        <ele>55.5</ele>
        <time>2016-09-18T06:00:17Z</time>
      </trkpt>
      <trkpt lat="49.21801" lon="1.15594">
        <ele>55.5</ele>
        <time>2016-09-18T06:00:19Z</time>
      </trkpt>
      <trkpt lat="49.21813" lon="1.15599">
        <ele>55.6</ele>
        <time>2016-09-18T06:00:21Z</time>
      </trkpt>
      <trkpt lat="49.21825" lon="1.15604">
        <ele>55.6</ele>
        <time>2016-09-18T06:00:23Z</time>
      </trkpt>
      <trkpt lat="49.21836" lon="1.15608">
        <ele>55.7</ele>
        <time>2016-09-18T06:00:25Z</time>
      </trkpt>
      <trkpt lat="49.21846" lon="1.15611">
        <ele>55.7</ele>
        <time>2016-09-18T06:00:27Z</time>
      </trkpt>
      <trkpt lat="49.21857" lon="1.15615">
        <ele>55.8</ele>
        <time>2016-09-18T06:00:29Z</time>
      </trkpt>
      <trkpt lat="49.21869" lon="1.15621">
        <ele>55.8</ele>
        <time>2016-09-18T06:00:31Z</time>
      </trkpt>
      <trkpt lat="49.21879" lon="1.15624">
        <ele>55.7</ele>
        <time>2016-09-18T06:00:33Z</time>
      </trkpt>
      <trkpt lat="49.21891" lon="1.15626">
        <ele>55.7</ele>
        <time>2016-09-18T06:00:35Z</time>
      </trkpt>
      <trkpt lat="49.21904" lon="1.15626">
        <ele>55.6</ele>
        <time>2016-09-18T06:00:37Z</time>
      </trkpt>
      <trkpt lat="49.21915" lon="1.15631">
        <ele>55.5</ele>
        <time>2016-09-18T06:00:39Z</time>
      </trkpt>
      <trkpt lat="49.21927" lon="1.15633">
        <ele>55.4</ele>
        <time>2016-09-18T06:00:41Z</time>
      </trkpt>
      <trkpt lat="49.2194" lon="1.15635">
        <ele>55.2</ele>
        <time>2016-09-18T06:00:43Z</time>
      </trkpt>
      <trkpt lat="49.2195" lon="1.15642">
        <ele>55</ele>
        <time>2016-09-18T06:00:45Z</time>
      </trkpt>
      <trkpt lat="49.21956" lon="1.15654">
        <ele>54.8</ele>
        <time>2016-09-18T06:00:47Z</time>
      </trkpt>
      <trkpt lat="49.21961" lon="1.15669">
        <ele>54.5</ele>
        <time>2016-09-18T06:00:49Z</time>
      </trkpt>
      <trkpt lat="49.21963" lon="1.15687">
        <ele>53.9</ele>
        <time>2016-09-18T06:00:51Z</time>
      </trkpt>
      <trkpt lat="49.21966" lon="1.157">
        <ele>53.1</ele>
        <time>2016-09-18T06:00:53Z</time>
      </trkpt>
      <trkpt lat="49.21965" lon="1.15714">
        <ele>52.7</ele>
        <time>2016-09-18T06:00:54Z</time>
      </trkpt>
      <trkpt lat="49.21965" lon="1.15737">
        <ele>51.8</ele>
        <time>2016-09-18T06:00:56Z</time>
      </trkpt>
      <trkpt lat="49.21965" lon="1.15762">
        <ele>50.6</ele>
        <time>2016-09-18T06:00:58Z</time>
      </trkpt>
      <trkpt lat="49.21964" lon="1.15776">
        <ele>50</ele>
        <time>2016-09-18T06:00:59Z</time>
      </trkpt>
      <trkpt lat="49.21961" lon="1.15792">
        <ele>49.4</ele>
        <time>2016-09-18T06:01:00Z</time>
      </trkpt>
      <trkpt lat="49.2196" lon="1.15806">
        <ele>48.8</ele>
        <time>2016-09-18T06:01:01Z</time>
      </trkpt>
      <trkpt lat="49.21959" lon="1.1582">
        <ele>48.1</ele>
        <time>2016-09-18T06:01:02Z</time>
      </trkpt>
      <trkpt lat="49.21958" lon="1.15834">
        <ele>47.4</ele>
        <time>2016-09-18T06:01:03Z</time>
      </trkpt>
      <trkpt lat="49.21957" lon="1.15861">
        <ele>46</ele>
        <time>2016-09-18T06:01:05Z</time>
      </trkpt>
      <trkpt lat="49.21956" lon="1.15875">
        <ele>45.3</ele>
        <time>2016-09-18T06:01:06Z</time>
      </trkpt>
      <trkpt lat="49.21955" lon="1.1589">
        <ele>44.5</ele>
        <time>2016-09-18T06:01:07Z</time>
      </trkpt>
      <trkpt lat="49.21954" lon="1.15905">
        <ele>43.8</ele>
        <time>2016-09-18T06:01:08Z</time>
      </trkpt>
      <trkpt lat="49.21953" lon="1.1592">
        <ele>43</ele>
        <time>2016-09-18T06:01:09Z</time>
      </trkpt>
      <trkpt lat="49.21952" lon="1.15934">
        <ele>42.3</ele>
        <time>2016-09-18T06:01:10Z</time>
      </trkpt>
      <trkpt lat="49.21951" lon="1.15959">
        <ele>40.9</ele>
        <time>2016-09-18T06:01:12Z</time>
      </trkpt>
      <trkpt lat="49.2195" lon="1.15985">
        <ele>39.5</ele>
        <time>2016-09-18T06:01:14Z</time>
      </trkpt>
      <trkpt lat="49.21948" lon="1.1601">
        <ele>38.2</ele>
        <time>2016-09-18T06:01:16Z</time>
      </trkpt>
      <trkpt lat="49.21946" lon="1.16034">
        <ele>37</ele>
        <time>2016-09-18T06:01:18Z</time>
      </trkpt>
      <trkpt lat="49.21945" lon="1.1606">
        <ele>35.8</ele>
        <time>2016-09-18T06:01:20Z</time>
      </trkpt>
      <trkpt lat="49.21943" lon="1.16083">
        <ele>34.8</ele>
        <time>2016-09-18T06:01:22Z</time>
      </trkpt>
      <trkpt lat="49.21941" lon="1.16106">
        <ele>33.8</ele>
        <time>2016-09-18T06:01:24Z</time>
      </trkpt>
      <trkpt lat="49.2194" lon="1.16129">
        <ele>32.9</ele>
        <time>2016-09-18T06:01:26Z</time>
      </trkpt>
      <trkpt lat="49.21938" lon="1.16151">
        <ele>32.1</ele>
        <time>2016-09-18T06:01:28Z</time>
      </trkpt>
      <trkpt lat="49.21937" lon="1.16172">
        <ele>31.3</ele>
        <time>2016-09-18T06:01:30Z</time>
      </trkpt>
      <trkpt lat="49.21936" lon="1.16193">
        <ele>30.5</ele>
        <time>2016-09-18T06:01:32Z</time>
      </trkpt>
      <trkpt lat="49.21935" lon="1.16214">
        <ele>29.8</ele>
        <time>2016-09-18T06:01:34Z</time>
      </trkpt>
      <trkpt lat="49.21934" lon="1.16235">
        <ele>29.2</ele>
        <time>2016-09-18T06:01:36Z</time>
      </trkpt>
      <trkpt lat="49.21933" lon="1.16255">
        <ele>28.7</ele>
        <time>2016-09-18T06:01:38Z</time>
      </trkpt>
      <trkpt lat="49.21931" lon="1.16275">
        <ele>28.2</ele>
        <time>2016-09-18T06:01:40Z</time>
      </trkpt>
      <trkpt lat="49.2193" lon="1.16294">
        <ele>27.7</ele>
        <time>2016-09-18T06:01:42Z</time>
      </trkpt>
      <trkpt lat="49.21929" lon="1.16312">
        <ele>27.3</ele>
        <time>2016-09-18T06:01:44Z</time>
      </trkpt>
      <trkpt lat="49.21927" lon="1.16328">
        <ele>26.6</ele>
        <time>2016-09-18T06:01:47Z</time>
      </trkpt>
      <trkpt lat="49.21933" lon="1.1634">
        <ele>25.7</ele>
        <time>2016-09-18T06:01:52Z</time>
      </trkpt>
      <trkpt lat="49.21946" lon="1.16342">
        <ele>25.3</ele>
        <time>2016-09-18T06:01:55Z</time>
      </trkpt>
      <trkpt lat="49.21959" lon="1.16343">
        <ele>25</ele>
        <time>2016-09-18T06:01:58Z</time>
      </trkpt>
      <trkpt lat="49.21968" lon="1.16344">
        <ele>24.7</ele>
        <time>2016-09-18T06:02:00Z</time>
      </trkpt>
      <trkpt lat="49.21978" lon="1.16345">
        <ele>24.6</ele>
        <time>2016-09-18T06:02:02Z</time>
      </trkpt>
      <trkpt lat="49.21987" lon="1.16345">
        <ele>24.4</ele>
        <time>2016-09-18T06:02:04Z</time>
      </trkpt>
      <trkpt lat="49.21996" lon="1.16346">
        <ele>24.3</ele>
        <time>2016-09-18T06:02:06Z</time>
      </trkpt>
      <trkpt lat="49.22005" lon="1.16347">
        <ele>24.1</ele>
        <time>2016-09-18T06:02:08Z</time>
      </trkpt>
      <trkpt lat="49.22015" lon="1.16347">
        <ele>24</ele>
        <time>2016-09-18T06:02:10Z</time>
      </trkpt>
      <trkpt lat="49.22025" lon="1.16348">
        <ele>23.9</ele>
        <time>2016-09-18T06:02:12Z</time>
      </trkpt>
      <trkpt lat="49.22034" lon="1.16348">
        <ele>23.8</ele>
        <time>2016-09-18T06:02:14Z</time>
      </trkpt>
      <trkpt lat="49.22044" lon="1.16349">
        <ele>23.7</ele>
        <time>2016-09-18T06:02:16Z</time>
      </trkpt>
      <trkpt lat="49.22054" lon="1.16349">
        <ele>23.6</ele>
        <time>2016-09-18T06:02:18Z</time>
      </trkpt>
      <trkpt lat="49.22064" lon="1.1635">
        <ele>23.5</ele>
        <time>2016-09-18T06:02:20Z</time>
      </trkpt>
      <trkpt lat="49.22074" lon="1.1635">
        <ele>23.5</ele>
        <time>2016-09-18T06:02:22Z</time>
      </trkpt>
      <trkpt lat="49.22083" lon="1.16351">
        <ele>23.4</ele>
        <time>2016-09-18T06:02:24Z</time>
      </trkpt>
      <trkpt lat="49.22093" lon="1.16352">
        <ele>23.4</ele>
        <time>2016-09-18T06:02:26Z</time>
      </trkpt>
      <trkpt lat="49.22103" lon="1.16353">
        <ele>23.3</ele>
        <time>2016-09-18T06:02:28Z</time>
      </trkpt>
      <trkpt lat="49.22112" lon="1.16353">
        <ele>23.3</ele>
        <time>2016-09-18T06:02:30Z</time>
      </trkpt>
      <trkpt lat="49.22122" lon="1.16349">
        <ele>23.3</ele>
        <time>2016-09-18T06:02:32Z</time>
      </trkpt>
      <trkpt lat="49.22131" lon="1.16341">
        <ele>23.2</ele>
        <time>2016-09-18T06:02:34Z</time>
      </trkpt>
      <trkpt lat="49.2214" lon="1.16333">
        <ele>23.2</ele>
        <time>2016-09-18T06:02:36Z</time>
      </trkpt>
      <trkpt lat="49.22148" lon="1.16325">
        <ele>23.2</ele>
        <time>2016-09-18T06:02:38Z</time>
      </trkpt>
      <trkpt lat="49.22156" lon="1.16317">
        <ele>23.2</ele>
        <time>2016-09-18T06:02:40Z</time>
      </trkpt>
      <trkpt lat="49.22165" lon="1.1631">
        <ele>23.1</ele>
        <time>2016-09-18T06:02:42Z</time>
      </trkpt>
      <trkpt lat="49.22173" lon="1.16303">
        <ele>23.1</ele>
        <time>2016-09-18T06:02:44Z</time>
      </trkpt>
      <trkpt lat="49.22181" lon="1.16295">
        <ele>23.1</ele>
        <time>2016-09-18T06:02:46Z</time>
      </trkpt>
      <trkpt lat="49.22189" lon="1.16288">
        <ele>23.1</ele>
        <time>2016-09-18T06:02:48Z</time>
      </trkpt>
      <trkpt lat="49.22198" lon="1.16281">
        <ele>23.1</ele>
        <time>2016-09-18T06:02:50Z</time>
      </trkpt>
      <trkpt lat="49.22206" lon="1.16274">
        <ele>23.1</ele>
        <time>2016-09-18T06:02:52Z</time>
      </trkpt>
      <trkpt lat="49.22215" lon="1.16266">
        <ele>23.1</ele>
        <time>2016-09-18T06:02:54Z</time>
      </trkpt>
      <trkpt lat="49.22223" lon="1.16259">
        <ele>23.1</ele>
        <time>2016-09-18T06:02:56Z</time>
      </trkpt>
      <trkpt lat="49.22232" lon="1.16251">
        <ele>23.1</ele>
        <time>2016-09-18T06:02:58Z</time>
      </trkpt>
      <trkpt lat="49.2224" lon="1.16244">
        <ele>23.1</ele>
        <time>2016-09-18T06:03:00Z</time>
      </trkpt>
      <trkpt lat="49.22248" lon="1.16237">
        <ele>23.1</ele>
        <time>2016-09-18T06:03:02Z</time>
      </trkpt>
      <trkpt lat="49.22256" lon="1.1623">
        <ele>23</ele>
        <time>2016-09-18T06:03:04Z</time>
      </trkpt>
      <trkpt lat="49.22265" lon="1.16223">
        <ele>23</ele>
        <time>2016-09-18T06:03:06Z</time>
      </trkpt>
      <trkpt lat="49.22273" lon="1.16216">
        <ele>23</ele>
        <time>2016-09-18T06:03:08Z</time>
      </trkpt>
      <trkpt lat="49.22282" lon="1.16209">
        <ele>23</ele>
        <time>2016-09-18T06:03:10Z</time>
      </trkpt>
      <trkpt lat="49.22291" lon="1.16203">
        <ele>23.1</ele>
        <time>2016-09-18T06:03:12Z</time>
      </trkpt>
      <trkpt lat="49.223" lon="1.16196">
        <ele>23.1</ele>
        <time>2016-09-18T06:03:14Z</time>
      </trkpt>
      <trkpt lat="49.22309" lon="1.16189">
        <ele>23.2</ele>
        <time>2016-09-18T06:03:16Z</time>
      </trkpt>
      <trkpt lat="49.22319" lon="1.16183">
        <ele>23.3</ele>
        <time>2016-09-18T06:03:18Z</time>
      </trkpt>
      <trkpt lat="49.22328" lon="1.16176">
        <ele>23.3</ele>
        <time>2016-09-18T06:03:20Z</time>
      </trkpt>
      <trkpt lat="49.22337" lon="1.16169">
        <ele>23.4</ele>
        <time>2016-09-18T06:03:22Z</time>
      </trkpt>
      <trkpt lat="49.22346" lon="1.16162">
        <ele>23.4</ele>
        <time>2016-09-18T06:03:24Z</time>
      </trkpt>
      <trkpt lat="49.22355" lon="1.16156">
        <ele>23.4</ele>
        <time>2016-09-18T06:03:26Z</time>
      </trkpt>
      <trkpt lat="49.22364" lon="1.16149">
        <ele>23.5</ele>
        <time>2016-09-18T06:03:28Z</time>
      </trkpt>
      <trkpt lat="49.22373" lon="1.16142">
        <ele>23.5</ele>
        <time>2016-09-18T06:03:30Z</time>
      </trkpt>
      <trkpt lat="49.22382" lon="1.16135">
        <ele>23.5</ele>
        <time>2016-09-18T06:03:32Z</time>
      </trkpt>
      <trkpt lat="49.22391" lon="1.16129">
        <ele>23.5</ele>
        <time>2016-09-18T06:03:34Z</time>
      </trkpt>
      <trkpt lat="49.224" lon="1.16128">
        <ele>23.6</ele>
        <time>2016-09-18T06:03:36Z</time>
      </trkpt>
      <trkpt lat="49.22409" lon="1.16132">
        <ele>23.6</ele>
        <time>2016-09-18T06:03:38Z</time>
      </trkpt>
      <trkpt lat="49.22419" lon="1.16137">
        <ele>23.6</ele>
        <time>2016-09-18T06:03:40Z</time>
      </trkpt>
      <trkpt lat="49.22429" lon="1.16143">
        <ele>23.7</ele>
        <time>2016-09-18T06:03:42Z</time>
      </trkpt>
      <trkpt lat="49.2244" lon="1.16149">
        <ele>23.7</ele>
        <time>2016-09-18T06:03:44Z</time>
      </trkpt>
      <trkpt lat="49.22451" lon="1.16154">
        <ele>23.7</ele>
        <time>2016-09-18T06:03:46Z</time>
      </trkpt>
      <trkpt lat="49.22462" lon="1.16159">
        <ele>23.6</ele>
        <time>2016-09-18T06:03:48Z</time>
      </trkpt>
      <trkpt lat="49.22473" lon="1.16164">
        <ele>23.6</ele>
        <time>2016-09-18T06:03:50Z</time>
      </trkpt>
      <trkpt lat="49.22484" lon="1.1617">
        <ele>23.5</ele>
        <time>2016-09-18T06:03:52Z</time>
      </trkpt>
      <trkpt lat="49.22494" lon="1.16177">
        <ele>23.4</ele>
        <time>2016-09-18T06:03:54Z</time>
      </trkpt>
      <trkpt lat="49.22505" lon="1.16179">
        <ele>23.2</ele>
        <time>2016-09-18T06:03:56Z</time>
      </trkpt>
      <trkpt lat="49.22515" lon="1.16174">
        <ele>23.1</ele>
        <time>2016-09-18T06:03:58Z</time>
      </trkpt>
      <trkpt lat="49.22525" lon="1.16167">
        <ele>23</ele>
        <time>2016-09-18T06:04:00Z</time>
      </trkpt>
      <trkpt lat="49.22534" lon="1.16159">
        <ele>22.9</ele>
        <time>2016-09-18T06:04:02Z</time>
      </trkpt>
      <trkpt lat="49.22542" lon="1.16151">
        <ele>22.8</ele>
        <time>2016-09-18T06:04:04Z</time>
      </trkpt>
      <trkpt lat="49.22551" lon="1.16142">
        <ele>22.7</ele>
        <time>2016-09-18T06:04:06Z</time>
      </trkpt>
      <trkpt lat="49.22559" lon="1.16132">
        <ele>22.6</ele>
        <time>2016-09-18T06:04:08Z</time>
      </trkpt>
      <trkpt lat="49.22566" lon="1.16121">
        <ele>22.6</ele>
        <time>2016-09-18T06:04:10Z</time>
      </trkpt>
      <trkpt lat="49.22573" lon="1.1611">
        <ele>22.5</ele>
        <time>2016-09-18T06:04:12Z</time>
      </trkpt>
      <trkpt lat="49.2258" lon="1.16098">
        <ele>22.5</ele>
        <time>2016-09-18T06:04:14Z</time>
      </trkpt>
      <trkpt lat="49.22585" lon="1.16085">
        <ele>22.4</ele>
        <time>2016-09-18T06:04:16Z</time>
      </trkpt>
      <trkpt lat="49.2259" lon="1.16072">
        <ele>22.4</ele>
        <time>2016-09-18T06:04:18Z</time>
      </trkpt>
      <trkpt lat="49.22595" lon="1.16059">
        <ele>22.4</ele>
        <time>2016-09-18T06:04:20Z</time>
      </trkpt>
      <trkpt lat="49.22599" lon="1.16046">
        <ele>22.3</ele>
        <time>2016-09-18T06:04:22Z</time>
      </trkpt>
      <trkpt lat="49.22603" lon="1.16033">
        <ele>22.3</ele>
        <time>2016-09-18T06:04:24Z</time>
      </trkpt>
      <trkpt lat="49.22606" lon="1.16019">
        <ele>22.3</ele>
        <time>2016-09-18T06:04:26Z</time>
      </trkpt>
      <trkpt lat="49.22608" lon="1.16005">
        <ele>22.4</ele>
        <time>2016-09-18T06:04:28Z</time>
      </trkpt>
      <trkpt lat="49.22611" lon="1.1599">
        <ele>22.4</ele>
        <time>2016-09-18T06:04:30Z</time>
      </trkpt>
      <trkpt lat="49.22612" lon="1.15975">
        <ele>22.5</ele>
        <time>2016-09-18T06:04:32Z</time>
      </trkpt>
      <trkpt lat="49.22613" lon="1.15962">
        <ele>22.6</ele>
        <time>2016-09-18T06:04:34Z</time>
      </trkpt>
      <trkpt lat="49.22615" lon="1.15941">
        <ele>22.7</ele>
        <time>2016-09-18T06:04:37Z</time>
      </trkpt>
      <trkpt lat="49.22616" lon="1.15927">
        <ele>22.7</ele>
        <time>2016-09-18T06:04:39Z</time>
      </trkpt>
      <trkpt lat="49.22618" lon="1.15913">
        <ele>22.8</ele>
        <time>2016-09-18T06:04:41Z</time>
      </trkpt>
      <trkpt lat="49.22619" lon="1.15899">
        <ele>22.9</ele>
        <time>2016-09-18T06:04:43Z</time>
      </trkpt>
      <trkpt lat="49.2262" lon="1.15885">
        <ele>22.9</ele>
        <time>2016-09-18T06:04:45Z</time>
      </trkpt>
      <trkpt lat="49.22622" lon="1.15871">
        <ele>23</ele>
        <time>2016-09-18T06:04:47Z</time>
      </trkpt>
      <trkpt lat="49.22623" lon="1.15857">
        <ele>23.1</ele>
        <time>2016-09-18T06:04:49Z</time>
      </trkpt>
      <trkpt lat="49.22624" lon="1.15843">
        <ele>23.3</ele>
        <time>2016-09-18T06:04:51Z</time>
      </trkpt>
      <trkpt lat="49.22625" lon="1.15829">
        <ele>23.4</ele>
        <time>2016-09-18T06:04:53Z</time>
      </trkpt>
      <trkpt lat="49.22628" lon="1.15809">
        <ele>23.6</ele>
        <time>2016-09-18T06:04:56Z</time>
      </trkpt>
      <trkpt lat="49.22631" lon="1.15789">
        <ele>23.8</ele>
        <time>2016-09-18T06:04:59Z</time>
      </trkpt>
      <trkpt lat="49.22634" lon="1.15769">
        <ele>24</ele>
        <time>2016-09-18T06:05:02Z</time>
      </trkpt>
      <trkpt lat="49.22637" lon="1.1575">
        <ele>24.3</ele>
        <time>2016-09-18T06:05:05Z</time>
      </trkpt>
      <trkpt lat="49.22638" lon="1.15732">
        <ele>24.6</ele>
        <time>2016-09-18T06:05:08Z</time>
      </trkpt>
      <trkpt lat="49.2264" lon="1.15715">
        <ele>24.9</ele>
        <time>2016-09-18T06:05:11Z</time>
      </trkpt>
      <trkpt lat="49.22642" lon="1.15697">
        <ele>25.3</ele>
        <time>2016-09-18T06:05:14Z</time>
      </trkpt>
      <trkpt lat="49.22645" lon="1.15679">
        <ele>25.7</ele>
        <time>2016-09-18T06:05:17Z</time>
      </trkpt>
      <trkpt lat="49.22648" lon="1.15662">
        <ele>26.1</ele>
        <time>2016-09-18T06:05:20Z</time>
      </trkpt>
      <trkpt lat="49.22651" lon="1.15645">
        <ele>26.5</ele>
        <time>2016-09-18T06:05:23Z</time>
      </trkpt>
      <trkpt lat="49.22653" lon="1.15628">
        <ele>26.9</ele>
        <time>2016-09-18T06:05:26Z</time>
      </trkpt>
      <trkpt lat="49.22656" lon="1.15611">
        <ele>27.3</ele>
        <time>2016-09-18T06:05:29Z</time>
      </trkpt>
      <trkpt lat="49.22657" lon="1.15594">
        <ele>27.7</ele>
        <time>2016-09-18T06:05:32Z</time>
      </trkpt>
      <trkpt lat="49.22659" lon="1.15577">
        <ele>28.1</ele>
        <time>2016-09-18T06:05:35Z</time>
      </trkpt>
      <trkpt lat="49.22659" lon="1.15559">
        <ele>28.4</ele>
        <time>2016-09-18T06:05:38Z</time>
      </trkpt>
      <trkpt lat="49.2266" lon="1.15541">
        <ele>28.8</ele>
        <time>2016-09-18T06:05:41Z</time>
      </trkpt>
      <trkpt lat="49.2266" lon="1.15523">
        <ele>29.1</ele>
        <time>2016-09-18T06:05:44Z</time>
      </trkpt>
      <trkpt lat="49.2266" lon="1.15505">
        <ele>29.4</ele>
        <time>2016-09-18T06:05:47Z</time>
      </trkpt>
      <trkpt lat="49.2266" lon="1.15487">
        <ele>29.8</ele>
        <time>2016-09-18T06:05:50Z</time>
      </trkpt>
      <trkpt lat="49.22659" lon="1.1547">
        <ele>30.1</ele>
        <time>2016-09-18T06:05:53Z</time>
      </trkpt>
      <trkpt lat="49.22657" lon="1.15452">
        <ele>30.5</ele>
        <time>2016-09-18T06:05:56Z</time>
      </trkpt>
      <trkpt lat="49.22656" lon="1.15434">
        <ele>30.8</ele>
        <time>2016-09-18T06:05:59Z</time>
      </trkpt>
      <trkpt lat="49.22655" lon="1.15417">
        <ele>31.1</ele>
        <time>2016-09-18T06:06:02Z</time>
      </trkpt>
      <trkpt lat="49.22656" lon="1.15401">
        <ele>31.5</ele>
        <time>2016-09-18T06:06:05Z</time>
      </trkpt>
      <trkpt lat="49.22655" lon="1.15385">
        <ele>31.8</ele>
        <time>2016-09-18T06:06:08Z</time>
      </trkpt>
      <trkpt lat="49.22656" lon="1.15369">
        <ele>32.3</ele>
        <time>2016-09-18T06:06:12Z</time>
      </trkpt>
      <trkpt lat="49.22653" lon="1.15354">
        <ele>32.9</ele>
        <time>2016-09-18T06:06:16Z</time>
      </trkpt>
      <trkpt lat="49.22647" lon="1.15343">
        <ele>33.2</ele>
        <time>2016-09-18T06:06:18Z</time>
      </trkpt>
      <trkpt lat="49.2264" lon="1.15332">
        <ele>33.5</ele>
        <time>2016-09-18T06:06:20Z</time>
      </trkpt>
      <trkpt lat="49.22635" lon="1.1532">
        <ele>33.9</ele>
        <time>2016-09-18T06:06:22Z</time>
      </trkpt>
      <trkpt lat="49.22631" lon="1.15307">
        <ele>34.2</ele>
        <time>2016-09-18T06:06:24Z</time>
      </trkpt>
      <trkpt lat="49.22625" lon="1.1529">
        <ele>34.6</ele>
        <time>2016-09-18T06:06:27Z</time>
      </trkpt>
      <trkpt lat="49.2262" lon="1.15273">
        <ele>35</ele>
        <time>2016-09-18T06:06:30Z</time>
      </trkpt>
      <trkpt lat="49.22613" lon="1.15257">
        <ele>35.3</ele>
        <time>2016-09-18T06:06:33Z</time>
      </trkpt>
      <trkpt lat="49.22607" lon="1.1524">
        <ele>35.7</ele>
        <time>2016-09-18T06:06:36Z</time>
      </trkpt>
      <trkpt lat="49.22601" lon="1.15224">
        <ele>36.1</ele>
        <time>2016-09-18T06:06:39Z</time>
      </trkpt>
      <trkpt lat="49.22595" lon="1.15208">
        <ele>36.4</ele>
        <time>2016-09-18T06:06:42Z</time>
      </trkpt>
      <trkpt lat="49.2259" lon="1.15191">
        <ele>36.8</ele>
        <time>2016-09-18T06:06:45Z</time>
      </trkpt>
      <trkpt lat="49.22585" lon="1.15175">
        <ele>37.1</ele>
        <time>2016-09-18T06:06:48Z</time>
      </trkpt>
      <trkpt lat="49.2258" lon="1.15159">
        <ele>37.4</ele>
        <time>2016-09-18T06:06:51Z</time>
      </trkpt>
      <trkpt lat="49.22577" lon="1.15142">
        <ele>37.8</ele>
        <time>2016-09-18T06:06:54Z</time>
      </trkpt>
      <trkpt lat="49.22575" lon="1.15125">
        <ele>38.1</ele>
        <time>2016-09-18T06:06:57Z</time>
      </trkpt>
      <trkpt lat="49.22573" lon="1.15109">
        <ele>38.4</ele>
        <time>2016-09-18T06:07:00Z</time>
      </trkpt>
      <trkpt lat="49.22572" lon="1.15091">
        <ele>38.8</ele>
        <time>2016-09-18T06:07:03Z</time>
      </trkpt>
      <trkpt lat="49.22572" lon="1.15074">
        <ele>39.1</ele>
        <time>2016-09-18T06:07:06Z</time>
      </trkpt>
      <trkpt lat="49.22573" lon="1.15058">
        <ele>39.5</ele>
        <time>2016-09-18T06:07:09Z</time>
      </trkpt>
      <trkpt lat="49.22573" lon="1.15041">
        <ele>39.9</ele>
        <time>2016-09-18T06:07:12Z</time>
      </trkpt>
      <trkpt lat="49.22574" lon="1.15025">
        <ele>40.3</ele>
        <time>2016-09-18T06:07:15Z</time>
      </trkpt>
      <trkpt lat="49.22576" lon="1.15009">
        <ele>40.8</ele>
        <time>2016-09-18T06:07:18Z</time>
      </trkpt>
      <trkpt lat="49.22576" lon="1.14993">
        <ele>41.2</ele>
        <time>2016-09-18T06:07:21Z</time>
      </trkpt>
      <trkpt lat="49.22578" lon="1.14975">
        <ele>41.6</ele>
        <time>2016-09-18T06:07:24Z</time>
      </trkpt>
      <trkpt lat="49.22579" lon="1.14957">
        <ele>42</ele>
        <time>2016-09-18T06:07:27Z</time>
      </trkpt>
      <trkpt lat="49.2258" lon="1.1494">
        <ele>42.3</ele>
        <time>2016-09-18T06:07:30Z</time>
      </trkpt>
      <trkpt lat="49.22582" lon="1.14922">
        <ele>42.7</ele>
        <time>2016-09-18T06:07:33Z</time>
      </trkpt>
      <trkpt lat="49.22585" lon="1.14905">
        <ele>43.1</ele>
        <time>2016-09-18T06:07:36Z</time>
      </trkpt>
      <trkpt lat="49.22587" lon="1.14888">
        <ele>43.5</ele>
        <time>2016-09-18T06:07:39Z</time>
      </trkpt>
      <trkpt lat="49.2259" lon="1.14872">
        <ele>43.9</ele>
        <time>2016-09-18T06:07:42Z</time>
      </trkpt>
      <trkpt lat="49.22593" lon="1.14857">
        <ele>44.3</ele>
        <time>2016-09-18T06:07:45Z</time>
      </trkpt>
      <trkpt lat="49.22594" lon="1.14842">
        <ele>44.7</ele>
        <time>2016-09-18T06:07:48Z</time>
      </trkpt>
      <trkpt lat="49.22594" lon="1.14826">
        <ele>45</ele>
        <time>2016-09-18T06:07:51Z</time>
      </trkpt>
      <trkpt lat="49.22593" lon="1.14811">
        <ele>45.5</ele>
        <time>2016-09-18T06:07:54Z</time>
      </trkpt>
      <trkpt lat="49.2259" lon="1.14794">
        <ele>45.9</ele>
        <time>2016-09-18T06:07:57Z</time>
      </trkpt>
      <trkpt lat="49.22585" lon="1.14777">
        <ele>46.3</ele>
        <time>2016-09-18T06:08:00Z</time>
      </trkpt>
      <trkpt lat="49.22579" lon="1.14764">
        <ele>46.8</ele>
        <time>2016-09-18T06:08:03Z</time>
      </trkpt>
      <trkpt lat="49.22572" lon="1.14753">
        <ele>47.2</ele>
        <time>2016-09-18T06:08:06Z</time>
      </trkpt>
      <trkpt lat="49.22564" lon="1.14741">
        <ele>47.9</ele>
        <time>2016-09-18T06:08:10Z</time>
      </trkpt>
      <trkpt lat="49.22556" lon="1.14727">
        <ele>48.5</ele>
        <time>2016-09-18T06:08:14Z</time>
      </trkpt>
      <trkpt lat="49.22549" lon="1.14711">
        <ele>49</ele>
        <time>2016-09-18T06:08:18Z</time>
      </trkpt>
      <trkpt lat="49.22543" lon="1.14698">
        <ele>49.3</ele>
        <time>2016-09-18T06:08:21Z</time>
      </trkpt>
      <trkpt lat="49.22533" lon="1.14684">
        <ele>49.8</ele>
        <time>2016-09-18T06:08:24Z</time>
      </trkpt>
      <trkpt lat="49.22523" lon="1.14673">
        <ele>50.2</ele>
        <time>2016-09-18T06:08:27Z</time>
      </trkpt>
      <trkpt lat="49.22516" lon="1.14661">
        <ele>50.6</ele>
        <time>2016-09-18T06:08:30Z</time>
      </trkpt>
      <trkpt lat="49.22512" lon="1.14648">
        <ele>51.1</ele>
        <time>2016-09-18T06:08:33Z</time>
      </trkpt>
      <trkpt lat="49.22507" lon="1.14635">
        <ele>51.5</ele>
        <time>2016-09-18T06:08:36Z</time>
      </trkpt>
      <trkpt lat="49.22501" lon="1.14618">
        <ele>52</ele>
        <time>2016-09-18T06:08:39Z</time>
      </trkpt>
      <trkpt lat="49.22497" lon="1.14604">
        <ele>52.4</ele>
        <time>2016-09-18T06:08:42Z</time>
      </trkpt>
      <trkpt lat="49.22493" lon="1.14588">
        <ele>52.9</ele>
        <time>2016-09-18T06:08:45Z</time>
      </trkpt>
      <trkpt lat="49.22488" lon="1.14576">
        <ele>53.4</ele>
        <time>2016-09-18T06:08:48Z</time>
      </trkpt>
      <trkpt lat="49.22484" lon="1.14563">
        <ele>54</ele>
        <time>2016-09-18T06:08:51Z</time>
      </trkpt>
      <trkpt lat="49.22479" lon="1.14546">
        <ele>54.5</ele>
        <time>2016-09-18T06:08:54Z</time>
      </trkpt>
      <trkpt lat="49.22475" lon="1.1453">
        <ele>54.9</ele>
        <time>2016-09-18T06:08:57Z</time>
      </trkpt>
      <trkpt lat="49.22474" lon="1.14511">
        <ele>55.6</ele>
        <time>2016-09-18T06:09:01Z</time>
      </trkpt>
      <trkpt lat="49.22472" lon="1.14494">
        <ele>56</ele>
        <time>2016-09-18T06:09:04Z</time>
      </trkpt>
      <trkpt lat="49.22471" lon="1.14476">
        <ele>56.4</ele>
        <time>2016-09-18T06:09:07Z</time>
      </trkpt>
      <trkpt lat="49.22472" lon="1.14457">
        <ele>56.8</ele>
        <time>2016-09-18T06:09:10Z</time>
      </trkpt>
      <trkpt lat="49.22474" lon="1.14439">
        <ele>57.2</ele>
        <time>2016-09-18T06:09:13Z</time>
      </trkpt>
      <trkpt lat="49.22477" lon="1.14422">
        <ele>57.5</ele>
        <time>2016-09-18T06:09:16Z</time>
      </trkpt>
      <trkpt lat="49.22481" lon="1.14405">
        <ele>57.9</ele>
        <time>2016-09-18T06:09:19Z</time>
      </trkpt>
      <trkpt lat="49.22484" lon="1.14388">
        <ele>58.3</ele>
        <time>2016-09-18T06:09:22Z</time>
      </trkpt>
      <trkpt lat="49.22487" lon="1.14373">
        <ele>58.7</ele>
        <time>2016-09-18T06:09:25Z</time>
      </trkpt>
      <trkpt lat="49.22489" lon="1.14357">
        <ele>59.1</ele>
        <time>2016-09-18T06:09:28Z</time>
      </trkpt>
      <trkpt lat="49.2249" lon="1.14338">
        <ele>59.5</ele>
        <time>2016-09-18T06:09:31Z</time>
      </trkpt>
      <trkpt lat="49.22488" lon="1.1432">
        <ele>59.9</ele>
        <time>2016-09-18T06:09:34Z</time>
      </trkpt>
      <trkpt lat="49.22486" lon="1.14303">
        <ele>60.4</ele>
        <time>2016-09-18T06:09:37Z</time>
      </trkpt>
      <trkpt lat="49.22484" lon="1.14287">
        <ele>60.7</ele>
        <time>2016-09-18T06:09:40Z</time>
      </trkpt>
      <trkpt lat="49.22482" lon="1.1427">
        <ele>61.1</ele>
        <time>2016-09-18T06:09:43Z</time>
      </trkpt>
      <trkpt lat="49.2248" lon="1.14255">
        <ele>61.4</ele>
        <time>2016-09-18T06:09:46Z</time>
      </trkpt>
      <trkpt lat="49.22476" lon="1.14239">
        <ele>61.8</ele>
        <time>2016-09-18T06:09:49Z</time>
      </trkpt>
      <trkpt lat="49.22472" lon="1.14224">
        <ele>62.2</ele>
        <time>2016-09-18T06:09:52Z</time>
      </trkpt>
      <trkpt lat="49.22466" lon="1.14211">
        <ele>62.6</ele>
        <time>2016-09-18T06:09:55Z</time>
      </trkpt>
      <trkpt lat="49.22461" lon="1.14198">
        <ele>62.9</ele>
        <time>2016-09-18T06:09:58Z</time>
      </trkpt>
      <trkpt lat="49.22454" lon="1.14186">
        <ele>63.4</ele>
        <time>2016-09-18T06:10:01Z</time>
      </trkpt>
      <trkpt lat="49.22455" lon="1.14169">
        <ele>63.9</ele>
        <time>2016-09-18T06:10:04Z</time>
      </trkpt>
      <trkpt lat="49.2245" lon="1.14154">
        <ele>64.3</ele>
        <time>2016-09-18T06:10:07Z</time>
      </trkpt>
      <trkpt lat="49.22447" lon="1.14139">
        <ele>64.7</ele>
        <time>2016-09-18T06:10:10Z</time>
      </trkpt>
      <trkpt lat="49.22443" lon="1.14123">
        <ele>65.2</ele>
        <time>2016-09-18T06:10:13Z</time>
      </trkpt>
      <trkpt lat="49.22439" lon="1.14109">
        <ele>65.6</ele>
        <time>2016-09-18T06:10:16Z</time>
      </trkpt>
      <trkpt lat="49.22433" lon="1.14095">
        <ele>66</ele>
        <time>2016-09-18T06:10:19Z</time>
      </trkpt>
      <trkpt lat="49.22431" lon="1.14079">
        <ele>66.4</ele>
        <time>2016-09-18T06:10:22Z</time>
      </trkpt>
      <trkpt lat="49.22428" lon="1.14064">
        <ele>66.7</ele>
        <time>2016-09-18T06:10:25Z</time>
      </trkpt>
      <trkpt lat="49.22426" lon="1.14049">
        <ele>67.1</ele>
        <time>2016-09-18T06:10:28Z</time>
      </trkpt>
      <trkpt lat="49.22423" lon="1.14032">
        <ele>67.5</ele>
        <time>2016-09-18T06:10:31Z</time>
      </trkpt>
      <trkpt lat="49.2242" lon="1.14016">
        <ele>68</ele>
        <time>2016-09-18T06:10:34Z</time>
      </trkpt>
      <trkpt lat="49.22418" lon="1.14002">
        <ele>68.5</ele>
        <time>2016-09-18T06:10:37Z</time>
      </trkpt>
      <trkpt lat="49.22417" lon="1.13988">
        <ele>68.9</ele>
        <time>2016-09-18T06:10:40Z</time>
      </trkpt>
      <trkpt lat="49.22415" lon="1.13971">
        <ele>69.4</ele>
        <time>2016-09-18T06:10:43Z</time>
      </trkpt>
      <trkpt lat="49.22412" lon="1.13956">
        <ele>69.9</ele>
        <time>2016-09-18T06:10:46Z</time>
      </trkpt>
      <trkpt lat="49.22411" lon="1.13941">
        <ele>70.3</ele>
        <time>2016-09-18T06:10:49Z</time>
      </trkpt>
      <trkpt lat="49.22409" lon="1.13925">
        <ele>70.6</ele>
        <time>2016-09-18T06:10:52Z</time>
      </trkpt>
      <trkpt lat="49.22407" lon="1.1391">
        <ele>71</ele>
        <time>2016-09-18T06:10:55Z</time>
      </trkpt>
      <trkpt lat="49.22404" lon="1.13894">
        <ele>71.4</ele>
        <time>2016-09-18T06:10:58Z</time>
      </trkpt>
      <trkpt lat="49.22401" lon="1.13876">
        <ele>72</ele>
        <time>2016-09-18T06:11:02Z</time>
      </trkpt>
      <trkpt lat="49.22397" lon="1.1386">
        <ele>72.4</ele>
        <time>2016-09-18T06:11:05Z</time>
      </trkpt>
      <trkpt lat="49.22393" lon="1.13846">
        <ele>72.8</ele>
        <time>2016-09-18T06:11:08Z</time>
      </trkpt>
      <trkpt lat="49.22391" lon="1.13828">
        <ele>73.4</ele>
        <time>2016-09-18T06:11:12Z</time>
      </trkpt>
      <trkpt lat="49.22388" lon="1.13811">
        <ele>73.9</ele>
        <time>2016-09-18T06:11:16Z</time>
      </trkpt>
      <trkpt lat="49.22387" lon="1.13797">
        <ele>74.4</ele>
        <time>2016-09-18T06:11:19Z</time>
      </trkpt>
      <trkpt lat="49.22384" lon="1.13784">
        <ele>74.9</ele>
        <time>2016-09-18T06:11:22Z</time>
      </trkpt>
      <trkpt lat="49.2238" lon="1.13771">
        <ele>75.5</ele>
        <time>2016-09-18T06:11:25Z</time>
      </trkpt>
      <trkpt lat="49.22379" lon="1.13757">
        <ele>76.1</ele>
        <time>2016-09-18T06:11:28Z</time>
      </trkpt>
      <trkpt lat="49.22377" lon="1.13742">
        <ele>76.6</ele>
        <time>2016-09-18T06:11:31Z</time>
      </trkpt>
      <trkpt lat="49.22374" lon="1.13726">
        <ele>77.1</ele>
        <time>2016-09-18T06:11:34Z</time>
      </trkpt>
      <trkpt lat="49.22371" lon="1.13711">
        <ele>77.5</ele>
        <time>2016-09-18T06:11:37Z</time>
      </trkpt>
      <trkpt lat="49.22369" lon="1.13695">
        <ele>77.9</ele>
        <time>2016-09-18T06:11:40Z</time>
      </trkpt>
      <trkpt lat="49.22365" lon="1.13679">
        <ele>78.4</ele>
        <time>2016-09-18T06:11:43Z</time>
      </trkpt>
      <trkpt lat="49.22362" lon="1.13663">
        <ele>78.8</ele>
        <time>2016-09-18T06:11:46Z</time>
      </trkpt>
      <trkpt lat="49.22362" lon="1.13647">
        <ele>79.3</ele>
        <time>2016-09-18T06:11:49Z</time>
      </trkpt>
      <trkpt lat="49.22358" lon="1.13633">
        <ele>79.8</ele>
        <time>2016-09-18T06:11:52Z</time>
      </trkpt>
      <trkpt lat="49.22354" lon="1.13618">
        <ele>80.3</ele>
        <time>2016-09-18T06:11:55Z</time>
      </trkpt>
      <trkpt lat="49.22352" lon="1.13602">
        <ele>80.8</ele>
        <time>2016-09-18T06:11:58Z</time>
      </trkpt>
      <trkpt lat="49.22352" lon="1.13585">
        <ele>81.3</ele>
        <time>2016-09-18T06:12:01Z</time>
      </trkpt>
      <trkpt lat="49.22351" lon="1.13569">
        <ele>81.8</ele>
        <time>2016-09-18T06:12:04Z</time>
      </trkpt>
      <trkpt lat="49.2235" lon="1.13552">
        <ele>82.3</ele>
        <time>2016-09-18T06:12:07Z</time>
      </trkpt>
      <trkpt lat="49.22353" lon="1.13537">
        <ele>82.8</ele>
        <time>2016-09-18T06:12:10Z</time>
      </trkpt>
      <trkpt lat="49.22355" lon="1.13519">
        <ele>83.3</ele>
        <time>2016-09-18T06:12:13Z</time>
      </trkpt>
      <trkpt lat="49.22354" lon="1.13503">
        <ele>83.7</ele>
        <time>2016-09-18T06:12:16Z</time>
      </trkpt>
      <trkpt lat="49.22356" lon="1.13489">
        <ele>84.2</ele>
        <time>2016-09-18T06:12:19Z</time>
      </trkpt>
      <trkpt lat="49.22361" lon="1.13478">
        <ele>84.5</ele>
        <time>2016-09-18T06:12:21Z</time>
      </trkpt>
      <trkpt lat="49.22363" lon="1.1346">
        <ele>84.9</ele>
        <time>2016-09-18T06:12:24Z</time>
      </trkpt>
      <trkpt lat="49.22363" lon="1.13441">
        <ele>85.4</ele>
        <time>2016-09-18T06:12:27Z</time>
      </trkpt>
      <trkpt lat="49.22364" lon="1.13426">
        <ele>85.8</ele>
        <time>2016-09-18T06:12:30Z</time>
      </trkpt>
      <trkpt lat="49.22365" lon="1.13409">
        <ele>86.2</ele>
        <time>2016-09-18T06:12:33Z</time>
      </trkpt>
      <trkpt lat="49.22365" lon="1.13393">
        <ele>86.6</ele>
        <time>2016-09-18T06:12:36Z</time>
      </trkpt>
      <trkpt lat="49.22368" lon="1.13375">
        <ele>87</ele>
        <time>2016-09-18T06:12:39Z</time>
      </trkpt>
      <trkpt lat="49.22372" lon="1.13359">
        <ele>87.5</ele>
        <time>2016-09-18T06:12:42Z</time>
      </trkpt>
      <trkpt lat="49.22372" lon="1.13342">
        <ele>87.9</ele>
        <time>2016-09-18T06:12:45Z</time>
      </trkpt>
      <trkpt lat="49.22368" lon="1.13326">
        <ele>88.3</ele>
        <time>2016-09-18T06:12:48Z</time>
      </trkpt>
      <trkpt lat="49.22366" lon="1.13308">
        <ele>88.8</ele>
        <time>2016-09-18T06:12:51Z</time>
      </trkpt>
      <trkpt lat="49.22365" lon="1.13288">
        <ele>89.3</ele>
        <time>2016-09-18T06:12:54Z</time>
      </trkpt>
      <trkpt lat="49.22364" lon="1.1327">
        <ele>89.9</ele>
        <time>2016-09-18T06:12:57Z</time>
      </trkpt>
      <trkpt lat="49.22362" lon="1.13253">
        <ele>90.4</ele>
        <time>2016-09-18T06:13:00Z</time>
      </trkpt>
      <trkpt lat="49.22361" lon="1.13236">
        <ele>90.9</ele>
        <time>2016-09-18T06:13:03Z</time>
      </trkpt>
      <trkpt lat="49.22359" lon="1.13218">
        <ele>91.4</ele>
        <time>2016-09-18T06:13:06Z</time>
      </trkpt>
      <trkpt lat="49.22357" lon="1.13201">
        <ele>92</ele>
        <time>2016-09-18T06:13:09Z</time>
      </trkpt>
      <trkpt lat="49.22354" lon="1.13184">
        <ele>92.5</ele>
        <time>2016-09-18T06:13:12Z</time>
      </trkpt>
      <trkpt lat="49.22349" lon="1.13167">
        <ele>93</ele>
        <time>2016-09-18T06:13:15Z</time>
      </trkpt>
      <trkpt lat="49.22344" lon="1.13152">
        <ele>93.4</ele>
        <time>2016-09-18T06:13:18Z</time>
      </trkpt>
      <trkpt lat="49.22339" lon="1.13136">
        <ele>93.9</ele>
        <time>2016-09-18T06:13:22Z</time>
      </trkpt>
      <trkpt lat="49.22334" lon="1.13123">
        <ele>94.3</ele>
        <time>2016-09-18T06:13:25Z</time>
      </trkpt>
      <trkpt lat="49.22328" lon="1.13109">
        <ele>94.8</ele>
        <time>2016-09-18T06:13:28Z</time>
      </trkpt>
      <trkpt lat="49.22321" lon="1.13095">
        <ele>95.2</ele>
        <time>2016-09-18T06:13:31Z</time>
      </trkpt>
      <trkpt lat="49.22314" lon="1.13081">
        <ele>95.7</ele>
        <time>2016-09-18T06:13:34Z</time>
      </trkpt>
      <trkpt lat="49.22308" lon="1.13068">
        <ele>96.1</ele>
        <time>2016-09-18T06:13:37Z</time>
      </trkpt>
      <trkpt lat="49.22303" lon="1.13055">
        <ele>96.5</ele>
        <time>2016-09-18T06:13:40Z</time>
      </trkpt>
      <trkpt lat="49.22297" lon="1.13042">
        <ele>96.9</ele>
        <time>2016-09-18T06:13:43Z</time>
      </trkpt>
      <trkpt lat="49.22291" lon="1.1303">
        <ele>97.4</ele>
        <time>2016-09-18T06:13:46Z</time>
      </trkpt>
      <trkpt lat="49.22285" lon="1.13017">
        <ele>98.1</ele>
        <time>2016-09-18T06:13:51Z</time>
      </trkpt>
      <trkpt lat="49.22278" lon="1.13003">
        <ele>98.7</ele>
        <time>2016-09-18T06:13:55Z</time>
      </trkpt>
      <trkpt lat="49.22272" lon="1.12988">
        <ele>99.1</ele>
        <time>2016-09-18T06:13:58Z</time>
      </trkpt>
      <trkpt lat="49.22267" lon="1.12973">
        <ele>99.7</ele>
        <time>2016-09-18T06:14:02Z</time>
      </trkpt>
      <trkpt lat="49.22261" lon="1.12962">
        <ele>100.3</ele>
        <time>2016-09-18T06:14:06Z</time>
      </trkpt>
      <trkpt lat="49.22254" lon="1.12948">
        <ele>100.9</ele>
        <time>2016-09-18T06:14:10Z</time>
      </trkpt>
      <trkpt lat="49.22263" lon="1.12943">
        <ele>101.7</ele>
        <time>2016-09-18T06:14:16Z</time>
      </trkpt>
      <trkpt lat="49.22272" lon="1.12946">
        <ele>102.6</ele>
        <time>2016-09-18T06:14:21Z</time>
      </trkpt>
      <trkpt lat="49.22281" lon="1.12948">
        <ele>104.1</ele>
        <time>2016-09-18T06:14:27Z</time>
      </trkpt>
      <trkpt lat="49.2229" lon="1.1295">
        <ele>105.9</ele>
        <time>2016-09-18T06:14:34Z</time>
      </trkpt>
      <trkpt lat="49.22301" lon="1.12954">
        <ele>107.3</ele>
        <time>2016-09-18T06:14:39Z</time>
      </trkpt>
      <trkpt lat="49.2231" lon="1.12957">
        <ele>108.7</ele>
        <time>2016-09-18T06:14:44Z</time>
      </trkpt>
      <trkpt lat="49.22319" lon="1.12962">
        <ele>110</ele>
        <time>2016-09-18T06:14:49Z</time>
      </trkpt>
      <trkpt lat="49.22329" lon="1.12968">
        <ele>111.1</ele>
        <time>2016-09-18T06:14:54Z</time>
      </trkpt>
      <trkpt lat="49.22338" lon="1.12973">
        <ele>111.8</ele>
        <time>2016-09-18T06:14:58Z</time>
      </trkpt>
      <trkpt lat="49.22347" lon="1.12976">
        <ele>112.3</ele>
        <time>2016-09-18T06:15:01Z</time>
      </trkpt>
      <trkpt lat="49.22359" lon="1.1298">
        <ele>113</ele>
        <time>2016-09-18T06:15:05Z</time>
      </trkpt>
      <trkpt lat="49.2237" lon="1.12985">
        <ele>113.4</ele>
        <time>2016-09-18T06:15:08Z</time>
      </trkpt>
      <trkpt lat="49.2238" lon="1.1299">
        <ele>113.8</ele>
        <time>2016-09-18T06:15:11Z</time>
      </trkpt>
      <trkpt lat="49.22391" lon="1.12995">
        <ele>114.2</ele>
        <time>2016-09-18T06:15:14Z</time>
      </trkpt>
      <trkpt lat="49.224" lon="1.12999">
        <ele>114.4</ele>
        <time>2016-09-18T06:15:16Z</time>
      </trkpt>
      <trkpt lat="49.2241" lon="1.13008">
        <ele>114.7</ele>
        <time>2016-09-18T06:15:19Z</time>
      </trkpt>
      <trkpt lat="49.22416" lon="1.13025">
        <ele>114.9</ele>
        <time>2016-09-18T06:15:22Z</time>
      </trkpt>
      <trkpt lat="49.22419" lon="1.13042">
        <ele>115.1</ele>
        <time>2016-09-18T06:15:25Z</time>
      </trkpt>
      <trkpt lat="49.22423" lon="1.13055">
        <ele>115.1</ele>
        <time>2016-09-18T06:15:27Z</time>
      </trkpt>
      <trkpt lat="49.22427" lon="1.13074">
        <ele>115.1</ele>
        <time>2016-09-18T06:15:30Z</time>
      </trkpt>
      <trkpt lat="49.22431" lon="1.13088">
        <ele>115</ele>
        <time>2016-09-18T06:15:32Z</time>
      </trkpt>
      <trkpt lat="49.22434" lon="1.13102">
        <ele>115</ele>
        <time>2016-09-18T06:15:34Z</time>
      </trkpt>
      <trkpt lat="49.22437" lon="1.13117">
        <ele>114.9</ele>
        <time>2016-09-18T06:15:36Z</time>
      </trkpt>
      <trkpt lat="49.2244" lon="1.1313">
        <ele>114.7</ele>
        <time>2016-09-18T06:15:38Z</time>
      </trkpt>
      <trkpt lat="49.22445" lon="1.13142">
        <ele>114.6</ele>
        <time>2016-09-18T06:15:40Z</time>
      </trkpt>
      <trkpt lat="49.22447" lon="1.13158">
        <ele>114.5</ele>
        <time>2016-09-18T06:15:42Z</time>
      </trkpt>
      <trkpt lat="49.2245" lon="1.13171">
        <ele>114.3</ele>
        <time>2016-09-18T06:15:44Z</time>
      </trkpt>
      <trkpt lat="49.22453" lon="1.13187">
        <ele>114.2</ele>
        <time>2016-09-18T06:15:46Z</time>
      </trkpt>
      <trkpt lat="49.2245" lon="1.13203">
        <ele>114.1</ele>
        <time>2016-09-18T06:15:48Z</time>
      </trkpt>
      <trkpt lat="49.22452" lon="1.13218">
        <ele>113.9</ele>
        <time>2016-09-18T06:15:50Z</time>
      </trkpt>
      <trkpt lat="49.22456" lon="1.13231">
        <ele>113.8</ele>
        <time>2016-09-18T06:15:52Z</time>
      </trkpt>
      <trkpt lat="49.22457" lon="1.13247">
        <ele>113.6</ele>
        <time>2016-09-18T06:15:54Z</time>
      </trkpt>
      <trkpt lat="49.22458" lon="1.13262">
        <ele>113.4</ele>
        <time>2016-09-18T06:15:56Z</time>
      </trkpt>
      <trkpt lat="49.22462" lon="1.13275">
        <ele>113.2</ele>
        <time>2016-09-18T06:15:58Z</time>
      </trkpt>
      <trkpt lat="49.22462" lon="1.13291">
        <ele>113.1</ele>
        <time>2016-09-18T06:16:00Z</time>
      </trkpt>
      <trkpt lat="49.22464" lon="1.13307">
        <ele>113</ele>
        <time>2016-09-18T06:16:02Z</time>
      </trkpt>
      <trkpt lat="49.22466" lon="1.13322">
        <ele>112.8</ele>
        <time>2016-09-18T06:16:04Z</time>
      </trkpt>
      <trkpt lat="49.22471" lon="1.13341">
        <ele>112.7</ele>
        <time>2016-09-18T06:16:07Z</time>
      </trkpt>
      <trkpt lat="49.22474" lon="1.13355">
        <ele>112.6</ele>
        <time>2016-09-18T06:16:09Z</time>
      </trkpt>
      <trkpt lat="49.22475" lon="1.1337">
        <ele>112.5</ele>
        <time>2016-09-18T06:16:11Z</time>
      </trkpt>
      <trkpt lat="49.22477" lon="1.13384">
        <ele>112.4</ele>
        <time>2016-09-18T06:16:13Z</time>
      </trkpt>
      <trkpt lat="49.22476" lon="1.134">
        <ele>112.3</ele>
        <time>2016-09-18T06:16:15Z</time>
      </trkpt>
      <trkpt lat="49.22478" lon="1.13415">
        <ele>112.1</ele>
        <time>2016-09-18T06:16:17Z</time>
      </trkpt>
      <trkpt lat="49.22477" lon="1.13437">
        <ele>112</ele>
        <time>2016-09-18T06:16:20Z</time>
      </trkpt>
      <trkpt lat="49.22474" lon="1.13455">
        <ele>111.8</ele>
        <time>2016-09-18T06:16:22Z</time>
      </trkpt>
      <trkpt lat="49.22476" lon="1.1347">
        <ele>111.7</ele>
        <time>2016-09-18T06:16:24Z</time>
      </trkpt>
      <trkpt lat="49.22476" lon="1.13485">
        <ele>111.6</ele>
        <time>2016-09-18T06:16:26Z</time>
      </trkpt>
      <trkpt lat="49.22476" lon="1.13499">
        <ele>111.5</ele>
        <time>2016-09-18T06:16:28Z</time>
      </trkpt>
      <trkpt lat="49.22476" lon="1.1352">
        <ele>111.2</ele>
        <time>2016-09-18T06:16:31Z</time>
      </trkpt>
      <trkpt lat="49.2248" lon="1.13536">
        <ele>111</ele>
        <time>2016-09-18T06:16:33Z</time>
      </trkpt>
      <trkpt lat="49.22483" lon="1.13552">
        <ele>110.7</ele>
        <time>2016-09-18T06:16:35Z</time>
      </trkpt>
      <trkpt lat="49.22486" lon="1.13566">
        <ele>110.5</ele>
        <time>2016-09-18T06:16:37Z</time>
      </trkpt>
      <trkpt lat="49.2249" lon="1.1358">
        <ele>110.2</ele>
        <time>2016-09-18T06:16:39Z</time>
      </trkpt>
      <trkpt lat="49.22494" lon="1.13595">
        <ele>110</ele>
        <time>2016-09-18T06:16:41Z</time>
      </trkpt>
      <trkpt lat="49.22496" lon="1.1361">
        <ele>109.7</ele>
        <time>2016-09-18T06:16:43Z</time>
      </trkpt>
      <trkpt lat="49.22499" lon="1.13626">
        <ele>109.4</ele>
        <time>2016-09-18T06:16:45Z</time>
      </trkpt>
      <trkpt lat="49.225" lon="1.13642">
        <ele>109</ele>
        <time>2016-09-18T06:16:47Z</time>
      </trkpt>
      <trkpt lat="49.22502" lon="1.13658">
        <ele>108.7</ele>
        <time>2016-09-18T06:16:49Z</time>
      </trkpt>
      <trkpt lat="49.22503" lon="1.13674">
        <ele>108.3</ele>
        <time>2016-09-18T06:16:51Z</time>
      </trkpt>
      <trkpt lat="49.22505" lon="1.13688">
        <ele>107.9</ele>
        <time>2016-09-18T06:16:53Z</time>
      </trkpt>
      <trkpt lat="49.22509" lon="1.137">
        <ele>107.5</ele>
        <time>2016-09-18T06:16:55Z</time>
      </trkpt>
      <trkpt lat="49.22512" lon="1.13715">
        <ele>107</ele>
        <time>2016-09-18T06:16:57Z</time>
      </trkpt>
      <trkpt lat="49.22516" lon="1.13731">
        <ele>106.4</ele>
        <time>2016-09-18T06:16:59Z</time>
      </trkpt>
      <trkpt lat="49.22522" lon="1.13745">
        <ele>106</ele>
        <time>2016-09-18T06:17:01Z</time>
      </trkpt>
      <trkpt lat="49.22524" lon="1.1376">
        <ele>105.5</ele>
        <time>2016-09-18T06:17:03Z</time>
      </trkpt>
      <trkpt lat="49.22525" lon="1.13782">
        <ele>105</ele>
        <time>2016-09-18T06:17:05Z</time>
      </trkpt>
      <trkpt lat="49.22527" lon="1.13801">
        <ele>104.4</ele>
        <time>2016-09-18T06:17:07Z</time>
      </trkpt>
      <trkpt lat="49.22531" lon="1.1382">
        <ele>103.8</ele>
        <time>2016-09-18T06:17:09Z</time>
      </trkpt>
      <trkpt lat="49.22536" lon="1.13839">
        <ele>103.2</ele>
        <time>2016-09-18T06:17:11Z</time>
      </trkpt>
      <trkpt lat="49.2254" lon="1.13857">
        <ele>102.5</ele>
        <time>2016-09-18T06:17:13Z</time>
      </trkpt>
      <trkpt lat="49.2254" lon="1.13878">
        <ele>101.8</ele>
        <time>2016-09-18T06:17:15Z</time>
      </trkpt>
      <trkpt lat="49.22542" lon="1.13896">
        <ele>101</ele>
        <time>2016-09-18T06:17:17Z</time>
      </trkpt>
      <trkpt lat="49.22547" lon="1.13911">
        <ele>100.1</ele>
        <time>2016-09-18T06:17:19Z</time>
      </trkpt>
      <trkpt lat="49.22545" lon="1.13933">
        <ele>99.3</ele>
        <time>2016-09-18T06:17:21Z</time>
      </trkpt>
      <trkpt lat="49.22551" lon="1.13953">
        <ele>98.5</ele>
        <time>2016-09-18T06:17:23Z</time>
      </trkpt>
      <trkpt lat="49.22556" lon="1.13971">
        <ele>97.7</ele>
        <time>2016-09-18T06:17:25Z</time>
      </trkpt>
      <trkpt lat="49.22563" lon="1.13986">
        <ele>96.9</ele>
        <time>2016-09-18T06:17:27Z</time>
      </trkpt>
      <trkpt lat="49.22572" lon="1.13997">
        <ele>96.1</ele>
        <time>2016-09-18T06:17:29Z</time>
      </trkpt>
      <trkpt lat="49.22583" lon="1.14007">
        <ele>95.2</ele>
        <time>2016-09-18T06:17:31Z</time>
      </trkpt>
      <trkpt lat="49.22596" lon="1.14019">
        <ele>94.3</ele>
        <time>2016-09-18T06:17:33Z</time>
      </trkpt>
      <trkpt lat="49.22609" lon="1.14031">
        <ele>93.4</ele>
        <time>2016-09-18T06:17:35Z</time>
      </trkpt>
      <trkpt lat="49.22622" lon="1.14043">
        <ele>92.4</ele>
        <time>2016-09-18T06:17:37Z</time>
      </trkpt>
      <trkpt lat="49.22631" lon="1.14048">
        <ele>91.8</ele>
        <time>2016-09-18T06:17:38Z</time>
      </trkpt>
      <trkpt lat="49.22642" lon="1.14056">
        <ele>90.6</ele>
        <time>2016-09-18T06:17:40Z</time>
      </trkpt>
      <trkpt lat="49.22653" lon="1.14065">
        <ele>89.4</ele>
        <time>2016-09-18T06:17:42Z</time>
      </trkpt>
      <trkpt lat="49.22662" lon="1.14072">
        <ele>88.1</ele>
        <time>2016-09-18T06:17:44Z</time>
      </trkpt>
      <trkpt lat="49.22672" lon="1.14069">
        <ele>85.9</ele>
        <time>2016-09-18T06:17:48Z</time>
      </trkpt>
      <trkpt lat="49.22677" lon="1.14056">
        <ele>84.6</ele>
        <time>2016-09-18T06:17:51Z</time>
      </trkpt>
      <trkpt lat="49.22681" lon="1.14041">
        <ele>83.4</ele>
        <time>2016-09-18T06:17:54Z</time>
      </trkpt>
      <trkpt lat="49.22687" lon="1.14026">
        <ele>82.4</ele>
        <time>2016-09-18T06:17:57Z</time>
      </trkpt>
      <trkpt lat="49.2269" lon="1.14007">
        <ele>81.6</ele>
        <time>2016-09-18T06:18:00Z</time>
      </trkpt>
      <trkpt lat="49.22694" lon="1.1399">
        <ele>81</ele>
        <time>2016-09-18T06:18:03Z</time>
      </trkpt>
      <trkpt lat="49.22697" lon="1.13972">
        <ele>80.4</ele>
        <time>2016-09-18T06:18:06Z</time>
      </trkpt>
      <trkpt lat="49.22702" lon="1.13955">
        <ele>80</ele>
        <time>2016-09-18T06:18:09Z</time>
      </trkpt>
      <trkpt lat="49.22704" lon="1.13937">
        <ele>79.7</ele>
        <time>2016-09-18T06:18:12Z</time>
      </trkpt>
      <trkpt lat="49.22709" lon="1.1392">
        <ele>79.4</ele>
        <time>2016-09-18T06:18:15Z</time>
      </trkpt>
      <trkpt lat="49.22713" lon="1.13902">
        <ele>79.3</ele>
        <time>2016-09-18T06:18:18Z</time>
      </trkpt>
      <trkpt lat="49.22715" lon="1.13883">
        <ele>79.2</ele>
        <time>2016-09-18T06:18:21Z</time>
      </trkpt>
      <trkpt lat="49.22717" lon="1.13862">
        <ele>79.1</ele>
        <time>2016-09-18T06:18:24Z</time>
      </trkpt>
      <trkpt lat="49.22719" lon="1.13842">
        <ele>79</ele>
        <time>2016-09-18T06:18:27Z</time>
      </trkpt>
      <trkpt lat="49.22719" lon="1.13822">
        <ele>79</ele>
        <time>2016-09-18T06:18:30Z</time>
      </trkpt>
      <trkpt lat="49.22719" lon="1.13803">
        <ele>78.9</ele>
        <time>2016-09-18T06:18:33Z</time>
      </trkpt>
      <trkpt lat="49.2272" lon="1.13783">
        <ele>78.8</ele>
        <time>2016-09-18T06:18:36Z</time>
      </trkpt>
      <trkpt lat="49.2272" lon="1.13762">
        <ele>78.8</ele>
        <time>2016-09-18T06:18:39Z</time>
      </trkpt>
      <trkpt lat="49.22722" lon="1.13749">
        <ele>78.7</ele>
        <time>2016-09-18T06:18:41Z</time>
      </trkpt>
      <trkpt lat="49.22722" lon="1.13729">
        <ele>78.7</ele>
        <time>2016-09-18T06:18:44Z</time>
      </trkpt>
      <trkpt lat="49.22727" lon="1.13712">
        <ele>78.7</ele>
        <time>2016-09-18T06:18:47Z</time>
      </trkpt>
      <trkpt lat="49.22732" lon="1.13696">
        <ele>78.6</ele>
        <time>2016-09-18T06:18:50Z</time>
      </trkpt>
      <trkpt lat="49.22733" lon="1.13679">
        <ele>78.6</ele>
        <time>2016-09-18T06:18:53Z</time>
      </trkpt>
      <trkpt lat="49.22734" lon="1.13659">
        <ele>78.6</ele>
        <time>2016-09-18T06:18:56Z</time>
      </trkpt>
      <trkpt lat="49.22733" lon="1.1364">
        <ele>78.7</ele>
        <time>2016-09-18T06:18:59Z</time>
      </trkpt>
      <trkpt lat="49.22733" lon="1.13623">
        <ele>78.9</ele>
        <time>2016-09-18T06:19:02Z</time>
      </trkpt>
      <trkpt lat="49.22735" lon="1.13605">
        <ele>79.1</ele>
        <time>2016-09-18T06:19:05Z</time>
      </trkpt>
      <trkpt lat="49.22735" lon="1.13587">
        <ele>79.4</ele>
        <time>2016-09-18T06:19:08Z</time>
      </trkpt>
      <trkpt lat="49.22736" lon="1.1357">
        <ele>79.7</ele>
        <time>2016-09-18T06:19:11Z</time>
      </trkpt>
      <trkpt lat="49.22739" lon="1.13552">
        <ele>80.1</ele>
        <time>2016-09-18T06:19:14Z</time>
      </trkpt>
      <trkpt lat="49.2274" lon="1.13535">
        <ele>80.6</ele>
        <time>2016-09-18T06:19:17Z</time>
      </trkpt>
      <trkpt lat="49.22743" lon="1.13519">
        <ele>81.1</ele>
        <time>2016-09-18T06:19:20Z</time>
      </trkpt>
      <trkpt lat="49.22745" lon="1.13503">
        <ele>81.7</ele>
        <time>2016-09-18T06:19:23Z</time>
      </trkpt>
      <trkpt lat="49.22747" lon="1.13486">
        <ele>82.4</ele>
        <time>2016-09-18T06:19:26Z</time>
      </trkpt>
      <trkpt lat="49.22749" lon="1.1347">
        <ele>83</ele>
        <time>2016-09-18T06:19:29Z</time>
      </trkpt>
      <trkpt lat="49.22749" lon="1.13453">
        <ele>83.6</ele>
        <time>2016-09-18T06:19:32Z</time>
      </trkpt>
      <trkpt lat="49.2275" lon="1.13436">
        <ele>84.2</ele>
        <time>2016-09-18T06:19:35Z</time>
      </trkpt>
      <trkpt lat="49.22753" lon="1.13421">
        <ele>84.7</ele>
        <time>2016-09-18T06:19:38Z</time>
      </trkpt>
      <trkpt lat="49.22755" lon="1.13405">
        <ele>85.4</ele>
        <time>2016-09-18T06:19:41Z</time>
      </trkpt>
      <trkpt lat="49.22755" lon="1.13389">
        <ele>85.9</ele>
        <time>2016-09-18T06:19:44Z</time>
      </trkpt>
      <trkpt lat="49.22758" lon="1.13372">
        <ele>86.7</ele>
        <time>2016-09-18T06:19:48Z</time>
      </trkpt>
      <trkpt lat="49.22765" lon="1.13359">
        <ele>87.3</ele>
        <time>2016-09-18T06:19:51Z</time>
      </trkpt>
      <trkpt lat="49.22767" lon="1.13342">
        <ele>87.8</ele>
        <time>2016-09-18T06:19:54Z</time>
      </trkpt>
      <trkpt lat="49.2277" lon="1.13326">
        <ele>88.4</ele>
        <time>2016-09-18T06:19:57Z</time>
      </trkpt>
      <trkpt lat="49.22771" lon="1.13312">
        <ele>89.1</ele>
        <time>2016-09-18T06:20:00Z</time>
      </trkpt>
      <trkpt lat="49.22775" lon="1.13298">
        <ele>89.7</ele>
        <time>2016-09-18T06:20:03Z</time>
      </trkpt>
      <trkpt lat="49.22774" lon="1.1328">
        <ele>90.3</ele>
        <time>2016-09-18T06:20:06Z</time>
      </trkpt>
      <trkpt lat="49.22776" lon="1.13262">
        <ele>90.8</ele>
        <time>2016-09-18T06:20:09Z</time>
      </trkpt>
      <trkpt lat="49.22775" lon="1.13243">
        <ele>91.3</ele>
        <time>2016-09-18T06:20:12Z</time>
      </trkpt>
      <trkpt lat="49.22774" lon="1.13225">
        <ele>91.8</ele>
        <time>2016-09-18T06:20:15Z</time>
      </trkpt>
      <trkpt lat="49.22774" lon="1.1321">
        <ele>92.2</ele>
        <time>2016-09-18T06:20:18Z</time>
      </trkpt>
      <trkpt lat="49.22785" lon="1.13207">
        <ele>93.6</ele>
        <time>2016-09-18T06:20:26Z</time>
      </trkpt>
      <trkpt lat="49.22794" lon="1.1321">
        <ele>94.2</ele>
        <time>2016-09-18T06:20:29Z</time>
      </trkpt>
      <trkpt lat="49.22804" lon="1.13214">
        <ele>94.7</ele>
        <time>2016-09-18T06:20:32Z</time>
      </trkpt>
      <trkpt lat="49.22814" lon="1.13218">
        <ele>95.2</ele>
        <time>2016-09-18T06:20:35Z</time>
      </trkpt>
      <trkpt lat="49.22823" lon="1.13222">
        <ele>95.6</ele>
        <time>2016-09-18T06:20:38Z</time>
      </trkpt>
      <trkpt lat="49.22831" lon="1.13227">
        <ele>96</ele>
        <time>2016-09-18T06:20:42Z</time>
      </trkpt>
      <trkpt lat="49.2284" lon="1.13233">
        <ele>96.5</ele>
        <time>2016-09-18T06:20:47Z</time>
      </trkpt>
      <trkpt lat="49.22848" lon="1.13239">
        <ele>96.7</ele>
        <time>2016-09-18T06:20:50Z</time>
      </trkpt>
      <trkpt lat="49.22857" lon="1.13242">
        <ele>96.9</ele>
        <time>2016-09-18T06:20:53Z</time>
      </trkpt>
      <trkpt lat="49.22867" lon="1.13245">
        <ele>97</ele>
        <time>2016-09-18T06:20:56Z</time>
      </trkpt>
      <trkpt lat="49.22877" lon="1.13251">
        <ele>97.1</ele>
        <time>2016-09-18T06:20:59Z</time>
      </trkpt>
      <trkpt lat="49.22886" lon="1.13255">
        <ele>97</ele>
        <time>2016-09-18T06:21:01Z</time>
      </trkpt>
      <trkpt lat="49.22898" lon="1.13262">
        <ele>96.8</ele>
        <time>2016-09-18T06:21:04Z</time>
      </trkpt>
      <trkpt lat="49.22907" lon="1.13267">
        <ele>96.1</ele>
        <time>2016-09-18T06:21:08Z</time>
      </trkpt>
      <trkpt lat="49.22916" lon="1.13275">
        <ele>94.8</ele>
        <time>2016-09-18T06:21:13Z</time>
      </trkpt>
      <trkpt lat="49.22927" lon="1.13279">
        <ele>93.3</ele>
        <time>2016-09-18T06:21:17Z</time>
      </trkpt>
      <trkpt lat="49.22935" lon="1.13287">
        <ele>91.5</ele>
        <time>2016-09-18T06:21:20Z</time>
      </trkpt>
      <trkpt lat="49.22944" lon="1.13294">
        <ele>89.3</ele>
        <time>2016-09-18T06:21:23Z</time>
      </trkpt>
      <trkpt lat="49.22954" lon="1.13299">
        <ele>87.5</ele>
        <time>2016-09-18T06:21:25Z</time>
      </trkpt>
      <trkpt lat="49.22965" lon="1.13304">
        <ele>85.7</ele>
        <time>2016-09-18T06:21:27Z</time>
      </trkpt>
      <trkpt lat="49.22976" lon="1.1331">
        <ele>83.8</ele>
        <time>2016-09-18T06:21:29Z</time>
      </trkpt>
      <trkpt lat="49.22986" lon="1.13314">
        <ele>81.8</ele>
        <time>2016-09-18T06:21:31Z</time>
      </trkpt>
      <trkpt lat="49.22995" lon="1.13318">
        <ele>79.9</ele>
        <time>2016-09-18T06:21:33Z</time>
      </trkpt>
      <trkpt lat="49.23007" lon="1.13322">
        <ele>77</ele>
        <time>2016-09-18T06:21:36Z</time>
      </trkpt>
      <trkpt lat="49.23019" lon="1.13327">
        <ele>74</ele>
        <time>2016-09-18T06:21:39Z</time>
      </trkpt>
      <trkpt lat="49.23034" lon="1.13333">
        <ele>71</ele>
        <time>2016-09-18T06:21:42Z</time>
      </trkpt>
      <trkpt lat="49.23043" lon="1.13338">
        <ele>69</ele>
        <time>2016-09-18T06:21:44Z</time>
      </trkpt>
      <trkpt lat="49.23054" lon="1.13339">
        <ele>67.2</ele>
        <time>2016-09-18T06:21:46Z</time>
      </trkpt>
      <trkpt lat="49.23067" lon="1.13336">
        <ele>64.8</ele>
        <time>2016-09-18T06:21:49Z</time>
      </trkpt>
      <trkpt lat="49.23078" lon="1.13331">
        <ele>62.8</ele>
        <time>2016-09-18T06:21:52Z</time>
      </trkpt>
      <trkpt lat="49.23087" lon="1.13315">
        <ele>61.1</ele>
        <time>2016-09-18T06:21:55Z</time>
      </trkpt>
      <trkpt lat="49.23094" lon="1.13306">
        <ele>60.2</ele>
        <time>2016-09-18T06:21:57Z</time>
      </trkpt>
      <trkpt lat="49.23101" lon="1.13294">
        <ele>59.3</ele>
        <time>2016-09-18T06:21:59Z</time>
      </trkpt>
      <trkpt lat="49.23106" lon="1.1328">
        <ele>58.6</ele>
        <time>2016-09-18T06:22:01Z</time>
      </trkpt>
      <trkpt lat="49.23112" lon="1.13267">
        <ele>58</ele>
        <time>2016-09-18T06:22:03Z</time>
      </trkpt>
      <trkpt lat="49.23117" lon="1.13254">
        <ele>57.4</ele>
        <time>2016-09-18T06:22:05Z</time>
      </trkpt>
      <trkpt lat="49.2312" lon="1.13241">
        <ele>56.9</ele>
        <time>2016-09-18T06:22:07Z</time>
      </trkpt>
      <trkpt lat="49.23123" lon="1.13227">
        <ele>56.5</ele>
        <time>2016-09-18T06:22:09Z</time>
      </trkpt>
      <trkpt lat="49.23127" lon="1.1321">
        <ele>56</ele>
        <time>2016-09-18T06:22:12Z</time>
      </trkpt>
      <trkpt lat="49.23131" lon="1.13194">
        <ele>55.6</ele>
        <time>2016-09-18T06:22:15Z</time>
      </trkpt>
      <trkpt lat="49.23133" lon="1.13177">
        <ele>55.4</ele>
        <time>2016-09-18T06:22:18Z</time>
      </trkpt>
      <trkpt lat="49.23135" lon="1.13157">
        <ele>55.2</ele>
        <time>2016-09-18T06:22:21Z</time>
      </trkpt>
      <trkpt lat="49.23136" lon="1.13137">
        <ele>55.1</ele>
        <time>2016-09-18T06:22:24Z</time>
      </trkpt>
      <trkpt lat="49.23136" lon="1.13122">
        <ele>55.1</ele>
        <time>2016-09-18T06:22:26Z</time>
      </trkpt>
      <trkpt lat="49.23129" lon="1.13107">
        <ele>55</ele>
        <time>2016-09-18T06:22:29Z</time>
      </trkpt>
      <trkpt lat="49.23123" lon="1.13094">
        <ele>55</ele>
        <time>2016-09-18T06:22:33Z</time>
      </trkpt>
      <trkpt lat="49.23116" lon="1.13085">
        <ele>55</ele>
        <time>2016-09-18T06:22:38Z</time>
      </trkpt>
      <trkpt lat="49.23124" lon="1.13078">
        <ele>55</ele>
        <time>2016-09-18T06:22:43Z</time>
      </trkpt>
      <trkpt lat="49.23134" lon="1.13083">
        <ele>54.9</ele>
        <time>2016-09-18T06:22:49Z</time>
      </trkpt>
      <trkpt lat="49.23143" lon="1.13089">
        <ele>54.8</ele>
        <time>2016-09-18T06:22:54Z</time>
      </trkpt>
      <trkpt lat="49.23153" lon="1.13089">
        <ele>54.8</ele>
        <time>2016-09-18T06:22:58Z</time>
      </trkpt>
      <trkpt lat="49.23163" lon="1.13089">
        <ele>54.8</ele>
        <time>2016-09-18T06:23:04Z</time>
      </trkpt>
      <trkpt lat="49.23173" lon="1.13092">
        <ele>55.5</ele>
        <time>2016-09-18T06:23:09Z</time>
      </trkpt>
      <trkpt lat="49.23184" lon="1.13098">
        <ele>56.7</ele>
        <time>2016-09-18T06:23:14Z</time>
      </trkpt>
      <trkpt lat="49.23194" lon="1.13103">
        <ele>58.7</ele>
        <time>2016-09-18T06:23:20Z</time>
      </trkpt>
      <trkpt lat="49.23204" lon="1.13106">
        <ele>59.9</ele>
        <time>2016-09-18T06:23:24Z</time>
      </trkpt>
      <trkpt lat="49.23215" lon="1.1311">
        <ele>60.9</ele>
        <time>2016-09-18T06:23:28Z</time>
      </trkpt>
      <trkpt lat="49.23226" lon="1.13116">
        <ele>61.6</ele>
        <time>2016-09-18T06:23:32Z</time>
      </trkpt>
      <trkpt lat="49.23236" lon="1.13122">
        <ele>61.7</ele>
        <time>2016-09-18T06:23:35Z</time>
      </trkpt>
      <trkpt lat="49.23247" lon="1.13126">
        <ele>61.4</ele>
        <time>2016-09-18T06:23:38Z</time>
      </trkpt>
      <trkpt lat="49.23257" lon="1.13117">
        <ele>61.2</ele>
        <time>2016-09-18T06:23:43Z</time>
      </trkpt>
      <trkpt lat="49.23259" lon="1.13102">
        <ele>61.3</ele>
        <time>2016-09-18T06:23:46Z</time>
      </trkpt>
      <trkpt lat="49.23261" lon="1.13087">
        <ele>61.4</ele>
        <time>2016-09-18T06:23:49Z</time>
      </trkpt>
      <trkpt lat="49.23263" lon="1.13071">
        <ele>61.6</ele>
        <time>2016-09-18T06:23:52Z</time>
      </trkpt>
      <trkpt lat="49.23266" lon="1.13054">
        <ele>61.8</ele>
        <time>2016-09-18T06:23:55Z</time>
      </trkpt>
      <trkpt lat="49.23268" lon="1.13037">
        <ele>62</ele>
        <time>2016-09-18T06:23:58Z</time>
      </trkpt>
      <trkpt lat="49.23269" lon="1.13021">
        <ele>62.3</ele>
        <time>2016-09-18T06:24:01Z</time>
      </trkpt>
      <trkpt lat="49.2327" lon="1.13004">
        <ele>62.5</ele>
        <time>2016-09-18T06:24:04Z</time>
      </trkpt>
      <trkpt lat="49.23273" lon="1.12989">
        <ele>62.7</ele>
        <time>2016-09-18T06:24:07Z</time>
      </trkpt>
      <trkpt lat="49.23277" lon="1.12975">
        <ele>63.1</ele>
        <time>2016-09-18T06:24:10Z</time>
      </trkpt>
      <trkpt lat="49.23283" lon="1.12961">
        <ele>63.5</ele>
        <time>2016-09-18T06:24:13Z</time>
      </trkpt>
      <trkpt lat="49.23285" lon="1.12947">
        <ele>63.8</ele>
        <time>2016-09-18T06:24:16Z</time>
      </trkpt>
      <trkpt lat="49.23285" lon="1.1293">
        <ele>64.4</ele>
        <time>2016-09-18T06:24:20Z</time>
      </trkpt>
      <trkpt lat="49.23295" lon="1.12923">
        <ele>65.4</ele>
        <time>2016-09-18T06:24:28Z</time>
      </trkpt>
      <trkpt lat="49.23305" lon="1.1292">
        <ele>66.4</ele>
        <time>2016-09-18T06:24:35Z</time>
      </trkpt>
      <trkpt lat="49.23314" lon="1.12919">
        <ele>67.3</ele>
        <time>2016-09-18T06:24:40Z</time>
      </trkpt>
      <trkpt lat="49.23323" lon="1.12912">
        <ele>68.4</ele>
        <time>2016-09-18T06:24:45Z</time>
      </trkpt>
      <trkpt lat="49.23333" lon="1.12905">
        <ele>69.3</ele>
        <time>2016-09-18T06:24:49Z</time>
      </trkpt>
      <trkpt lat="49.23342" lon="1.12897">
        <ele>70.2</ele>
        <time>2016-09-18T06:24:53Z</time>
      </trkpt>
      <trkpt lat="49.2335" lon="1.12889">
        <ele>71</ele>
        <time>2016-09-18T06:24:57Z</time>
      </trkpt>
      <trkpt lat="49.23359" lon="1.12876">
        <ele>71.9</ele>
        <time>2016-09-18T06:25:01Z</time>
      </trkpt>
      <trkpt lat="49.23365" lon="1.12866">
        <ele>72.5</ele>
        <time>2016-09-18T06:25:04Z</time>
      </trkpt>
      <trkpt lat="49.23373" lon="1.12856">
        <ele>73.2</ele>
        <time>2016-09-18T06:25:07Z</time>
      </trkpt>
      <trkpt lat="49.2338" lon="1.12844">
        <ele>73.9</ele>
        <time>2016-09-18T06:25:11Z</time>
      </trkpt>
      <trkpt lat="49.23386" lon="1.12833">
        <ele>74.7</ele>
        <time>2016-09-18T06:25:15Z</time>
      </trkpt>
      <trkpt lat="49.23393" lon="1.12822">
        <ele>75.5</ele>
        <time>2016-09-18T06:25:19Z</time>
      </trkpt>
      <trkpt lat="49.23401" lon="1.12813">
        <ele>76.3</ele>
        <time>2016-09-18T06:25:23Z</time>
      </trkpt>
      <trkpt lat="49.23408" lon="1.12802">
        <ele>77.2</ele>
        <time>2016-09-18T06:25:27Z</time>
      </trkpt>
      <trkpt lat="49.23415" lon="1.12789">
        <ele>78.3</ele>
        <time>2016-09-18T06:25:32Z</time>
      </trkpt>
      <trkpt lat="49.23422" lon="1.12777">
        <ele>79.4</ele>
        <time>2016-09-18T06:25:37Z</time>
      </trkpt>
      <trkpt lat="49.2343" lon="1.12766">
        <ele>80.4</ele>
        <time>2016-09-18T06:25:41Z</time>
      </trkpt>
      <trkpt lat="49.23434" lon="1.12779">
        <ele>82</ele>
        <time>2016-09-18T06:25:50Z</time>
      </trkpt>
      <trkpt lat="49.23431" lon="1.12795">
        <ele>82.4</ele>
        <time>2016-09-18T06:25:53Z</time>
      </trkpt>
      <trkpt lat="49.23428" lon="1.12808">
        <ele>82.7</ele>
        <time>2016-09-18T06:25:56Z</time>
      </trkpt>
      <trkpt lat="49.23426" lon="1.12822">
        <ele>82.9</ele>
        <time>2016-09-18T06:26:00Z</time>
      </trkpt>
      <trkpt lat="49.23426" lon="1.12837">
        <ele>83.1</ele>
        <time>2016-09-18T06:26:05Z</time>
      </trkpt>
      <trkpt lat="49.23421" lon="1.12854">
        <ele>83.2</ele>
        <time>2016-09-18T06:26:08Z</time>
      </trkpt>
      <trkpt lat="49.23417" lon="1.12869">
        <ele>83.3</ele>
        <time>2016-09-18T06:26:11Z</time>
      </trkpt>
      <trkpt lat="49.23414" lon="1.12881">
        <ele>83.4</ele>
        <time>2016-09-18T06:26:14Z</time>
      </trkpt>
      <trkpt lat="49.23412" lon="1.12897">
        <ele>83.6</ele>
        <time>2016-09-18T06:26:18Z</time>
      </trkpt>
      <trkpt lat="49.23413" lon="1.12912">
        <ele>83.9</ele>
        <time>2016-09-18T06:26:22Z</time>
      </trkpt>
      <trkpt lat="49.2341" lon="1.12928">
        <ele>84.3</ele>
        <time>2016-09-18T06:26:26Z</time>
      </trkpt>
      <trkpt lat="49.23407" lon="1.12942">
        <ele>84.6</ele>
        <time>2016-09-18T06:26:29Z</time>
      </trkpt>
      <trkpt lat="49.23404" lon="1.12959">
        <ele>85</ele>
        <time>2016-09-18T06:26:32Z</time>
      </trkpt>
      <trkpt lat="49.23401" lon="1.12977">
        <ele>85.5</ele>
        <time>2016-09-18T06:26:36Z</time>
      </trkpt>
      <trkpt lat="49.23398" lon="1.12991">
        <ele>85.9</ele>
        <time>2016-09-18T06:26:39Z</time>
      </trkpt>
      <trkpt lat="49.23397" lon="1.13007">
        <ele>86.4</ele>
        <time>2016-09-18T06:26:43Z</time>
      </trkpt>
      <trkpt lat="49.23392" lon="1.13022">
        <ele>86.6</ele>
        <time>2016-09-18T06:26:46Z</time>
      </trkpt>
      <trkpt lat="49.23388" lon="1.13039">
        <ele>86.9</ele>
        <time>2016-09-18T06:26:49Z</time>
      </trkpt>
      <trkpt lat="49.23384" lon="1.13058">
        <ele>87</ele>
        <time>2016-09-18T06:26:52Z</time>
      </trkpt>
      <trkpt lat="49.2338" lon="1.13079">
        <ele>87</ele>
        <time>2016-09-18T06:26:55Z</time>
      </trkpt>
      <trkpt lat="49.23378" lon="1.13093">
        <ele>86.9</ele>
        <time>2016-09-18T06:26:57Z</time>
      </trkpt>
      <trkpt lat="49.23375" lon="1.13107">
        <ele>86.7</ele>
        <time>2016-09-18T06:26:59Z</time>
      </trkpt>
      <trkpt lat="49.23369" lon="1.1312">
        <ele>86.4</ele>
        <time>2016-09-18T06:27:02Z</time>
      </trkpt>
      <trkpt lat="49.23365" lon="1.13133">
        <ele>85.9</ele>
        <time>2016-09-18T06:27:06Z</time>
      </trkpt>
      <trkpt lat="49.23367" lon="1.13147">
        <ele>85.6</ele>
        <time>2016-09-18T06:27:11Z</time>
      </trkpt>
      <trkpt lat="49.23371" lon="1.13159">
        <ele>86.1</ele>
        <time>2016-09-18T06:27:20Z</time>
      </trkpt>
      <trkpt lat="49.23378" lon="1.1317">
        <ele>87.5</ele>
        <time>2016-09-18T06:27:29Z</time>
      </trkpt>
      <trkpt lat="49.23386" lon="1.13179">
        <ele>89.6</ele>
        <time>2016-09-18T06:27:38Z</time>
      </trkpt>
      <trkpt lat="49.23394" lon="1.13185">
        <ele>91.6</ele>
        <time>2016-09-18T06:27:45Z</time>
      </trkpt>
      <trkpt lat="49.23402" lon="1.13192">
        <ele>93.6</ele>
        <time>2016-09-18T06:27:52Z</time>
      </trkpt>
      <trkpt lat="49.23412" lon="1.13197">
        <ele>95.4</ele>
        <time>2016-09-18T06:27:58Z</time>
      </trkpt>
      <trkpt lat="49.2342" lon="1.13202">
        <ele>96.9</ele>
        <time>2016-09-18T06:28:03Z</time>
      </trkpt>
      <trkpt lat="49.2343" lon="1.13205">
        <ele>99</ele>
        <time>2016-09-18T06:28:11Z</time>
      </trkpt>
      <trkpt lat="49.23439" lon="1.13211">
        <ele>100.3</ele>
        <time>2016-09-18T06:28:16Z</time>
      </trkpt>
      <trkpt lat="49.23448" lon="1.13216">
        <ele>101.4</ele>
        <time>2016-09-18T06:28:20Z</time>
      </trkpt>
      <trkpt lat="49.23458" lon="1.13221">
        <ele>102.3</ele>
        <time>2016-09-18T06:28:24Z</time>
      </trkpt>
      <trkpt lat="49.23468" lon="1.13225">
        <ele>103.1</ele>
        <time>2016-09-18T06:28:28Z</time>
      </trkpt>
      <trkpt lat="49.23477" lon="1.1323">
        <ele>103.8</ele>
        <time>2016-09-18T06:28:31Z</time>
      </trkpt>
      <trkpt lat="49.23487" lon="1.13235">
        <ele>104.6</ele>
        <time>2016-09-18T06:28:35Z</time>
      </trkpt>
      <trkpt lat="49.23497" lon="1.13239">
        <ele>105.3</ele>
        <time>2016-09-18T06:28:39Z</time>
      </trkpt>
      <trkpt lat="49.23508" lon="1.13244">
        <ele>106.6</ele>
        <time>2016-09-18T06:28:45Z</time>
      </trkpt>
      <trkpt lat="49.23518" lon="1.13249">
        <ele>107.2</ele>
        <time>2016-09-18T06:28:49Z</time>
      </trkpt>
      <trkpt lat="49.23527" lon="1.13254">
        <ele>107.8</ele>
        <time>2016-09-18T06:28:52Z</time>
      </trkpt>
      <trkpt lat="49.23536" lon="1.13257">
        <ele>108.4</ele>
        <time>2016-09-18T06:28:56Z</time>
      </trkpt>
      <trkpt lat="49.23546" lon="1.13263">
        <ele>109</ele>
        <time>2016-09-18T06:29:00Z</time>
      </trkpt>
      <trkpt lat="49.23555" lon="1.13268">
        <ele>109.7</ele>
        <time>2016-09-18T06:29:05Z</time>
      </trkpt>
      <trkpt lat="49.23564" lon="1.13272">
        <ele>110.2</ele>
        <time>2016-09-18T06:29:09Z</time>
      </trkpt>
      <trkpt lat="49.23573" lon="1.13278">
        <ele>110.4</ele>
        <time>2016-09-18T06:29:11Z</time>
      </trkpt>
      <trkpt lat="49.23582" lon="1.13281">
        <ele>111</ele>
        <time>2016-09-18T06:29:16Z</time>
      </trkpt>
      <trkpt lat="49.23593" lon="1.13287">
        <ele>111.4</ele>
        <time>2016-09-18T06:29:20Z</time>
      </trkpt>
      <trkpt lat="49.23605" lon="1.13294">
        <ele>111.7</ele>
        <time>2016-09-18T06:29:22Z</time>
      </trkpt>
      <trkpt lat="49.23619" lon="1.13302">
        <ele>112</ele>
        <time>2016-09-18T06:29:25Z</time>
      </trkpt>
      <trkpt lat="49.23628" lon="1.13307">
        <ele>112.2</ele>
        <time>2016-09-18T06:29:27Z</time>
      </trkpt>
      <trkpt lat="49.23639" lon="1.13314">
        <ele>112.6</ele>
        <time>2016-09-18T06:29:31Z</time>
      </trkpt>
      <trkpt lat="49.23645" lon="1.13328">
        <ele>113</ele>
        <time>2016-09-18T06:29:36Z</time>
      </trkpt>
      <trkpt lat="49.23647" lon="1.13342">
        <ele>113.3</ele>
        <time>2016-09-18T06:29:40Z</time>
      </trkpt>
      <trkpt lat="49.23645" lon="1.13356">
        <ele>113.5</ele>
        <time>2016-09-18T06:29:43Z</time>
      </trkpt>
      <trkpt lat="49.23646" lon="1.13375">
        <ele>113.7</ele>
        <time>2016-09-18T06:29:46Z</time>
      </trkpt>
      <trkpt lat="49.23645" lon="1.13395">
        <ele>113.8</ele>
        <time>2016-09-18T06:29:49Z</time>
      </trkpt>
      <trkpt lat="49.23644" lon="1.13409">
        <ele>113.8</ele>
        <time>2016-09-18T06:29:51Z</time>
      </trkpt>
      <trkpt lat="49.23643" lon="1.13423">
        <ele>113.9</ele>
        <time>2016-09-18T06:29:53Z</time>
      </trkpt>
      <trkpt lat="49.23641" lon="1.13438">
        <ele>113.9</ele>
        <time>2016-09-18T06:29:55Z</time>
      </trkpt>
      <trkpt lat="49.2364" lon="1.13453">
        <ele>114</ele>
        <time>2016-09-18T06:29:57Z</time>
      </trkpt>
      <trkpt lat="49.2364" lon="1.13468">
        <ele>114</ele>
        <time>2016-09-18T06:29:59Z</time>
      </trkpt>
      <trkpt lat="49.23638" lon="1.13483">
        <ele>114</ele>
        <time>2016-09-18T06:30:01Z</time>
      </trkpt>
      <trkpt lat="49.23636" lon="1.13497">
        <ele>114</ele>
        <time>2016-09-18T06:30:03Z</time>
      </trkpt>
      <trkpt lat="49.23633" lon="1.13512">
        <ele>114</ele>
        <time>2016-09-18T06:30:05Z</time>
      </trkpt>
      <trkpt lat="49.23632" lon="1.13527">
        <ele>114</ele>
        <time>2016-09-18T06:30:07Z</time>
      </trkpt>
      <trkpt lat="49.2363" lon="1.13543">
        <ele>114</ele>
        <time>2016-09-18T06:30:09Z</time>
      </trkpt>
      <trkpt lat="49.23627" lon="1.13559">
        <ele>114</ele>
        <time>2016-09-18T06:30:11Z</time>
      </trkpt>
      <trkpt lat="49.23624" lon="1.13575">
        <ele>114</ele>
        <time>2016-09-18T06:30:13Z</time>
      </trkpt>
      <trkpt lat="49.23621" lon="1.1359">
        <ele>114</ele>
        <time>2016-09-18T06:30:15Z</time>
      </trkpt>
      <trkpt lat="49.23618" lon="1.13605">
        <ele>114</ele>
        <time>2016-09-18T06:30:17Z</time>
      </trkpt>
      <trkpt lat="49.23615" lon="1.1362">
        <ele>114</ele>
        <time>2016-09-18T06:30:19Z</time>
      </trkpt>
      <trkpt lat="49.23612" lon="1.13635">
        <ele>114</ele>
        <time>2016-09-18T06:30:21Z</time>
      </trkpt>
      <trkpt lat="49.23608" lon="1.1365">
        <ele>114</ele>
        <time>2016-09-18T06:30:23Z</time>
      </trkpt>
      <trkpt lat="49.23604" lon="1.13665">
        <ele>114</ele>
        <time>2016-09-18T06:30:25Z</time>
      </trkpt>
      <trkpt lat="49.236" lon="1.13683">
        <ele>114</ele>
        <time>2016-09-18T06:30:28Z</time>
      </trkpt>
      <trkpt lat="49.23598" lon="1.13699">
        <ele>114</ele>
        <time>2016-09-18T06:30:30Z</time>
      </trkpt>
      <trkpt lat="49.23598" lon="1.13716">
        <ele>113.9</ele>
        <time>2016-09-18T06:30:32Z</time>
      </trkpt>
      <trkpt lat="49.23594" lon="1.13733">
        <ele>113.8</ele>
        <time>2016-09-18T06:30:34Z</time>
      </trkpt>
      <trkpt lat="49.23591" lon="1.1375">
        <ele>113.8</ele>
        <time>2016-09-18T06:30:36Z</time>
      </trkpt>
      <trkpt lat="49.23589" lon="1.13765">
        <ele>113.7</ele>
        <time>2016-09-18T06:30:38Z</time>
      </trkpt>
      <trkpt lat="49.23587" lon="1.13781">
        <ele>113.6</ele>
        <time>2016-09-18T06:30:40Z</time>
      </trkpt>
      <trkpt lat="49.23587" lon="1.13798">
        <ele>113.6</ele>
        <time>2016-09-18T06:30:42Z</time>
      </trkpt>
      <trkpt lat="49.23581" lon="1.13815">
        <ele>113.5</ele>
        <time>2016-09-18T06:30:44Z</time>
      </trkpt>
      <trkpt lat="49.23577" lon="1.13832">
        <ele>113.4</ele>
        <time>2016-09-18T06:30:46Z</time>
      </trkpt>
      <trkpt lat="49.23574" lon="1.13849">
        <ele>113.4</ele>
        <time>2016-09-18T06:30:48Z</time>
      </trkpt>
      <trkpt lat="49.2357" lon="1.13867">
        <ele>113.3</ele>
        <time>2016-09-18T06:30:50Z</time>
      </trkpt>
      <trkpt lat="49.23567" lon="1.13884">
        <ele>113.2</ele>
        <time>2016-09-18T06:30:52Z</time>
      </trkpt>
      <trkpt lat="49.23563" lon="1.13901">
        <ele>113.2</ele>
        <time>2016-09-18T06:30:54Z</time>
      </trkpt>
      <trkpt lat="49.2356" lon="1.13918">
        <ele>113.2</ele>
        <time>2016-09-18T06:30:56Z</time>
      </trkpt>
      <trkpt lat="49.23556" lon="1.13934">
        <ele>113.1</ele>
        <time>2016-09-18T06:30:58Z</time>
      </trkpt>
      <trkpt lat="49.23552" lon="1.13951">
        <ele>113.1</ele>
        <time>2016-09-18T06:31:00Z</time>
      </trkpt>
      <trkpt lat="49.23548" lon="1.13967">
        <ele>113.1</ele>
        <time>2016-09-18T06:31:02Z</time>
      </trkpt>
      <trkpt lat="49.23547" lon="1.13982">
        <ele>113</ele>
        <time>2016-09-18T06:31:04Z</time>
      </trkpt>
      <trkpt lat="49.23545" lon="1.14">
        <ele>113</ele>
        <time>2016-09-18T06:31:06Z</time>
      </trkpt>
      <trkpt lat="49.23542" lon="1.14016">
        <ele>113</ele>
        <time>2016-09-18T06:31:08Z</time>
      </trkpt>
      <trkpt lat="49.23539" lon="1.14033">
        <ele>113</ele>
        <time>2016-09-18T06:31:10Z</time>
      </trkpt>
      <trkpt lat="49.23535" lon="1.14048">
        <ele>113</ele>
        <time>2016-09-18T06:31:12Z</time>
      </trkpt>
      <trkpt lat="49.23531" lon="1.14063">
        <ele>113</ele>
        <time>2016-09-18T06:31:14Z</time>
      </trkpt>
      <trkpt lat="49.23528" lon="1.1408">
        <ele>113.2</ele>
        <time>2016-09-18T06:31:16Z</time>
      </trkpt>
      <trkpt lat="49.23524" lon="1.14096">
        <ele>113.3</ele>
        <time>2016-09-18T06:31:18Z</time>
      </trkpt>
      <trkpt lat="49.23521" lon="1.14112">
        <ele>113.4</ele>
        <time>2016-09-18T06:31:20Z</time>
      </trkpt>
      <trkpt lat="49.23518" lon="1.14127">
        <ele>113.5</ele>
        <time>2016-09-18T06:31:22Z</time>
      </trkpt>
      <trkpt lat="49.23517" lon="1.14142">
        <ele>113.5</ele>
        <time>2016-09-18T06:31:24Z</time>
      </trkpt>
      <trkpt lat="49.23513" lon="1.14158">
        <ele>113.6</ele>
        <time>2016-09-18T06:31:26Z</time>
      </trkpt>
      <trkpt lat="49.2351" lon="1.14174">
        <ele>113.6</ele>
        <time>2016-09-18T06:31:28Z</time>
      </trkpt>
      <trkpt lat="49.23506" lon="1.1419">
        <ele>113.7</ele>
        <time>2016-09-18T06:31:30Z</time>
      </trkpt>
      <trkpt lat="49.23502" lon="1.14206">
        <ele>113.7</ele>
        <time>2016-09-18T06:31:32Z</time>
      </trkpt>
      <trkpt lat="49.23499" lon="1.14221">
        <ele>113.7</ele>
        <time>2016-09-18T06:31:34Z</time>
      </trkpt>
      <trkpt lat="49.23496" lon="1.14237">
        <ele>113.8</ele>
        <time>2016-09-18T06:31:36Z</time>
      </trkpt>
      <trkpt lat="49.23491" lon="1.14253">
        <ele>113.8</ele>
        <time>2016-09-18T06:31:38Z</time>
      </trkpt>
      <trkpt lat="49.23485" lon="1.14267">
        <ele>113.8</ele>
        <time>2016-09-18T06:31:40Z</time>
      </trkpt>
      <trkpt lat="49.23481" lon="1.14283">
        <ele>113.8</ele>
        <time>2016-09-18T06:31:42Z</time>
      </trkpt>
      <trkpt lat="49.23476" lon="1.14298">
        <ele>113.8</ele>
        <time>2016-09-18T06:31:44Z</time>
      </trkpt>
      <trkpt lat="49.23471" lon="1.14312">
        <ele>113.8</ele>
        <time>2016-09-18T06:31:46Z</time>
      </trkpt>
      <trkpt lat="49.23466" lon="1.14325">
        <ele>113.9</ele>
        <time>2016-09-18T06:31:48Z</time>
      </trkpt>
      <trkpt lat="49.23461" lon="1.14337">
        <ele>113.9</ele>
        <time>2016-09-18T06:31:50Z</time>
      </trkpt>
      <trkpt lat="49.23454" lon="1.14355">
        <ele>113.9</ele>
        <time>2016-09-18T06:31:53Z</time>
      </trkpt>
      <trkpt lat="49.2345" lon="1.14367">
        <ele>113.9</ele>
        <time>2016-09-18T06:31:55Z</time>
      </trkpt>
      <trkpt lat="49.23444" lon="1.1438">
        <ele>113.9</ele>
        <time>2016-09-18T06:31:57Z</time>
      </trkpt>
      <trkpt lat="49.23438" lon="1.14392">
        <ele>113.9</ele>
        <time>2016-09-18T06:31:59Z</time>
      </trkpt>
      <trkpt lat="49.23432" lon="1.14405">
        <ele>113.9</ele>
        <time>2016-09-18T06:32:01Z</time>
      </trkpt>
      <trkpt lat="49.23426" lon="1.14418">
        <ele>113.9</ele>
        <time>2016-09-18T06:32:03Z</time>
      </trkpt>
      <trkpt lat="49.2342" lon="1.1443">
        <ele>113.9</ele>
        <time>2016-09-18T06:32:05Z</time>
      </trkpt>
      <trkpt lat="49.23411" lon="1.14448">
        <ele>113.9</ele>
        <time>2016-09-18T06:32:08Z</time>
      </trkpt>
      <trkpt lat="49.23405" lon="1.1446">
        <ele>114</ele>
        <time>2016-09-18T06:32:10Z</time>
      </trkpt>
      <trkpt lat="49.23398" lon="1.14471">
        <ele>114</ele>
        <time>2016-09-18T06:32:12Z</time>
      </trkpt>
      <trkpt lat="49.2339" lon="1.14482">
        <ele>114</ele>
        <time>2016-09-18T06:32:14Z</time>
      </trkpt>
      <trkpt lat="49.23382" lon="1.14494">
        <ele>114</ele>
        <time>2016-09-18T06:32:16Z</time>
      </trkpt>
      <trkpt lat="49.23374" lon="1.14505">
        <ele>114</ele>
        <time>2016-09-18T06:32:18Z</time>
      </trkpt>
      <trkpt lat="49.23364" lon="1.14516">
        <ele>114</ele>
        <time>2016-09-18T06:32:20Z</time>
      </trkpt>
      <trkpt lat="49.23355" lon="1.14527">
        <ele>114</ele>
        <time>2016-09-18T06:32:22Z</time>
      </trkpt>
      <trkpt lat="49.23346" lon="1.14537">
        <ele>114</ele>
        <time>2016-09-18T06:32:24Z</time>
      </trkpt>
      <trkpt lat="49.23339" lon="1.14547">
        <ele>114</ele>
        <time>2016-09-18T06:32:26Z</time>
      </trkpt>
      <trkpt lat="49.23329" lon="1.14557">
        <ele>114</ele>
        <time>2016-09-18T06:32:28Z</time>
      </trkpt>
      <trkpt lat="49.23318" lon="1.14566">
        <ele>114</ele>
        <time>2016-09-18T06:32:30Z</time>
      </trkpt>
      <trkpt lat="49.23307" lon="1.14577">
        <ele>114</ele>
        <time>2016-09-18T06:32:32Z</time>
      </trkpt>
      <trkpt lat="49.233" lon="1.14586">
        <ele>114.1</ele>
        <time>2016-09-18T06:32:34Z</time>
      </trkpt>
      <trkpt lat="49.23292" lon="1.14595">
        <ele>114.1</ele>
        <time>2016-09-18T06:32:36Z</time>
      </trkpt>
      <trkpt lat="49.23285" lon="1.14604">
        <ele>114.2</ele>
        <time>2016-09-18T06:32:38Z</time>
      </trkpt>
      <trkpt lat="49.23276" lon="1.14614">
        <ele>114.3</ele>
        <time>2016-09-18T06:32:40Z</time>
      </trkpt>
      <trkpt lat="49.23267" lon="1.14625">
        <ele>114.4</ele>
        <time>2016-09-18T06:32:42Z</time>
      </trkpt>
      <trkpt lat="49.23259" lon="1.14633">
        <ele>114.5</ele>
        <time>2016-09-18T06:32:44Z</time>
      </trkpt>
      <trkpt lat="49.23249" lon="1.14642">
        <ele>114.6</ele>
        <time>2016-09-18T06:32:46Z</time>
      </trkpt>
      <trkpt lat="49.23242" lon="1.1465">
        <ele>114.7</ele>
        <time>2016-09-18T06:32:48Z</time>
      </trkpt>
      <trkpt lat="49.23232" lon="1.1466">
        <ele>114.8</ele>
        <time>2016-09-18T06:32:50Z</time>
      </trkpt>
      <trkpt lat="49.23224" lon="1.14667">
        <ele>114.9</ele>
        <time>2016-09-18T06:32:52Z</time>
      </trkpt>
      <trkpt lat="49.23217" lon="1.14675">
        <ele>115</ele>
        <time>2016-09-18T06:32:54Z</time>
      </trkpt>
      <trkpt lat="49.23209" lon="1.14687">
        <ele>115.1</ele>
        <time>2016-09-18T06:32:56Z</time>
      </trkpt>
      <trkpt lat="49.23201" lon="1.14697">
        <ele>115.2</ele>
        <time>2016-09-18T06:32:58Z</time>
      </trkpt>
      <trkpt lat="49.23193" lon="1.14709">
        <ele>115.3</ele>
        <time>2016-09-18T06:33:00Z</time>
      </trkpt>
      <trkpt lat="49.23187" lon="1.14722">
        <ele>115.4</ele>
        <time>2016-09-18T06:33:02Z</time>
      </trkpt>
      <trkpt lat="49.23182" lon="1.14736">
        <ele>115.5</ele>
        <time>2016-09-18T06:33:04Z</time>
      </trkpt>
      <trkpt lat="49.23174" lon="1.14751">
        <ele>115.6</ele>
        <time>2016-09-18T06:33:06Z</time>
      </trkpt>
      <trkpt lat="49.23167" lon="1.14763">
        <ele>115.6</ele>
        <time>2016-09-18T06:33:08Z</time>
      </trkpt>
      <trkpt lat="49.2316" lon="1.14778">
        <ele>115.7</ele>
        <time>2016-09-18T06:33:10Z</time>
      </trkpt>
      <trkpt lat="49.23151" lon="1.14795">
        <ele>115.7</ele>
        <time>2016-09-18T06:33:12Z</time>
      </trkpt>
      <trkpt lat="49.23144" lon="1.14808">
        <ele>115.8</ele>
        <time>2016-09-18T06:33:14Z</time>
      </trkpt>
      <trkpt lat="49.23137" lon="1.14819">
        <ele>115.8</ele>
        <time>2016-09-18T06:33:16Z</time>
      </trkpt>
      <trkpt lat="49.23128" lon="1.14835">
        <ele>115.7</ele>
        <time>2016-09-18T06:33:19Z</time>
      </trkpt>
      <trkpt lat="49.2312" lon="1.14852">
        <ele>115.7</ele>
        <time>2016-09-18T06:33:21Z</time>
      </trkpt>
      <trkpt lat="49.23114" lon="1.14866">
        <ele>115.7</ele>
        <time>2016-09-18T06:33:23Z</time>
      </trkpt>
      <trkpt lat="49.23109" lon="1.14879">
        <ele>115.7</ele>
        <time>2016-09-18T06:33:25Z</time>
      </trkpt>
      <trkpt lat="49.23104" lon="1.14895">
        <ele>115.6</ele>
        <time>2016-09-18T06:33:28Z</time>
      </trkpt>
      <trkpt lat="49.23102" lon="1.14912">
        <ele>115.4</ele>
        <time>2016-09-18T06:33:31Z</time>
      </trkpt>
      <trkpt lat="49.23111" lon="1.14918">
        <ele>115.2</ele>
        <time>2016-09-18T06:33:35Z</time>
      </trkpt>
      <trkpt lat="49.2312" lon="1.14928">
        <ele>115</ele>
        <time>2016-09-18T06:33:39Z</time>
      </trkpt>
      <trkpt lat="49.23128" lon="1.14939">
        <ele>114.9</ele>
        <time>2016-09-18T06:33:44Z</time>
      </trkpt>
      <trkpt lat="49.23137" lon="1.14947">
        <ele>114.8</ele>
        <time>2016-09-18T06:33:47Z</time>
      </trkpt>
      <trkpt lat="49.23146" lon="1.14957">
        <ele>114.7</ele>
        <time>2016-09-18T06:33:52Z</time>
      </trkpt>
      <trkpt lat="49.23154" lon="1.14965">
        <ele>114.6</ele>
        <time>2016-09-18T06:33:56Z</time>
      </trkpt>
      <trkpt lat="49.23164" lon="1.14972">
        <ele>114.6</ele>
        <time>2016-09-18T06:33:59Z</time>
      </trkpt>
      <trkpt lat="49.23173" lon="1.14976">
        <ele>114.7</ele>
        <time>2016-09-18T06:34:01Z</time>
      </trkpt>
      <trkpt lat="49.23183" lon="1.14983">
        <ele>114.7</ele>
        <time>2016-09-18T06:34:03Z</time>
      </trkpt>
      <trkpt lat="49.23193" lon="1.14991">
        <ele>114.7</ele>
        <time>2016-09-18T06:34:06Z</time>
      </trkpt>
      <trkpt lat="49.23207" lon="1.14996">
        <ele>114.7</ele>
        <time>2016-09-18T06:34:08Z</time>
      </trkpt>
      <trkpt lat="49.23217" lon="1.15002">
        <ele>114.7</ele>
        <time>2016-09-18T06:34:11Z</time>
      </trkpt>
      <trkpt lat="49.23229" lon="1.15009">
        <ele>114.7</ele>
        <time>2016-09-18T06:34:14Z</time>
      </trkpt>
      <trkpt lat="49.23243" lon="1.15018">
        <ele>114.7</ele>
        <time>2016-09-18T06:34:17Z</time>
      </trkpt>
      <trkpt lat="49.23255" lon="1.15024">
        <ele>114.7</ele>
        <time>2016-09-18T06:34:19Z</time>
      </trkpt>
      <trkpt lat="49.23265" lon="1.15031">
        <ele>114.7</ele>
        <time>2016-09-18T06:34:22Z</time>
      </trkpt>
      <trkpt lat="49.23275" lon="1.15035">
        <ele>114.7</ele>
        <time>2016-09-18T06:34:23Z</time>
      </trkpt>
      <trkpt lat="49.23285" lon="1.1504">
        <ele>114.7</ele>
        <time>2016-09-18T06:34:25Z</time>
      </trkpt>
      <trkpt lat="49.23304" lon="1.15048">
        <ele>114.6</ele>
        <time>2016-09-18T06:34:27Z</time>
      </trkpt>
      <trkpt lat="49.23316" lon="1.15054">
        <ele>114.6</ele>
        <time>2016-09-18T06:34:29Z</time>
      </trkpt>
      <trkpt lat="49.23326" lon="1.15058">
        <ele>114.6</ele>
        <time>2016-09-18T06:34:30Z</time>
      </trkpt>
      <trkpt lat="49.23335" lon="1.15061">
        <ele>114.6</ele>
        <time>2016-09-18T06:34:31Z</time>
      </trkpt>
      <trkpt lat="49.2335" lon="1.15068">
        <ele>114.6</ele>
        <time>2016-09-18T06:34:33Z</time>
      </trkpt>
      <trkpt lat="49.2336" lon="1.15072">
        <ele>114.6</ele>
        <time>2016-09-18T06:34:35Z</time>
      </trkpt>
      <trkpt lat="49.23375" lon="1.15078">
        <ele>114.6</ele>
        <time>2016-09-18T06:34:37Z</time>
      </trkpt>
      <trkpt lat="49.23384" lon="1.15081">
        <ele>114.5</ele>
        <time>2016-09-18T06:34:38Z</time>
      </trkpt>
      <trkpt lat="49.23397" lon="1.15086">
        <ele>114.3</ele>
        <time>2016-09-18T06:34:40Z</time>
      </trkpt>
      <trkpt lat="49.23411" lon="1.15092">
        <ele>114.1</ele>
        <time>2016-09-18T06:34:42Z</time>
      </trkpt>
      <trkpt lat="49.23421" lon="1.15097">
        <ele>113.9</ele>
        <time>2016-09-18T06:34:44Z</time>
      </trkpt>
      <trkpt lat="49.23436" lon="1.15103">
        <ele>113.6</ele>
        <time>2016-09-18T06:34:46Z</time>
      </trkpt>
      <trkpt lat="49.23446" lon="1.15107">
        <ele>113.5</ele>
        <time>2016-09-18T06:34:47Z</time>
      </trkpt>
      <trkpt lat="49.23459" lon="1.15114">
        <ele>113</ele>
        <time>2016-09-18T06:34:49Z</time>
      </trkpt>
      <trkpt lat="49.23463" lon="1.1513">
        <ele>112.3</ele>
        <time>2016-09-18T06:34:52Z</time>
      </trkpt>
      <trkpt lat="49.2346" lon="1.15146">
        <ele>111.8</ele>
        <time>2016-09-18T06:34:55Z</time>
      </trkpt>
      <trkpt lat="49.23454" lon="1.15163">
        <ele>111.2</ele>
        <time>2016-09-18T06:34:58Z</time>
      </trkpt>
      <trkpt lat="49.23448" lon="1.15182">
        <ele>110.7</ele>
        <time>2016-09-18T06:35:01Z</time>
      </trkpt>
      <trkpt lat="49.23443" lon="1.15194">
        <ele>110.5</ele>
        <time>2016-09-18T06:35:03Z</time>
      </trkpt>
      <trkpt lat="49.23439" lon="1.15208">
        <ele>110.2</ele>
        <time>2016-09-18T06:35:05Z</time>
      </trkpt>
      <trkpt lat="49.23433" lon="1.15222">
        <ele>110</ele>
        <time>2016-09-18T06:35:07Z</time>
      </trkpt>
      <trkpt lat="49.23428" lon="1.15235">
        <ele>109.8</ele>
        <time>2016-09-18T06:35:09Z</time>
      </trkpt>
      <trkpt lat="49.23422" lon="1.15249">
        <ele>109.7</ele>
        <time>2016-09-18T06:35:11Z</time>
      </trkpt>
      <trkpt lat="49.23417" lon="1.15263">
        <ele>109.5</ele>
        <time>2016-09-18T06:35:13Z</time>
      </trkpt>
      <trkpt lat="49.23411" lon="1.15277">
        <ele>109.4</ele>
        <time>2016-09-18T06:35:15Z</time>
      </trkpt>
      <trkpt lat="49.23405" lon="1.15292">
        <ele>109.3</ele>
        <time>2016-09-18T06:35:17Z</time>
      </trkpt>
      <trkpt lat="49.23398" lon="1.15306">
        <ele>109.1</ele>
        <time>2016-09-18T06:35:19Z</time>
      </trkpt>
      <trkpt lat="49.23393" lon="1.15318">
        <ele>109</ele>
        <time>2016-09-18T06:35:21Z</time>
      </trkpt>
      <trkpt lat="49.23387" lon="1.15333">
        <ele>108.9</ele>
        <time>2016-09-18T06:35:23Z</time>
      </trkpt>
      <trkpt lat="49.23381" lon="1.15349">
        <ele>108.7</ele>
        <time>2016-09-18T06:35:25Z</time>
      </trkpt>
      <trkpt lat="49.23379" lon="1.15366">
        <ele>108.6</ele>
        <time>2016-09-18T06:35:27Z</time>
      </trkpt>
      <trkpt lat="49.23377" lon="1.15382">
        <ele>108.5</ele>
        <time>2016-09-18T06:35:29Z</time>
      </trkpt>
      <trkpt lat="49.23376" lon="1.15401">
        <ele>108.3</ele>
        <time>2016-09-18T06:35:31Z</time>
      </trkpt>
      <trkpt lat="49.23373" lon="1.15422">
        <ele>108.1</ele>
        <time>2016-09-18T06:35:33Z</time>
      </trkpt>
      <trkpt lat="49.23371" lon="1.15443">
        <ele>107.8</ele>
        <time>2016-09-18T06:35:35Z</time>
      </trkpt>
      <trkpt lat="49.23367" lon="1.15464">
        <ele>107.5</ele>
        <time>2016-09-18T06:35:37Z</time>
      </trkpt>
      <trkpt lat="49.23368" lon="1.15484">
        <ele>107.1</ele>
        <time>2016-09-18T06:35:39Z</time>
      </trkpt>
      <trkpt lat="49.23366" lon="1.15503">
        <ele>106.7</ele>
        <time>2016-09-18T06:35:41Z</time>
      </trkpt>
      <trkpt lat="49.23359" lon="1.15522">
        <ele>106.3</ele>
        <time>2016-09-18T06:35:43Z</time>
      </trkpt>
      <trkpt lat="49.23355" lon="1.15541">
        <ele>105.8</ele>
        <time>2016-09-18T06:35:45Z</time>
      </trkpt>
      <trkpt lat="49.23351" lon="1.15558">
        <ele>105.4</ele>
        <time>2016-09-18T06:35:47Z</time>
      </trkpt>
      <trkpt lat="49.23347" lon="1.15574">
        <ele>105</ele>
        <time>2016-09-18T06:35:49Z</time>
      </trkpt>
      <trkpt lat="49.23344" lon="1.15588">
        <ele>104.6</ele>
        <time>2016-09-18T06:35:51Z</time>
      </trkpt>
      <trkpt lat="49.23339" lon="1.15599">
        <ele>104.3</ele>
        <time>2016-09-18T06:35:53Z</time>
      </trkpt>
      <trkpt lat="49.23332" lon="1.1561">
        <ele>104</ele>
        <time>2016-09-18T06:35:55Z</time>
      </trkpt>
      <trkpt lat="49.23322" lon="1.1562">
        <ele>103.6</ele>
        <time>2016-09-18T06:35:58Z</time>
      </trkpt>
      <trkpt lat="49.23311" lon="1.15629">
        <ele>103.3</ele>
        <time>2016-09-18T06:36:01Z</time>
      </trkpt>
      <trkpt lat="49.233" lon="1.15639">
        <ele>103.1</ele>
        <time>2016-09-18T06:36:04Z</time>
      </trkpt>
      <trkpt lat="49.2329" lon="1.1565">
        <ele>102.8</ele>
        <time>2016-09-18T06:36:07Z</time>
      </trkpt>
      <trkpt lat="49.23283" lon="1.15659">
        <ele>102.7</ele>
        <time>2016-09-18T06:36:09Z</time>
      </trkpt>
      <trkpt lat="49.23274" lon="1.15671">
        <ele>102.6</ele>
        <time>2016-09-18T06:36:11Z</time>
      </trkpt>
      <trkpt lat="49.23266" lon="1.15685">
        <ele>102.4</ele>
        <time>2016-09-18T06:36:13Z</time>
      </trkpt>
      <trkpt lat="49.23257" lon="1.157">
        <ele>102.2</ele>
        <time>2016-09-18T06:36:15Z</time>
      </trkpt>
      <trkpt lat="49.23251" lon="1.15714">
        <ele>102</ele>
        <time>2016-09-18T06:36:17Z</time>
      </trkpt>
      <trkpt lat="49.23242" lon="1.15726">
        <ele>101.7</ele>
        <time>2016-09-18T06:36:19Z</time>
      </trkpt>
      <trkpt lat="49.23232" lon="1.15738">
        <ele>101.3</ele>
        <time>2016-09-18T06:36:21Z</time>
      </trkpt>
      <trkpt lat="49.23221" lon="1.15747">
        <ele>101</ele>
        <time>2016-09-18T06:36:23Z</time>
      </trkpt>
      <trkpt lat="49.23211" lon="1.15756">
        <ele>100.6</ele>
        <time>2016-09-18T06:36:25Z</time>
      </trkpt>
      <trkpt lat="49.23202" lon="1.15767">
        <ele>100.3</ele>
        <time>2016-09-18T06:36:27Z</time>
      </trkpt>
      <trkpt lat="49.23188" lon="1.15779">
        <ele>99.8</ele>
        <time>2016-09-18T06:36:29Z</time>
      </trkpt>
      <trkpt lat="49.23175" lon="1.15789">
        <ele>99.3</ele>
        <time>2016-09-18T06:36:31Z</time>
      </trkpt>
      <trkpt lat="49.23165" lon="1.15799">
        <ele>98.7</ele>
        <time>2016-09-18T06:36:33Z</time>
      </trkpt>
      <trkpt lat="49.23156" lon="1.15809">
        <ele>98.1</ele>
        <time>2016-09-18T06:36:35Z</time>
      </trkpt>
      <trkpt lat="49.23148" lon="1.15819">
        <ele>97.6</ele>
        <time>2016-09-18T06:36:37Z</time>
      </trkpt>
      <trkpt lat="49.23137" lon="1.1583">
        <ele>97</ele>
        <time>2016-09-18T06:36:39Z</time>
      </trkpt>
      <trkpt lat="49.23126" lon="1.15845">
        <ele>96.3</ele>
        <time>2016-09-18T06:36:41Z</time>
      </trkpt>
      <trkpt lat="49.23114" lon="1.15857">
        <ele>95.6</ele>
        <time>2016-09-18T06:36:43Z</time>
      </trkpt>
      <trkpt lat="49.23105" lon="1.1587">
        <ele>95</ele>
        <time>2016-09-18T06:36:45Z</time>
      </trkpt>
      <trkpt lat="49.23095" lon="1.15883">
        <ele>94.2</ele>
        <time>2016-09-18T06:36:47Z</time>
      </trkpt>
      <trkpt lat="49.23089" lon="1.15899">
        <ele>93.4</ele>
        <time>2016-09-18T06:36:49Z</time>
      </trkpt>
      <trkpt lat="49.23083" lon="1.15917">
        <ele>92.6</ele>
        <time>2016-09-18T06:36:51Z</time>
      </trkpt>
      <trkpt lat="49.23078" lon="1.15934">
        <ele>91.7</ele>
        <time>2016-09-18T06:36:53Z</time>
      </trkpt>
      <trkpt lat="49.23074" lon="1.15953">
        <ele>90.6</ele>
        <time>2016-09-18T06:36:55Z</time>
      </trkpt>
      <trkpt lat="49.23069" lon="1.15967">
        <ele>89.4</ele>
        <time>2016-09-18T06:36:57Z</time>
      </trkpt>
      <trkpt lat="49.23059" lon="1.15976">
        <ele>88.2</ele>
        <time>2016-09-18T06:36:59Z</time>
      </trkpt>
      <trkpt lat="49.23046" lon="1.15981">
        <ele>86.9</ele>
        <time>2016-09-18T06:37:01Z</time>
      </trkpt>
      <trkpt lat="49.23032" lon="1.15986">
        <ele>85.6</ele>
        <time>2016-09-18T06:37:03Z</time>
      </trkpt>
      <trkpt lat="49.23021" lon="1.15985">
        <ele>84.3</ele>
        <time>2016-09-18T06:37:05Z</time>
      </trkpt>
      <trkpt lat="49.23012" lon="1.15983">
        <ele>82.9</ele>
        <time>2016-09-18T06:37:07Z</time>
      </trkpt>
      <trkpt lat="49.23" lon="1.15981">
        <ele>81.4</ele>
        <time>2016-09-18T06:37:09Z</time>
      </trkpt>
      <trkpt lat="49.2299" lon="1.15977">
        <ele>80</ele>
        <time>2016-09-18T06:37:11Z</time>
      </trkpt>
      <trkpt lat="49.2298" lon="1.15973">
        <ele>78.6</ele>
        <time>2016-09-18T06:37:13Z</time>
      </trkpt>
      <trkpt lat="49.22968" lon="1.15969">
        <ele>76.5</ele>
        <time>2016-09-18T06:37:16Z</time>
      </trkpt>
      <trkpt lat="49.22958" lon="1.1596">
        <ele>74.4</ele>
        <time>2016-09-18T06:37:19Z</time>
      </trkpt>
      <trkpt lat="49.22949" lon="1.15951">
        <ele>73.1</ele>
        <time>2016-09-18T06:37:21Z</time>
      </trkpt>
      <trkpt lat="49.22941" lon="1.15941">
        <ele>71.8</ele>
        <time>2016-09-18T06:37:23Z</time>
      </trkpt>
      <trkpt lat="49.22934" lon="1.15931">
        <ele>70.5</ele>
        <time>2016-09-18T06:37:25Z</time>
      </trkpt>
      <trkpt lat="49.22923" lon="1.15922">
        <ele>69.3</ele>
        <time>2016-09-18T06:37:27Z</time>
      </trkpt>
      <trkpt lat="49.22912" lon="1.15909">
        <ele>67.9</ele>
        <time>2016-09-18T06:37:29Z</time>
      </trkpt>
      <trkpt lat="49.229" lon="1.15896">
        <ele>66.4</ele>
        <time>2016-09-18T06:37:31Z</time>
      </trkpt>
      <trkpt lat="49.22887" lon="1.15884">
        <ele>64.9</ele>
        <time>2016-09-18T06:37:33Z</time>
      </trkpt>
      <trkpt lat="49.22875" lon="1.15874">
        <ele>63.3</ele>
        <time>2016-09-18T06:37:35Z</time>
      </trkpt>
      <trkpt lat="49.2286" lon="1.15865">
        <ele>61.7</ele>
        <time>2016-09-18T06:37:37Z</time>
      </trkpt>
      <trkpt lat="49.22847" lon="1.15855">
        <ele>60</ele>
        <time>2016-09-18T06:37:39Z</time>
      </trkpt>
      <trkpt lat="49.22836" lon="1.15848">
        <ele>58.2</ele>
        <time>2016-09-18T06:37:41Z</time>
      </trkpt>
      <trkpt lat="49.22826" lon="1.15842">
        <ele>56.4</ele>
        <time>2016-09-18T06:37:43Z</time>
      </trkpt>
      <trkpt lat="49.22816" lon="1.15836">
        <ele>54.6</ele>
        <time>2016-09-18T06:37:45Z</time>
      </trkpt>
      <trkpt lat="49.22804" lon="1.15836">
        <ele>52.1</ele>
        <time>2016-09-18T06:37:48Z</time>
      </trkpt>
      <trkpt lat="49.228" lon="1.15848">
        <ele>49.8</ele>
        <time>2016-09-18T06:37:51Z</time>
      </trkpt>
      <trkpt lat="49.22803" lon="1.15862">
        <ele>47.8</ele>
        <time>2016-09-18T06:37:54Z</time>
      </trkpt>
      <trkpt lat="49.22809" lon="1.15876">
        <ele>46.6</ele>
        <time>2016-09-18T06:37:56Z</time>
      </trkpt>
      <trkpt lat="49.22813" lon="1.15889">
        <ele>45.4</ele>
        <time>2016-09-18T06:37:58Z</time>
      </trkpt>
      <trkpt lat="49.22817" lon="1.15908">
        <ele>43.9</ele>
        <time>2016-09-18T06:38:01Z</time>
      </trkpt>
      <trkpt lat="49.22823" lon="1.15921">
        <ele>43.1</ele>
        <time>2016-09-18T06:38:03Z</time>
      </trkpt>
      <trkpt lat="49.22826" lon="1.15937">
        <ele>42</ele>
        <time>2016-09-18T06:38:06Z</time>
      </trkpt>
      <trkpt lat="49.22835" lon="1.15953">
        <ele>41.1</ele>
        <time>2016-09-18T06:38:09Z</time>
      </trkpt>
      <trkpt lat="49.2284" lon="1.1597">
        <ele>40.4</ele>
        <time>2016-09-18T06:38:12Z</time>
      </trkpt>
      <trkpt lat="49.22848" lon="1.1598">
        <ele>40</ele>
        <time>2016-09-18T06:38:14Z</time>
      </trkpt>
      <trkpt lat="49.22857" lon="1.15993">
        <ele>39.5</ele>
        <time>2016-09-18T06:38:17Z</time>
      </trkpt>
      <trkpt lat="49.22865" lon="1.16">
        <ele>39.4</ele>
        <time>2016-09-18T06:38:19Z</time>
      </trkpt>
      <trkpt lat="49.22875" lon="1.1601">
        <ele>39.4</ele>
        <time>2016-09-18T06:38:22Z</time>
      </trkpt>
      <trkpt lat="49.22885" lon="1.16017">
        <ele>39.4</ele>
        <time>2016-09-18T06:38:25Z</time>
      </trkpt>
      <trkpt lat="49.22897" lon="1.16023">
        <ele>39.8</ele>
        <time>2016-09-18T06:38:28Z</time>
      </trkpt>
      <trkpt lat="49.22905" lon="1.16034">
        <ele>40.3</ele>
        <time>2016-09-18T06:38:32Z</time>
      </trkpt>
      <trkpt lat="49.22913" lon="1.16043">
        <ele>40.7</ele>
        <time>2016-09-18T06:38:35Z</time>
      </trkpt>
      <trkpt lat="49.22922" lon="1.16052">
        <ele>40.9</ele>
        <time>2016-09-18T06:38:37Z</time>
      </trkpt>
      <trkpt lat="49.22931" lon="1.16065">
        <ele>41.1</ele>
        <time>2016-09-18T06:38:40Z</time>
      </trkpt>
      <trkpt lat="49.2294" lon="1.16079">
        <ele>41.3</ele>
        <time>2016-09-18T06:38:43Z</time>
      </trkpt>
      <trkpt lat="49.22949" lon="1.16092">
        <ele>41.4</ele>
        <time>2016-09-18T06:38:45Z</time>
      </trkpt>
      <trkpt lat="49.22956" lon="1.16104">
        <ele>41.5</ele>
        <time>2016-09-18T06:38:47Z</time>
      </trkpt>
      <trkpt lat="49.22965" lon="1.16116">
        <ele>41.5</ele>
        <time>2016-09-18T06:38:49Z</time>
      </trkpt>
      <trkpt lat="49.22973" lon="1.16127">
        <ele>41.4</ele>
        <time>2016-09-18T06:38:51Z</time>
      </trkpt>
      <trkpt lat="49.22982" lon="1.16137">
        <ele>41.3</ele>
        <time>2016-09-18T06:38:53Z</time>
      </trkpt>
      <trkpt lat="49.22988" lon="1.16152">
        <ele>41.2</ele>
        <time>2016-09-18T06:38:55Z</time>
      </trkpt>
      <trkpt lat="49.22995" lon="1.16166">
        <ele>40.9</ele>
        <time>2016-09-18T06:38:57Z</time>
      </trkpt>
      <trkpt lat="49.23003" lon="1.16178">
        <ele>40.7</ele>
        <time>2016-09-18T06:38:59Z</time>
      </trkpt>
      <trkpt lat="49.23011" lon="1.16187">
        <ele>40.4</ele>
        <time>2016-09-18T06:39:01Z</time>
      </trkpt>
      <trkpt lat="49.23019" lon="1.16196">
        <ele>40.1</ele>
        <time>2016-09-18T06:39:03Z</time>
      </trkpt>
      <trkpt lat="49.23027" lon="1.16204">
        <ele>39.9</ele>
        <time>2016-09-18T06:39:05Z</time>
      </trkpt>
      <trkpt lat="49.23036" lon="1.16212">
        <ele>39.7</ele>
        <time>2016-09-18T06:39:07Z</time>
      </trkpt>
      <trkpt lat="49.23047" lon="1.16223">
        <ele>39.4</ele>
        <time>2016-09-18T06:39:10Z</time>
      </trkpt>
      <trkpt lat="49.23056" lon="1.1623">
        <ele>39.5</ele>
        <time>2016-09-18T06:39:12Z</time>
      </trkpt>
      <trkpt lat="49.23068" lon="1.1624">
        <ele>39.6</ele>
        <time>2016-09-18T06:39:15Z</time>
      </trkpt>
      <trkpt lat="49.23077" lon="1.16247">
        <ele>39.9</ele>
        <time>2016-09-18T06:39:18Z</time>
      </trkpt>
      <trkpt lat="49.23089" lon="1.16251">
        <ele>40.2</ele>
        <time>2016-09-18T06:39:21Z</time>
      </trkpt>
      <trkpt lat="49.23099" lon="1.16254">
        <ele>40.8</ele>
        <time>2016-09-18T06:39:25Z</time>
      </trkpt>
      <trkpt lat="49.23109" lon="1.16257">
        <ele>41.3</ele>
        <time>2016-09-18T06:39:28Z</time>
      </trkpt>
      <trkpt lat="49.23119" lon="1.16264">
        <ele>42</ele>
        <time>2016-09-18T06:39:32Z</time>
      </trkpt>
      <trkpt lat="49.23128" lon="1.16273">
        <ele>42.5</ele>
        <time>2016-09-18T06:39:35Z</time>
      </trkpt>
      <trkpt lat="49.23139" lon="1.1628">
        <ele>42.8</ele>
        <time>2016-09-18T06:39:37Z</time>
      </trkpt>
      <trkpt lat="49.23147" lon="1.16287">
        <ele>43</ele>
        <time>2016-09-18T06:39:39Z</time>
      </trkpt>
      <trkpt lat="49.23158" lon="1.16295">
        <ele>43.3</ele>
        <time>2016-09-18T06:39:42Z</time>
      </trkpt>
      <trkpt lat="49.23167" lon="1.163">
        <ele>43.6</ele>
        <time>2016-09-18T06:39:45Z</time>
      </trkpt>
      <trkpt lat="49.23176" lon="1.16307">
        <ele>43.8</ele>
        <time>2016-09-18T06:39:48Z</time>
      </trkpt>
      <trkpt lat="49.23184" lon="1.16315">
        <ele>43.9</ele>
        <time>2016-09-18T06:39:50Z</time>
      </trkpt>
      <trkpt lat="49.23194" lon="1.16328">
        <ele>44</ele>
        <time>2016-09-18T06:39:53Z</time>
      </trkpt>
      <trkpt lat="49.23203" lon="1.16335">
        <ele>44.1</ele>
        <time>2016-09-18T06:39:55Z</time>
      </trkpt>
      <trkpt lat="49.23214" lon="1.16341">
        <ele>44</ele>
        <time>2016-09-18T06:39:58Z</time>
      </trkpt>
      <trkpt lat="49.23225" lon="1.16346">
        <ele>44</ele>
        <time>2016-09-18T06:40:01Z</time>
      </trkpt>
      <trkpt lat="49.23234" lon="1.16352">
        <ele>43.9</ele>
        <time>2016-09-18T06:40:03Z</time>
      </trkpt>
      <trkpt lat="49.23247" lon="1.16356">
        <ele>43.8</ele>
        <time>2016-09-18T06:40:06Z</time>
      </trkpt>
      <trkpt lat="49.23257" lon="1.16352">
        <ele>43.7</ele>
        <time>2016-09-18T06:40:09Z</time>
      </trkpt>
      <trkpt lat="49.23269" lon="1.16351">
        <ele>43.9</ele>
        <time>2016-09-18T06:40:13Z</time>
      </trkpt>
      <trkpt lat="49.23282" lon="1.16356">
        <ele>44.3</ele>
        <time>2016-09-18T06:40:17Z</time>
      </trkpt>
      <trkpt lat="49.23293" lon="1.1636">
        <ele>44.6</ele>
        <time>2016-09-18T06:40:19Z</time>
      </trkpt>
      <trkpt lat="49.23306" lon="1.16363">
        <ele>45</ele>
        <time>2016-09-18T06:40:22Z</time>
      </trkpt>
      <trkpt lat="49.23315" lon="1.16366">
        <ele>45.2</ele>
        <time>2016-09-18T06:40:24Z</time>
      </trkpt>
      <trkpt lat="49.23326" lon="1.16364">
        <ele>45.5</ele>
        <time>2016-09-18T06:40:27Z</time>
      </trkpt>
      <trkpt lat="49.23338" lon="1.16365">
        <ele>45.8</ele>
        <time>2016-09-18T06:40:30Z</time>
      </trkpt>
      <trkpt lat="49.2335" lon="1.16369">
        <ele>46.2</ele>
        <time>2016-09-18T06:40:33Z</time>
      </trkpt>
      <trkpt lat="49.23362" lon="1.16374">
        <ele>46.5</ele>
        <time>2016-09-18T06:40:36Z</time>
      </trkpt>
      <trkpt lat="49.23374" lon="1.16377">
        <ele>46.8</ele>
        <time>2016-09-18T06:40:39Z</time>
      </trkpt>
      <trkpt lat="49.23386" lon="1.16382">
        <ele>47</ele>
        <time>2016-09-18T06:40:42Z</time>
      </trkpt>
      <trkpt lat="49.23399" lon="1.16386">
        <ele>47.2</ele>
        <time>2016-09-18T06:40:44Z</time>
      </trkpt>
      <trkpt lat="49.2341" lon="1.16388">
        <ele>47.3</ele>
        <time>2016-09-18T06:40:46Z</time>
      </trkpt>
      <trkpt lat="49.23421" lon="1.16393">
        <ele>47.5</ele>
        <time>2016-09-18T06:40:49Z</time>
      </trkpt>
      <trkpt lat="49.23435" lon="1.16397">
        <ele>47.6</ele>
        <time>2016-09-18T06:40:52Z</time>
      </trkpt>
      <trkpt lat="49.23444" lon="1.164">
        <ele>47.8</ele>
        <time>2016-09-18T06:40:55Z</time>
      </trkpt>
      <trkpt lat="49.23455" lon="1.16401">
        <ele>47.9</ele>
        <time>2016-09-18T06:40:57Z</time>
      </trkpt>
      <trkpt lat="49.23464" lon="1.16403">
        <ele>48</ele>
        <time>2016-09-18T06:40:59Z</time>
      </trkpt>
      <trkpt lat="49.23475" lon="1.16404">
        <ele>48.2</ele>
        <time>2016-09-18T06:41:02Z</time>
      </trkpt>
      <trkpt lat="49.23487" lon="1.16405">
        <ele>48.4</ele>
        <time>2016-09-18T06:41:05Z</time>
      </trkpt>
      <trkpt lat="49.23498" lon="1.16408">
        <ele>48.5</ele>
        <time>2016-09-18T06:41:07Z</time>
      </trkpt>
      <trkpt lat="49.23508" lon="1.16421">
        <ele>48.6</ele>
        <time>2016-09-18T06:41:10Z</time>
      </trkpt>
      <trkpt lat="49.23512" lon="1.16434">
        <ele>48.6</ele>
        <time>2016-09-18T06:41:12Z</time>
      </trkpt>
      <trkpt lat="49.23515" lon="1.16448">
        <ele>48.5</ele>
        <time>2016-09-18T06:41:14Z</time>
      </trkpt>
      <trkpt lat="49.23521" lon="1.16465">
        <ele>48.2</ele>
        <time>2016-09-18T06:41:16Z</time>
      </trkpt>
      <trkpt lat="49.2353" lon="1.16482">
        <ele>47.5</ele>
        <time>2016-09-18T06:41:18Z</time>
      </trkpt>
      <trkpt lat="49.23543" lon="1.16488">
        <ele>47</ele>
        <time>2016-09-18T06:41:20Z</time>
      </trkpt>
      <trkpt lat="49.23553" lon="1.16496">
        <ele>46.4</ele>
        <time>2016-09-18T06:41:22Z</time>
      </trkpt>
      <trkpt lat="49.23569" lon="1.16502">
        <ele>45.7</ele>
        <time>2016-09-18T06:41:24Z</time>
      </trkpt>
      <trkpt lat="49.23583" lon="1.16506">
        <ele>45.1</ele>
        <time>2016-09-18T06:41:26Z</time>
      </trkpt>
      <trkpt lat="49.23592" lon="1.16511">
        <ele>44.6</ele>
        <time>2016-09-18T06:41:28Z</time>
      </trkpt>
      <trkpt lat="49.23605" lon="1.1651">
        <ele>43.6</ele>
        <time>2016-09-18T06:41:31Z</time>
      </trkpt>
      <trkpt lat="49.23611" lon="1.16499">
        <ele>42.7</ele>
        <time>2016-09-18T06:41:34Z</time>
      </trkpt>
      <trkpt lat="49.23615" lon="1.16485">
        <ele>41.9</ele>
        <time>2016-09-18T06:41:37Z</time>
      </trkpt>
      <trkpt lat="49.2362" lon="1.16468">
        <ele>41.3</ele>
        <time>2016-09-18T06:41:40Z</time>
      </trkpt>
      <trkpt lat="49.23625" lon="1.16455">
        <ele>41</ele>
        <time>2016-09-18T06:41:42Z</time>
      </trkpt>
      <trkpt lat="49.23631" lon="1.16439">
        <ele>40.7</ele>
        <time>2016-09-18T06:41:45Z</time>
      </trkpt>
      <trkpt lat="49.23635" lon="1.16423">
        <ele>40.5</ele>
        <time>2016-09-18T06:41:48Z</time>
      </trkpt>
      <trkpt lat="49.23639" lon="1.16407">
        <ele>40.4</ele>
        <time>2016-09-18T06:41:51Z</time>
      </trkpt>
      <trkpt lat="49.2364" lon="1.16392">
        <ele>40.4</ele>
        <time>2016-09-18T06:41:54Z</time>
      </trkpt>
      <trkpt lat="49.23642" lon="1.16373">
        <ele>40.5</ele>
        <time>2016-09-18T06:41:57Z</time>
      </trkpt>
      <trkpt lat="49.23639" lon="1.16355">
        <ele>40.5</ele>
        <time>2016-09-18T06:42:00Z</time>
      </trkpt>
      <trkpt lat="49.23638" lon="1.1634">
        <ele>40.6</ele>
        <time>2016-09-18T06:42:03Z</time>
      </trkpt>
      <trkpt lat="49.23639" lon="1.16326">
        <ele>40.7</ele>
        <time>2016-09-18T06:42:05Z</time>
      </trkpt>
      <trkpt lat="49.23638" lon="1.16306">
        <ele>40.9</ele>
        <time>2016-09-18T06:42:08Z</time>
      </trkpt>
      <trkpt lat="49.2364" lon="1.16289">
        <ele>41.2</ele>
        <time>2016-09-18T06:42:11Z</time>
      </trkpt>
      <trkpt lat="49.23644" lon="1.16274">
        <ele>41.5</ele>
        <time>2016-09-18T06:42:14Z</time>
      </trkpt>
      <trkpt lat="49.23644" lon="1.16254">
        <ele>41.9</ele>
        <time>2016-09-18T06:42:17Z</time>
      </trkpt>
      <trkpt lat="49.23645" lon="1.16237">
        <ele>42.2</ele>
        <time>2016-09-18T06:42:20Z</time>
      </trkpt>
      <trkpt lat="49.23646" lon="1.16221">
        <ele>42.6</ele>
        <time>2016-09-18T06:42:23Z</time>
      </trkpt>
      <trkpt lat="49.23642" lon="1.16202">
        <ele>43.1</ele>
        <time>2016-09-18T06:42:26Z</time>
      </trkpt>
      <trkpt lat="49.23641" lon="1.16184">
        <ele>43.6</ele>
        <time>2016-09-18T06:42:29Z</time>
      </trkpt>
      <trkpt lat="49.23636" lon="1.16164">
        <ele>44.1</ele>
        <time>2016-09-18T06:42:32Z</time>
      </trkpt>
      <trkpt lat="49.23634" lon="1.16147">
        <ele>44.6</ele>
        <time>2016-09-18T06:42:35Z</time>
      </trkpt>
      <trkpt lat="49.23632" lon="1.16133">
        <ele>44.9</ele>
        <time>2016-09-18T06:42:37Z</time>
      </trkpt>
      <trkpt lat="49.23629" lon="1.16116">
        <ele>45.4</ele>
        <time>2016-09-18T06:42:40Z</time>
      </trkpt>
      <trkpt lat="49.23628" lon="1.16098">
        <ele>46</ele>
        <time>2016-09-18T06:42:43Z</time>
      </trkpt>
      <trkpt lat="49.23624" lon="1.16082">
        <ele>46.6</ele>
        <time>2016-09-18T06:42:46Z</time>
      </trkpt>
      <trkpt lat="49.23619" lon="1.16068">
        <ele>47.1</ele>
        <time>2016-09-18T06:42:49Z</time>
      </trkpt>
      <trkpt lat="49.23616" lon="1.16051">
        <ele>47.7</ele>
        <time>2016-09-18T06:42:52Z</time>
      </trkpt>
      <trkpt lat="49.23611" lon="1.16035">
        <ele>48.4</ele>
        <time>2016-09-18T06:42:55Z</time>
      </trkpt>
      <trkpt lat="49.23604" lon="1.16023">
        <ele>49.1</ele>
        <time>2016-09-18T06:42:58Z</time>
      </trkpt>
      <trkpt lat="49.23596" lon="1.1601">
        <ele>49.8</ele>
        <time>2016-09-18T06:43:01Z</time>
      </trkpt>
      <trkpt lat="49.23588" lon="1.15995">
        <ele>50.4</ele>
        <time>2016-09-18T06:43:04Z</time>
      </trkpt>
      <trkpt lat="49.2358" lon="1.1598">
        <ele>50.9</ele>
        <time>2016-09-18T06:43:07Z</time>
      </trkpt>
      <trkpt lat="49.23573" lon="1.15966">
        <ele>51.5</ele>
        <time>2016-09-18T06:43:10Z</time>
      </trkpt>
      <trkpt lat="49.23566" lon="1.15954">
        <ele>52.2</ele>
        <time>2016-09-18T06:43:13Z</time>
      </trkpt>
      <trkpt lat="49.23558" lon="1.15941">
        <ele>52.9</ele>
        <time>2016-09-18T06:43:16Z</time>
      </trkpt>
      <trkpt lat="49.23549" lon="1.15928">
        <ele>53.5</ele>
        <time>2016-09-18T06:43:19Z</time>
      </trkpt>
      <trkpt lat="49.23541" lon="1.15915">
        <ele>54.1</ele>
        <time>2016-09-18T06:43:22Z</time>
      </trkpt>
      <trkpt lat="49.23532" lon="1.15901">
        <ele>54.7</ele>
        <time>2016-09-18T06:43:25Z</time>
      </trkpt>
      <trkpt lat="49.23523" lon="1.15887">
        <ele>55.3</ele>
        <time>2016-09-18T06:43:28Z</time>
      </trkpt>
      <trkpt lat="49.23516" lon="1.15873">
        <ele>55.9</ele>
        <time>2016-09-18T06:43:31Z</time>
      </trkpt>
      <trkpt lat="49.23509" lon="1.15859">
        <ele>56.6</ele>
        <time>2016-09-18T06:43:34Z</time>
      </trkpt>
      <trkpt lat="49.23504" lon="1.15843">
        <ele>57.2</ele>
        <time>2016-09-18T06:43:37Z</time>
      </trkpt>
      <trkpt lat="49.235" lon="1.15827">
        <ele>57.8</ele>
        <time>2016-09-18T06:43:40Z</time>
      </trkpt>
      <trkpt lat="49.23497" lon="1.15811">
        <ele>58.4</ele>
        <time>2016-09-18T06:43:43Z</time>
      </trkpt>
      <trkpt lat="49.23496" lon="1.15795">
        <ele>59</ele>
        <time>2016-09-18T06:43:46Z</time>
      </trkpt>
      <trkpt lat="49.23495" lon="1.15781">
        <ele>59.7</ele>
        <time>2016-09-18T06:43:49Z</time>
      </trkpt>
      <trkpt lat="49.23495" lon="1.15765">
        <ele>60.5</ele>
        <time>2016-09-18T06:43:53Z</time>
      </trkpt>
      <trkpt lat="49.23495" lon="1.15747">
        <ele>61.3</ele>
        <time>2016-09-18T06:43:57Z</time>
      </trkpt>
      <trkpt lat="49.2349" lon="1.1573">
        <ele>62</ele>
        <time>2016-09-18T06:44:01Z</time>
      </trkpt>
      <trkpt lat="49.2349" lon="1.15714">
        <ele>62.5</ele>
        <time>2016-09-18T06:44:04Z</time>
      </trkpt>
      <trkpt lat="49.23492" lon="1.157">
        <ele>63.1</ele>
        <time>2016-09-18T06:44:07Z</time>
      </trkpt>
      <trkpt lat="49.2349" lon="1.15682">
        <ele>63.8</ele>
        <time>2016-09-18T06:44:11Z</time>
      </trkpt>
      <trkpt lat="49.23492" lon="1.15664">
        <ele>64.5</ele>
        <time>2016-09-18T06:44:15Z</time>
      </trkpt>
      <trkpt lat="49.23498" lon="1.15645">
        <ele>65.2</ele>
        <time>2016-09-18T06:44:19Z</time>
      </trkpt>
      <trkpt lat="49.235" lon="1.15631">
        <ele>65.8</ele>
        <time>2016-09-18T06:44:22Z</time>
      </trkpt>
      <trkpt lat="49.23501" lon="1.15613">
        <ele>66.6</ele>
        <time>2016-09-18T06:44:26Z</time>
      </trkpt>
      <trkpt lat="49.23504" lon="1.15597">
        <ele>67.3</ele>
        <time>2016-09-18T06:44:29Z</time>
      </trkpt>
      <trkpt lat="49.23503" lon="1.15581">
        <ele>67.8</ele>
        <time>2016-09-18T06:44:32Z</time>
      </trkpt>
      <trkpt lat="49.23503" lon="1.15567">
        <ele>68.4</ele>
        <time>2016-09-18T06:44:35Z</time>
      </trkpt>
      <trkpt lat="49.23506" lon="1.15553">
        <ele>68.9</ele>
        <time>2016-09-18T06:44:38Z</time>
      </trkpt>
      <trkpt lat="49.23512" lon="1.1554">
        <ele>69.5</ele>
        <time>2016-09-18T06:44:41Z</time>
      </trkpt>
      <trkpt lat="49.23515" lon="1.15525">
        <ele>70.2</ele>
        <time>2016-09-18T06:44:44Z</time>
      </trkpt>
      <trkpt lat="49.2352" lon="1.15511">
        <ele>70.8</ele>
        <time>2016-09-18T06:44:47Z</time>
      </trkpt>
      <trkpt lat="49.23522" lon="1.15492">
        <ele>71.5</ele>
        <time>2016-09-18T06:44:51Z</time>
      </trkpt>
      <trkpt lat="49.23524" lon="1.15476">
        <ele>72.1</ele>
        <time>2016-09-18T06:44:54Z</time>
      </trkpt>
      <trkpt lat="49.23526" lon="1.15459">
        <ele>72.7</ele>
        <time>2016-09-18T06:44:57Z</time>
      </trkpt>
      <trkpt lat="49.23529" lon="1.15445">
        <ele>73.3</ele>
        <time>2016-09-18T06:45:00Z</time>
      </trkpt>
      <trkpt lat="49.23532" lon="1.15429">
        <ele>74.1</ele>
        <time>2016-09-18T06:45:04Z</time>
      </trkpt>
      <trkpt lat="49.23536" lon="1.15414">
        <ele>74.7</ele>
        <time>2016-09-18T06:45:07Z</time>
      </trkpt>
      <trkpt lat="49.23542" lon="1.15401">
        <ele>75.2</ele>
        <time>2016-09-18T06:45:10Z</time>
      </trkpt>
      <trkpt lat="49.23546" lon="1.15386">
        <ele>75.9</ele>
        <time>2016-09-18T06:45:13Z</time>
      </trkpt>
      <trkpt lat="49.23551" lon="1.15371">
        <ele>76.4</ele>
        <time>2016-09-18T06:45:16Z</time>
      </trkpt>
      <trkpt lat="49.23556" lon="1.15356">
        <ele>77</ele>
        <time>2016-09-18T06:45:19Z</time>
      </trkpt>
      <trkpt lat="49.23562" lon="1.15342">
        <ele>77.6</ele>
        <time>2016-09-18T06:45:22Z</time>
      </trkpt>
      <trkpt lat="49.23567" lon="1.15326">
        <ele>78.4</ele>
        <time>2016-09-18T06:45:26Z</time>
      </trkpt>
      <trkpt lat="49.23571" lon="1.15311">
        <ele>79</ele>
        <time>2016-09-18T06:45:29Z</time>
      </trkpt>
      <trkpt lat="49.23573" lon="1.15297">
        <ele>79.8</ele>
        <time>2016-09-18T06:45:33Z</time>
      </trkpt>
      <trkpt lat="49.23578" lon="1.15279">
        <ele>80.7</ele>
        <time>2016-09-18T06:45:37Z</time>
      </trkpt>
      <trkpt lat="49.23581" lon="1.15264">
        <ele>81.3</ele>
        <time>2016-09-18T06:45:40Z</time>
      </trkpt>
      <trkpt lat="49.23584" lon="1.15249">
        <ele>82</ele>
        <time>2016-09-18T06:45:43Z</time>
      </trkpt>
      <trkpt lat="49.23587" lon="1.15233">
        <ele>82.7</ele>
        <time>2016-09-18T06:45:46Z</time>
      </trkpt>
      <trkpt lat="49.23587" lon="1.15219">
        <ele>83.5</ele>
        <time>2016-09-18T06:45:49Z</time>
      </trkpt>
      <trkpt lat="49.23589" lon="1.15205">
        <ele>84.1</ele>
        <time>2016-09-18T06:45:52Z</time>
      </trkpt>
      <trkpt lat="49.23591" lon="1.15191">
        <ele>84.8</ele>
        <time>2016-09-18T06:45:55Z</time>
      </trkpt>
      <trkpt lat="49.23594" lon="1.15174">
        <ele>85.6</ele>
        <time>2016-09-18T06:45:59Z</time>
      </trkpt>
      <trkpt lat="49.23596" lon="1.1516">
        <ele>86.5</ele>
        <time>2016-09-18T06:46:03Z</time>
      </trkpt>
      <trkpt lat="49.23605" lon="1.15145">
        <ele>87.3</ele>
        <time>2016-09-18T06:46:07Z</time>
      </trkpt>
      <trkpt lat="49.23609" lon="1.15133">
        <ele>87.9</ele>
        <time>2016-09-18T06:46:10Z</time>
      </trkpt>
      <trkpt lat="49.23615" lon="1.15118">
        <ele>88.7</ele>
        <time>2016-09-18T06:46:14Z</time>
      </trkpt>
      <trkpt lat="49.23623" lon="1.15106">
        <ele>89.6</ele>
        <time>2016-09-18T06:46:18Z</time>
      </trkpt>
      <trkpt lat="49.23627" lon="1.15091">
        <ele>90.6</ele>
        <time>2016-09-18T06:46:22Z</time>
      </trkpt>
      <trkpt lat="49.23634" lon="1.15078">
        <ele>91.4</ele>
        <time>2016-09-18T06:46:25Z</time>
      </trkpt>
      <trkpt lat="49.23638" lon="1.15062">
        <ele>92.4</ele>
        <time>2016-09-18T06:46:29Z</time>
      </trkpt>
      <trkpt lat="49.23644" lon="1.15051">
        <ele>93.2</ele>
        <time>2016-09-18T06:46:32Z</time>
      </trkpt>
      <trkpt lat="49.23649" lon="1.15038">
        <ele>93.9</ele>
        <time>2016-09-18T06:46:35Z</time>
      </trkpt>
      <trkpt lat="49.23654" lon="1.15026">
        <ele>94.6</ele>
        <time>2016-09-18T06:46:38Z</time>
      </trkpt>
      <trkpt lat="49.23661" lon="1.15009">
        <ele>95.5</ele>
        <time>2016-09-18T06:46:42Z</time>
      </trkpt>
      <trkpt lat="49.23667" lon="1.14998">
        <ele>96.3</ele>
        <time>2016-09-18T06:46:45Z</time>
      </trkpt>
      <trkpt lat="49.23675" lon="1.14985">
        <ele>97.3</ele>
        <time>2016-09-18T06:46:49Z</time>
      </trkpt>
      <trkpt lat="49.23682" lon="1.14972">
        <ele>98.2</ele>
        <time>2016-09-18T06:46:53Z</time>
      </trkpt>
      <trkpt lat="49.2369" lon="1.14959">
        <ele>98.9</ele>
        <time>2016-09-18T06:46:56Z</time>
      </trkpt>
      <trkpt lat="49.23697" lon="1.14949">
        <ele>99.8</ele>
        <time>2016-09-18T06:47:01Z</time>
      </trkpt>
      <trkpt lat="49.23708" lon="1.14948">
        <ele>101.4</ele>
        <time>2016-09-18T06:47:07Z</time>
      </trkpt>
      <trkpt lat="49.23718" lon="1.1495">
        <ele>102.8</ele>
        <time>2016-09-18T06:47:12Z</time>
      </trkpt>
      <trkpt lat="49.23728" lon="1.14956">
        <ele>104.2</ele>
        <time>2016-09-18T06:47:18Z</time>
      </trkpt>
      <trkpt lat="49.23739" lon="1.1496">
        <ele>105.4</ele>
        <time>2016-09-18T06:47:23Z</time>
      </trkpt>
      <trkpt lat="49.2375" lon="1.14964">
        <ele>106.2</ele>
        <time>2016-09-18T06:47:27Z</time>
      </trkpt>
      <trkpt lat="49.2376" lon="1.14967">
        <ele>106.9</ele>
        <time>2016-09-18T06:47:32Z</time>
      </trkpt>
      <trkpt lat="49.23769" lon="1.14971">
        <ele>107.5</ele>
        <time>2016-09-18T06:47:38Z</time>
      </trkpt>
      <trkpt lat="49.23779" lon="1.14975">
        <ele>108</ele>
        <time>2016-09-18T06:47:45Z</time>
      </trkpt>
      <trkpt lat="49.23788" lon="1.14975">
        <ele>108.8</ele>
        <time>2016-09-18T06:48:36Z</time>
      </trkpt>
      <trkpt lat="49.23797" lon="1.14971">
        <ele>109</ele>
        <time>2016-09-18T06:49:01Z</time>
      </trkpt>
      <trkpt lat="49.23805" lon="1.14979">
        <ele>109.1</ele>
        <time>2016-09-18T06:49:20Z</time>
      </trkpt>
      <trkpt lat="49.23815" lon="1.14984">
        <ele>109.1</ele>
        <time>2016-09-18T06:49:25Z</time>
      </trkpt>
      <trkpt lat="49.23823" lon="1.14992">
        <ele>109.2</ele>
        <time>2016-09-18T06:49:29Z</time>
      </trkpt>
      <trkpt lat="49.23832" lon="1.14997">
        <ele>109.2</ele>
        <time>2016-09-18T06:49:32Z</time>
      </trkpt>
      <trkpt lat="49.23841" lon="1.15002">
        <ele>109.3</ele>
        <time>2016-09-18T06:49:35Z</time>
      </trkpt>
      <trkpt lat="49.23851" lon="1.15007">
        <ele>109.3</ele>
        <time>2016-09-18T06:49:38Z</time>
      </trkpt>
      <trkpt lat="49.23859" lon="1.15011">
        <ele>109.3</ele>
        <time>2016-09-18T06:49:40Z</time>
      </trkpt>
      <trkpt lat="49.23868" lon="1.15015">
        <ele>109.4</ele>
        <time>2016-09-18T06:49:42Z</time>
      </trkpt>
      <trkpt lat="49.23879" lon="1.15021">
        <ele>109.4</ele>
        <time>2016-09-18T06:49:44Z</time>
      </trkpt>
      <trkpt lat="49.2389" lon="1.15029">
        <ele>109.4</ele>
        <time>2016-09-18T06:49:47Z</time>
      </trkpt>
      <trkpt lat="49.23901" lon="1.15033">
        <ele>109.4</ele>
        <time>2016-09-18T06:49:50Z</time>
      </trkpt>
      <trkpt lat="49.2391" lon="1.15036">
        <ele>109.4</ele>
        <time>2016-09-18T06:49:52Z</time>
      </trkpt>
      <trkpt lat="49.23922" lon="1.1504">
        <ele>109.5</ele>
        <time>2016-09-18T06:49:55Z</time>
      </trkpt>
      <trkpt lat="49.23934" lon="1.15047">
        <ele>109.5</ele>
        <time>2016-09-18T06:49:58Z</time>
      </trkpt>
      <trkpt lat="49.23944" lon="1.1505">
        <ele>109.5</ele>
        <time>2016-09-18T06:50:00Z</time>
      </trkpt>
      <trkpt lat="49.23955" lon="1.15054">
        <ele>109.5</ele>
        <time>2016-09-18T06:50:03Z</time>
      </trkpt>
      <trkpt lat="49.23965" lon="1.15059">
        <ele>109.5</ele>
        <time>2016-09-18T06:50:06Z</time>
      </trkpt>
      <trkpt lat="49.23978" lon="1.15063">
        <ele>109.3</ele>
        <time>2016-09-18T06:50:09Z</time>
      </trkpt>
      <trkpt lat="49.23989" lon="1.15065">
        <ele>109.2</ele>
        <time>2016-09-18T06:50:11Z</time>
      </trkpt>
      <trkpt lat="49.24002" lon="1.1507">
        <ele>109.1</ele>
        <time>2016-09-18T06:50:13Z</time>
      </trkpt>
      <trkpt lat="49.24013" lon="1.15074">
        <ele>109</ele>
        <time>2016-09-18T06:50:15Z</time>
      </trkpt>
      <trkpt lat="49.24026" lon="1.15076">
        <ele>108.9</ele>
        <time>2016-09-18T06:50:17Z</time>
      </trkpt>
      <trkpt lat="49.24037" lon="1.15079">
        <ele>108.7</ele>
        <time>2016-09-18T06:50:19Z</time>
      </trkpt>
      <trkpt lat="49.24048" lon="1.15088">
        <ele>108.5</ele>
        <time>2016-09-18T06:50:22Z</time>
      </trkpt>
      <trkpt lat="49.24061" lon="1.15093">
        <ele>108.2</ele>
        <time>2016-09-18T06:50:25Z</time>
      </trkpt>
      <trkpt lat="49.24072" lon="1.15098">
        <ele>108</ele>
        <time>2016-09-18T06:50:27Z</time>
      </trkpt>
      <trkpt lat="49.24082" lon="1.15089">
        <ele>107.2</ele>
        <time>2016-09-18T06:50:31Z</time>
      </trkpt>
      <trkpt lat="49.24088" lon="1.15072">
        <ele>106.8</ele>
        <time>2016-09-18T06:50:34Z</time>
      </trkpt>
      <trkpt lat="49.24091" lon="1.15059">
        <ele>106.6</ele>
        <time>2016-09-18T06:50:36Z</time>
      </trkpt>
      <trkpt lat="49.24095" lon="1.15039">
        <ele>106.4</ele>
        <time>2016-09-18T06:50:39Z</time>
      </trkpt>
      <trkpt lat="49.241" lon="1.15022">
        <ele>106.3</ele>
        <time>2016-09-18T06:50:42Z</time>
      </trkpt>
      <trkpt lat="49.24106" lon="1.15006">
        <ele>106.2</ele>
        <time>2016-09-18T06:50:45Z</time>
      </trkpt>
      <trkpt lat="49.24111" lon="1.14989">
        <ele>106.2</ele>
        <time>2016-09-18T06:50:48Z</time>
      </trkpt>
      <trkpt lat="49.24115" lon="1.14972">
        <ele>106.2</ele>
        <time>2016-09-18T06:50:51Z</time>
      </trkpt>
      <trkpt lat="49.24118" lon="1.14954">
        <ele>106.4</ele>
        <time>2016-09-18T06:50:54Z</time>
      </trkpt>
      <trkpt lat="49.24122" lon="1.14936">
        <ele>106.7</ele>
        <time>2016-09-18T06:50:57Z</time>
      </trkpt>
      <trkpt lat="49.24126" lon="1.14918">
        <ele>106.9</ele>
        <time>2016-09-18T06:51:00Z</time>
      </trkpt>
      <trkpt lat="49.2413" lon="1.14899">
        <ele>107.1</ele>
        <time>2016-09-18T06:51:03Z</time>
      </trkpt>
      <trkpt lat="49.24132" lon="1.14881">
        <ele>107.4</ele>
        <time>2016-09-18T06:51:06Z</time>
      </trkpt>
      <trkpt lat="49.24136" lon="1.14863">
        <ele>107.7</ele>
        <time>2016-09-18T06:51:09Z</time>
      </trkpt>
      <trkpt lat="49.24142" lon="1.14845">
        <ele>108.1</ele>
        <time>2016-09-18T06:51:12Z</time>
      </trkpt>
      <trkpt lat="49.24145" lon="1.14825">
        <ele>108.4</ele>
        <time>2016-09-18T06:51:15Z</time>
      </trkpt>
      <trkpt lat="49.24148" lon="1.14806">
        <ele>108.7</ele>
        <time>2016-09-18T06:51:18Z</time>
      </trkpt>
      <trkpt lat="49.24152" lon="1.14788">
        <ele>109.1</ele>
        <time>2016-09-18T06:51:21Z</time>
      </trkpt>
      <trkpt lat="49.24156" lon="1.1477">
        <ele>109.5</ele>
        <time>2016-09-18T06:51:24Z</time>
      </trkpt>
      <trkpt lat="49.24161" lon="1.14752">
        <ele>109.9</ele>
        <time>2016-09-18T06:51:27Z</time>
      </trkpt>
      <trkpt lat="49.24165" lon="1.14734">
        <ele>110.4</ele>
        <time>2016-09-18T06:51:30Z</time>
      </trkpt>
      <trkpt lat="49.2417" lon="1.14716">
        <ele>110.7</ele>
        <time>2016-09-18T06:51:33Z</time>
      </trkpt>
      <trkpt lat="49.24174" lon="1.14698">
        <ele>111.1</ele>
        <time>2016-09-18T06:51:36Z</time>
      </trkpt>
      <trkpt lat="49.24178" lon="1.14679">
        <ele>111.5</ele>
        <time>2016-09-18T06:51:39Z</time>
      </trkpt>
      <trkpt lat="49.24181" lon="1.1466">
        <ele>111.9</ele>
        <time>2016-09-18T06:51:42Z</time>
      </trkpt>
      <trkpt lat="49.24183" lon="1.14646">
        <ele>112.1</ele>
        <time>2016-09-18T06:51:44Z</time>
      </trkpt>
      <trkpt lat="49.24186" lon="1.14627">
        <ele>112.4</ele>
        <time>2016-09-18T06:51:47Z</time>
      </trkpt>
      <trkpt lat="49.24193" lon="1.14608">
        <ele>112.7</ele>
        <time>2016-09-18T06:51:50Z</time>
      </trkpt>
      <trkpt lat="49.24197" lon="1.14595">
        <ele>112.9</ele>
        <time>2016-09-18T06:51:52Z</time>
      </trkpt>
      <trkpt lat="49.24201" lon="1.14576">
        <ele>113.3</ele>
        <time>2016-09-18T06:51:55Z</time>
      </trkpt>
      <trkpt lat="49.24202" lon="1.14562">
        <ele>113.5</ele>
        <time>2016-09-18T06:51:57Z</time>
      </trkpt>
      <trkpt lat="49.24203" lon="1.14549">
        <ele>113.7</ele>
        <time>2016-09-18T06:51:59Z</time>
      </trkpt>
      <trkpt lat="49.24204" lon="1.14534">
        <ele>113.9</ele>
        <time>2016-09-18T06:52:01Z</time>
      </trkpt>
      <trkpt lat="49.24206" lon="1.1452">
        <ele>114.1</ele>
        <time>2016-09-18T06:52:03Z</time>
      </trkpt>
      <trkpt lat="49.24208" lon="1.14506">
        <ele>114.2</ele>
        <time>2016-09-18T06:52:05Z</time>
      </trkpt>
      <trkpt lat="49.24211" lon="1.14492">
        <ele>114.3</ele>
        <time>2016-09-18T06:52:07Z</time>
      </trkpt>
      <trkpt lat="49.24215" lon="1.14477">
        <ele>114.5</ele>
        <time>2016-09-18T06:52:09Z</time>
      </trkpt>
      <trkpt lat="49.24221" lon="1.14461">
        <ele>114.6</ele>
        <time>2016-09-18T06:52:11Z</time>
      </trkpt>
      <trkpt lat="49.24225" lon="1.14445">
        <ele>114.7</ele>
        <time>2016-09-18T06:52:13Z</time>
      </trkpt>
      <trkpt lat="49.24228" lon="1.1443">
        <ele>114.8</ele>
        <time>2016-09-18T06:52:15Z</time>
      </trkpt>
      <trkpt lat="49.24232" lon="1.14414">
        <ele>114.8</ele>
        <time>2016-09-18T06:52:17Z</time>
      </trkpt>
      <trkpt lat="49.24235" lon="1.14398">
        <ele>114.9</ele>
        <time>2016-09-18T06:52:19Z</time>
      </trkpt>
      <trkpt lat="49.24237" lon="1.14382">
        <ele>114.9</ele>
        <time>2016-09-18T06:52:21Z</time>
      </trkpt>
      <trkpt lat="49.2424" lon="1.14366">
        <ele>115</ele>
        <time>2016-09-18T06:52:23Z</time>
      </trkpt>
      <trkpt lat="49.24243" lon="1.1435">
        <ele>115</ele>
        <time>2016-09-18T06:52:25Z</time>
      </trkpt>
      <trkpt lat="49.24245" lon="1.14334">
        <ele>115.1</ele>
        <time>2016-09-18T06:52:27Z</time>
      </trkpt>
      <trkpt lat="49.24249" lon="1.14317">
        <ele>115.1</ele>
        <time>2016-09-18T06:52:29Z</time>
      </trkpt>
      <trkpt lat="49.24252" lon="1.14301">
        <ele>115.1</ele>
        <time>2016-09-18T06:52:31Z</time>
      </trkpt>
      <trkpt lat="49.24255" lon="1.14284">
        <ele>115.2</ele>
        <time>2016-09-18T06:52:33Z</time>
      </trkpt>
      <trkpt lat="49.2426" lon="1.14268">
        <ele>115.2</ele>
        <time>2016-09-18T06:52:35Z</time>
      </trkpt>
      <trkpt lat="49.24265" lon="1.14252">
        <ele>115.2</ele>
        <time>2016-09-18T06:52:37Z</time>
      </trkpt>
      <trkpt lat="49.24268" lon="1.14236">
        <ele>115.2</ele>
        <time>2016-09-18T06:52:39Z</time>
      </trkpt>
      <trkpt lat="49.24271" lon="1.14221">
        <ele>115.1</ele>
        <time>2016-09-18T06:52:41Z</time>
      </trkpt>
      <trkpt lat="49.24274" lon="1.14204">
        <ele>115</ele>
        <time>2016-09-18T06:52:43Z</time>
      </trkpt>
      <trkpt lat="49.24275" lon="1.14187">
        <ele>114.9</ele>
        <time>2016-09-18T06:52:45Z</time>
      </trkpt>
      <trkpt lat="49.2428" lon="1.1417">
        <ele>114.8</ele>
        <time>2016-09-18T06:52:47Z</time>
      </trkpt>
      <trkpt lat="49.24282" lon="1.14154">
        <ele>114.8</ele>
        <time>2016-09-18T06:52:49Z</time>
      </trkpt>
      <trkpt lat="49.24284" lon="1.14139">
        <ele>114.7</ele>
        <time>2016-09-18T06:52:51Z</time>
      </trkpt>
      <trkpt lat="49.24285" lon="1.14123">
        <ele>114.5</ele>
        <time>2016-09-18T06:52:53Z</time>
      </trkpt>
      <trkpt lat="49.24289" lon="1.14108">
        <ele>114.4</ele>
        <time>2016-09-18T06:52:55Z</time>
      </trkpt>
      <trkpt lat="49.24292" lon="1.14091">
        <ele>114.3</ele>
        <time>2016-09-18T06:52:57Z</time>
      </trkpt>
      <trkpt lat="49.24297" lon="1.14073">
        <ele>114.1</ele>
        <time>2016-09-18T06:52:59Z</time>
      </trkpt>
      <trkpt lat="49.243" lon="1.14055">
        <ele>114</ele>
        <time>2016-09-18T06:53:01Z</time>
      </trkpt>
      <trkpt lat="49.24304" lon="1.14038">
        <ele>113.8</ele>
        <time>2016-09-18T06:53:03Z</time>
      </trkpt>
      <trkpt lat="49.24307" lon="1.1402">
        <ele>113.6</ele>
        <time>2016-09-18T06:53:05Z</time>
      </trkpt>
      <trkpt lat="49.2431" lon="1.14003">
        <ele>113.3</ele>
        <time>2016-09-18T06:53:07Z</time>
      </trkpt>
      <trkpt lat="49.24313" lon="1.13988">
        <ele>113.1</ele>
        <time>2016-09-18T06:53:09Z</time>
      </trkpt>
      <trkpt lat="49.24319" lon="1.13977">
        <ele>112.7</ele>
        <time>2016-09-18T06:53:12Z</time>
      </trkpt>
      <trkpt lat="49.2433" lon="1.1398">
        <ele>112.3</ele>
        <time>2016-09-18T06:53:15Z</time>
      </trkpt>
      <trkpt lat="49.24342" lon="1.13985">
        <ele>112</ele>
        <time>2016-09-18T06:53:18Z</time>
      </trkpt>
      <trkpt lat="49.24354" lon="1.13991">
        <ele>111.7</ele>
        <time>2016-09-18T06:53:21Z</time>
      </trkpt>
      <trkpt lat="49.24364" lon="1.13994">
        <ele>111.6</ele>
        <time>2016-09-18T06:53:23Z</time>
      </trkpt>
      <trkpt lat="49.24377" lon="1.13999">
        <ele>111.3</ele>
        <time>2016-09-18T06:53:26Z</time>
      </trkpt>
      <trkpt lat="49.24387" lon="1.14002">
        <ele>111</ele>
        <time>2016-09-18T06:53:28Z</time>
      </trkpt>
      <trkpt lat="49.24399" lon="1.14009">
        <ele>110.7</ele>
        <time>2016-09-18T06:53:31Z</time>
      </trkpt>
      <trkpt lat="49.24411" lon="1.14017">
        <ele>110.3</ele>
        <time>2016-09-18T06:53:34Z</time>
      </trkpt>
      <trkpt lat="49.24421" lon="1.14024">
        <ele>110</ele>
        <time>2016-09-18T06:53:36Z</time>
      </trkpt>
      <trkpt lat="49.24434" lon="1.14032">
        <ele>109.6</ele>
        <time>2016-09-18T06:53:39Z</time>
      </trkpt>
      <trkpt lat="49.24446" lon="1.14036">
        <ele>109.3</ele>
        <time>2016-09-18T06:53:41Z</time>
      </trkpt>
      <trkpt lat="49.24457" lon="1.14043">
        <ele>108.7</ele>
        <time>2016-09-18T06:53:44Z</time>
      </trkpt>
      <trkpt lat="49.24468" lon="1.14046">
        <ele>107</ele>
        <time>2016-09-18T06:53:46Z</time>
      </trkpt>
      <trkpt lat="49.24482" lon="1.14052">
        <ele>107.7</ele>
        <time>2016-09-18T06:53:49Z</time>
      </trkpt>
      <trkpt lat="49.24494" lon="1.14057">
        <ele>106</ele>
        <time>2016-09-18T06:53:51Z</time>
      </trkpt>
      <trkpt lat="49.24507" lon="1.14063">
        <ele>106.2</ele>
        <time>2016-09-18T06:53:54Z</time>
      </trkpt>
      <trkpt lat="49.2452" lon="1.14072">
        <ele>105.7</ele>
        <time>2016-09-18T06:53:56Z</time>
      </trkpt>
      <trkpt lat="49.24536" lon="1.14078">
        <ele>105.1</ele>
        <time>2016-09-18T06:53:58Z</time>
      </trkpt>
      <trkpt lat="49.24548" lon="1.14085">
        <ele>104.5</ele>
        <time>2016-09-18T06:54:00Z</time>
      </trkpt>
      <trkpt lat="49.24561" lon="1.14089">
        <ele>103.7</ele>
        <time>2016-09-18T06:54:02Z</time>
      </trkpt>
      <trkpt lat="49.24572" lon="1.14092">
        <ele>102.8</ele>
        <time>2016-09-18T06:54:04Z</time>
      </trkpt>
      <trkpt lat="49.24584" lon="1.14095">
        <ele>101.5</ele>
        <time>2016-09-18T06:54:07Z</time>
      </trkpt>
      <trkpt lat="49.24594" lon="1.14102">
        <ele>100.6</ele>
        <time>2016-09-18T06:54:09Z</time>
      </trkpt>
      <trkpt lat="49.24606" lon="1.14108">
        <ele>99.5</ele>
        <time>2016-09-18T06:54:11Z</time>
      </trkpt>
      <trkpt lat="49.24617" lon="1.14113">
        <ele>98.4</ele>
        <time>2016-09-18T06:54:13Z</time>
      </trkpt>
      <trkpt lat="49.24628" lon="1.14118">
        <ele>97.3</ele>
        <time>2016-09-18T06:54:15Z</time>
      </trkpt>
      <trkpt lat="49.24639" lon="1.14123">
        <ele>96.1</ele>
        <time>2016-09-18T06:54:17Z</time>
      </trkpt>
      <trkpt lat="49.24649" lon="1.14127">
        <ele>94.8</ele>
        <time>2016-09-18T06:54:19Z</time>
      </trkpt>
      <trkpt lat="49.24662" lon="1.14129">
        <ele>92.8</ele>
        <time>2016-09-18T06:54:22Z</time>
      </trkpt>
      <trkpt lat="49.24673" lon="1.14134">
        <ele>91.1</ele>
        <time>2016-09-18T06:54:24Z</time>
      </trkpt>
      <trkpt lat="49.24684" lon="1.14136">
        <ele>89.4</ele>
        <time>2016-09-18T06:54:26Z</time>
      </trkpt>
      <trkpt lat="49.24692" lon="1.14143">
        <ele>87.8</ele>
        <time>2016-09-18T06:54:28Z</time>
      </trkpt>
      <trkpt lat="49.24701" lon="1.14135">
        <ele>84.1</ele>
        <time>2016-09-18T06:54:34Z</time>
      </trkpt>
      <trkpt lat="49.24705" lon="1.1412">
        <ele>82.7</ele>
        <time>2016-09-18T06:54:37Z</time>
      </trkpt>
      <trkpt lat="49.24703" lon="1.14106">
        <ele>81.9</ele>
        <time>2016-09-18T06:54:39Z</time>
      </trkpt>
      <trkpt lat="49.24704" lon="1.14091">
        <ele>81.2</ele>
        <time>2016-09-18T06:54:41Z</time>
      </trkpt>
      <trkpt lat="49.24703" lon="1.1407">
        <ele>80.4</ele>
        <time>2016-09-18T06:54:44Z</time>
      </trkpt>
      <trkpt lat="49.24706" lon="1.14055">
        <ele>80</ele>
        <time>2016-09-18T06:54:46Z</time>
      </trkpt>
      <trkpt lat="49.24704" lon="1.14036">
        <ele>79.5</ele>
        <time>2016-09-18T06:54:49Z</time>
      </trkpt>
      <trkpt lat="49.24706" lon="1.1402">
        <ele>79.2</ele>
        <time>2016-09-18T06:54:51Z</time>
      </trkpt>
      <trkpt lat="49.24709" lon="1.14">
        <ele>78.8</ele>
        <time>2016-09-18T06:54:54Z</time>
      </trkpt>
      <trkpt lat="49.24712" lon="1.13986">
        <ele>78.6</ele>
        <time>2016-09-18T06:54:56Z</time>
      </trkpt>
      <trkpt lat="49.24714" lon="1.13968">
        <ele>78.5</ele>
        <time>2016-09-18T06:54:59Z</time>
      </trkpt>
      <trkpt lat="49.24716" lon="1.13949">
        <ele>78.4</ele>
        <time>2016-09-18T06:55:02Z</time>
      </trkpt>
      <trkpt lat="49.24717" lon="1.13933">
        <ele>78.3</ele>
        <time>2016-09-18T06:55:05Z</time>
      </trkpt>
      <trkpt lat="49.24719" lon="1.13917">
        <ele>78.3</ele>
        <time>2016-09-18T06:55:08Z</time>
      </trkpt>
      <trkpt lat="49.24722" lon="1.13903">
        <ele>78.3</ele>
        <time>2016-09-18T06:55:11Z</time>
      </trkpt>
      <trkpt lat="49.24731" lon="1.13898">
        <ele>78.5</ele>
        <time>2016-09-18T06:55:24Z</time>
      </trkpt>
      <trkpt lat="49.24737" lon="1.13888">
        <ele>78.8</ele>
        <time>2016-09-18T06:56:36Z</time>
      </trkpt>
      <trkpt lat="49.24748" lon="1.13878">
        <ele>78.5</ele>
        <time>2016-09-18T07:00:02Z</time>
      </trkpt>
      <trkpt lat="49.24753" lon="1.13865">
        <ele>78.4</ele>
        <time>2016-09-18T07:00:04Z</time>
      </trkpt>
      <trkpt lat="49.24759" lon="1.13848">
        <ele>78.3</ele>
        <time>2016-09-18T07:00:06Z</time>
      </trkpt>
      <trkpt lat="49.24764" lon="1.13831">
        <ele>77.7</ele>
        <time>2016-09-18T07:00:09Z</time>
      </trkpt>
      <trkpt lat="49.24774" lon="1.13829">
        <ele>77.2</ele>
        <time>2016-09-18T07:00:11Z</time>
      </trkpt>
      <trkpt lat="49.24787" lon="1.13833">
        <ele>76.8</ele>
        <time>2016-09-18T07:00:13Z</time>
      </trkpt>
      <trkpt lat="49.248" lon="1.13836">
        <ele>76.5</ele>
        <time>2016-09-18T07:00:15Z</time>
      </trkpt>
      <trkpt lat="49.24812" lon="1.13841">
        <ele>76.2</ele>
        <time>2016-09-18T07:00:17Z</time>
      </trkpt>
      <trkpt lat="49.24827" lon="1.13849">
        <ele>75.8</ele>
        <time>2016-09-18T07:00:19Z</time>
      </trkpt>
      <trkpt lat="49.24843" lon="1.13857">
        <ele>75.4</ele>
        <time>2016-09-18T07:00:21Z</time>
      </trkpt>
      <trkpt lat="49.24858" lon="1.13862">
        <ele>75</ele>
        <time>2016-09-18T07:00:23Z</time>
      </trkpt>
      <trkpt lat="49.24873" lon="1.13869">
        <ele>74.6</ele>
        <time>2016-09-18T07:00:25Z</time>
      </trkpt>
      <trkpt lat="49.24884" lon="1.13879">
        <ele>74.1</ele>
        <time>2016-09-18T07:00:27Z</time>
      </trkpt>
      <trkpt lat="49.24898" lon="1.13885">
        <ele>73.6</ele>
        <time>2016-09-18T07:00:29Z</time>
      </trkpt>
      <trkpt lat="49.24909" lon="1.13888">
        <ele>73.1</ele>
        <time>2016-09-18T07:00:31Z</time>
      </trkpt>
      <trkpt lat="49.2492" lon="1.13894">
        <ele>72.6</ele>
        <time>2016-09-18T07:00:33Z</time>
      </trkpt>
      <trkpt lat="49.24933" lon="1.13904">
        <ele>71.9</ele>
        <time>2016-09-18T07:00:36Z</time>
      </trkpt>
      <trkpt lat="49.24955" lon="1.13909">
        <ele>71.3</ele>
        <time>2016-09-18T07:00:38Z</time>
      </trkpt>
      <trkpt lat="49.24969" lon="1.13916">
        <ele>70.7</ele>
        <time>2016-09-18T07:00:40Z</time>
      </trkpt>
      <trkpt lat="49.24983" lon="1.13923">
        <ele>70.1</ele>
        <time>2016-09-18T07:00:42Z</time>
      </trkpt>
      <trkpt lat="49.24993" lon="1.13942">
        <ele>68</ele>
        <time>2016-09-18T07:00:46Z</time>
      </trkpt>
      <trkpt lat="49.24988" lon="1.13957">
        <ele>68.2</ele>
        <time>2016-09-18T07:00:49Z</time>
      </trkpt>
      <trkpt lat="49.24982" lon="1.13973">
        <ele>67.5</ele>
        <time>2016-09-18T07:00:51Z</time>
      </trkpt>
      <trkpt lat="49.24976" lon="1.1399">
        <ele>66.9</ele>
        <time>2016-09-18T07:00:53Z</time>
      </trkpt>
      <trkpt lat="49.24971" lon="1.14007">
        <ele>66.4</ele>
        <time>2016-09-18T07:00:55Z</time>
      </trkpt>
      <trkpt lat="49.24967" lon="1.14027">
        <ele>65.9</ele>
        <time>2016-09-18T07:00:57Z</time>
      </trkpt>
      <trkpt lat="49.24966" lon="1.14043">
        <ele>65.5</ele>
        <time>2016-09-18T07:00:59Z</time>
      </trkpt>
      <trkpt lat="49.2496" lon="1.14058">
        <ele>65.1</ele>
        <time>2016-09-18T07:01:01Z</time>
      </trkpt>
      <trkpt lat="49.24957" lon="1.14076">
        <ele>64.8</ele>
        <time>2016-09-18T07:01:03Z</time>
      </trkpt>
      <trkpt lat="49.24952" lon="1.14091">
        <ele>64.5</ele>
        <time>2016-09-18T07:01:05Z</time>
      </trkpt>
      <trkpt lat="49.24946" lon="1.14108">
        <ele>64.3</ele>
        <time>2016-09-18T07:01:07Z</time>
      </trkpt>
      <trkpt lat="49.24941" lon="1.14121">
        <ele>64</ele>
        <time>2016-09-18T07:01:09Z</time>
      </trkpt>
      <trkpt lat="49.24934" lon="1.14136">
        <ele>63.7</ele>
        <time>2016-09-18T07:01:11Z</time>
      </trkpt>
      <trkpt lat="49.24927" lon="1.14152">
        <ele>63.5</ele>
        <time>2016-09-18T07:01:13Z</time>
      </trkpt>
      <trkpt lat="49.24924" lon="1.14169">
        <ele>63.2</ele>
        <time>2016-09-18T07:01:15Z</time>
      </trkpt>
      <trkpt lat="49.24919" lon="1.14185">
        <ele>62.9</ele>
        <time>2016-09-18T07:01:17Z</time>
      </trkpt>
      <trkpt lat="49.24912" lon="1.14201">
        <ele>62.4</ele>
        <time>2016-09-18T07:01:19Z</time>
      </trkpt>
      <trkpt lat="49.24905" lon="1.14212">
        <ele>62.3</ele>
        <time>2016-09-18T07:01:20Z</time>
      </trkpt>
      <trkpt lat="49.24898" lon="1.14221">
        <ele>62.1</ele>
        <time>2016-09-18T07:01:21Z</time>
      </trkpt>
      <trkpt lat="49.2489" lon="1.14237">
        <ele>61.8</ele>
        <time>2016-09-18T07:01:23Z</time>
      </trkpt>
      <trkpt lat="49.24885" lon="1.14252">
        <ele>61.7</ele>
        <time>2016-09-18T07:01:25Z</time>
      </trkpt>
      <trkpt lat="49.24882" lon="1.14266">
        <ele>61.6</ele>
        <time>2016-09-18T07:01:27Z</time>
      </trkpt>
      <trkpt lat="49.24881" lon="1.14281">
        <ele>61.5</ele>
        <time>2016-09-18T07:01:29Z</time>
      </trkpt>
      <trkpt lat="49.24883" lon="1.14296">
        <ele>61.5</ele>
        <time>2016-09-18T07:01:31Z</time>
      </trkpt>
      <trkpt lat="49.24884" lon="1.14313">
        <ele>61.4</ele>
        <time>2016-09-18T07:01:33Z</time>
      </trkpt>
      <trkpt lat="49.24885" lon="1.14329">
        <ele>61.4</ele>
        <time>2016-09-18T07:01:35Z</time>
      </trkpt>
      <trkpt lat="49.24888" lon="1.14346">
        <ele>61.4</ele>
        <time>2016-09-18T07:01:37Z</time>
      </trkpt>
      <trkpt lat="49.24891" lon="1.14364">
        <ele>61.4</ele>
        <time>2016-09-18T07:01:39Z</time>
      </trkpt>
      <trkpt lat="49.24892" lon="1.14381">
        <ele>61.4</ele>
        <time>2016-09-18T07:01:41Z</time>
      </trkpt>
      <trkpt lat="49.24896" lon="1.14399">
        <ele>61.4</ele>
        <time>2016-09-18T07:01:43Z</time>
      </trkpt>
      <trkpt lat="49.24898" lon="1.14417">
        <ele>61.4</ele>
        <time>2016-09-18T07:01:45Z</time>
      </trkpt>
      <trkpt lat="49.249" lon="1.14435">
        <ele>61.4</ele>
        <time>2016-09-18T07:01:47Z</time>
      </trkpt>
      <trkpt lat="49.24902" lon="1.14453">
        <ele>61.3</ele>
        <time>2016-09-18T07:01:49Z</time>
      </trkpt>
      <trkpt lat="49.24902" lon="1.1447">
        <ele>61.2</ele>
        <time>2016-09-18T07:01:51Z</time>
      </trkpt>
      <trkpt lat="49.24904" lon="1.14489">
        <ele>61</ele>
        <time>2016-09-18T07:01:53Z</time>
      </trkpt>
      <trkpt lat="49.24907" lon="1.14508">
        <ele>60.7</ele>
        <time>2016-09-18T07:01:55Z</time>
      </trkpt>
      <trkpt lat="49.24909" lon="1.14528">
        <ele>60.3</ele>
        <time>2016-09-18T07:01:57Z</time>
      </trkpt>
      <trkpt lat="49.24911" lon="1.14546">
        <ele>60</ele>
        <time>2016-09-18T07:01:59Z</time>
      </trkpt>
      <trkpt lat="49.24913" lon="1.14563">
        <ele>59.6</ele>
        <time>2016-09-18T07:02:01Z</time>
      </trkpt>
      <trkpt lat="49.24914" lon="1.14582">
        <ele>59.2</ele>
        <time>2016-09-18T07:02:04Z</time>
      </trkpt>
      <trkpt lat="49.24915" lon="1.14604">
        <ele>58.8</ele>
        <time>2016-09-18T07:02:07Z</time>
      </trkpt>
      <trkpt lat="49.24915" lon="1.14622">
        <ele>58.6</ele>
        <time>2016-09-18T07:02:09Z</time>
      </trkpt>
      <trkpt lat="49.24915" lon="1.1464">
        <ele>58.4</ele>
        <time>2016-09-18T07:02:11Z</time>
      </trkpt>
      <trkpt lat="49.24916" lon="1.14658">
        <ele>58.2</ele>
        <time>2016-09-18T07:02:13Z</time>
      </trkpt>
      <trkpt lat="49.24918" lon="1.14677">
        <ele>57.9</ele>
        <time>2016-09-18T07:02:15Z</time>
      </trkpt>
      <trkpt lat="49.24918" lon="1.14694">
        <ele>57.7</ele>
        <time>2016-09-18T07:02:17Z</time>
      </trkpt>
      <trkpt lat="49.24918" lon="1.14713">
        <ele>57.5</ele>
        <time>2016-09-18T07:02:19Z</time>
      </trkpt>
      <trkpt lat="49.24918" lon="1.14732">
        <ele>57.3</ele>
        <time>2016-09-18T07:02:21Z</time>
      </trkpt>
      <trkpt lat="49.24916" lon="1.14751">
        <ele>57.2</ele>
        <time>2016-09-18T07:02:23Z</time>
      </trkpt>
      <trkpt lat="49.24915" lon="1.14767">
        <ele>57.1</ele>
        <time>2016-09-18T07:02:25Z</time>
      </trkpt>
      <trkpt lat="49.24913" lon="1.14786">
        <ele>56.9</ele>
        <time>2016-09-18T07:02:27Z</time>
      </trkpt>
      <trkpt lat="49.24912" lon="1.14806">
        <ele>56.7</ele>
        <time>2016-09-18T07:02:29Z</time>
      </trkpt>
      <trkpt lat="49.24911" lon="1.14824">
        <ele>56.5</ele>
        <time>2016-09-18T07:02:31Z</time>
      </trkpt>
      <trkpt lat="49.24909" lon="1.14842">
        <ele>56.2</ele>
        <time>2016-09-18T07:02:33Z</time>
      </trkpt>
      <trkpt lat="49.24905" lon="1.1486">
        <ele>55.9</ele>
        <time>2016-09-18T07:02:35Z</time>
      </trkpt>
      <trkpt lat="49.24903" lon="1.14879">
        <ele>55.7</ele>
        <time>2016-09-18T07:02:37Z</time>
      </trkpt>
      <trkpt lat="49.24902" lon="1.14898">
        <ele>55.4</ele>
        <time>2016-09-18T07:02:39Z</time>
      </trkpt>
      <trkpt lat="49.24901" lon="1.14917">
        <ele>55.3</ele>
        <time>2016-09-18T07:02:41Z</time>
      </trkpt>
      <trkpt lat="49.249" lon="1.14935">
        <ele>55.1</ele>
        <time>2016-09-18T07:02:43Z</time>
      </trkpt>
      <trkpt lat="49.24899" lon="1.14954">
        <ele>54.9</ele>
        <time>2016-09-18T07:02:45Z</time>
      </trkpt>
      <trkpt lat="49.249" lon="1.14973">
        <ele>54.8</ele>
        <time>2016-09-18T07:02:47Z</time>
      </trkpt>
      <trkpt lat="49.249" lon="1.14991">
        <ele>54.7</ele>
        <time>2016-09-18T07:02:49Z</time>
      </trkpt>
      <trkpt lat="49.24902" lon="1.1501">
        <ele>54.6</ele>
        <time>2016-09-18T07:02:51Z</time>
      </trkpt>
      <trkpt lat="49.24905" lon="1.15031">
        <ele>54.5</ele>
        <time>2016-09-18T07:02:53Z</time>
      </trkpt>
      <trkpt lat="49.24906" lon="1.1505">
        <ele>54.4</ele>
        <time>2016-09-18T07:02:55Z</time>
      </trkpt>
      <trkpt lat="49.24907" lon="1.15069">
        <ele>54.2</ele>
        <time>2016-09-18T07:02:57Z</time>
      </trkpt>
      <trkpt lat="49.24911" lon="1.15087">
        <ele>54</ele>
        <time>2016-09-18T07:02:59Z</time>
      </trkpt>
      <trkpt lat="49.24913" lon="1.15103">
        <ele>53.9</ele>
        <time>2016-09-18T07:03:01Z</time>
      </trkpt>
      <trkpt lat="49.24912" lon="1.15118">
        <ele>53.8</ele>
        <time>2016-09-18T07:03:03Z</time>
      </trkpt>
      <trkpt lat="49.24909" lon="1.15133">
        <ele>53.6</ele>
        <time>2016-09-18T07:03:05Z</time>
      </trkpt>
      <trkpt lat="49.24908" lon="1.15153">
        <ele>53.4</ele>
        <time>2016-09-18T07:03:07Z</time>
      </trkpt>
      <trkpt lat="49.24907" lon="1.15174">
        <ele>53.1</ele>
        <time>2016-09-18T07:03:09Z</time>
      </trkpt>
      <trkpt lat="49.24907" lon="1.15195">
        <ele>52.9</ele>
        <time>2016-09-18T07:03:11Z</time>
      </trkpt>
      <trkpt lat="49.24904" lon="1.15214">
        <ele>52.6</ele>
        <time>2016-09-18T07:03:13Z</time>
      </trkpt>
      <trkpt lat="49.249" lon="1.15232">
        <ele>52.4</ele>
        <time>2016-09-18T07:03:15Z</time>
      </trkpt>
      <trkpt lat="49.24896" lon="1.15252">
        <ele>52.1</ele>
        <time>2016-09-18T07:03:17Z</time>
      </trkpt>
      <trkpt lat="49.24891" lon="1.15269">
        <ele>51.9</ele>
        <time>2016-09-18T07:03:19Z</time>
      </trkpt>
      <trkpt lat="49.24882" lon="1.15286">
        <ele>51.6</ele>
        <time>2016-09-18T07:03:21Z</time>
      </trkpt>
      <trkpt lat="49.24875" lon="1.153">
        <ele>51.3</ele>
        <time>2016-09-18T07:03:23Z</time>
      </trkpt>
      <trkpt lat="49.24867" lon="1.15314">
        <ele>51</ele>
        <time>2016-09-18T07:03:26Z</time>
      </trkpt>
      <trkpt lat="49.24857" lon="1.15313">
        <ele>50.6</ele>
        <time>2016-09-18T07:03:29Z</time>
      </trkpt>
      <trkpt lat="49.24845" lon="1.15312">
        <ele>50.2</ele>
        <time>2016-09-18T07:03:33Z</time>
      </trkpt>
      <trkpt lat="49.24834" lon="1.15311">
        <ele>50</ele>
        <time>2016-09-18T07:03:36Z</time>
      </trkpt>
      <trkpt lat="49.24822" lon="1.15308">
        <ele>49.8</ele>
        <time>2016-09-18T07:03:39Z</time>
      </trkpt>
      <trkpt lat="49.24811" lon="1.15302">
        <ele>49.5</ele>
        <time>2016-09-18T07:03:42Z</time>
      </trkpt>
      <trkpt lat="49.24801" lon="1.15296">
        <ele>49.1</ele>
        <time>2016-09-18T07:03:46Z</time>
      </trkpt>
      <trkpt lat="49.24793" lon="1.15291">
        <ele>49.1</ele>
        <time>2016-09-18T07:03:51Z</time>
      </trkpt>
      <trkpt lat="49.24783" lon="1.15289">
        <ele>49.6</ele>
        <time>2016-09-18T07:03:55Z</time>
      </trkpt>
      <trkpt lat="49.24772" lon="1.15283">
        <ele>50.4</ele>
        <time>2016-09-18T07:03:59Z</time>
      </trkpt>
      <trkpt lat="49.24763" lon="1.15279">
        <ele>51.3</ele>
        <time>2016-09-18T07:04:03Z</time>
      </trkpt>
      <trkpt lat="49.24753" lon="1.15277">
        <ele>51.9</ele>
        <time>2016-09-18T07:04:06Z</time>
      </trkpt>
      <trkpt lat="49.24741" lon="1.15272">
        <ele>52.6</ele>
        <time>2016-09-18T07:04:10Z</time>
      </trkpt>
      <trkpt lat="49.2473" lon="1.15267">
        <ele>53</ele>
        <time>2016-09-18T07:04:13Z</time>
      </trkpt>
      <trkpt lat="49.2472" lon="1.15261">
        <ele>53.4</ele>
        <time>2016-09-18T07:04:16Z</time>
      </trkpt>
      <trkpt lat="49.24707" lon="1.15253">
        <ele>53.7</ele>
        <time>2016-09-18T07:04:19Z</time>
      </trkpt>
      <trkpt lat="49.24696" lon="1.15245">
        <ele>53.9</ele>
        <time>2016-09-18T07:04:22Z</time>
      </trkpt>
      <trkpt lat="49.24687" lon="1.15237">
        <ele>54.2</ele>
        <time>2016-09-18T07:04:25Z</time>
      </trkpt>
      <trkpt lat="49.24678" lon="1.15232">
        <ele>54.9</ele>
        <time>2016-09-18T07:04:30Z</time>
      </trkpt>
      <trkpt lat="49.24669" lon="1.15229">
        <ele>56.1</ele>
        <time>2016-09-18T07:04:36Z</time>
      </trkpt>
      <trkpt lat="49.2466" lon="1.15227">
        <ele>58.1</ele>
        <time>2016-09-18T07:04:50Z</time>
      </trkpt>
      <trkpt lat="49.24652" lon="1.1522">
        <ele>61</ele>
        <time>2016-09-18T07:05:09Z</time>
      </trkpt>
      <trkpt lat="49.24643" lon="1.15224">
        <ele>63.9</ele>
        <time>2016-09-18T07:05:31Z</time>
      </trkpt>
      <trkpt lat="49.24635" lon="1.15233">
        <ele>64.3</ele>
        <time>2016-09-18T07:05:38Z</time>
      </trkpt>
      <trkpt lat="49.24628" lon="1.15242">
        <ele>64.4</ele>
        <time>2016-09-18T07:05:42Z</time>
      </trkpt>
      <trkpt lat="49.24622" lon="1.15254">
        <ele>64.5</ele>
        <time>2016-09-18T07:05:46Z</time>
      </trkpt>
      <trkpt lat="49.24615" lon="1.15266">
        <ele>64.6</ele>
        <time>2016-09-18T07:05:50Z</time>
      </trkpt>
      <trkpt lat="49.24608" lon="1.15274">
        <ele>64.7</ele>
        <time>2016-09-18T07:05:54Z</time>
      </trkpt>
      <trkpt lat="49.24599" lon="1.15285">
        <ele>64.8</ele>
        <time>2016-09-18T07:05:59Z</time>
      </trkpt>
      <trkpt lat="49.24594" lon="1.15298">
        <ele>64.8</ele>
        <time>2016-09-18T07:06:04Z</time>
      </trkpt>
      <trkpt lat="49.24587" lon="1.15308">
        <ele>64.8</ele>
        <time>2016-09-18T07:06:07Z</time>
      </trkpt>
      <trkpt lat="49.24577" lon="1.15318">
        <ele>64.7</ele>
        <time>2016-09-18T07:06:11Z</time>
      </trkpt>
      <trkpt lat="49.2457" lon="1.15329">
        <ele>64.6</ele>
        <time>2016-09-18T07:06:17Z</time>
      </trkpt>
      <trkpt lat="49.2456" lon="1.15337">
        <ele>64.5</ele>
        <time>2016-09-18T07:06:21Z</time>
      </trkpt>
      <trkpt lat="49.24554" lon="1.15351">
        <ele>64.5</ele>
        <time>2016-09-18T07:06:25Z</time>
      </trkpt>
      <trkpt lat="49.24547" lon="1.15363">
        <ele>64.4</ele>
        <time>2016-09-18T07:06:28Z</time>
      </trkpt>
      <trkpt lat="49.24539" lon="1.15374">
        <ele>64.2</ele>
        <time>2016-09-18T07:06:32Z</time>
      </trkpt>
      <trkpt lat="49.24531" lon="1.15384">
        <ele>64.1</ele>
        <time>2016-09-18T07:06:36Z</time>
      </trkpt>
      <trkpt lat="49.24522" lon="1.15396">
        <ele>64</ele>
        <time>2016-09-18T07:06:40Z</time>
      </trkpt>
      <trkpt lat="49.24515" lon="1.15406">
        <ele>63.9</ele>
        <time>2016-09-18T07:06:43Z</time>
      </trkpt>
      <trkpt lat="49.24509" lon="1.15417">
        <ele>63.7</ele>
        <time>2016-09-18T07:06:46Z</time>
      </trkpt>
      <trkpt lat="49.24504" lon="1.15428">
        <ele>63.5</ele>
        <time>2016-09-18T07:06:49Z</time>
      </trkpt>
      <trkpt lat="49.24497" lon="1.15439">
        <ele>63.4</ele>
        <time>2016-09-18T07:06:52Z</time>
      </trkpt>
      <trkpt lat="49.2449" lon="1.15452">
        <ele>63.3</ele>
        <time>2016-09-18T07:06:56Z</time>
      </trkpt>
      <trkpt lat="49.24483" lon="1.15465">
        <ele>63.1</ele>
        <time>2016-09-18T07:07:00Z</time>
      </trkpt>
      <trkpt lat="49.24477" lon="1.1548">
        <ele>62.9</ele>
        <time>2016-09-18T07:07:04Z</time>
      </trkpt>
      <trkpt lat="49.2447" lon="1.15493">
        <ele>62.8</ele>
        <time>2016-09-18T07:07:08Z</time>
      </trkpt>
      <trkpt lat="49.24464" lon="1.15504">
        <ele>62.7</ele>
        <time>2016-09-18T07:07:11Z</time>
      </trkpt>
      <trkpt lat="49.24459" lon="1.15516">
        <ele>62.4</ele>
        <time>2016-09-18T07:07:14Z</time>
      </trkpt>
      <trkpt lat="49.24453" lon="1.15531">
        <ele>62.1</ele>
        <time>2016-09-18T07:07:18Z</time>
      </trkpt>
      <trkpt lat="49.24449" lon="1.15544">
        <ele>61.9</ele>
        <time>2016-09-18T07:07:21Z</time>
      </trkpt>
      <trkpt lat="49.24444" lon="1.15562">
        <ele>61.7</ele>
        <time>2016-09-18T07:07:25Z</time>
      </trkpt>
      <trkpt lat="49.24439" lon="1.15574">
        <ele>61.5</ele>
        <time>2016-09-18T07:07:28Z</time>
      </trkpt>
      <trkpt lat="49.24437" lon="1.15588">
        <ele>61.4</ele>
        <time>2016-09-18T07:07:31Z</time>
      </trkpt>
      <trkpt lat="49.24433" lon="1.15602">
        <ele>61.2</ele>
        <time>2016-09-18T07:07:34Z</time>
      </trkpt>
      <trkpt lat="49.24428" lon="1.15616">
        <ele>61.1</ele>
        <time>2016-09-18T07:07:37Z</time>
      </trkpt>
      <trkpt lat="49.24426" lon="1.15633">
        <ele>60.9</ele>
        <time>2016-09-18T07:07:40Z</time>
      </trkpt>
      <trkpt lat="49.24422" lon="1.15651">
        <ele>60.7</ele>
        <time>2016-09-18T07:07:44Z</time>
      </trkpt>
      <trkpt lat="49.2442" lon="1.15665">
        <ele>60.5</ele>
        <time>2016-09-18T07:07:47Z</time>
      </trkpt>
      <trkpt lat="49.24416" lon="1.15681">
        <ele>60.4</ele>
        <time>2016-09-18T07:07:51Z</time>
      </trkpt>
      <trkpt lat="49.24415" lon="1.15695">
        <ele>60.3</ele>
        <time>2016-09-18T07:07:54Z</time>
      </trkpt>
      <trkpt lat="49.24412" lon="1.15709">
        <ele>60.2</ele>
        <time>2016-09-18T07:07:57Z</time>
      </trkpt>
      <trkpt lat="49.24408" lon="1.15725">
        <ele>60.1</ele>
        <time>2016-09-18T07:08:01Z</time>
      </trkpt>
      <trkpt lat="49.24406" lon="1.15739">
        <ele>59.7</ele>
        <time>2016-09-18T07:08:04Z</time>
      </trkpt>
      <trkpt lat="49.24404" lon="1.15755">
        <ele>59.5</ele>
        <time>2016-09-18T07:08:07Z</time>
      </trkpt>
      <trkpt lat="49.244" lon="1.15769">
        <ele>59.2</ele>
        <time>2016-09-18T07:08:11Z</time>
      </trkpt>
      <trkpt lat="49.24397" lon="1.15783">
        <ele>59</ele>
        <time>2016-09-18T07:08:15Z</time>
      </trkpt>
      <trkpt lat="49.24394" lon="1.15799">
        <ele>58.8</ele>
        <time>2016-09-18T07:08:20Z</time>
      </trkpt>
      <trkpt lat="49.24391" lon="1.15816">
        <ele>58.7</ele>
        <time>2016-09-18T07:08:24Z</time>
      </trkpt>
      <trkpt lat="49.24389" lon="1.15831">
        <ele>58.6</ele>
        <time>2016-09-18T07:08:28Z</time>
      </trkpt>
      <trkpt lat="49.24388" lon="1.15847">
        <ele>58.5</ele>
        <time>2016-09-18T07:08:33Z</time>
      </trkpt>
      <trkpt lat="49.24385" lon="1.15861">
        <ele>58.4</ele>
        <time>2016-09-18T07:08:37Z</time>
      </trkpt>
      <trkpt lat="49.24383" lon="1.1588">
        <ele>58.3</ele>
        <time>2016-09-18T07:08:41Z</time>
      </trkpt>
      <trkpt lat="49.24381" lon="1.15895">
        <ele>58.2</ele>
        <time>2016-09-18T07:08:44Z</time>
      </trkpt>
      <trkpt lat="49.24378" lon="1.15909">
        <ele>58.2</ele>
        <time>2016-09-18T07:08:47Z</time>
      </trkpt>
      <trkpt lat="49.24376" lon="1.15926">
        <ele>58</ele>
        <time>2016-09-18T07:08:51Z</time>
      </trkpt>
      <trkpt lat="49.24373" lon="1.15941">
        <ele>57.8</ele>
        <time>2016-09-18T07:08:55Z</time>
      </trkpt>
      <trkpt lat="49.24368" lon="1.15957">
        <ele>57.6</ele>
        <time>2016-09-18T07:08:58Z</time>
      </trkpt>
      <trkpt lat="49.24366" lon="1.15976">
        <ele>57.3</ele>
        <time>2016-09-18T07:09:01Z</time>
      </trkpt>
      <trkpt lat="49.24364" lon="1.15989">
        <ele>57.1</ele>
        <time>2016-09-18T07:09:03Z</time>
      </trkpt>
      <trkpt lat="49.24361" lon="1.16007">
        <ele>56.8</ele>
        <time>2016-09-18T07:09:06Z</time>
      </trkpt>
      <trkpt lat="49.24357" lon="1.1602">
        <ele>56.5</ele>
        <time>2016-09-18T07:09:08Z</time>
      </trkpt>
      <trkpt lat="49.24353" lon="1.16035">
        <ele>56.2</ele>
        <time>2016-09-18T07:09:11Z</time>
      </trkpt>
      <trkpt lat="49.24349" lon="1.1605">
        <ele>55.9</ele>
        <time>2016-09-18T07:09:15Z</time>
      </trkpt>
      <trkpt lat="49.24341" lon="1.16059">
        <ele>55.9</ele>
        <time>2016-09-18T07:09:19Z</time>
      </trkpt>
      <trkpt lat="49.24332" lon="1.16062">
        <ele>56.6</ele>
        <time>2016-09-18T07:09:26Z</time>
      </trkpt>
      <trkpt lat="49.24323" lon="1.16061">
        <ele>59.2</ele>
        <time>2016-09-18T07:09:37Z</time>
      </trkpt>
      <trkpt lat="49.24313" lon="1.1606">
        <ele>61.3</ele>
        <time>2016-09-18T07:09:46Z</time>
      </trkpt>
      <trkpt lat="49.24303" lon="1.1606">
        <ele>64.4</ele>
        <time>2016-09-18T07:09:56Z</time>
      </trkpt>
      <trkpt lat="49.24294" lon="1.16058">
        <ele>67</ele>
        <time>2016-09-18T07:10:05Z</time>
      </trkpt>
      <trkpt lat="49.24285" lon="1.16058">
        <ele>69.4</ele>
        <time>2016-09-18T07:10:14Z</time>
      </trkpt>
      <trkpt lat="49.24276" lon="1.16055">
        <ele>72</ele>
        <time>2016-09-18T07:10:24Z</time>
      </trkpt>
      <trkpt lat="49.24267" lon="1.16051">
        <ele>73.9</ele>
        <time>2016-09-18T07:10:34Z</time>
      </trkpt>
      <trkpt lat="49.24258" lon="1.16045">
        <ele>75.6</ele>
        <time>2016-09-18T07:10:42Z</time>
      </trkpt>
      <trkpt lat="49.24248" lon="1.1604">
        <ele>77</ele>
        <time>2016-09-18T07:10:48Z</time>
      </trkpt>
      <trkpt lat="49.24236" lon="1.1604">
        <ele>78.2</ele>
        <time>2016-09-18T07:10:54Z</time>
      </trkpt>
      <trkpt lat="49.24226" lon="1.16034">
        <ele>78.9</ele>
        <time>2016-09-18T07:10:57Z</time>
      </trkpt>
      <trkpt lat="49.24216" lon="1.16031">
        <ele>80</ele>
        <time>2016-09-18T07:11:02Z</time>
      </trkpt>
      <trkpt lat="49.24206" lon="1.16025">
        <ele>81.1</ele>
        <time>2016-09-18T07:11:07Z</time>
      </trkpt>
      <trkpt lat="49.24197" lon="1.16021">
        <ele>82.3</ele>
        <time>2016-09-18T07:11:12Z</time>
      </trkpt>
      <trkpt lat="49.24187" lon="1.16017">
        <ele>83.2</ele>
        <time>2016-09-18T07:11:16Z</time>
      </trkpt>
      <trkpt lat="49.24178" lon="1.16013">
        <ele>83.9</ele>
        <time>2016-09-18T07:11:19Z</time>
      </trkpt>
      <trkpt lat="49.24169" lon="1.1601">
        <ele>84.5</ele>
        <time>2016-09-18T07:11:22Z</time>
      </trkpt>
      <trkpt lat="49.2416" lon="1.16007">
        <ele>85.6</ele>
        <time>2016-09-18T07:11:27Z</time>
      </trkpt>
      <trkpt lat="49.24151" lon="1.16">
        <ele>86.4</ele>
        <time>2016-09-18T07:11:31Z</time>
      </trkpt>
      <trkpt lat="49.24142" lon="1.15994">
        <ele>86.9</ele>
        <time>2016-09-18T07:11:34Z</time>
      </trkpt>
      <trkpt lat="49.24132" lon="1.15988">
        <ele>87.8</ele>
        <time>2016-09-18T07:11:39Z</time>
      </trkpt>
      <trkpt lat="49.24123" lon="1.15985">
        <ele>88.4</ele>
        <time>2016-09-18T07:11:43Z</time>
      </trkpt>
      <trkpt lat="49.24114" lon="1.15981">
        <ele>89.1</ele>
        <time>2016-09-18T07:11:47Z</time>
      </trkpt>
      <trkpt lat="49.24105" lon="1.15976">
        <ele>89.8</ele>
        <time>2016-09-18T07:11:52Z</time>
      </trkpt>
      <trkpt lat="49.24096" lon="1.15971">
        <ele>90.3</ele>
        <time>2016-09-18T07:11:56Z</time>
      </trkpt>
      <trkpt lat="49.24085" lon="1.15968">
        <ele>90.9</ele>
        <time>2016-09-18T07:12:00Z</time>
      </trkpt>
      <trkpt lat="49.24076" lon="1.15965">
        <ele>91.4</ele>
        <time>2016-09-18T07:12:03Z</time>
      </trkpt>
      <trkpt lat="49.24066" lon="1.15961">
        <ele>91.9</ele>
        <time>2016-09-18T07:12:07Z</time>
      </trkpt>
      <trkpt lat="49.24056" lon="1.15957">
        <ele>92.3</ele>
        <time>2016-09-18T07:12:10Z</time>
      </trkpt>
      <trkpt lat="49.24047" lon="1.15952">
        <ele>92.7</ele>
        <time>2016-09-18T07:12:13Z</time>
      </trkpt>
      <trkpt lat="49.24037" lon="1.15946">
        <ele>93</ele>
        <time>2016-09-18T07:12:16Z</time>
      </trkpt>
      <trkpt lat="49.24026" lon="1.15942">
        <ele>93.4</ele>
        <time>2016-09-18T07:12:19Z</time>
      </trkpt>
      <trkpt lat="49.24015" lon="1.1594">
        <ele>93.7</ele>
        <time>2016-09-18T07:12:22Z</time>
      </trkpt>
      <trkpt lat="49.24005" lon="1.15933">
        <ele>94</ele>
        <time>2016-09-18T07:12:25Z</time>
      </trkpt>
      <trkpt lat="49.23997" lon="1.15929">
        <ele>94.2</ele>
        <time>2016-09-18T07:12:28Z</time>
      </trkpt>
      <trkpt lat="49.23986" lon="1.15925">
        <ele>94.4</ele>
        <time>2016-09-18T07:12:31Z</time>
      </trkpt>
      <trkpt lat="49.23977" lon="1.1592">
        <ele>94.7</ele>
        <time>2016-09-18T07:12:34Z</time>
      </trkpt>
      <trkpt lat="49.23968" lon="1.15917">
        <ele>95</ele>
        <time>2016-09-18T07:12:37Z</time>
      </trkpt>
      <trkpt lat="49.23959" lon="1.1592">
        <ele>95.2</ele>
        <time>2016-09-18T07:12:41Z</time>
      </trkpt>
      <trkpt lat="49.23954" lon="1.15933">
        <ele>95.4</ele>
        <time>2016-09-18T07:12:45Z</time>
      </trkpt>
      <trkpt lat="49.2395" lon="1.15948">
        <ele>95.5</ele>
        <time>2016-09-18T07:12:49Z</time>
      </trkpt>
      <trkpt lat="49.23946" lon="1.15962">
        <ele>95.5</ele>
        <time>2016-09-18T07:12:52Z</time>
      </trkpt>
      <trkpt lat="49.23941" lon="1.15977">
        <ele>95.2</ele>
        <time>2016-09-18T07:12:55Z</time>
      </trkpt>
      <trkpt lat="49.23936" lon="1.15991">
        <ele>94.7</ele>
        <time>2016-09-18T07:12:58Z</time>
      </trkpt>
      <trkpt lat="49.23933" lon="1.16006">
        <ele>94.2</ele>
        <time>2016-09-18T07:13:01Z</time>
      </trkpt>
      <trkpt lat="49.23929" lon="1.16022">
        <ele>93.6</ele>
        <time>2016-09-18T07:13:04Z</time>
      </trkpt>
      <trkpt lat="49.23925" lon="1.16042">
        <ele>92.9</ele>
        <time>2016-09-18T07:13:07Z</time>
      </trkpt>
      <trkpt lat="49.2392" lon="1.16063">
        <ele>92.1</ele>
        <time>2016-09-18T07:13:10Z</time>
      </trkpt>
      <trkpt lat="49.23915" lon="1.16077">
        <ele>91.5</ele>
        <time>2016-09-18T07:13:12Z</time>
      </trkpt>
      <trkpt lat="49.23909" lon="1.16093">
        <ele>90.8</ele>
        <time>2016-09-18T07:13:14Z</time>
      </trkpt>
      <trkpt lat="49.23906" lon="1.16114">
        <ele>90.1</ele>
        <time>2016-09-18T07:13:16Z</time>
      </trkpt>
      <trkpt lat="49.239" lon="1.16137">
        <ele>89.2</ele>
        <time>2016-09-18T07:13:18Z</time>
      </trkpt>
      <trkpt lat="49.23895" lon="1.16161">
        <ele>88.3</ele>
        <time>2016-09-18T07:13:20Z</time>
      </trkpt>
      <trkpt lat="49.23891" lon="1.16185">
        <ele>87.3</ele>
        <time>2016-09-18T07:13:22Z</time>
      </trkpt>
      <trkpt lat="49.23888" lon="1.16199">
        <ele>86.8</ele>
        <time>2016-09-18T07:13:23Z</time>
      </trkpt>
      <trkpt lat="49.23881" lon="1.16223">
        <ele>85.7</ele>
        <time>2016-09-18T07:13:25Z</time>
      </trkpt>
      <trkpt lat="49.23877" lon="1.16251">
        <ele>84.6</ele>
        <time>2016-09-18T07:13:27Z</time>
      </trkpt>
      <trkpt lat="49.2387" lon="1.16276">
        <ele>83.3</ele>
        <time>2016-09-18T07:13:29Z</time>
      </trkpt>
      <trkpt lat="49.23866" lon="1.1629">
        <ele>82.6</ele>
        <time>2016-09-18T07:13:30Z</time>
      </trkpt>
      <trkpt lat="49.23863" lon="1.16304">
        <ele>81.9</ele>
        <time>2016-09-18T07:13:31Z</time>
      </trkpt>
      <trkpt lat="49.2386" lon="1.1632">
        <ele>81.2</ele>
        <time>2016-09-18T07:13:32Z</time>
      </trkpt>
      <trkpt lat="49.23858" lon="1.16336">
        <ele>80.4</ele>
        <time>2016-09-18T07:13:33Z</time>
      </trkpt>
      <trkpt lat="49.23855" lon="1.16352">
        <ele>79.6</ele>
        <time>2016-09-18T07:13:34Z</time>
      </trkpt>
      <trkpt lat="49.23853" lon="1.16369">
        <ele>78.8</ele>
        <time>2016-09-18T07:13:35Z</time>
      </trkpt>
      <trkpt lat="49.2385" lon="1.16385">
        <ele>77.8</ele>
        <time>2016-09-18T07:13:36Z</time>
      </trkpt>
      <trkpt lat="49.23848" lon="1.164">
        <ele>76.9</ele>
        <time>2016-09-18T07:13:37Z</time>
      </trkpt>
      <trkpt lat="49.23845" lon="1.16414">
        <ele>76</ele>
        <time>2016-09-18T07:13:38Z</time>
      </trkpt>
      <trkpt lat="49.23841" lon="1.16439">
        <ele>73.9</ele>
        <time>2016-09-18T07:13:40Z</time>
      </trkpt>
      <trkpt lat="49.23839" lon="1.16459">
        <ele>71.7</ele>
        <time>2016-09-18T07:13:42Z</time>
      </trkpt>
      <trkpt lat="49.23836" lon="1.16483">
        <ele>69.5</ele>
        <time>2016-09-18T07:13:44Z</time>
      </trkpt>
      <trkpt lat="49.23835" lon="1.16498">
        <ele>67.4</ele>
        <time>2016-09-18T07:13:46Z</time>
      </trkpt>
      <trkpt lat="49.23836" lon="1.16514">
        <ele>65.3</ele>
        <time>2016-09-18T07:13:48Z</time>
      </trkpt>
      <trkpt lat="49.23844" lon="1.16527">
        <ele>61.9</ele>
        <time>2016-09-18T07:13:52Z</time>
      </trkpt>
      <trkpt lat="49.23852" lon="1.16537">
        <ele>59.9</ele>
        <time>2016-09-18T07:13:55Z</time>
      </trkpt>
      <trkpt lat="49.23864" lon="1.16542">
        <ele>58.2</ele>
        <time>2016-09-18T07:13:58Z</time>
      </trkpt>
      <trkpt lat="49.23876" lon="1.16548">
        <ele>56.9</ele>
        <time>2016-09-18T07:14:01Z</time>
      </trkpt>
      <trkpt lat="49.23886" lon="1.16554">
        <ele>55.8</ele>
        <time>2016-09-18T07:14:04Z</time>
      </trkpt>
      <trkpt lat="49.23899" lon="1.16564">
        <ele>54.9</ele>
        <time>2016-09-18T07:14:07Z</time>
      </trkpt>
      <trkpt lat="49.23908" lon="1.16573">
        <ele>54.4</ele>
        <time>2016-09-18T07:14:09Z</time>
      </trkpt>
      <trkpt lat="49.23918" lon="1.16582">
        <ele>54</ele>
        <time>2016-09-18T07:14:11Z</time>
      </trkpt>
      <trkpt lat="49.23928" lon="1.16589">
        <ele>53.6</ele>
        <time>2016-09-18T07:14:13Z</time>
      </trkpt>
      <trkpt lat="49.23937" lon="1.16596">
        <ele>53.2</ele>
        <time>2016-09-18T07:14:15Z</time>
      </trkpt>
      <trkpt lat="49.23948" lon="1.16602">
        <ele>52.9</ele>
        <time>2016-09-18T07:14:17Z</time>
      </trkpt>
      <trkpt lat="49.23961" lon="1.16606">
        <ele>52.4</ele>
        <time>2016-09-18T07:14:20Z</time>
      </trkpt>
      <trkpt lat="49.23971" lon="1.16609">
        <ele>52.1</ele>
        <time>2016-09-18T07:14:22Z</time>
      </trkpt>
      <trkpt lat="49.23981" lon="1.16612">
        <ele>51.8</ele>
        <time>2016-09-18T07:14:24Z</time>
      </trkpt>
      <trkpt lat="49.23991" lon="1.16616">
        <ele>51.5</ele>
        <time>2016-09-18T07:14:26Z</time>
      </trkpt>
      <trkpt lat="49.24002" lon="1.16622">
        <ele>51.2</ele>
        <time>2016-09-18T07:14:29Z</time>
      </trkpt>
      <trkpt lat="49.24012" lon="1.16625">
        <ele>51.1</ele>
        <time>2016-09-18T07:14:31Z</time>
      </trkpt>
      <trkpt lat="49.24021" lon="1.16632">
        <ele>51</ele>
        <time>2016-09-18T07:14:33Z</time>
      </trkpt>
      <trkpt lat="49.24033" lon="1.16634">
        <ele>51</ele>
        <time>2016-09-18T07:14:36Z</time>
      </trkpt>
      <trkpt lat="49.24045" lon="1.16636">
        <ele>51.1</ele>
        <time>2016-09-18T07:14:38Z</time>
      </trkpt>
      <trkpt lat="49.24057" lon="1.1664">
        <ele>51.3</ele>
        <time>2016-09-18T07:14:41Z</time>
      </trkpt>
      <trkpt lat="49.24065" lon="1.16646">
        <ele>51.7</ele>
        <time>2016-09-18T07:14:44Z</time>
      </trkpt>
      <trkpt lat="49.24073" lon="1.16654">
        <ele>51.9</ele>
        <time>2016-09-18T07:14:46Z</time>
      </trkpt>
      <trkpt lat="49.24082" lon="1.16662">
        <ele>52.2</ele>
        <time>2016-09-18T07:14:49Z</time>
      </trkpt>
      <trkpt lat="49.24091" lon="1.16669">
        <ele>52.6</ele>
        <time>2016-09-18T07:14:52Z</time>
      </trkpt>
      <trkpt lat="49.24102" lon="1.16676">
        <ele>52.8</ele>
        <time>2016-09-18T07:14:55Z</time>
      </trkpt>
      <trkpt lat="49.24111" lon="1.16685">
        <ele>53.1</ele>
        <time>2016-09-18T07:14:58Z</time>
      </trkpt>
      <trkpt lat="49.24122" lon="1.16693">
        <ele>53.3</ele>
        <time>2016-09-18T07:15:01Z</time>
      </trkpt>
      <trkpt lat="49.2413" lon="1.16699">
        <ele>53.4</ele>
        <time>2016-09-18T07:15:04Z</time>
      </trkpt>
      <trkpt lat="49.24138" lon="1.16709">
        <ele>53.6</ele>
        <time>2016-09-18T07:15:08Z</time>
      </trkpt>
      <trkpt lat="49.24144" lon="1.16722">
        <ele>53.5</ele>
        <time>2016-09-18T07:15:12Z</time>
      </trkpt>
      <trkpt lat="49.24152" lon="1.16734">
        <ele>53.4</ele>
        <time>2016-09-18T07:15:15Z</time>
      </trkpt>
      <trkpt lat="49.24159" lon="1.16748">
        <ele>53</ele>
        <time>2016-09-18T07:15:18Z</time>
      </trkpt>
      <trkpt lat="49.24168" lon="1.16753">
        <ele>52.6</ele>
        <time>2016-09-18T07:15:20Z</time>
      </trkpt>
      <trkpt lat="49.24178" lon="1.16761">
        <ele>52.3</ele>
        <time>2016-09-18T07:15:22Z</time>
      </trkpt>
      <trkpt lat="49.24186" lon="1.16769">
        <ele>52</ele>
        <time>2016-09-18T07:15:24Z</time>
      </trkpt>
      <trkpt lat="49.24195" lon="1.16766">
        <ele>51.7</ele>
        <time>2016-09-18T07:15:27Z</time>
      </trkpt>
      <trkpt lat="49.24204" lon="1.16762">
        <ele>51.7</ele>
        <time>2016-09-18T07:15:30Z</time>
      </trkpt>
      <trkpt lat="49.24216" lon="1.16757">
        <ele>51.8</ele>
        <time>2016-09-18T07:15:33Z</time>
      </trkpt>
      <trkpt lat="49.24226" lon="1.16755">
        <ele>52.1</ele>
        <time>2016-09-18T07:15:36Z</time>
      </trkpt>
      <trkpt lat="49.24237" lon="1.16752">
        <ele>52.4</ele>
        <time>2016-09-18T07:15:39Z</time>
      </trkpt>
      <trkpt lat="49.24246" lon="1.16749">
        <ele>52.6</ele>
        <time>2016-09-18T07:15:41Z</time>
      </trkpt>
      <trkpt lat="49.24257" lon="1.16746">
        <ele>53</ele>
        <time>2016-09-18T07:15:44Z</time>
      </trkpt>
      <trkpt lat="49.24267" lon="1.16744">
        <ele>53.3</ele>
        <time>2016-09-18T07:15:47Z</time>
      </trkpt>
      <trkpt lat="49.24278" lon="1.16739">
        <ele>53.7</ele>
        <time>2016-09-18T07:15:50Z</time>
      </trkpt>
      <trkpt lat="49.24286" lon="1.16732">
        <ele>54.1</ele>
        <time>2016-09-18T07:15:53Z</time>
      </trkpt>
      <trkpt lat="49.24297" lon="1.16722">
        <ele>54.5</ele>
        <time>2016-09-18T07:15:56Z</time>
      </trkpt>
      <trkpt lat="49.24307" lon="1.16709">
        <ele>54.9</ele>
        <time>2016-09-18T07:15:59Z</time>
      </trkpt>
      <trkpt lat="49.24316" lon="1.16701">
        <ele>55.5</ele>
        <time>2016-09-18T07:16:02Z</time>
      </trkpt>
      <trkpt lat="49.24326" lon="1.16694">
        <ele>55.9</ele>
        <time>2016-09-18T07:16:05Z</time>
      </trkpt>
      <trkpt lat="49.24337" lon="1.16695">
        <ele>56.4</ele>
        <time>2016-09-18T07:16:08Z</time>
      </trkpt>
      <trkpt lat="49.24349" lon="1.16699">
        <ele>56.7</ele>
        <time>2016-09-18T07:16:11Z</time>
      </trkpt>
      <trkpt lat="49.24361" lon="1.16699">
        <ele>57</ele>
        <time>2016-09-18T07:16:14Z</time>
      </trkpt>
      <trkpt lat="49.24371" lon="1.16695">
        <ele>57</ele>
        <time>2016-09-18T07:16:16Z</time>
      </trkpt>
      <trkpt lat="49.2438" lon="1.16688">
        <ele>56.9</ele>
        <time>2016-09-18T07:16:18Z</time>
      </trkpt>
      <trkpt lat="49.24388" lon="1.1668">
        <ele>56.7</ele>
        <time>2016-09-18T07:16:20Z</time>
      </trkpt>
      <trkpt lat="49.24395" lon="1.16665">
        <ele>56.4</ele>
        <time>2016-09-18T07:16:22Z</time>
      </trkpt>
      <trkpt lat="49.24404" lon="1.1665">
        <ele>56</ele>
        <time>2016-09-18T07:16:24Z</time>
      </trkpt>
      <trkpt lat="49.24411" lon="1.16634">
        <ele>55.1</ele>
        <time>2016-09-18T07:16:27Z</time>
      </trkpt>
      <trkpt lat="49.24414" lon="1.16617">
        <ele>54.5</ele>
        <time>2016-09-18T07:16:29Z</time>
      </trkpt>
      <trkpt lat="49.24419" lon="1.16601">
        <ele>53.8</ele>
        <time>2016-09-18T07:16:31Z</time>
      </trkpt>
      <trkpt lat="49.24423" lon="1.16571">
        <ele>53</ele>
        <time>2016-09-18T07:16:33Z</time>
      </trkpt>
      <trkpt lat="49.24429" lon="1.16556">
        <ele>52.2</ele>
        <time>2016-09-18T07:16:35Z</time>
      </trkpt>
      <trkpt lat="49.24431" lon="1.16535">
        <ele>51.3</ele>
        <time>2016-09-18T07:16:37Z</time>
      </trkpt>
      <trkpt lat="49.24438" lon="1.1652">
        <ele>50.4</ele>
        <time>2016-09-18T07:16:39Z</time>
      </trkpt>
      <trkpt lat="49.24447" lon="1.16502">
        <ele>49.5</ele>
        <time>2016-09-18T07:16:41Z</time>
      </trkpt>
      <trkpt lat="49.24453" lon="1.16486">
        <ele>48.6</ele>
        <time>2016-09-18T07:16:43Z</time>
      </trkpt>
      <trkpt lat="49.24455" lon="1.16464">
        <ele>47.7</ele>
        <time>2016-09-18T07:16:45Z</time>
      </trkpt>
      <trkpt lat="49.2446" lon="1.16441">
        <ele>46.8</ele>
        <time>2016-09-18T07:16:47Z</time>
      </trkpt>
      <trkpt lat="49.24465" lon="1.16424">
        <ele>46.1</ele>
        <time>2016-09-18T07:16:49Z</time>
      </trkpt>
      <trkpt lat="49.24464" lon="1.16408">
        <ele>45</ele>
        <time>2016-09-18T07:16:52Z</time>
      </trkpt>
      <trkpt lat="49.24464" lon="1.16393">
        <ele>44.3</ele>
        <time>2016-09-18T07:16:54Z</time>
      </trkpt>
      <trkpt lat="49.24464" lon="1.16379">
        <ele>43.6</ele>
        <time>2016-09-18T07:16:56Z</time>
      </trkpt>
      <trkpt lat="49.24466" lon="1.16364">
        <ele>43</ele>
        <time>2016-09-18T07:16:58Z</time>
      </trkpt>
      <trkpt lat="49.24469" lon="1.16344">
        <ele>42.2</ele>
        <time>2016-09-18T07:17:01Z</time>
      </trkpt>
      <trkpt lat="49.24464" lon="1.16329">
        <ele>41.5</ele>
        <time>2016-09-18T07:17:04Z</time>
      </trkpt>
      <trkpt lat="49.24455" lon="1.16319">
        <ele>40.7</ele>
        <time>2016-09-18T07:17:08Z</time>
      </trkpt>
      <trkpt lat="49.24455" lon="1.16302">
        <ele>40.2</ele>
        <time>2016-09-18T07:17:13Z</time>
      </trkpt>
      <trkpt lat="49.24458" lon="1.16289">
        <ele>39.6</ele>
        <time>2016-09-18T07:17:16Z</time>
      </trkpt>
      <trkpt lat="49.24455" lon="1.16272">
        <ele>39</ele>
        <time>2016-09-18T07:17:19Z</time>
      </trkpt>
      <trkpt lat="49.24458" lon="1.16256">
        <ele>38.7</ele>
        <time>2016-09-18T07:17:22Z</time>
      </trkpt>
      <trkpt lat="49.2446" lon="1.16238">
        <ele>38.5</ele>
        <time>2016-09-18T07:17:25Z</time>
      </trkpt>
      <trkpt lat="49.24461" lon="1.16223">
        <ele>38.2</ele>
        <time>2016-09-18T07:17:28Z</time>
      </trkpt>
      <trkpt lat="49.24458" lon="1.16208">
        <ele>38</ele>
        <time>2016-09-18T07:17:31Z</time>
      </trkpt>
      <trkpt lat="49.24457" lon="1.16191">
        <ele>37.8</ele>
        <time>2016-09-18T07:17:34Z</time>
      </trkpt>
      <trkpt lat="49.24462" lon="1.16178">
        <ele>37.8</ele>
        <time>2016-09-18T07:17:37Z</time>
      </trkpt>
      <trkpt lat="49.24459" lon="1.16163">
        <ele>37.9</ele>
        <time>2016-09-18T07:17:40Z</time>
      </trkpt>
      <trkpt lat="49.24455" lon="1.16147">
        <ele>38</ele>
        <time>2016-09-18T07:17:44Z</time>
      </trkpt>
      <trkpt lat="49.24464" lon="1.16145">
        <ele>38.9</ele>
        <time>2016-09-18T07:17:53Z</time>
      </trkpt>
      <trkpt lat="49.24474" lon="1.16148">
        <ele>39.9</ele>
        <time>2016-09-18T07:17:59Z</time>
      </trkpt>
      <trkpt lat="49.24483" lon="1.16153">
        <ele>41</ele>
        <time>2016-09-18T07:18:05Z</time>
      </trkpt>
      <trkpt lat="49.24492" lon="1.16145">
        <ele>43</ele>
        <time>2016-09-18T07:18:13Z</time>
      </trkpt>
      <trkpt lat="49.24497" lon="1.16133">
        <ele>44.5</ele>
        <time>2016-09-18T07:18:19Z</time>
      </trkpt>
      <trkpt lat="49.24499" lon="1.16118">
        <ele>45.6</ele>
        <time>2016-09-18T07:18:24Z</time>
      </trkpt>
      <trkpt lat="49.245" lon="1.16105">
        <ele>47.2</ele>
        <time>2016-09-18T07:18:30Z</time>
      </trkpt>
      <trkpt lat="49.24502" lon="1.1609">
        <ele>48.4</ele>
        <time>2016-09-18T07:18:35Z</time>
      </trkpt>
      <trkpt lat="49.24504" lon="1.16076">
        <ele>49.7</ele>
        <time>2016-09-18T07:18:40Z</time>
      </trkpt>
      <trkpt lat="49.24504" lon="1.16062">
        <ele>51.2</ele>
        <time>2016-09-18T07:18:46Z</time>
      </trkpt>
      <trkpt lat="49.24504" lon="1.16047">
        <ele>52.5</ele>
        <time>2016-09-18T07:18:51Z</time>
      </trkpt>
      <trkpt lat="49.24507" lon="1.16034">
        <ele>54.4</ele>
        <time>2016-09-18T07:18:58Z</time>
      </trkpt>
      <trkpt lat="49.24512" lon="1.16021">
        <ele>56.3</ele>
        <time>2016-09-18T07:19:04Z</time>
      </trkpt>
      <trkpt lat="49.2452" lon="1.16012">
        <ele>58.1</ele>
        <time>2016-09-18T07:19:10Z</time>
      </trkpt>
      <trkpt lat="49.24529" lon="1.16007">
        <ele>59.9</ele>
        <time>2016-09-18T07:19:16Z</time>
      </trkpt>
      <trkpt lat="49.24536" lon="1.15998">
        <ele>61.8</ele>
        <time>2016-09-18T07:19:22Z</time>
      </trkpt>
      <trkpt lat="49.24543" lon="1.1599">
        <ele>63.6</ele>
        <time>2016-09-18T07:19:28Z</time>
      </trkpt>
      <trkpt lat="49.2455" lon="1.15978">
        <ele>65.8</ele>
        <time>2016-09-18T07:19:36Z</time>
      </trkpt>
      <trkpt lat="49.24558" lon="1.15968">
        <ele>68.2</ele>
        <time>2016-09-18T07:19:45Z</time>
      </trkpt>
      <trkpt lat="49.24567" lon="1.15972">
        <ele>70</ele>
        <time>2016-09-18T07:19:51Z</time>
      </trkpt>
      <trkpt lat="49.24575" lon="1.1598">
        <ele>71.8</ele>
        <time>2016-09-18T07:19:58Z</time>
      </trkpt>
      <trkpt lat="49.24585" lon="1.15987">
        <ele>73.9</ele>
        <time>2016-09-18T07:20:06Z</time>
      </trkpt>
      <trkpt lat="49.24595" lon="1.15992">
        <ele>76.1</ele>
        <time>2016-09-18T07:20:15Z</time>
      </trkpt>
      <trkpt lat="49.24604" lon="1.15993">
        <ele>77.8</ele>
        <time>2016-09-18T07:20:22Z</time>
      </trkpt>
      <trkpt lat="49.24613" lon="1.15997">
        <ele>79.5</ele>
        <time>2016-09-18T07:20:29Z</time>
      </trkpt>
      <trkpt lat="49.24623" lon="1.16001">
        <ele>81.3</ele>
        <time>2016-09-18T07:20:36Z</time>
      </trkpt>
      <trkpt lat="49.24632" lon="1.16004">
        <ele>83.5</ele>
        <time>2016-09-18T07:20:45Z</time>
      </trkpt>
      <trkpt lat="49.24641" lon="1.16004">
        <ele>84.9</ele>
        <time>2016-09-18T07:20:51Z</time>
      </trkpt>
      <trkpt lat="49.24652" lon="1.16007">
        <ele>86.9</ele>
        <time>2016-09-18T07:20:59Z</time>
      </trkpt>
      <trkpt lat="49.24661" lon="1.16007">
        <ele>88.1</ele>
        <time>2016-09-18T07:21:04Z</time>
      </trkpt>
      <trkpt lat="49.24671" lon="1.16009">
        <ele>90.1</ele>
        <time>2016-09-18T07:21:12Z</time>
      </trkpt>
      <trkpt lat="49.24681" lon="1.16016">
        <ele>91.6</ele>
        <time>2016-09-18T07:21:18Z</time>
      </trkpt>
      <trkpt lat="49.24691" lon="1.1602">
        <ele>93.1</ele>
        <time>2016-09-18T07:21:25Z</time>
      </trkpt>
      <trkpt lat="49.247" lon="1.16026">
        <ele>94.3</ele>
        <time>2016-09-18T07:21:31Z</time>
      </trkpt>
      <trkpt lat="49.2471" lon="1.16033">
        <ele>95.5</ele>
        <time>2016-09-18T07:21:37Z</time>
      </trkpt>
      <trkpt lat="49.24719" lon="1.16038">
        <ele>96.6</ele>
        <time>2016-09-18T07:21:43Z</time>
      </trkpt>
      <trkpt lat="49.24725" lon="1.16048">
        <ele>99.3</ele>
        <time>2016-09-18T07:22:09Z</time>
      </trkpt>
      <trkpt lat="49.24725" lon="1.16062">
        <ele>100</ele>
        <time>2016-09-18T07:23:06Z</time>
      </trkpt>
      <trkpt lat="49.24717" lon="1.16074">
        <ele>100.1</ele>
        <time>2016-09-18T07:23:55Z</time>
      </trkpt>
      <trkpt lat="49.24713" lon="1.16087">
        <ele>100</ele>
        <time>2016-09-18T07:23:59Z</time>
      </trkpt>
      <trkpt lat="49.24711" lon="1.16102">
        <ele>99.8</ele>
        <time>2016-09-18T07:24:01Z</time>
      </trkpt>
      <trkpt lat="49.24708" lon="1.16117">
        <ele>99.5</ele>
        <time>2016-09-18T07:24:03Z</time>
      </trkpt>
      <trkpt lat="49.24704" lon="1.16129">
        <ele>99.1</ele>
        <time>2016-09-18T07:24:05Z</time>
      </trkpt>
      <trkpt lat="49.24699" lon="1.1615">
        <ele>98.5</ele>
        <time>2016-09-18T07:24:08Z</time>
      </trkpt>
      <trkpt lat="49.24697" lon="1.16164">
        <ele>97.9</ele>
        <time>2016-09-18T07:24:10Z</time>
      </trkpt>
      <trkpt lat="49.24693" lon="1.16181">
        <ele>97.3</ele>
        <time>2016-09-18T07:24:12Z</time>
      </trkpt>
      <trkpt lat="49.2469" lon="1.16195">
        <ele>96.6</ele>
        <time>2016-09-18T07:24:14Z</time>
      </trkpt>
      <trkpt lat="49.24689" lon="1.16214">
        <ele>95.8</ele>
        <time>2016-09-18T07:24:16Z</time>
      </trkpt>
      <trkpt lat="49.24689" lon="1.16236">
        <ele>95</ele>
        <time>2016-09-18T07:24:18Z</time>
      </trkpt>
      <trkpt lat="49.24689" lon="1.16259">
        <ele>94.2</ele>
        <time>2016-09-18T07:24:20Z</time>
      </trkpt>
      <trkpt lat="49.24686" lon="1.16284">
        <ele>93.5</ele>
        <time>2016-09-18T07:24:22Z</time>
      </trkpt>
      <trkpt lat="49.24684" lon="1.16302">
        <ele>92.7</ele>
        <time>2016-09-18T07:24:24Z</time>
      </trkpt>
      <trkpt lat="49.24682" lon="1.16317">
        <ele>92.3</ele>
        <time>2016-09-18T07:24:25Z</time>
      </trkpt>
      <trkpt lat="49.24679" lon="1.16338">
        <ele>91.3</ele>
        <time>2016-09-18T07:24:27Z</time>
      </trkpt>
      <trkpt lat="49.24677" lon="1.16358">
        <ele>90.5</ele>
        <time>2016-09-18T07:24:29Z</time>
      </trkpt>
      <trkpt lat="49.24676" lon="1.1638">
        <ele>89.6</ele>
        <time>2016-09-18T07:24:31Z</time>
      </trkpt>
      <trkpt lat="49.24677" lon="1.16401">
        <ele>88.9</ele>
        <time>2016-09-18T07:24:33Z</time>
      </trkpt>
      <trkpt lat="49.24681" lon="1.16419">
        <ele>88</ele>
        <time>2016-09-18T07:24:35Z</time>
      </trkpt>
      <trkpt lat="49.24683" lon="1.16442">
        <ele>87.2</ele>
        <time>2016-09-18T07:24:37Z</time>
      </trkpt>
      <trkpt lat="49.24685" lon="1.16457">
        <ele>86.3</ele>
        <time>2016-09-18T07:24:39Z</time>
      </trkpt>
      <trkpt lat="49.24684" lon="1.16473">
        <ele>85.4</ele>
        <time>2016-09-18T07:24:41Z</time>
      </trkpt>
      <trkpt lat="49.24684" lon="1.1649">
        <ele>84.6</ele>
        <time>2016-09-18T07:24:43Z</time>
      </trkpt>
      <trkpt lat="49.24686" lon="1.16511">
        <ele>83.6</ele>
        <time>2016-09-18T07:24:45Z</time>
      </trkpt>
      <trkpt lat="49.24687" lon="1.1653">
        <ele>82.7</ele>
        <time>2016-09-18T07:24:47Z</time>
      </trkpt>
      <trkpt lat="49.24688" lon="1.16552">
        <ele>81.8</ele>
        <time>2016-09-18T07:24:49Z</time>
      </trkpt>
      <trkpt lat="49.24691" lon="1.16575">
        <ele>81</ele>
        <time>2016-09-18T07:24:51Z</time>
      </trkpt>
      <trkpt lat="49.24696" lon="1.16594">
        <ele>80.2</ele>
        <time>2016-09-18T07:24:53Z</time>
      </trkpt>
      <trkpt lat="49.24704" lon="1.16602">
        <ele>79.8</ele>
        <time>2016-09-18T07:24:54Z</time>
      </trkpt>
      <trkpt lat="49.24714" lon="1.16614">
        <ele>79</ele>
        <time>2016-09-18T07:24:56Z</time>
      </trkpt>
      <trkpt lat="49.2472" lon="1.16625">
        <ele>78.7</ele>
        <time>2016-09-18T07:24:57Z</time>
      </trkpt>
      <trkpt lat="49.24727" lon="1.1664">
        <ele>77.9</ele>
        <time>2016-09-18T07:24:59Z</time>
      </trkpt>
      <trkpt lat="49.24739" lon="1.16658">
        <ele>77.2</ele>
        <time>2016-09-18T07:25:01Z</time>
      </trkpt>
      <trkpt lat="49.24747" lon="1.16677">
        <ele>76.5</ele>
        <time>2016-09-18T07:25:03Z</time>
      </trkpt>
      <trkpt lat="49.24754" lon="1.16698">
        <ele>75.6</ele>
        <time>2016-09-18T07:25:05Z</time>
      </trkpt>
      <trkpt lat="49.24761" lon="1.16717">
        <ele>74.8</ele>
        <time>2016-09-18T07:25:07Z</time>
      </trkpt>
      <trkpt lat="49.24768" lon="1.16737">
        <ele>74.1</ele>
        <time>2016-09-18T07:25:09Z</time>
      </trkpt>
      <trkpt lat="49.24773" lon="1.16754">
        <ele>73.4</ele>
        <time>2016-09-18T07:25:11Z</time>
      </trkpt>
      <trkpt lat="49.24781" lon="1.16772">
        <ele>72.7</ele>
        <time>2016-09-18T07:25:13Z</time>
      </trkpt>
      <trkpt lat="49.24791" lon="1.1679">
        <ele>72</ele>
        <time>2016-09-18T07:25:15Z</time>
      </trkpt>
      <trkpt lat="49.24798" lon="1.16806">
        <ele>71.4</ele>
        <time>2016-09-18T07:25:17Z</time>
      </trkpt>
      <trkpt lat="49.24804" lon="1.1682">
        <ele>70.7</ele>
        <time>2016-09-18T07:25:19Z</time>
      </trkpt>
      <trkpt lat="49.2481" lon="1.1684">
        <ele>70.1</ele>
        <time>2016-09-18T07:25:21Z</time>
      </trkpt>
      <trkpt lat="49.24819" lon="1.16856">
        <ele>69.5</ele>
        <time>2016-09-18T07:25:23Z</time>
      </trkpt>
      <trkpt lat="49.2483" lon="1.16873">
        <ele>69</ele>
        <time>2016-09-18T07:25:25Z</time>
      </trkpt>
      <trkpt lat="49.24839" lon="1.16887">
        <ele>68.5</ele>
        <time>2016-09-18T07:25:27Z</time>
      </trkpt>
      <trkpt lat="49.24849" lon="1.16902">
        <ele>68.1</ele>
        <time>2016-09-18T07:25:29Z</time>
      </trkpt>
      <trkpt lat="49.24859" lon="1.16916">
        <ele>67.6</ele>
        <time>2016-09-18T07:25:31Z</time>
      </trkpt>
      <trkpt lat="49.24867" lon="1.16929">
        <ele>67.1</ele>
        <time>2016-09-18T07:25:33Z</time>
      </trkpt>
      <trkpt lat="49.2487" lon="1.16943">
        <ele>66.6</ele>
        <time>2016-09-18T07:25:35Z</time>
      </trkpt>
      <trkpt lat="49.24874" lon="1.16964">
        <ele>65.6</ele>
        <time>2016-09-18T07:25:38Z</time>
      </trkpt>
      <trkpt lat="49.24876" lon="1.16983">
        <ele>64.7</ele>
        <time>2016-09-18T07:25:41Z</time>
      </trkpt>
      <trkpt lat="49.24876" lon="1.16998">
        <ele>64.1</ele>
        <time>2016-09-18T07:25:43Z</time>
      </trkpt>
      <trkpt lat="49.24877" lon="1.17012">
        <ele>63.4</ele>
        <time>2016-09-18T07:25:45Z</time>
      </trkpt>
      <trkpt lat="49.24877" lon="1.17031">
        <ele>62</ele>
        <time>2016-09-18T07:25:47Z</time>
      </trkpt>
      <trkpt lat="49.2488" lon="1.17057">
        <ele>61.2</ele>
        <time>2016-09-18T07:25:50Z</time>
      </trkpt>
      <trkpt lat="49.24888" lon="1.17069">
        <ele>59.8</ele>
        <time>2016-09-18T07:25:53Z</time>
      </trkpt>
      <trkpt lat="49.24899" lon="1.17072">
        <ele>58.4</ele>
        <time>2016-09-18T07:25:57Z</time>
      </trkpt>
      <trkpt lat="49.24911" lon="1.17076">
        <ele>57.5</ele>
        <time>2016-09-18T07:26:01Z</time>
      </trkpt>
      <trkpt lat="49.2492" lon="1.17079">
        <ele>57.2</ele>
        <time>2016-09-18T07:26:05Z</time>
      </trkpt>
      <trkpt lat="49.24926" lon="1.17066">
        <ele>57</ele>
        <time>2016-09-18T07:26:11Z</time>
      </trkpt>
      <trkpt lat="49.2493" lon="1.17052">
        <ele>57</ele>
        <time>2016-09-18T07:26:15Z</time>
      </trkpt>
      <trkpt lat="49.24934" lon="1.17038">
        <ele>57.3</ele>
        <time>2016-09-18T07:26:19Z</time>
      </trkpt>
      <trkpt lat="49.2494" lon="1.17029">
        <ele>57.6</ele>
        <time>2016-09-18T07:26:23Z</time>
      </trkpt>
      <trkpt lat="49.24944" lon="1.17015">
        <ele>58.2</ele>
        <time>2016-09-18T07:26:27Z</time>
      </trkpt>
      <trkpt lat="49.24947" lon="1.17">
        <ele>58.7</ele>
        <time>2016-09-18T07:26:31Z</time>
      </trkpt>
      <trkpt lat="49.24951" lon="1.16987">
        <ele>59.3</ele>
        <time>2016-09-18T07:26:35Z</time>
      </trkpt>
      <trkpt lat="49.24953" lon="1.16971">
        <ele>60.1</ele>
        <time>2016-09-18T07:26:40Z</time>
      </trkpt>
      <trkpt lat="49.24957" lon="1.16957">
        <ele>60.7</ele>
        <time>2016-09-18T07:26:44Z</time>
      </trkpt>
      <trkpt lat="49.24961" lon="1.1694">
        <ele>61.5</ele>
        <time>2016-09-18T07:26:49Z</time>
      </trkpt>
      <trkpt lat="49.24964" lon="1.16924">
        <ele>62.2</ele>
        <time>2016-09-18T07:26:53Z</time>
      </trkpt>
      <trkpt lat="49.24969" lon="1.16909">
        <ele>63.1</ele>
        <time>2016-09-18T07:26:58Z</time>
      </trkpt>
      <trkpt lat="49.24971" lon="1.16895">
        <ele>63.8</ele>
        <time>2016-09-18T07:27:02Z</time>
      </trkpt>
      <trkpt lat="49.24974" lon="1.16882">
        <ele>64.7</ele>
        <time>2016-09-18T07:27:07Z</time>
      </trkpt>
      <trkpt lat="49.24977" lon="1.16867">
        <ele>65.5</ele>
        <time>2016-09-18T07:27:12Z</time>
      </trkpt>
      <trkpt lat="49.24981" lon="1.16853">
        <ele>66.5</ele>
        <time>2016-09-18T07:27:18Z</time>
      </trkpt>
      <trkpt lat="49.24982" lon="1.16837">
        <ele>67.3</ele>
        <time>2016-09-18T07:27:23Z</time>
      </trkpt>
      <trkpt lat="49.24986" lon="1.16822">
        <ele>68.2</ele>
        <time>2016-09-18T07:27:28Z</time>
      </trkpt>
      <trkpt lat="49.2499" lon="1.16807">
        <ele>69</ele>
        <time>2016-09-18T07:27:33Z</time>
      </trkpt>
      <trkpt lat="49.24992" lon="1.16793">
        <ele>69.9</ele>
        <time>2016-09-18T07:27:38Z</time>
      </trkpt>
      <trkpt lat="49.24997" lon="1.16776">
        <ele>71</ele>
        <time>2016-09-18T07:27:44Z</time>
      </trkpt>
      <trkpt lat="49.25002" lon="1.16761">
        <ele>72.1</ele>
        <time>2016-09-18T07:27:50Z</time>
      </trkpt>
      <trkpt lat="49.25005" lon="1.16747">
        <ele>73.1</ele>
        <time>2016-09-18T07:27:55Z</time>
      </trkpt>
      <trkpt lat="49.25006" lon="1.1673">
        <ele>74.3</ele>
        <time>2016-09-18T07:28:01Z</time>
      </trkpt>
      <trkpt lat="49.25011" lon="1.16719">
        <ele>75.2</ele>
        <time>2016-09-18T07:28:06Z</time>
      </trkpt>
      <trkpt lat="49.25012" lon="1.16704">
        <ele>76.4</ele>
        <time>2016-09-18T07:28:12Z</time>
      </trkpt>
      <trkpt lat="49.25019" lon="1.16693">
        <ele>77.5</ele>
        <time>2016-09-18T07:28:17Z</time>
      </trkpt>
      <trkpt lat="49.25023" lon="1.16678">
        <ele>78.4</ele>
        <time>2016-09-18T07:28:22Z</time>
      </trkpt>
      <trkpt lat="49.25028" lon="1.16663">
        <ele>79.3</ele>
        <time>2016-09-18T07:28:27Z</time>
      </trkpt>
      <trkpt lat="49.25032" lon="1.1665">
        <ele>80.2</ele>
        <time>2016-09-18T07:28:32Z</time>
      </trkpt>
      <trkpt lat="49.25037" lon="1.16638">
        <ele>81.1</ele>
        <time>2016-09-18T07:28:37Z</time>
      </trkpt>
      <trkpt lat="49.25037" lon="1.16624">
        <ele>81.9</ele>
        <time>2016-09-18T07:28:41Z</time>
      </trkpt>
      <trkpt lat="49.25042" lon="1.16612">
        <ele>83</ele>
        <time>2016-09-18T07:28:47Z</time>
      </trkpt>
      <trkpt lat="49.25043" lon="1.16596">
        <ele>83.9</ele>
        <time>2016-09-18T07:28:52Z</time>
      </trkpt>
      <trkpt lat="49.25048" lon="1.16583">
        <ele>85</ele>
        <time>2016-09-18T07:28:58Z</time>
      </trkpt>
      <trkpt lat="49.25052" lon="1.16567">
        <ele>86</ele>
        <time>2016-09-18T07:29:04Z</time>
      </trkpt>
      <trkpt lat="49.25056" lon="1.16553">
        <ele>86.8</ele>
        <time>2016-09-18T07:29:09Z</time>
      </trkpt>
      <trkpt lat="49.25059" lon="1.16538">
        <ele>87.5</ele>
        <time>2016-09-18T07:29:14Z</time>
      </trkpt>
      <trkpt lat="49.25063" lon="1.16525">
        <ele>88.1</ele>
        <time>2016-09-18T07:29:19Z</time>
      </trkpt>
      <trkpt lat="49.25066" lon="1.16512">
        <ele>88.6</ele>
        <time>2016-09-18T07:29:24Z</time>
      </trkpt>
      <trkpt lat="49.2507" lon="1.16499">
        <ele>89.3</ele>
        <time>2016-09-18T07:29:29Z</time>
      </trkpt>
      <trkpt lat="49.25073" lon="1.16484">
        <ele>89.7</ele>
        <time>2016-09-18T07:29:33Z</time>
      </trkpt>
      <trkpt lat="49.25075" lon="1.1647">
        <ele>90.4</ele>
        <time>2016-09-18T07:29:38Z</time>
      </trkpt>
      <trkpt lat="49.25072" lon="1.16457">
        <ele>90.9</ele>
        <time>2016-09-18T07:29:42Z</time>
      </trkpt>
      <trkpt lat="49.25068" lon="1.16443">
        <ele>91.4</ele>
        <time>2016-09-18T07:29:46Z</time>
      </trkpt>
      <trkpt lat="49.25066" lon="1.16428">
        <ele>91.9</ele>
        <time>2016-09-18T07:29:50Z</time>
      </trkpt>
      <trkpt lat="49.25067" lon="1.16413">
        <ele>92.3</ele>
        <time>2016-09-18T07:29:54Z</time>
      </trkpt>
      <trkpt lat="49.25068" lon="1.16396">
        <ele>92.8</ele>
        <time>2016-09-18T07:29:58Z</time>
      </trkpt>
      <trkpt lat="49.25068" lon="1.16379">
        <ele>93.2</ele>
        <time>2016-09-18T07:30:02Z</time>
      </trkpt>
      <trkpt lat="49.25067" lon="1.16364">
        <ele>93.6</ele>
        <time>2016-09-18T07:30:05Z</time>
      </trkpt>
      <trkpt lat="49.25068" lon="1.16349">
        <ele>94</ele>
        <time>2016-09-18T07:30:09Z</time>
      </trkpt>
      <trkpt lat="49.25068" lon="1.16333">
        <ele>94.5</ele>
        <time>2016-09-18T07:30:13Z</time>
      </trkpt>
      <trkpt lat="49.25069" lon="1.16318">
        <ele>95</ele>
        <time>2016-09-18T07:30:17Z</time>
      </trkpt>
      <trkpt lat="49.25069" lon="1.16302">
        <ele>95.5</ele>
        <time>2016-09-18T07:30:21Z</time>
      </trkpt>
      <trkpt lat="49.2507" lon="1.16286">
        <ele>95.9</ele>
        <time>2016-09-18T07:30:26Z</time>
      </trkpt>
      <trkpt lat="49.25068" lon="1.1627">
        <ele>96.3</ele>
        <time>2016-09-18T07:30:30Z</time>
      </trkpt>
      <trkpt lat="49.25068" lon="1.16255">
        <ele>96.9</ele>
        <time>2016-09-18T07:30:36Z</time>
      </trkpt>
      <trkpt lat="49.25077" lon="1.16249">
        <ele>98.4</ele>
        <time>2016-09-18T07:31:35Z</time>
      </trkpt>
      <trkpt lat="49.25086" lon="1.16251">
        <ele>98.4</ele>
        <time>2016-09-18T07:31:38Z</time>
      </trkpt>
      <trkpt lat="49.25097" lon="1.16258">
        <ele>98.4</ele>
        <time>2016-09-18T07:31:41Z</time>
      </trkpt>
      <trkpt lat="49.25105" lon="1.16264">
        <ele>98.3</ele>
        <time>2016-09-18T07:31:43Z</time>
      </trkpt>
      <trkpt lat="49.25116" lon="1.16269">
        <ele>98.1</ele>
        <time>2016-09-18T07:31:45Z</time>
      </trkpt>
      <trkpt lat="49.25126" lon="1.16275">
        <ele>97.9</ele>
        <time>2016-09-18T07:31:47Z</time>
      </trkpt>
      <trkpt lat="49.25138" lon="1.16283">
        <ele>97.2</ele>
        <time>2016-09-18T07:31:50Z</time>
      </trkpt>
      <trkpt lat="49.25147" lon="1.16288">
        <ele>96.7</ele>
        <time>2016-09-18T07:31:52Z</time>
      </trkpt>
      <trkpt lat="49.25158" lon="1.16296">
        <ele>96</ele>
        <time>2016-09-18T07:31:54Z</time>
      </trkpt>
      <trkpt lat="49.25168" lon="1.16301">
        <ele>95.3</ele>
        <time>2016-09-18T07:31:56Z</time>
      </trkpt>
      <trkpt lat="49.25179" lon="1.16307">
        <ele>94.4</ele>
        <time>2016-09-18T07:31:58Z</time>
      </trkpt>
      <trkpt lat="49.2519" lon="1.16312">
        <ele>93.4</ele>
        <time>2016-09-18T07:32:00Z</time>
      </trkpt>
      <trkpt lat="49.252" lon="1.16317">
        <ele>92.5</ele>
        <time>2016-09-18T07:32:02Z</time>
      </trkpt>
      <trkpt lat="49.2521" lon="1.16323">
        <ele>91.6</ele>
        <time>2016-09-18T07:32:04Z</time>
      </trkpt>
      <trkpt lat="49.2522" lon="1.1633">
        <ele>90.5</ele>
        <time>2016-09-18T07:32:06Z</time>
      </trkpt>
      <trkpt lat="49.25233" lon="1.16337">
        <ele>89.5</ele>
        <time>2016-09-18T07:32:08Z</time>
      </trkpt>
      <trkpt lat="49.25244" lon="1.16342">
        <ele>88.2</ele>
        <time>2016-09-18T07:32:10Z</time>
      </trkpt>
      <trkpt lat="49.25257" lon="1.16349">
        <ele>87</ele>
        <time>2016-09-18T07:32:12Z</time>
      </trkpt>
      <trkpt lat="49.25266" lon="1.16356">
        <ele>85.6</ele>
        <time>2016-09-18T07:32:14Z</time>
      </trkpt>
      <trkpt lat="49.25275" lon="1.16362">
        <ele>84.2</ele>
        <time>2016-09-18T07:32:16Z</time>
      </trkpt>
      <trkpt lat="49.25288" lon="1.16368">
        <ele>81.9</ele>
        <time>2016-09-18T07:32:19Z</time>
      </trkpt>
      <trkpt lat="49.25298" lon="1.16371">
        <ele>79.1</ele>
        <time>2016-09-18T07:32:23Z</time>
      </trkpt>
      <trkpt lat="49.25304" lon="1.16357">
        <ele>71</ele>
        <time>2016-09-18T07:32:36Z</time>
      </trkpt>
      <trkpt lat="49.25333" lon="1.16369">
        <ele>69</ele>
        <time>2016-09-18T07:32:42Z</time>
      </trkpt>
      <trkpt lat="49.25364" lon="1.16402">
        <ele>68.5</ele>
        <time>2016-09-18T07:32:48Z</time>
      </trkpt>
      <trkpt lat="49.25375" lon="1.1641">
        <ele>67.8</ele>
        <time>2016-09-18T07:32:50Z</time>
      </trkpt>
      <trkpt lat="49.25387" lon="1.16417">
        <ele>66.8</ele>
        <time>2016-09-18T07:32:53Z</time>
      </trkpt>
      <trkpt lat="49.25398" lon="1.16425">
        <ele>65.8</ele>
        <time>2016-09-18T07:32:56Z</time>
      </trkpt>
      <trkpt lat="49.25408" lon="1.16429">
        <ele>64.5</ele>
        <time>2016-09-18T07:33:00Z</time>
      </trkpt>
      <trkpt lat="49.25418" lon="1.16434">
        <ele>63.4</ele>
        <time>2016-09-18T07:33:05Z</time>
      </trkpt>
      <trkpt lat="49.25426" lon="1.1644">
        <ele>62.6</ele>
        <time>2016-09-18T07:33:10Z</time>
      </trkpt>
      <trkpt lat="49.25434" lon="1.16446">
        <ele>61.9</ele>
        <time>2016-09-18T07:33:16Z</time>
      </trkpt>
      <trkpt lat="49.25443" lon="1.16452">
        <ele>61.9</ele>
        <time>2016-09-18T07:33:23Z</time>
      </trkpt>
      <trkpt lat="49.25451" lon="1.16458">
        <ele>63</ele>
        <time>2016-09-18T07:33:30Z</time>
      </trkpt>
      <trkpt lat="49.2546" lon="1.16461">
        <ele>64.4</ele>
        <time>2016-09-18T07:33:36Z</time>
      </trkpt>
      <trkpt lat="49.2547" lon="1.16467">
        <ele>66.5</ele>
        <time>2016-09-18T07:33:43Z</time>
      </trkpt>
      <trkpt lat="49.25479" lon="1.16474">
        <ele>69.1</ele>
        <time>2016-09-18T07:33:51Z</time>
      </trkpt>
      <trkpt lat="49.25488" lon="1.16479">
        <ele>71.5</ele>
        <time>2016-09-18T07:33:58Z</time>
      </trkpt>
      <trkpt lat="49.25496" lon="1.16484">
        <ele>74.2</ele>
        <time>2016-09-18T07:34:06Z</time>
      </trkpt>
      <trkpt lat="49.25505" lon="1.16489">
        <ele>77</ele>
        <time>2016-09-18T07:34:15Z</time>
      </trkpt>
      <trkpt lat="49.25514" lon="1.16494">
        <ele>78.9</ele>
        <time>2016-09-18T07:34:22Z</time>
      </trkpt>
      <trkpt lat="49.25523" lon="1.165">
        <ele>80.2</ele>
        <time>2016-09-18T07:34:27Z</time>
      </trkpt>
      <trkpt lat="49.25532" lon="1.16506">
        <ele>81.8</ele>
        <time>2016-09-18T07:34:34Z</time>
      </trkpt>
      <trkpt lat="49.25541" lon="1.16513">
        <ele>83.1</ele>
        <time>2016-09-18T07:34:40Z</time>
      </trkpt>
      <trkpt lat="49.2555" lon="1.16518">
        <ele>84.2</ele>
        <time>2016-09-18T07:34:45Z</time>
      </trkpt>
      <trkpt lat="49.2556" lon="1.16525">
        <ele>85.5</ele>
        <time>2016-09-18T07:34:51Z</time>
      </trkpt>
      <trkpt lat="49.25568" lon="1.16531">
        <ele>86.6</ele>
        <time>2016-09-18T07:34:56Z</time>
      </trkpt>
      <trkpt lat="49.25577" lon="1.16537">
        <ele>87.4</ele>
        <time>2016-09-18T07:35:01Z</time>
      </trkpt>
      <trkpt lat="49.25586" lon="1.16541">
        <ele>88.2</ele>
        <time>2016-09-18T07:35:06Z</time>
      </trkpt>
      <trkpt lat="49.25595" lon="1.16546">
        <ele>89</ele>
        <time>2016-09-18T07:35:11Z</time>
      </trkpt>
      <trkpt lat="49.25605" lon="1.16552">
        <ele>89.8</ele>
        <time>2016-09-18T07:35:17Z</time>
      </trkpt>
      <trkpt lat="49.25616" lon="1.1656">
        <ele>90.1</ele>
        <time>2016-09-18T07:35:20Z</time>
      </trkpt>
      <trkpt lat="49.25625" lon="1.16568">
        <ele>90.4</ele>
        <time>2016-09-18T07:35:23Z</time>
      </trkpt>
      <trkpt lat="49.25636" lon="1.16573">
        <ele>90.6</ele>
        <time>2016-09-18T07:35:26Z</time>
      </trkpt>
      <trkpt lat="49.25645" lon="1.16578">
        <ele>90.7</ele>
        <time>2016-09-18T07:35:29Z</time>
      </trkpt>
      <trkpt lat="49.25654" lon="1.16584">
        <ele>90.9</ele>
        <time>2016-09-18T07:35:33Z</time>
      </trkpt>
      <trkpt lat="49.25663" lon="1.16589">
        <ele>91</ele>
        <time>2016-09-18T07:35:36Z</time>
      </trkpt>
      <trkpt lat="49.25673" lon="1.16594">
        <ele>91.1</ele>
        <time>2016-09-18T07:35:41Z</time>
      </trkpt>
      <trkpt lat="49.25682" lon="1.16601">
        <ele>91.2</ele>
        <time>2016-09-18T07:35:45Z</time>
      </trkpt>
      <trkpt lat="49.25693" lon="1.16605">
        <ele>91.3</ele>
        <time>2016-09-18T07:35:48Z</time>
      </trkpt>
      <trkpt lat="49.25704" lon="1.16609">
        <ele>91.3</ele>
        <time>2016-09-18T07:35:52Z</time>
      </trkpt>
      <trkpt lat="49.25714" lon="1.16615">
        <ele>91.3</ele>
        <time>2016-09-18T07:35:55Z</time>
      </trkpt>
      <trkpt lat="49.25724" lon="1.16622">
        <ele>91.4</ele>
        <time>2016-09-18T07:35:58Z</time>
      </trkpt>
      <trkpt lat="49.25734" lon="1.16628">
        <ele>91.4</ele>
        <time>2016-09-18T07:36:01Z</time>
      </trkpt>
      <trkpt lat="49.25743" lon="1.16633">
        <ele>91.4</ele>
        <time>2016-09-18T07:36:03Z</time>
      </trkpt>
      <trkpt lat="49.25754" lon="1.16639">
        <ele>91.5</ele>
        <time>2016-09-18T07:36:06Z</time>
      </trkpt>
      <trkpt lat="49.25764" lon="1.16645">
        <ele>91.6</ele>
        <time>2016-09-18T07:36:09Z</time>
      </trkpt>
      <trkpt lat="49.25775" lon="1.16653">
        <ele>91.6</ele>
        <time>2016-09-18T07:36:12Z</time>
      </trkpt>
      <trkpt lat="49.25784" lon="1.16654">
        <ele>91.7</ele>
        <time>2016-09-18T07:36:15Z</time>
      </trkpt>
      <trkpt lat="49.25791" lon="1.16645">
        <ele>91.8</ele>
        <time>2016-09-18T07:36:18Z</time>
      </trkpt>
      <trkpt lat="49.25796" lon="1.16629">
        <ele>91.9</ele>
        <time>2016-09-18T07:36:22Z</time>
      </trkpt>
      <trkpt lat="49.258" lon="1.16616">
        <ele>92.1</ele>
        <time>2016-09-18T07:36:25Z</time>
      </trkpt>
      <trkpt lat="49.25803" lon="1.16603">
        <ele>92.2</ele>
        <time>2016-09-18T07:36:28Z</time>
      </trkpt>
      <trkpt lat="49.25806" lon="1.16589">
        <ele>92.5</ele>
        <time>2016-09-18T07:36:31Z</time>
      </trkpt>
      <trkpt lat="49.25811" lon="1.16572">
        <ele>92.8</ele>
        <time>2016-09-18T07:36:35Z</time>
      </trkpt>
      <trkpt lat="49.25816" lon="1.16555">
        <ele>93.1</ele>
        <time>2016-09-18T07:36:39Z</time>
      </trkpt>
      <trkpt lat="49.25819" lon="1.16542">
        <ele>93.5</ele>
        <time>2016-09-18T07:36:42Z</time>
      </trkpt>
      <trkpt lat="49.25823" lon="1.16528">
        <ele>93.7</ele>
        <time>2016-09-18T07:36:45Z</time>
      </trkpt>
      <trkpt lat="49.25826" lon="1.16514">
        <ele>94</ele>
        <time>2016-09-18T07:36:48Z</time>
      </trkpt>
      <trkpt lat="49.2583" lon="1.16501">
        <ele>94.4</ele>
        <time>2016-09-18T07:36:51Z</time>
      </trkpt>
      <trkpt lat="49.25833" lon="1.16487">
        <ele>94.7</ele>
        <time>2016-09-18T07:36:54Z</time>
      </trkpt>
      <trkpt lat="49.25837" lon="1.16471">
        <ele>95.4</ele>
        <time>2016-09-18T07:36:58Z</time>
      </trkpt>
      <trkpt lat="49.25841" lon="1.16455">
        <ele>95.9</ele>
        <time>2016-09-18T07:37:02Z</time>
      </trkpt>
      <trkpt lat="49.25845" lon="1.1644">
        <ele>96.6</ele>
        <time>2016-09-18T07:37:06Z</time>
      </trkpt>
      <trkpt lat="49.25849" lon="1.16426">
        <ele>97.2</ele>
        <time>2016-09-18T07:37:10Z</time>
      </trkpt>
      <trkpt lat="49.25853" lon="1.1641">
        <ele>97.9</ele>
        <time>2016-09-18T07:37:14Z</time>
      </trkpt>
      <trkpt lat="49.25857" lon="1.16396">
        <ele>98.7</ele>
        <time>2016-09-18T07:37:18Z</time>
      </trkpt>
      <trkpt lat="49.25861" lon="1.16381">
        <ele>99.4</ele>
        <time>2016-09-18T07:37:22Z</time>
      </trkpt>
      <trkpt lat="49.25864" lon="1.16366">
        <ele>100.2</ele>
        <time>2016-09-18T07:37:26Z</time>
      </trkpt>
      <trkpt lat="49.25868" lon="1.16352">
        <ele>101</ele>
        <time>2016-09-18T07:37:30Z</time>
      </trkpt>
      <trkpt lat="49.25871" lon="1.16338">
        <ele>101.8</ele>
        <time>2016-09-18T07:37:34Z</time>
      </trkpt>
      <trkpt lat="49.25875" lon="1.16322">
        <ele>102.6</ele>
        <time>2016-09-18T07:37:38Z</time>
      </trkpt>
      <trkpt lat="49.25878" lon="1.16309">
        <ele>103.4</ele>
        <time>2016-09-18T07:37:42Z</time>
      </trkpt>
      <trkpt lat="49.25883" lon="1.16295">
        <ele>104.1</ele>
        <time>2016-09-18T07:37:46Z</time>
      </trkpt>
      <trkpt lat="49.25887" lon="1.16282">
        <ele>104.9</ele>
        <time>2016-09-18T07:37:50Z</time>
      </trkpt>
      <trkpt lat="49.25892" lon="1.16271">
        <ele>105.7</ele>
        <time>2016-09-18T07:37:54Z</time>
      </trkpt>
      <trkpt lat="49.25895" lon="1.16253">
        <ele>106.6</ele>
        <time>2016-09-18T07:37:59Z</time>
      </trkpt>
      <trkpt lat="49.25898" lon="1.16238">
        <ele>107.5</ele>
        <time>2016-09-18T07:38:04Z</time>
      </trkpt>
      <trkpt lat="49.25902" lon="1.16222">
        <ele>108</ele>
        <time>2016-09-18T07:38:08Z</time>
      </trkpt>
      <trkpt lat="49.25905" lon="1.16205">
        <ele>108.6</ele>
        <time>2016-09-18T07:38:12Z</time>
      </trkpt>
      <trkpt lat="49.25909" lon="1.16192">
        <ele>109</ele>
        <time>2016-09-18T07:38:15Z</time>
      </trkpt>
      <trkpt lat="49.25913" lon="1.16177">
        <ele>109.3</ele>
        <time>2016-09-18T07:38:18Z</time>
      </trkpt>
      <trkpt lat="49.25916" lon="1.16162">
        <ele>109.8</ele>
        <time>2016-09-18T07:38:22Z</time>
      </trkpt>
      <trkpt lat="49.25919" lon="1.16147">
        <ele>110.1</ele>
        <time>2016-09-18T07:38:25Z</time>
      </trkpt>
      <trkpt lat="49.25924" lon="1.16131">
        <ele>110.5</ele>
        <time>2016-09-18T07:38:29Z</time>
      </trkpt>
      <trkpt lat="49.25928" lon="1.16118">
        <ele>110.7</ele>
        <time>2016-09-18T07:38:32Z</time>
      </trkpt>
      <trkpt lat="49.25932" lon="1.16104">
        <ele>110.8</ele>
        <time>2016-09-18T07:38:35Z</time>
      </trkpt>
      <trkpt lat="49.25936" lon="1.16087">
        <ele>110.7</ele>
        <time>2016-09-18T07:38:39Z</time>
      </trkpt>
      <trkpt lat="49.2594" lon="1.16073">
        <ele>110.7</ele>
        <time>2016-09-18T07:38:42Z</time>
      </trkpt>
      <trkpt lat="49.25943" lon="1.1606">
        <ele>110.7</ele>
        <time>2016-09-18T07:38:45Z</time>
      </trkpt>
      <trkpt lat="49.25947" lon="1.16047">
        <ele>110.7</ele>
        <time>2016-09-18T07:38:48Z</time>
      </trkpt>
      <trkpt lat="49.25953" lon="1.16032">
        <ele>110.7</ele>
        <time>2016-09-18T07:38:51Z</time>
      </trkpt>
      <trkpt lat="49.25962" lon="1.16023">
        <ele>110.5</ele>
        <time>2016-09-18T07:38:55Z</time>
      </trkpt>
      <trkpt lat="49.2597" lon="1.16016">
        <ele>110.5</ele>
        <time>2016-09-18T07:38:58Z</time>
      </trkpt>
      <trkpt lat="49.25981" lon="1.16011">
        <ele>110.7</ele>
        <time>2016-09-18T07:39:03Z</time>
      </trkpt>
      <trkpt lat="49.25978" lon="1.15996">
        <ele>111.1</ele>
        <time>2016-09-18T07:39:12Z</time>
      </trkpt>
      <trkpt lat="49.2597" lon="1.1599">
        <ele>111.2</ele>
        <time>2016-09-18T07:39:17Z</time>
      </trkpt>
      <trkpt lat="49.25959" lon="1.15983">
        <ele>110.9</ele>
        <time>2016-09-18T07:39:20Z</time>
      </trkpt>
      <trkpt lat="49.2595" lon="1.15977">
        <ele>110.5</ele>
        <time>2016-09-18T07:39:22Z</time>
      </trkpt>
      <trkpt lat="49.25941" lon="1.15971">
        <ele>110</ele>
        <time>2016-09-18T07:39:24Z</time>
      </trkpt>
      <trkpt lat="49.25931" lon="1.15966">
        <ele>109.3</ele>
        <time>2016-09-18T07:39:26Z</time>
      </trkpt>
      <trkpt lat="49.25922" lon="1.15962">
        <ele>108.2</ele>
        <time>2016-09-18T07:39:28Z</time>
      </trkpt>
      <trkpt lat="49.25912" lon="1.15956">
        <ele>107.1</ele>
        <time>2016-09-18T07:39:30Z</time>
      </trkpt>
      <trkpt lat="49.25903" lon="1.1595">
        <ele>105.9</ele>
        <time>2016-09-18T07:39:32Z</time>
      </trkpt>
      <trkpt lat="49.2589" lon="1.15941">
        <ele>103.6</ele>
        <time>2016-09-18T07:39:35Z</time>
      </trkpt>
      <trkpt lat="49.25878" lon="1.15934">
        <ele>101.9</ele>
        <time>2016-09-18T07:39:37Z</time>
      </trkpt>
      <trkpt lat="49.25865" lon="1.15926">
        <ele>99.9</ele>
        <time>2016-09-18T07:39:39Z</time>
      </trkpt>
      <trkpt lat="49.25853" lon="1.15916">
        <ele>98</ele>
        <time>2016-09-18T07:39:41Z</time>
      </trkpt>
      <trkpt lat="49.25842" lon="1.15901">
        <ele>96.2</ele>
        <time>2016-09-18T07:39:43Z</time>
      </trkpt>
      <trkpt lat="49.25837" lon="1.15889">
        <ele>94.6</ele>
        <time>2016-09-18T07:39:45Z</time>
      </trkpt>
      <trkpt lat="49.25827" lon="1.15878">
        <ele>92.6</ele>
        <time>2016-09-18T07:39:48Z</time>
      </trkpt>
      <trkpt lat="49.25817" lon="1.15869">
        <ele>91</ele>
        <time>2016-09-18T07:39:51Z</time>
      </trkpt>
      <trkpt lat="49.25807" lon="1.15864">
        <ele>89.7</ele>
        <time>2016-09-18T07:39:54Z</time>
      </trkpt>
      <trkpt lat="49.25797" lon="1.15857">
        <ele>88.8</ele>
        <time>2016-09-18T07:39:57Z</time>
      </trkpt>
      <trkpt lat="49.25788" lon="1.15851">
        <ele>88.3</ele>
        <time>2016-09-18T07:40:00Z</time>
      </trkpt>
      <trkpt lat="49.25777" lon="1.15843">
        <ele>87.8</ele>
        <time>2016-09-18T07:40:04Z</time>
      </trkpt>
      <trkpt lat="49.25768" lon="1.15838">
        <ele>87.7</ele>
        <time>2016-09-18T07:40:07Z</time>
      </trkpt>
      <trkpt lat="49.25759" lon="1.15834">
        <ele>87.7</ele>
        <time>2016-09-18T07:40:10Z</time>
      </trkpt>
      <trkpt lat="49.25748" lon="1.15828">
        <ele>87.8</ele>
        <time>2016-09-18T07:40:14Z</time>
      </trkpt>
      <trkpt lat="49.25738" lon="1.15823">
        <ele>88.1</ele>
        <time>2016-09-18T07:40:18Z</time>
      </trkpt>
      <trkpt lat="49.25728" lon="1.15818">
        <ele>88.4</ele>
        <time>2016-09-18T07:40:22Z</time>
      </trkpt>
      <trkpt lat="49.25719" lon="1.15814">
        <ele>89</ele>
        <time>2016-09-18T07:40:26Z</time>
      </trkpt>
      <trkpt lat="49.25709" lon="1.1581">
        <ele>89.9</ele>
        <time>2016-09-18T07:40:31Z</time>
      </trkpt>
      <trkpt lat="49.25698" lon="1.15807">
        <ele>90.8</ele>
        <time>2016-09-18T07:40:36Z</time>
      </trkpt>
      <trkpt lat="49.25689" lon="1.15803">
        <ele>91.6</ele>
        <time>2016-09-18T07:40:40Z</time>
      </trkpt>
      <trkpt lat="49.25679" lon="1.15801">
        <ele>92.6</ele>
        <time>2016-09-18T07:40:45Z</time>
      </trkpt>
      <trkpt lat="49.2567" lon="1.158">
        <ele>93.3</ele>
        <time>2016-09-18T07:40:49Z</time>
      </trkpt>
      <trkpt lat="49.25659" lon="1.158">
        <ele>94.1</ele>
        <time>2016-09-18T07:40:54Z</time>
      </trkpt>
      <trkpt lat="49.25648" lon="1.15797">
        <ele>94.7</ele>
        <time>2016-09-18T07:40:59Z</time>
      </trkpt>
      <trkpt lat="49.25639" lon="1.15794">
        <ele>95.2</ele>
        <time>2016-09-18T07:41:03Z</time>
      </trkpt>
      <trkpt lat="49.25629" lon="1.15788">
        <ele>95.6</ele>
        <time>2016-09-18T07:41:07Z</time>
      </trkpt>
      <trkpt lat="49.2562" lon="1.15782">
        <ele>95.9</ele>
        <time>2016-09-18T07:41:11Z</time>
      </trkpt>
      <trkpt lat="49.25613" lon="1.15772">
        <ele>96.4</ele>
        <time>2016-09-18T07:41:15Z</time>
      </trkpt>
      <trkpt lat="49.2561" lon="1.15755">
        <ele>96.7</ele>
        <time>2016-09-18T07:41:19Z</time>
      </trkpt>
      <trkpt lat="49.25615" lon="1.15742">
        <ele>97.2</ele>
        <time>2016-09-18T07:41:23Z</time>
      </trkpt>
      <trkpt lat="49.2562" lon="1.15731">
        <ele>97.6</ele>
        <time>2016-09-18T07:41:27Z</time>
      </trkpt>
      <trkpt lat="49.25626" lon="1.15719">
        <ele>98.1</ele>
        <time>2016-09-18T07:41:31Z</time>
      </trkpt>
      <trkpt lat="49.25631" lon="1.15707">
        <ele>98.7</ele>
        <time>2016-09-18T07:41:35Z</time>
      </trkpt>
      <trkpt lat="49.25637" lon="1.15694">
        <ele>99.3</ele>
        <time>2016-09-18T07:41:39Z</time>
      </trkpt>
      <trkpt lat="49.25643" lon="1.15681">
        <ele>99.9</ele>
        <time>2016-09-18T07:41:43Z</time>
      </trkpt>
      <trkpt lat="49.25649" lon="1.15668">
        <ele>100.5</ele>
        <time>2016-09-18T07:41:47Z</time>
      </trkpt>
      <trkpt lat="49.25656" lon="1.15653">
        <ele>101.2</ele>
        <time>2016-09-18T07:41:51Z</time>
      </trkpt>
      <trkpt lat="49.25662" lon="1.1564">
        <ele>101.8</ele>
        <time>2016-09-18T07:41:55Z</time>
      </trkpt>
      <trkpt lat="49.25669" lon="1.15626">
        <ele>102.4</ele>
        <time>2016-09-18T07:41:59Z</time>
      </trkpt>
      <trkpt lat="49.25676" lon="1.15613">
        <ele>103.1</ele>
        <time>2016-09-18T07:42:03Z</time>
      </trkpt>
      <trkpt lat="49.25682" lon="1.15599">
        <ele>103.7</ele>
        <time>2016-09-18T07:42:07Z</time>
      </trkpt>
      <trkpt lat="49.25688" lon="1.15584">
        <ele>104.4</ele>
        <time>2016-09-18T07:42:11Z</time>
      </trkpt>
      <trkpt lat="49.25695" lon="1.1557">
        <ele>105.1</ele>
        <time>2016-09-18T07:42:15Z</time>
      </trkpt>
      <trkpt lat="49.25701" lon="1.15555">
        <ele>105.7</ele>
        <time>2016-09-18T07:42:19Z</time>
      </trkpt>
      <trkpt lat="49.25707" lon="1.1554">
        <ele>106.2</ele>
        <time>2016-09-18T07:42:23Z</time>
      </trkpt>
      <trkpt lat="49.25714" lon="1.15525">
        <ele>106.7</ele>
        <time>2016-09-18T07:42:27Z</time>
      </trkpt>
      <trkpt lat="49.25719" lon="1.15513">
        <ele>107</ele>
        <time>2016-09-18T07:42:30Z</time>
      </trkpt>
      <trkpt lat="49.25725" lon="1.15502">
        <ele>107.3</ele>
        <time>2016-09-18T07:42:33Z</time>
      </trkpt>
      <trkpt lat="49.25732" lon="1.15487">
        <ele>107.7</ele>
        <time>2016-09-18T07:42:37Z</time>
      </trkpt>
      <trkpt lat="49.25737" lon="1.15474">
        <ele>108.1</ele>
        <time>2016-09-18T07:42:41Z</time>
      </trkpt>
      <trkpt lat="49.25742" lon="1.15459">
        <ele>108.6</ele>
        <time>2016-09-18T07:42:48Z</time>
      </trkpt>
      <trkpt lat="49.25748" lon="1.15443">
        <ele>109</ele>
        <time>2016-09-18T07:42:52Z</time>
      </trkpt>
      <trkpt lat="49.25753" lon="1.15432">
        <ele>109.2</ele>
        <time>2016-09-18T07:42:55Z</time>
      </trkpt>
      <trkpt lat="49.25758" lon="1.15418">
        <ele>109.4</ele>
        <time>2016-09-18T07:42:58Z</time>
      </trkpt>
      <trkpt lat="49.25765" lon="1.15406">
        <ele>109.6</ele>
        <time>2016-09-18T07:43:01Z</time>
      </trkpt>
      <trkpt lat="49.25771" lon="1.15392">
        <ele>109.8</ele>
        <time>2016-09-18T07:43:04Z</time>
      </trkpt>
      <trkpt lat="49.25777" lon="1.15379">
        <ele>109.9</ele>
        <time>2016-09-18T07:43:07Z</time>
      </trkpt>
      <trkpt lat="49.25784" lon="1.15366">
        <ele>110.1</ele>
        <time>2016-09-18T07:43:11Z</time>
      </trkpt>
      <trkpt lat="49.2579" lon="1.15353">
        <ele>110.2</ele>
        <time>2016-09-18T07:43:14Z</time>
      </trkpt>
      <trkpt lat="49.25798" lon="1.1534">
        <ele>110.4</ele>
        <time>2016-09-18T07:43:18Z</time>
      </trkpt>
      <trkpt lat="49.25804" lon="1.15324">
        <ele>110.4</ele>
        <time>2016-09-18T07:43:21Z</time>
      </trkpt>
      <trkpt lat="49.2581" lon="1.15313">
        <ele>110.5</ele>
        <time>2016-09-18T07:43:24Z</time>
      </trkpt>
      <trkpt lat="49.25819" lon="1.15305">
        <ele>110.7</ele>
        <time>2016-09-18T07:43:30Z</time>
      </trkpt>
      <trkpt lat="49.25828" lon="1.15308">
        <ele>110.8</ele>
        <time>2016-09-18T07:43:35Z</time>
      </trkpt>
      <trkpt lat="49.25838" lon="1.15309">
        <ele>110.9</ele>
        <time>2016-09-18T07:43:46Z</time>
      </trkpt>
      <trkpt lat="49.25849" lon="1.15313">
        <ele>111</ele>
        <time>2016-09-18T07:43:52Z</time>
      </trkpt>
      <trkpt lat="49.25859" lon="1.15318">
        <ele>111</ele>
        <time>2016-09-18T07:43:55Z</time>
      </trkpt>
      <trkpt lat="49.2587" lon="1.15323">
        <ele>111</ele>
        <time>2016-09-18T07:43:59Z</time>
      </trkpt>
      <trkpt lat="49.25881" lon="1.15328">
        <ele>111</ele>
        <time>2016-09-18T07:44:02Z</time>
      </trkpt>
      <trkpt lat="49.25893" lon="1.15333">
        <ele>111</ele>
        <time>2016-09-18T07:44:05Z</time>
      </trkpt>
      <trkpt lat="49.25902" lon="1.15335">
        <ele>110.9</ele>
        <time>2016-09-18T07:44:08Z</time>
      </trkpt>
      <trkpt lat="49.25914" lon="1.15343">
        <ele>110.5</ele>
        <time>2016-09-18T07:44:12Z</time>
      </trkpt>
      <trkpt lat="49.25923" lon="1.15348">
        <ele>110.2</ele>
        <time>2016-09-18T07:44:14Z</time>
      </trkpt>
      <trkpt lat="49.25934" lon="1.15355">
        <ele>109.7</ele>
        <time>2016-09-18T07:44:16Z</time>
      </trkpt>
      <trkpt lat="49.25944" lon="1.1536">
        <ele>109.2</ele>
        <time>2016-09-18T07:44:18Z</time>
      </trkpt>
      <trkpt lat="49.25956" lon="1.15365">
        <ele>108.7</ele>
        <time>2016-09-18T07:44:20Z</time>
      </trkpt>
      <trkpt lat="49.25971" lon="1.15367">
        <ele>108.2</ele>
        <time>2016-09-18T07:44:22Z</time>
      </trkpt>
      <trkpt lat="49.25981" lon="1.15369">
        <ele>107.8</ele>
        <time>2016-09-18T07:44:24Z</time>
      </trkpt>
      <trkpt lat="49.2599" lon="1.15376">
        <ele>107.2</ele>
        <time>2016-09-18T07:44:28Z</time>
      </trkpt>
      <trkpt lat="49.26001" lon="1.15376">
        <ele>106.8</ele>
        <time>2016-09-18T07:44:31Z</time>
      </trkpt>
      <trkpt lat="49.26009" lon="1.15369">
        <ele>106.5</ele>
        <time>2016-09-18T07:44:33Z</time>
      </trkpt>
      <trkpt lat="49.26016" lon="1.15353">
        <ele>106.3</ele>
        <time>2016-09-18T07:44:36Z</time>
      </trkpt>
      <trkpt lat="49.26023" lon="1.15343">
        <ele>106.1</ele>
        <time>2016-09-18T07:44:40Z</time>
      </trkpt>
      <trkpt lat="49.26035" lon="1.15346">
        <ele>106.1</ele>
        <time>2016-09-18T07:44:46Z</time>
      </trkpt>
      <trkpt lat="49.26043" lon="1.15351">
        <ele>106</ele>
        <time>2016-09-18T07:44:50Z</time>
      </trkpt>
      <trkpt lat="49.26052" lon="1.15355">
        <ele>105.4</ele>
        <time>2016-09-18T07:44:53Z</time>
      </trkpt>
      <trkpt lat="49.26061" lon="1.15359">
        <ele>104.7</ele>
        <time>2016-09-18T07:44:55Z</time>
      </trkpt>
      <trkpt lat="49.26073" lon="1.15366">
        <ele>103.7</ele>
        <time>2016-09-18T07:44:57Z</time>
      </trkpt>
      <trkpt lat="49.26082" lon="1.15372">
        <ele>102.5</ele>
        <time>2016-09-18T07:44:59Z</time>
      </trkpt>
      <trkpt lat="49.26095" lon="1.15375">
        <ele>101.1</ele>
        <time>2016-09-18T07:45:01Z</time>
      </trkpt>
      <trkpt lat="49.26106" lon="1.15376">
        <ele>99.9</ele>
        <time>2016-09-18T07:45:03Z</time>
      </trkpt>
      <trkpt lat="49.26116" lon="1.15375">
        <ele>98.7</ele>
        <time>2016-09-18T07:45:05Z</time>
      </trkpt>
      <trkpt lat="49.26126" lon="1.15366">
        <ele>97.7</ele>
        <time>2016-09-18T07:45:07Z</time>
      </trkpt>
      <trkpt lat="49.26134" lon="1.15354">
        <ele>96.5</ele>
        <time>2016-09-18T07:45:10Z</time>
      </trkpt>
      <trkpt lat="49.26142" lon="1.15341">
        <ele>95.4</ele>
        <time>2016-09-18T07:45:13Z</time>
      </trkpt>
      <trkpt lat="49.26149" lon="1.15328">
        <ele>94.5</ele>
        <time>2016-09-18T07:45:16Z</time>
      </trkpt>
      <trkpt lat="49.26154" lon="1.15314">
        <ele>93.9</ele>
        <time>2016-09-18T07:45:19Z</time>
      </trkpt>
      <trkpt lat="49.26161" lon="1.15296">
        <ele>93.5</ele>
        <time>2016-09-18T07:45:22Z</time>
      </trkpt>
      <trkpt lat="49.26168" lon="1.15284">
        <ele>93.1</ele>
        <time>2016-09-18T07:45:25Z</time>
      </trkpt>
      <trkpt lat="49.26173" lon="1.1527">
        <ele>93</ele>
        <time>2016-09-18T07:45:28Z</time>
      </trkpt>
      <trkpt lat="49.26177" lon="1.15256">
        <ele>93</ele>
        <time>2016-09-18T07:45:32Z</time>
      </trkpt>
      <trkpt lat="49.2618" lon="1.15242">
        <ele>93.1</ele>
        <time>2016-09-18T07:45:35Z</time>
      </trkpt>
      <trkpt lat="49.26186" lon="1.15229">
        <ele>93.1</ele>
        <time>2016-09-18T07:45:38Z</time>
      </trkpt>
      <trkpt lat="49.26192" lon="1.15209">
        <ele>93.1</ele>
        <time>2016-09-18T07:45:41Z</time>
      </trkpt>
      <trkpt lat="49.26195" lon="1.15194">
        <ele>93.2</ele>
        <time>2016-09-18T07:45:44Z</time>
      </trkpt>
      <trkpt lat="49.26198" lon="1.15179">
        <ele>93.4</ele>
        <time>2016-09-18T07:45:48Z</time>
      </trkpt>
      <trkpt lat="49.26203" lon="1.15162">
        <ele>93.7</ele>
        <time>2016-09-18T07:45:52Z</time>
      </trkpt>
      <trkpt lat="49.26206" lon="1.15145">
        <ele>93.9</ele>
        <time>2016-09-18T07:45:55Z</time>
      </trkpt>
      <trkpt lat="49.26209" lon="1.15129">
        <ele>94.2</ele>
        <time>2016-09-18T07:45:58Z</time>
      </trkpt>
      <trkpt lat="49.26212" lon="1.15115">
        <ele>94.4</ele>
        <time>2016-09-18T07:46:01Z</time>
      </trkpt>
      <trkpt lat="49.26214" lon="1.15101">
        <ele>94.7</ele>
        <time>2016-09-18T07:46:04Z</time>
      </trkpt>
      <trkpt lat="49.26218" lon="1.15086">
        <ele>95</ele>
        <time>2016-09-18T07:46:07Z</time>
      </trkpt>
      <trkpt lat="49.26221" lon="1.15068">
        <ele>95.4</ele>
        <time>2016-09-18T07:46:10Z</time>
      </trkpt>
      <trkpt lat="49.26224" lon="1.15053">
        <ele>95.8</ele>
        <time>2016-09-18T07:46:13Z</time>
      </trkpt>
      <trkpt lat="49.26226" lon="1.15038">
        <ele>96.1</ele>
        <time>2016-09-18T07:46:16Z</time>
      </trkpt>
      <trkpt lat="49.2623" lon="1.15022">
        <ele>96.7</ele>
        <time>2016-09-18T07:46:20Z</time>
      </trkpt>
      <trkpt lat="49.26232" lon="1.15007">
        <ele>97.3</ele>
        <time>2016-09-18T07:46:24Z</time>
      </trkpt>
      <trkpt lat="49.26231" lon="1.14992">
        <ele>97.8</ele>
        <time>2016-09-18T07:46:28Z</time>
      </trkpt>
      <trkpt lat="49.2623" lon="1.14975">
        <ele>98.4</ele>
        <time>2016-09-18T07:46:33Z</time>
      </trkpt>
      <trkpt lat="49.26227" lon="1.14959">
        <ele>98.9</ele>
        <time>2016-09-18T07:46:37Z</time>
      </trkpt>
      <trkpt lat="49.26226" lon="1.14945">
        <ele>99.3</ele>
        <time>2016-09-18T07:46:40Z</time>
      </trkpt>
      <trkpt lat="49.26225" lon="1.14931">
        <ele>99.7</ele>
        <time>2016-09-18T07:46:43Z</time>
      </trkpt>
      <trkpt lat="49.26222" lon="1.14915">
        <ele>100.2</ele>
        <time>2016-09-18T07:46:47Z</time>
      </trkpt>
      <trkpt lat="49.2622" lon="1.14899">
        <ele>100.6</ele>
        <time>2016-09-18T07:46:51Z</time>
      </trkpt>
      <trkpt lat="49.26218" lon="1.14885">
        <ele>101.2</ele>
        <time>2016-09-18T07:46:55Z</time>
      </trkpt>
      <trkpt lat="49.26218" lon="1.14869">
        <ele>102.1</ele>
        <time>2016-09-18T07:47:01Z</time>
      </trkpt>
      <trkpt lat="49.26218" lon="1.14855">
        <ele>102.9</ele>
        <time>2016-09-18T07:47:06Z</time>
      </trkpt>
      <trkpt lat="49.26216" lon="1.14839">
        <ele>103.7</ele>
        <time>2016-09-18T07:47:11Z</time>
      </trkpt>
      <trkpt lat="49.26212" lon="1.14825">
        <ele>104.5</ele>
        <time>2016-09-18T07:47:16Z</time>
      </trkpt>
      <trkpt lat="49.26211" lon="1.1481">
        <ele>105.4</ele>
        <time>2016-09-18T07:47:21Z</time>
      </trkpt>
      <trkpt lat="49.26209" lon="1.14794">
        <ele>106.1</ele>
        <time>2016-09-18T07:47:26Z</time>
      </trkpt>
      <trkpt lat="49.26207" lon="1.1478">
        <ele>106.6</ele>
        <time>2016-09-18T07:47:30Z</time>
      </trkpt>
      <trkpt lat="49.26201" lon="1.14767">
        <ele>107.1</ele>
        <time>2016-09-18T07:47:34Z</time>
      </trkpt>
      <trkpt lat="49.26197" lon="1.1475">
        <ele>107.8</ele>
        <time>2016-09-18T07:47:39Z</time>
      </trkpt>
      <trkpt lat="49.26193" lon="1.14734">
        <ele>108.5</ele>
        <time>2016-09-18T07:47:44Z</time>
      </trkpt>
      <trkpt lat="49.26189" lon="1.14721">
        <ele>109</ele>
        <time>2016-09-18T07:47:48Z</time>
      </trkpt>
      <trkpt lat="49.26185" lon="1.14707">
        <ele>109.5</ele>
        <time>2016-09-18T07:47:52Z</time>
      </trkpt>
      <trkpt lat="49.26182" lon="1.14694">
        <ele>110.1</ele>
        <time>2016-09-18T07:47:56Z</time>
      </trkpt>
      <trkpt lat="49.26183" lon="1.14676">
        <ele>110.8</ele>
        <time>2016-09-18T07:48:01Z</time>
      </trkpt>
      <trkpt lat="49.26184" lon="1.14661">
        <ele>111.5</ele>
        <time>2016-09-18T07:48:06Z</time>
      </trkpt>
      <trkpt lat="49.26187" lon="1.14646">
        <ele>112</ele>
        <time>2016-09-18T07:48:10Z</time>
      </trkpt>
      <trkpt lat="49.26191" lon="1.1463">
        <ele>112.6</ele>
        <time>2016-09-18T07:48:15Z</time>
      </trkpt>
      <trkpt lat="49.26195" lon="1.14618">
        <ele>113.1</ele>
        <time>2016-09-18T07:48:19Z</time>
      </trkpt>
      <trkpt lat="49.262" lon="1.14606">
        <ele>113.6</ele>
        <time>2016-09-18T07:48:23Z</time>
      </trkpt>
      <trkpt lat="49.26207" lon="1.14592">
        <ele>114.3</ele>
        <time>2016-09-18T07:48:28Z</time>
      </trkpt>
      <trkpt lat="49.26213" lon="1.14578">
        <ele>114.8</ele>
        <time>2016-09-18T07:48:32Z</time>
      </trkpt>
      <trkpt lat="49.26221" lon="1.14565">
        <ele>115.4</ele>
        <time>2016-09-18T07:48:36Z</time>
      </trkpt>
      <trkpt lat="49.26228" lon="1.14552">
        <ele>115.8</ele>
        <time>2016-09-18T07:48:40Z</time>
      </trkpt>
      <trkpt lat="49.26235" lon="1.14539">
        <ele>116.3</ele>
        <time>2016-09-18T07:48:44Z</time>
      </trkpt>
      <trkpt lat="49.26243" lon="1.14526">
        <ele>116.8</ele>
        <time>2016-09-18T07:48:48Z</time>
      </trkpt>
      <trkpt lat="49.2625" lon="1.14513">
        <ele>117.3</ele>
        <time>2016-09-18T07:48:52Z</time>
      </trkpt>
      <trkpt lat="49.26258" lon="1.14504">
        <ele>117.8</ele>
        <time>2016-09-18T07:48:56Z</time>
      </trkpt>
      <trkpt lat="49.26268" lon="1.14502">
        <ele>118.3</ele>
        <time>2016-09-18T07:49:02Z</time>
      </trkpt>
      <trkpt lat="49.26273" lon="1.1449">
        <ele>118.5</ele>
        <time>2016-09-18T07:49:06Z</time>
      </trkpt>
      <trkpt lat="49.2627" lon="1.14472">
        <ele>118.6</ele>
        <time>2016-09-18T07:49:09Z</time>
      </trkpt>
      <trkpt lat="49.26261" lon="1.14458">
        <ele>118.7</ele>
        <time>2016-09-18T07:49:12Z</time>
      </trkpt>
      <trkpt lat="49.26252" lon="1.14449">
        <ele>118.7</ele>
        <time>2016-09-18T07:49:15Z</time>
      </trkpt>
      <trkpt lat="49.26246" lon="1.14438">
        <ele>118.8</ele>
        <time>2016-09-18T07:49:18Z</time>
      </trkpt>
      <trkpt lat="49.26242" lon="1.14425">
        <ele>118.7</ele>
        <time>2016-09-18T07:49:20Z</time>
      </trkpt>
      <trkpt lat="49.26235" lon="1.14412">
        <ele>118.7</ele>
        <time>2016-09-18T07:49:22Z</time>
      </trkpt>
      <trkpt lat="49.26229" lon="1.144">
        <ele>118.7</ele>
        <time>2016-09-18T07:49:24Z</time>
      </trkpt>
      <trkpt lat="49.2622" lon="1.14389">
        <ele>118.7</ele>
        <time>2016-09-18T07:49:26Z</time>
      </trkpt>
      <trkpt lat="49.26214" lon="1.1438">
        <ele>118.7</ele>
        <time>2016-09-18T07:49:28Z</time>
      </trkpt>
      <trkpt lat="49.26206" lon="1.14371">
        <ele>118.7</ele>
        <time>2016-09-18T07:49:30Z</time>
      </trkpt>
      <trkpt lat="49.26199" lon="1.14362">
        <ele>118.7</ele>
        <time>2016-09-18T07:49:32Z</time>
      </trkpt>
      <trkpt lat="49.26188" lon="1.14356">
        <ele>118.7</ele>
        <time>2016-09-18T07:49:35Z</time>
      </trkpt>
      <trkpt lat="49.26175" lon="1.14355">
        <ele>118.7</ele>
        <time>2016-09-18T07:49:38Z</time>
      </trkpt>
      <trkpt lat="49.26163" lon="1.14359">
        <ele>118.7</ele>
        <time>2016-09-18T07:49:41Z</time>
      </trkpt>
      <trkpt lat="49.2615" lon="1.14368">
        <ele>118.6</ele>
        <time>2016-09-18T07:49:44Z</time>
      </trkpt>
      <trkpt lat="49.2614" lon="1.1438">
        <ele>118.6</ele>
        <time>2016-09-18T07:49:47Z</time>
      </trkpt>
      <trkpt lat="49.26132" lon="1.14394">
        <ele>118.6</ele>
        <time>2016-09-18T07:49:50Z</time>
      </trkpt>
      <trkpt lat="49.26123" lon="1.14401">
        <ele>118.6</ele>
        <time>2016-09-18T07:49:52Z</time>
      </trkpt>
      <trkpt lat="49.26115" lon="1.14406">
        <ele>118.6</ele>
        <time>2016-09-18T07:49:54Z</time>
      </trkpt>
      <trkpt lat="49.26106" lon="1.1441">
        <ele>118.6</ele>
        <time>2016-09-18T07:49:56Z</time>
      </trkpt>
      <trkpt lat="49.26096" lon="1.14411">
        <ele>118.6</ele>
        <time>2016-09-18T07:49:58Z</time>
      </trkpt>
      <trkpt lat="49.26087" lon="1.14412">
        <ele>118.6</ele>
        <time>2016-09-18T07:50:00Z</time>
      </trkpt>
      <trkpt lat="49.26077" lon="1.14408">
        <ele>118.6</ele>
        <time>2016-09-18T07:50:02Z</time>
      </trkpt>
      <trkpt lat="49.26068" lon="1.14403">
        <ele>118.7</ele>
        <time>2016-09-18T07:50:04Z</time>
      </trkpt>
      <trkpt lat="49.26056" lon="1.14401">
        <ele>118.7</ele>
        <time>2016-09-18T07:50:07Z</time>
      </trkpt>
      <trkpt lat="49.26047" lon="1.14398">
        <ele>118.7</ele>
        <time>2016-09-18T07:50:09Z</time>
      </trkpt>
      <trkpt lat="49.26037" lon="1.14393">
        <ele>118.8</ele>
        <time>2016-09-18T07:50:11Z</time>
      </trkpt>
      <trkpt lat="49.26028" lon="1.14389">
        <ele>118.9</ele>
        <time>2016-09-18T07:50:13Z</time>
      </trkpt>
      <trkpt lat="49.26019" lon="1.14385">
        <ele>118.9</ele>
        <time>2016-09-18T07:50:15Z</time>
      </trkpt>
      <trkpt lat="49.2601" lon="1.14381">
        <ele>119</ele>
        <time>2016-09-18T07:50:17Z</time>
      </trkpt>
      <trkpt lat="49.26002" lon="1.14377">
        <ele>119</ele>
        <time>2016-09-18T07:50:19Z</time>
      </trkpt>
      <trkpt lat="49.25993" lon="1.14372">
        <ele>119.1</ele>
        <time>2016-09-18T07:50:21Z</time>
      </trkpt>
      <trkpt lat="49.25984" lon="1.14367">
        <ele>119.2</ele>
        <time>2016-09-18T07:50:23Z</time>
      </trkpt>
      <trkpt lat="49.25975" lon="1.14363">
        <ele>119.3</ele>
        <time>2016-09-18T07:50:25Z</time>
      </trkpt>
      <trkpt lat="49.25964" lon="1.14355">
        <ele>119.4</ele>
        <time>2016-09-18T07:50:28Z</time>
      </trkpt>
      <trkpt lat="49.25953" lon="1.14354">
        <ele>119.5</ele>
        <time>2016-09-18T07:50:31Z</time>
      </trkpt>
      <trkpt lat="49.25943" lon="1.1435">
        <ele>119.6</ele>
        <time>2016-09-18T07:50:33Z</time>
      </trkpt>
      <trkpt lat="49.2593" lon="1.14342">
        <ele>119.7</ele>
        <time>2016-09-18T07:50:36Z</time>
      </trkpt>
      <trkpt lat="49.25921" lon="1.14339">
        <ele>119.7</ele>
        <time>2016-09-18T07:50:38Z</time>
      </trkpt>
      <trkpt lat="49.25911" lon="1.14333">
        <ele>119.8</ele>
        <time>2016-09-18T07:50:40Z</time>
      </trkpt>
      <trkpt lat="49.25899" lon="1.14325">
        <ele>119.8</ele>
        <time>2016-09-18T07:50:43Z</time>
      </trkpt>
      <trkpt lat="49.25886" lon="1.1432">
        <ele>119.9</ele>
        <time>2016-09-18T07:50:46Z</time>
      </trkpt>
      <trkpt lat="49.25876" lon="1.14315">
        <ele>119.9</ele>
        <time>2016-09-18T07:50:48Z</time>
      </trkpt>
      <trkpt lat="49.25866" lon="1.14311">
        <ele>119.9</ele>
        <time>2016-09-18T07:50:50Z</time>
      </trkpt>
      <trkpt lat="49.25856" lon="1.14308">
        <ele>119.9</ele>
        <time>2016-09-18T07:50:52Z</time>
      </trkpt>
      <trkpt lat="49.25847" lon="1.14304">
        <ele>119.9</ele>
        <time>2016-09-18T07:50:54Z</time>
      </trkpt>
      <trkpt lat="49.25838" lon="1.14299">
        <ele>119.8</ele>
        <time>2016-09-18T07:50:56Z</time>
      </trkpt>
      <trkpt lat="49.25825" lon="1.14293">
        <ele>119.8</ele>
        <time>2016-09-18T07:50:59Z</time>
      </trkpt>
      <trkpt lat="49.2581" lon="1.14284">
        <ele>119.5</ele>
        <time>2016-09-18T07:51:02Z</time>
      </trkpt>
      <trkpt lat="49.25797" lon="1.14279">
        <ele>119.4</ele>
        <time>2016-09-18T07:51:04Z</time>
      </trkpt>
      <trkpt lat="49.25785" lon="1.14276">
        <ele>119.3</ele>
        <time>2016-09-18T07:51:06Z</time>
      </trkpt>
      <trkpt lat="49.25774" lon="1.14271">
        <ele>119</ele>
        <time>2016-09-18T07:51:08Z</time>
      </trkpt>
      <trkpt lat="49.25763" lon="1.14265">
        <ele>118.9</ele>
        <time>2016-09-18T07:51:10Z</time>
      </trkpt>
      <trkpt lat="49.25752" lon="1.1426">
        <ele>118.6</ele>
        <time>2016-09-18T07:51:12Z</time>
      </trkpt>
      <trkpt lat="49.2574" lon="1.14256">
        <ele>118.4</ele>
        <time>2016-09-18T07:51:14Z</time>
      </trkpt>
      <trkpt lat="49.25727" lon="1.14251">
        <ele>118.2</ele>
        <time>2016-09-18T07:51:16Z</time>
      </trkpt>
      <trkpt lat="49.25715" lon="1.14245">
        <ele>118</ele>
        <time>2016-09-18T07:51:18Z</time>
      </trkpt>
      <trkpt lat="49.25702" lon="1.1424">
        <ele>117.7</ele>
        <time>2016-09-18T07:51:20Z</time>
      </trkpt>
      <trkpt lat="49.25688" lon="1.14234">
        <ele>117.5</ele>
        <time>2016-09-18T07:51:22Z</time>
      </trkpt>
      <trkpt lat="49.25675" lon="1.14228">
        <ele>117.2</ele>
        <time>2016-09-18T07:51:24Z</time>
      </trkpt>
      <trkpt lat="49.25663" lon="1.14224">
        <ele>116.9</ele>
        <time>2016-09-18T07:51:26Z</time>
      </trkpt>
      <trkpt lat="49.2565" lon="1.14217">
        <ele>116.6</ele>
        <time>2016-09-18T07:51:28Z</time>
      </trkpt>
      <trkpt lat="49.25638" lon="1.14211">
        <ele>116.3</ele>
        <time>2016-09-18T07:51:30Z</time>
      </trkpt>
      <trkpt lat="49.25627" lon="1.14207">
        <ele>116</ele>
        <time>2016-09-18T07:51:32Z</time>
      </trkpt>
      <trkpt lat="49.25616" lon="1.14213">
        <ele>115.6</ele>
        <time>2016-09-18T07:51:35Z</time>
      </trkpt>
      <trkpt lat="49.25612" lon="1.14231">
        <ele>115.2</ele>
        <time>2016-09-18T07:51:38Z</time>
      </trkpt>
      <trkpt lat="49.25609" lon="1.14245">
        <ele>114.9</ele>
        <time>2016-09-18T07:51:40Z</time>
      </trkpt>
      <trkpt lat="49.25605" lon="1.1426">
        <ele>114.7</ele>
        <time>2016-09-18T07:51:42Z</time>
      </trkpt>
      <trkpt lat="49.25603" lon="1.14276">
        <ele>114.4</ele>
        <time>2016-09-18T07:51:44Z</time>
      </trkpt>
      <trkpt lat="49.25599" lon="1.14288">
        <ele>114.3</ele>
        <time>2016-09-18T07:51:46Z</time>
      </trkpt>
      <trkpt lat="49.25595" lon="1.14303">
        <ele>113.9</ele>
        <time>2016-09-18T07:51:49Z</time>
      </trkpt>
      <trkpt lat="49.25592" lon="1.14317">
        <ele>113.4</ele>
        <time>2016-09-18T07:51:53Z</time>
      </trkpt>
      <trkpt lat="49.25588" lon="1.14332">
        <ele>113</ele>
        <time>2016-09-18T07:51:57Z</time>
      </trkpt>
      <trkpt lat="49.25583" lon="1.14344">
        <ele>112.7</ele>
        <time>2016-09-18T07:52:01Z</time>
      </trkpt>
      <trkpt lat="49.25577" lon="1.14355">
        <ele>112.3</ele>
        <time>2016-09-18T07:52:05Z</time>
      </trkpt>
      <trkpt lat="49.25572" lon="1.1437">
        <ele>111.9</ele>
        <time>2016-09-18T07:52:10Z</time>
      </trkpt>
      <trkpt lat="49.2557" lon="1.14384">
        <ele>111.6</ele>
        <time>2016-09-18T07:52:15Z</time>
      </trkpt>
      <trkpt lat="49.25566" lon="1.14398">
        <ele>111.3</ele>
        <time>2016-09-18T07:52:20Z</time>
      </trkpt>
      <trkpt lat="49.25565" lon="1.14415">
        <ele>111.2</ele>
        <time>2016-09-18T07:52:24Z</time>
      </trkpt>
      <trkpt lat="49.25563" lon="1.14429">
        <ele>111.1</ele>
        <time>2016-09-18T07:52:28Z</time>
      </trkpt>
      <trkpt lat="49.25559" lon="1.14443">
        <ele>111</ele>
        <time>2016-09-18T07:52:32Z</time>
      </trkpt>
      <trkpt lat="49.25557" lon="1.14457">
        <ele>110.9</ele>
        <time>2016-09-18T07:52:36Z</time>
      </trkpt>
      <trkpt lat="49.25553" lon="1.14475">
        <ele>110.9</ele>
        <time>2016-09-18T07:52:40Z</time>
      </trkpt>
      <trkpt lat="49.25551" lon="1.14489">
        <ele>110.8</ele>
        <time>2016-09-18T07:52:43Z</time>
      </trkpt>
      <trkpt lat="49.25548" lon="1.14504">
        <ele>110.8</ele>
        <time>2016-09-18T07:52:46Z</time>
      </trkpt>
      <trkpt lat="49.25545" lon="1.14521">
        <ele>110.7</ele>
        <time>2016-09-18T07:52:50Z</time>
      </trkpt>
      <trkpt lat="49.25542" lon="1.14536">
        <ele>110.7</ele>
        <time>2016-09-18T07:52:53Z</time>
      </trkpt>
      <trkpt lat="49.2554" lon="1.14551">
        <ele>110.7</ele>
        <time>2016-09-18T07:52:56Z</time>
      </trkpt>
      <trkpt lat="49.25537" lon="1.14565">
        <ele>110.7</ele>
        <time>2016-09-18T07:52:59Z</time>
      </trkpt>
      <trkpt lat="49.25534" lon="1.1458">
        <ele>110.7</ele>
        <time>2016-09-18T07:53:02Z</time>
      </trkpt>
      <trkpt lat="49.2553" lon="1.14594">
        <ele>110.6</ele>
        <time>2016-09-18T07:53:05Z</time>
      </trkpt>
      <trkpt lat="49.25526" lon="1.14608">
        <ele>110.6</ele>
        <time>2016-09-18T07:53:08Z</time>
      </trkpt>
      <trkpt lat="49.25524" lon="1.14621">
        <ele>110.6</ele>
        <time>2016-09-18T07:53:11Z</time>
      </trkpt>
      <trkpt lat="49.25525" lon="1.14636">
        <ele>110.5</ele>
        <time>2016-09-18T07:53:15Z</time>
      </trkpt>
      <trkpt lat="49.25528" lon="1.14652">
        <ele>110.5</ele>
        <time>2016-09-18T07:53:18Z</time>
      </trkpt>
      <trkpt lat="49.25536" lon="1.14659">
        <ele>110.4</ele>
        <time>2016-09-18T07:53:22Z</time>
      </trkpt>
      <trkpt lat="49.25546" lon="1.14664">
        <ele>110.4</ele>
        <time>2016-09-18T07:53:27Z</time>
      </trkpt>
      <trkpt lat="49.25555" lon="1.14669">
        <ele>110.5</ele>
        <time>2016-09-18T07:53:30Z</time>
      </trkpt>
      <trkpt lat="49.25564" lon="1.14674">
        <ele>110.5</ele>
        <time>2016-09-18T07:53:33Z</time>
      </trkpt>
      <trkpt lat="49.25576" lon="1.14677">
        <ele>110.6</ele>
        <time>2016-09-18T07:53:38Z</time>
      </trkpt>
      <trkpt lat="49.25585" lon="1.14684">
        <ele>110.7</ele>
        <time>2016-09-18T07:53:42Z</time>
      </trkpt>
      <trkpt lat="49.25584" lon="1.147">
        <ele>110.8</ele>
        <time>2016-09-18T07:53:49Z</time>
      </trkpt>
      <trkpt lat="49.25587" lon="1.14717">
        <ele>110.9</ele>
        <time>2016-09-18T07:53:54Z</time>
      </trkpt>
      <trkpt lat="49.25585" lon="1.14731">
        <ele>110.9</ele>
        <time>2016-09-18T07:53:57Z</time>
      </trkpt>
      <trkpt lat="49.25582" lon="1.14745">
        <ele>111</ele>
        <time>2016-09-18T07:54:00Z</time>
      </trkpt>
      <trkpt lat="49.25579" lon="1.14759">
        <ele>111.1</ele>
        <time>2016-09-18T07:54:03Z</time>
      </trkpt>
      <trkpt lat="49.25578" lon="1.14775">
        <ele>111.2</ele>
        <time>2016-09-18T07:54:06Z</time>
      </trkpt>
      <trkpt lat="49.25576" lon="1.1479">
        <ele>111.2</ele>
        <time>2016-09-18T07:54:09Z</time>
      </trkpt>
      <trkpt lat="49.25575" lon="1.14805">
        <ele>111.2</ele>
        <time>2016-09-18T07:54:12Z</time>
      </trkpt>
      <trkpt lat="49.25574" lon="1.14822">
        <ele>111.2</ele>
        <time>2016-09-18T07:54:15Z</time>
      </trkpt>
      <trkpt lat="49.2557" lon="1.14838">
        <ele>111.2</ele>
        <time>2016-09-18T07:54:18Z</time>
      </trkpt>
      <trkpt lat="49.25567" lon="1.14854">
        <ele>111.2</ele>
        <time>2016-09-18T07:54:21Z</time>
      </trkpt>
      <trkpt lat="49.25563" lon="1.14869">
        <ele>111.2</ele>
        <time>2016-09-18T07:54:24Z</time>
      </trkpt>
      <trkpt lat="49.25559" lon="1.14882">
        <ele>111.2</ele>
        <time>2016-09-18T07:54:27Z</time>
      </trkpt>
      <trkpt lat="49.25556" lon="1.149">
        <ele>111.2</ele>
        <time>2016-09-18T07:54:31Z</time>
      </trkpt>
      <trkpt lat="49.25553" lon="1.14915">
        <ele>111.2</ele>
        <time>2016-09-18T07:54:33Z</time>
      </trkpt>
      <trkpt lat="49.25548" lon="1.14933">
        <ele>111.2</ele>
        <time>2016-09-18T07:54:36Z</time>
      </trkpt>
      <trkpt lat="49.25544" lon="1.1495">
        <ele>111.2</ele>
        <time>2016-09-18T07:54:39Z</time>
      </trkpt>
      <trkpt lat="49.2554" lon="1.14967">
        <ele>111.1</ele>
        <time>2016-09-18T07:54:42Z</time>
      </trkpt>
      <trkpt lat="49.25537" lon="1.14986">
        <ele>111.1</ele>
        <time>2016-09-18T07:54:45Z</time>
      </trkpt>
      <trkpt lat="49.25534" lon="1.15002">
        <ele>111.1</ele>
        <time>2016-09-18T07:54:48Z</time>
      </trkpt>
      <trkpt lat="49.25531" lon="1.15015">
        <ele>111.1</ele>
        <time>2016-09-18T07:54:50Z</time>
      </trkpt>
      <trkpt lat="49.25527" lon="1.15031">
        <ele>111</ele>
        <time>2016-09-18T07:54:52Z</time>
      </trkpt>
      <trkpt lat="49.25523" lon="1.15045">
        <ele>110.9</ele>
        <time>2016-09-18T07:54:54Z</time>
      </trkpt>
      <trkpt lat="49.25519" lon="1.15062">
        <ele>110.6</ele>
        <time>2016-09-18T07:54:57Z</time>
      </trkpt>
      <trkpt lat="49.25515" lon="1.1508">
        <ele>110.4</ele>
        <time>2016-09-18T07:55:00Z</time>
      </trkpt>
      <trkpt lat="49.2551" lon="1.15098">
        <ele>110.3</ele>
        <time>2016-09-18T07:55:03Z</time>
      </trkpt>
      <trkpt lat="49.25506" lon="1.15111">
        <ele>110.1</ele>
        <time>2016-09-18T07:55:05Z</time>
      </trkpt>
      <trkpt lat="49.25497" lon="1.15123">
        <ele>110</ele>
        <time>2016-09-18T07:55:08Z</time>
      </trkpt>
      <trkpt lat="49.25486" lon="1.15121">
        <ele>109.8</ele>
        <time>2016-09-18T07:55:11Z</time>
      </trkpt>
      <trkpt lat="49.25475" lon="1.15118">
        <ele>109.6</ele>
        <time>2016-09-18T07:55:14Z</time>
      </trkpt>
      <trkpt lat="49.25464" lon="1.15116">
        <ele>109.4</ele>
        <time>2016-09-18T07:55:17Z</time>
      </trkpt>
      <trkpt lat="49.25452" lon="1.15114">
        <ele>109.2</ele>
        <time>2016-09-18T07:55:20Z</time>
      </trkpt>
      <trkpt lat="49.25441" lon="1.1511">
        <ele>109</ele>
        <time>2016-09-18T07:55:23Z</time>
      </trkpt>
      <trkpt lat="49.25429" lon="1.15106">
        <ele>108.8</ele>
        <time>2016-09-18T07:55:26Z</time>
      </trkpt>
      <trkpt lat="49.25416" lon="1.15101">
        <ele>108.6</ele>
        <time>2016-09-18T07:55:29Z</time>
      </trkpt>
      <trkpt lat="49.25406" lon="1.15097">
        <ele>108.4</ele>
        <time>2016-09-18T07:55:31Z</time>
      </trkpt>
      <trkpt lat="49.25396" lon="1.15093">
        <ele>108.2</ele>
        <time>2016-09-18T07:55:33Z</time>
      </trkpt>
      <trkpt lat="49.25385" lon="1.15089">
        <ele>107.9</ele>
        <time>2016-09-18T07:55:35Z</time>
      </trkpt>
      <trkpt lat="49.25374" lon="1.15085">
        <ele>107.6</ele>
        <time>2016-09-18T07:55:37Z</time>
      </trkpt>
      <trkpt lat="49.25363" lon="1.1508">
        <ele>107.3</ele>
        <time>2016-09-18T07:55:39Z</time>
      </trkpt>
      <trkpt lat="49.25352" lon="1.15075">
        <ele>106.9</ele>
        <time>2016-09-18T07:55:41Z</time>
      </trkpt>
      <trkpt lat="49.2534" lon="1.15071">
        <ele>106.5</ele>
        <time>2016-09-18T07:55:43Z</time>
      </trkpt>
      <trkpt lat="49.25328" lon="1.15066">
        <ele>106.1</ele>
        <time>2016-09-18T07:55:45Z</time>
      </trkpt>
      <trkpt lat="49.25317" lon="1.1506">
        <ele>105.7</ele>
        <time>2016-09-18T07:55:47Z</time>
      </trkpt>
      <trkpt lat="49.25305" lon="1.15055">
        <ele>105.2</ele>
        <time>2016-09-18T07:55:49Z</time>
      </trkpt>
      <trkpt lat="49.25293" lon="1.15051">
        <ele>104.6</ele>
        <time>2016-09-18T07:55:51Z</time>
      </trkpt>
      <trkpt lat="49.25282" lon="1.15046">
        <ele>104.2</ele>
        <time>2016-09-18T07:55:53Z</time>
      </trkpt>
      <trkpt lat="49.25272" lon="1.15043">
        <ele>103.8</ele>
        <time>2016-09-18T07:55:55Z</time>
      </trkpt>
      <trkpt lat="49.25263" lon="1.15039">
        <ele>103.5</ele>
        <time>2016-09-18T07:55:57Z</time>
      </trkpt>
      <trkpt lat="49.25251" lon="1.15035">
        <ele>103.3</ele>
        <time>2016-09-18T07:56:00Z</time>
      </trkpt>
      <trkpt lat="49.2524" lon="1.1503">
        <ele>103.3</ele>
        <time>2016-09-18T07:56:03Z</time>
      </trkpt>
      <trkpt lat="49.25229" lon="1.15026">
        <ele>103.4</ele>
        <time>2016-09-18T07:56:06Z</time>
      </trkpt>
      <trkpt lat="49.25219" lon="1.15022">
        <ele>103.6</ele>
        <time>2016-09-18T07:56:09Z</time>
      </trkpt>
      <trkpt lat="49.25208" lon="1.15019">
        <ele>103.9</ele>
        <time>2016-09-18T07:56:12Z</time>
      </trkpt>
      <trkpt lat="49.25198" lon="1.15014">
        <ele>104.2</ele>
        <time>2016-09-18T07:56:15Z</time>
      </trkpt>
      <trkpt lat="49.25189" lon="1.15012">
        <ele>104.6</ele>
        <time>2016-09-18T07:56:18Z</time>
      </trkpt>
      <trkpt lat="49.25182" lon="1.15023">
        <ele>105.1</ele>
        <time>2016-09-18T07:56:22Z</time>
      </trkpt>
      <trkpt lat="49.25181" lon="1.15038">
        <ele>105.5</ele>
        <time>2016-09-18T07:56:25Z</time>
      </trkpt>
      <trkpt lat="49.2518" lon="1.15054">
        <ele>105.8</ele>
        <time>2016-09-18T07:56:28Z</time>
      </trkpt>
      <trkpt lat="49.2518" lon="1.15072">
        <ele>106.1</ele>
        <time>2016-09-18T07:56:31Z</time>
      </trkpt>
      <trkpt lat="49.25179" lon="1.15092">
        <ele>106.3</ele>
        <time>2016-09-18T07:56:34Z</time>
      </trkpt>
      <trkpt lat="49.25178" lon="1.15113">
        <ele>106.5</ele>
        <time>2016-09-18T07:56:37Z</time>
      </trkpt>
      <trkpt lat="49.25177" lon="1.15127">
        <ele>106.6</ele>
        <time>2016-09-18T07:56:39Z</time>
      </trkpt>
      <trkpt lat="49.25176" lon="1.15141">
        <ele>106.8</ele>
        <time>2016-09-18T07:56:41Z</time>
      </trkpt>
      <trkpt lat="49.25175" lon="1.15155">
        <ele>106.8</ele>
        <time>2016-09-18T07:56:43Z</time>
      </trkpt>
      <trkpt lat="49.25174" lon="1.15174">
        <ele>107</ele>
        <time>2016-09-18T07:56:46Z</time>
      </trkpt>
      <trkpt lat="49.25171" lon="1.15194">
        <ele>107.1</ele>
        <time>2016-09-18T07:56:49Z</time>
      </trkpt>
      <trkpt lat="49.25167" lon="1.15213">
        <ele>107.1</ele>
        <time>2016-09-18T07:56:52Z</time>
      </trkpt>
      <trkpt lat="49.25166" lon="1.15227">
        <ele>107.2</ele>
        <time>2016-09-18T07:56:54Z</time>
      </trkpt>
      <trkpt lat="49.25164" lon="1.15242">
        <ele>107.2</ele>
        <time>2016-09-18T07:56:56Z</time>
      </trkpt>
      <trkpt lat="49.2516" lon="1.15257">
        <ele>107.3</ele>
        <time>2016-09-18T07:56:58Z</time>
      </trkpt>
      <trkpt lat="49.25158" lon="1.15272">
        <ele>107.3</ele>
        <time>2016-09-18T07:57:00Z</time>
      </trkpt>
      <trkpt lat="49.25156" lon="1.15286">
        <ele>107.3</ele>
        <time>2016-09-18T07:57:02Z</time>
      </trkpt>
      <trkpt lat="49.25153" lon="1.153">
        <ele>107.3</ele>
        <time>2016-09-18T07:57:04Z</time>
      </trkpt>
      <trkpt lat="49.25153" lon="1.15316">
        <ele>107.4</ele>
        <time>2016-09-18T07:57:06Z</time>
      </trkpt>
      <trkpt lat="49.25153" lon="1.15331">
        <ele>107.4</ele>
        <time>2016-09-18T07:57:08Z</time>
      </trkpt>
      <trkpt lat="49.25153" lon="1.15345">
        <ele>107.4</ele>
        <time>2016-09-18T07:57:10Z</time>
      </trkpt>
      <trkpt lat="49.25154" lon="1.15366">
        <ele>107.4</ele>
        <time>2016-09-18T07:57:13Z</time>
      </trkpt>
      <trkpt lat="49.25155" lon="1.15381">
        <ele>107.4</ele>
        <time>2016-09-18T07:57:15Z</time>
      </trkpt>
      <trkpt lat="49.25156" lon="1.15396">
        <ele>107.4</ele>
        <time>2016-09-18T07:57:17Z</time>
      </trkpt>
      <trkpt lat="49.25158" lon="1.15412">
        <ele>107.4</ele>
        <time>2016-09-18T07:57:19Z</time>
      </trkpt>
      <trkpt lat="49.25161" lon="1.15427">
        <ele>107.4</ele>
        <time>2016-09-18T07:57:21Z</time>
      </trkpt>
      <trkpt lat="49.25161" lon="1.15446">
        <ele>107.4</ele>
        <time>2016-09-18T07:57:23Z</time>
      </trkpt>
      <trkpt lat="49.25164" lon="1.15463">
        <ele>107.4</ele>
        <time>2016-09-18T07:57:25Z</time>
      </trkpt>
      <trkpt lat="49.25163" lon="1.15477">
        <ele>107.3</ele>
        <time>2016-09-18T07:57:27Z</time>
      </trkpt>
      <trkpt lat="49.25153" lon="1.15483">
        <ele>107.2</ele>
        <time>2016-09-18T07:57:30Z</time>
      </trkpt>
      <trkpt lat="49.25144" lon="1.15479">
        <ele>107</ele>
        <time>2016-09-18T07:57:33Z</time>
      </trkpt>
      <trkpt lat="49.25134" lon="1.15476">
        <ele>106.9</ele>
        <time>2016-09-18T07:57:36Z</time>
      </trkpt>
      <trkpt lat="49.25124" lon="1.15471">
        <ele>106.6</ele>
        <time>2016-09-18T07:57:39Z</time>
      </trkpt>
      <trkpt lat="49.25115" lon="1.15467">
        <ele>106.3</ele>
        <time>2016-09-18T07:57:42Z</time>
      </trkpt>
      <trkpt lat="49.25106" lon="1.15462">
        <ele>106.1</ele>
        <time>2016-09-18T07:57:46Z</time>
      </trkpt>
      <trkpt lat="49.25095" lon="1.15462">
        <ele>105.8</ele>
        <time>2016-09-18T07:57:50Z</time>
      </trkpt>
      <trkpt lat="49.25084" lon="1.1546">
        <ele>105.7</ele>
        <time>2016-09-18T07:57:54Z</time>
      </trkpt>
      <trkpt lat="49.25075" lon="1.15456">
        <ele>105.8</ele>
        <time>2016-09-18T07:57:57Z</time>
      </trkpt>
      <trkpt lat="49.25065" lon="1.15451">
        <ele>105.9</ele>
        <time>2016-09-18T07:58:00Z</time>
      </trkpt>
      <trkpt lat="49.25055" lon="1.15446">
        <ele>106</ele>
        <time>2016-09-18T07:58:03Z</time>
      </trkpt>
      <trkpt lat="49.25053" lon="1.15431">
        <ele>106.3</ele>
        <time>2016-09-18T07:58:09Z</time>
      </trkpt>
      <trkpt lat="49.25058" lon="1.15418">
        <ele>106.4</ele>
        <time>2016-09-18T07:58:13Z</time>
      </trkpt>
      <trkpt lat="49.25065" lon="1.15406">
        <ele>106.6</ele>
        <time>2016-09-18T07:58:16Z</time>
      </trkpt>
      <trkpt lat="49.25072" lon="1.15394">
        <ele>106.7</ele>
        <time>2016-09-18T07:58:19Z</time>
      </trkpt>
      <trkpt lat="49.2508" lon="1.15381">
        <ele>106.7</ele>
        <time>2016-09-18T07:58:22Z</time>
      </trkpt>
      <trkpt lat="49.25086" lon="1.15367">
        <ele>106.8</ele>
        <time>2016-09-18T07:58:25Z</time>
      </trkpt>
      <trkpt lat="49.25093" lon="1.15352">
        <ele>106.9</ele>
        <time>2016-09-18T07:58:29Z</time>
      </trkpt>
      <trkpt lat="49.25099" lon="1.15337">
        <ele>106.9</ele>
        <time>2016-09-18T07:58:32Z</time>
      </trkpt>
      <trkpt lat="49.25105" lon="1.15321">
        <ele>107</ele>
        <time>2016-09-18T07:58:35Z</time>
      </trkpt>
      <trkpt lat="49.2511" lon="1.15308">
        <ele>107.2</ele>
        <time>2016-09-18T07:58:38Z</time>
      </trkpt>
      <trkpt lat="49.25116" lon="1.15293">
        <ele>107.3</ele>
        <time>2016-09-18T07:58:41Z</time>
      </trkpt>
      <trkpt lat="49.25118" lon="1.15278">
        <ele>107.4</ele>
        <time>2016-09-18T07:58:44Z</time>
      </trkpt>
      <trkpt lat="49.25117" lon="1.15257">
        <ele>107.5</ele>
        <time>2016-09-18T07:58:48Z</time>
      </trkpt>
      <trkpt lat="49.25115" lon="1.1524">
        <ele>107.6</ele>
        <time>2016-09-18T07:58:50Z</time>
      </trkpt>
      <trkpt lat="49.25114" lon="1.15225">
        <ele>107.7</ele>
        <time>2016-09-18T07:58:52Z</time>
      </trkpt>
      <trkpt lat="49.25115" lon="1.15208">
        <ele>107.7</ele>
        <time>2016-09-18T07:58:55Z</time>
      </trkpt>
      <trkpt lat="49.25115" lon="1.15189">
        <ele>107.8</ele>
        <time>2016-09-18T07:58:58Z</time>
      </trkpt>
      <trkpt lat="49.25116" lon="1.15173">
        <ele>107.8</ele>
        <time>2016-09-18T07:59:00Z</time>
      </trkpt>
      <trkpt lat="49.25118" lon="1.15153">
        <ele>107.8</ele>
        <time>2016-09-18T07:59:03Z</time>
      </trkpt>
      <trkpt lat="49.25115" lon="1.15137">
        <ele>107.9</ele>
        <time>2016-09-18T07:59:05Z</time>
      </trkpt>
      <trkpt lat="49.25115" lon="1.15123">
        <ele>107.9</ele>
        <time>2016-09-18T07:59:07Z</time>
      </trkpt>
      <trkpt lat="49.25115" lon="1.15108">
        <ele>107.9</ele>
        <time>2016-09-18T07:59:09Z</time>
      </trkpt>
      <trkpt lat="49.25115" lon="1.15093">
        <ele>107.8</ele>
        <time>2016-09-18T07:59:11Z</time>
      </trkpt>
      <trkpt lat="49.25116" lon="1.15074">
        <ele>107.8</ele>
        <time>2016-09-18T07:59:14Z</time>
      </trkpt>
      <trkpt lat="49.25117" lon="1.15054">
        <ele>107.7</ele>
        <time>2016-09-18T07:59:17Z</time>
      </trkpt>
      <trkpt lat="49.25117" lon="1.15039">
        <ele>107.7</ele>
        <time>2016-09-18T07:59:19Z</time>
      </trkpt>
      <trkpt lat="49.25114" lon="1.15022">
        <ele>107.6</ele>
        <time>2016-09-18T07:59:21Z</time>
      </trkpt>
      <trkpt lat="49.25111" lon="1.15003">
        <ele>107.5</ele>
        <time>2016-09-18T07:59:24Z</time>
      </trkpt>
      <trkpt lat="49.2511" lon="1.14985">
        <ele>107.5</ele>
        <time>2016-09-18T07:59:27Z</time>
      </trkpt>
      <trkpt lat="49.25106" lon="1.14965">
        <ele>107.4</ele>
        <time>2016-09-18T07:59:30Z</time>
      </trkpt>
      <trkpt lat="49.25104" lon="1.14945">
        <ele>107.3</ele>
        <time>2016-09-18T07:59:33Z</time>
      </trkpt>
      <trkpt lat="49.25101" lon="1.14931">
        <ele>107.2</ele>
        <time>2016-09-18T07:59:35Z</time>
      </trkpt>
      <trkpt lat="49.25099" lon="1.14916">
        <ele>107.1</ele>
        <time>2016-09-18T07:59:37Z</time>
      </trkpt>
      <trkpt lat="49.25096" lon="1.14902">
        <ele>107</ele>
        <time>2016-09-18T07:59:39Z</time>
      </trkpt>
      <trkpt lat="49.25092" lon="1.14887">
        <ele>106.9</ele>
        <time>2016-09-18T07:59:41Z</time>
      </trkpt>
      <trkpt lat="49.25087" lon="1.14874">
        <ele>106.8</ele>
        <time>2016-09-18T07:59:43Z</time>
      </trkpt>
      <trkpt lat="49.25082" lon="1.14855">
        <ele>106.4</ele>
        <time>2016-09-18T07:59:46Z</time>
      </trkpt>
      <trkpt lat="49.2508" lon="1.14841">
        <ele>106.2</ele>
        <time>2016-09-18T07:59:48Z</time>
      </trkpt>
      <trkpt lat="49.25078" lon="1.14822">
        <ele>105.8</ele>
        <time>2016-09-18T07:59:51Z</time>
      </trkpt>
      <trkpt lat="49.25079" lon="1.14803">
        <ele>105.6</ele>
        <time>2016-09-18T07:59:54Z</time>
      </trkpt>
      <trkpt lat="49.25083" lon="1.14784">
        <ele>105.4</ele>
        <time>2016-09-18T07:59:57Z</time>
      </trkpt>
      <trkpt lat="49.25087" lon="1.14769">
        <ele>105.2</ele>
        <time>2016-09-18T08:00:00Z</time>
      </trkpt>
      <trkpt lat="49.2509" lon="1.14753">
        <ele>105</ele>
        <time>2016-09-18T08:00:03Z</time>
      </trkpt>
      <trkpt lat="49.25092" lon="1.14735">
        <ele>104.9</ele>
        <time>2016-09-18T08:00:06Z</time>
      </trkpt>
      <trkpt lat="49.25091" lon="1.1472">
        <ele>104.8</ele>
        <time>2016-09-18T08:00:08Z</time>
      </trkpt>
      <trkpt lat="49.25093" lon="1.14701">
        <ele>104.7</ele>
        <time>2016-09-18T08:00:11Z</time>
      </trkpt>
      <trkpt lat="49.25095" lon="1.14683">
        <ele>104.6</ele>
        <time>2016-09-18T08:00:14Z</time>
      </trkpt>
      <trkpt lat="49.25098" lon="1.14669">
        <ele>104.6</ele>
        <time>2016-09-18T08:00:17Z</time>
      </trkpt>
      <trkpt lat="49.25099" lon="1.14653">
        <ele>104.5</ele>
        <time>2016-09-18T08:00:20Z</time>
      </trkpt>
      <trkpt lat="49.251" lon="1.14635">
        <ele>104.5</ele>
        <time>2016-09-18T08:00:23Z</time>
      </trkpt>
      <trkpt lat="49.25102" lon="1.14621">
        <ele>104.5</ele>
        <time>2016-09-18T08:00:26Z</time>
      </trkpt>
      <trkpt lat="49.25106" lon="1.14605">
        <ele>104.6</ele>
        <time>2016-09-18T08:00:29Z</time>
      </trkpt>
      <trkpt lat="49.25104" lon="1.14591">
        <ele>104.7</ele>
        <time>2016-09-18T08:00:31Z</time>
      </trkpt>
      <trkpt lat="49.25106" lon="1.14575">
        <ele>104.8</ele>
        <time>2016-09-18T08:00:34Z</time>
      </trkpt>
      <trkpt lat="49.25108" lon="1.14559">
        <ele>104.9</ele>
        <time>2016-09-18T08:00:37Z</time>
      </trkpt>
      <trkpt lat="49.25109" lon="1.14544">
        <ele>105</ele>
        <time>2016-09-18T08:00:40Z</time>
      </trkpt>
      <trkpt lat="49.25109" lon="1.14528">
        <ele>105.1</ele>
        <time>2016-09-18T08:00:43Z</time>
      </trkpt>
      <trkpt lat="49.25108" lon="1.14511">
        <ele>105.3</ele>
        <time>2016-09-18T08:00:46Z</time>
      </trkpt>
      <trkpt lat="49.25108" lon="1.14493">
        <ele>105.3</ele>
        <time>2016-09-18T08:00:49Z</time>
      </trkpt>
      <trkpt lat="49.25109" lon="1.14475">
        <ele>105.4</ele>
        <time>2016-09-18T08:00:52Z</time>
      </trkpt>
      <trkpt lat="49.25109" lon="1.14457">
        <ele>105.5</ele>
        <time>2016-09-18T08:00:55Z</time>
      </trkpt>
      <trkpt lat="49.25108" lon="1.14438">
        <ele>105.5</ele>
        <time>2016-09-18T08:00:58Z</time>
      </trkpt>
      <trkpt lat="49.25109" lon="1.14423">
        <ele>105.6</ele>
        <time>2016-09-18T08:01:01Z</time>
      </trkpt>
      <trkpt lat="49.25108" lon="1.14405">
        <ele>105.6</ele>
        <time>2016-09-18T08:01:04Z</time>
      </trkpt>
      <trkpt lat="49.25105" lon="1.14388">
        <ele>105.7</ele>
        <time>2016-09-18T08:01:06Z</time>
      </trkpt>
      <trkpt lat="49.25102" lon="1.14372">
        <ele>105.8</ele>
        <time>2016-09-18T08:01:08Z</time>
      </trkpt>
      <trkpt lat="49.251" lon="1.14358">
        <ele>105.9</ele>
        <time>2016-09-18T08:01:10Z</time>
      </trkpt>
      <trkpt lat="49.25097" lon="1.14343">
        <ele>106</ele>
        <time>2016-09-18T08:01:12Z</time>
      </trkpt>
      <trkpt lat="49.25094" lon="1.14327">
        <ele>106</ele>
        <time>2016-09-18T08:01:14Z</time>
      </trkpt>
      <trkpt lat="49.25091" lon="1.14313">
        <ele>106.1</ele>
        <time>2016-09-18T08:01:16Z</time>
      </trkpt>
      <trkpt lat="49.25088" lon="1.14297">
        <ele>106.1</ele>
        <time>2016-09-18T08:01:18Z</time>
      </trkpt>
      <trkpt lat="49.25087" lon="1.14282">
        <ele>106.1</ele>
        <time>2016-09-18T08:01:20Z</time>
      </trkpt>
      <trkpt lat="49.25087" lon="1.14268">
        <ele>106</ele>
        <time>2016-09-18T08:01:22Z</time>
      </trkpt>
      <trkpt lat="49.25087" lon="1.14254">
        <ele>106</ele>
        <time>2016-09-18T08:01:24Z</time>
      </trkpt>
      <trkpt lat="49.25089" lon="1.14236">
        <ele>105.9</ele>
        <time>2016-09-18T08:01:27Z</time>
      </trkpt>
      <trkpt lat="49.25093" lon="1.14218">
        <ele>105.8</ele>
        <time>2016-09-18T08:01:30Z</time>
      </trkpt>
      <trkpt lat="49.25096" lon="1.14201">
        <ele>105.8</ele>
        <time>2016-09-18T08:01:33Z</time>
      </trkpt>
      <trkpt lat="49.25101" lon="1.14182">
        <ele>105.9</ele>
        <time>2016-09-18T08:01:36Z</time>
      </trkpt>
      <trkpt lat="49.25106" lon="1.1417">
        <ele>105.9</ele>
        <time>2016-09-18T08:01:38Z</time>
      </trkpt>
      <trkpt lat="49.25113" lon="1.14153">
        <ele>106.1</ele>
        <time>2016-09-18T08:01:41Z</time>
      </trkpt>
      <trkpt lat="49.25119" lon="1.14137">
        <ele>106.3</ele>
        <time>2016-09-18T08:01:44Z</time>
      </trkpt>
      <trkpt lat="49.25126" lon="1.14121">
        <ele>106.5</ele>
        <time>2016-09-18T08:01:47Z</time>
      </trkpt>
      <trkpt lat="49.25132" lon="1.14104">
        <ele>106.8</ele>
        <time>2016-09-18T08:01:50Z</time>
      </trkpt>
      <trkpt lat="49.25139" lon="1.14091">
        <ele>107</ele>
        <time>2016-09-18T08:01:53Z</time>
      </trkpt>
      <trkpt lat="49.25147" lon="1.14078">
        <ele>107.2</ele>
        <time>2016-09-18T08:01:56Z</time>
      </trkpt>
      <trkpt lat="49.25154" lon="1.14067">
        <ele>107.5</ele>
        <time>2016-09-18T08:01:59Z</time>
      </trkpt>
      <trkpt lat="49.25161" lon="1.14055">
        <ele>107.9</ele>
        <time>2016-09-18T08:02:02Z</time>
      </trkpt>
      <trkpt lat="49.25167" lon="1.14045">
        <ele>108.1</ele>
        <time>2016-09-18T08:02:05Z</time>
      </trkpt>
      <trkpt lat="49.25174" lon="1.14031">
        <ele>108.5</ele>
        <time>2016-09-18T08:02:09Z</time>
      </trkpt>
      <trkpt lat="49.25182" lon="1.14023">
        <ele>109</ele>
        <time>2016-09-18T08:02:15Z</time>
      </trkpt>
      <trkpt lat="49.25191" lon="1.14024">
        <ele>109.6</ele>
        <time>2016-09-18T08:02:19Z</time>
      </trkpt>
      <trkpt lat="49.252" lon="1.14027">
        <ele>110.2</ele>
        <time>2016-09-18T08:02:23Z</time>
      </trkpt>
      <trkpt lat="49.2521" lon="1.1403">
        <ele>111</ele>
        <time>2016-09-18T08:02:27Z</time>
      </trkpt>
      <trkpt lat="49.25221" lon="1.14034">
        <ele>111.8</ele>
        <time>2016-09-18T08:02:31Z</time>
      </trkpt>
      <trkpt lat="49.25231" lon="1.14035">
        <ele>112.3</ele>
        <time>2016-09-18T08:02:34Z</time>
      </trkpt>
      <trkpt lat="49.25242" lon="1.14039">
        <ele>112.8</ele>
        <time>2016-09-18T08:02:37Z</time>
      </trkpt>
      <trkpt lat="49.25252" lon="1.14043">
        <ele>113.4</ele>
        <time>2016-09-18T08:02:41Z</time>
      </trkpt>
      <trkpt lat="49.25262" lon="1.14048">
        <ele>114</ele>
        <time>2016-09-18T08:02:45Z</time>
      </trkpt>
      <trkpt lat="49.25273" lon="1.14051">
        <ele>114.4</ele>
        <time>2016-09-18T08:02:48Z</time>
      </trkpt>
      <trkpt lat="49.25284" lon="1.14057">
        <ele>114.9</ele>
        <time>2016-09-18T08:02:52Z</time>
      </trkpt>
      <trkpt lat="49.25293" lon="1.14061">
        <ele>115.2</ele>
        <time>2016-09-18T08:02:55Z</time>
      </trkpt>
      <trkpt lat="49.25302" lon="1.14066">
        <ele>115.4</ele>
        <time>2016-09-18T08:02:58Z</time>
      </trkpt>
      <trkpt lat="49.25312" lon="1.14071">
        <ele>115.6</ele>
        <time>2016-09-18T08:03:01Z</time>
      </trkpt>
      <trkpt lat="49.25323" lon="1.14077">
        <ele>115.8</ele>
        <time>2016-09-18T08:03:04Z</time>
      </trkpt>
      <trkpt lat="49.25332" lon="1.14081">
        <ele>116</ele>
        <time>2016-09-18T08:03:06Z</time>
      </trkpt>
      <trkpt lat="49.25342" lon="1.14084">
        <ele>116.1</ele>
        <time>2016-09-18T08:03:08Z</time>
      </trkpt>
      <trkpt lat="49.25351" lon="1.14079">
        <ele>116.2</ele>
        <time>2016-09-18T08:03:11Z</time>
      </trkpt>
      <trkpt lat="49.25355" lon="1.14063">
        <ele>116.3</ele>
        <time>2016-09-18T08:03:14Z</time>
      </trkpt>
      <trkpt lat="49.25359" lon="1.14048">
        <ele>116.4</ele>
        <time>2016-09-18T08:03:17Z</time>
      </trkpt>
      <trkpt lat="49.25363" lon="1.14033">
        <ele>116.6</ele>
        <time>2016-09-18T08:03:20Z</time>
      </trkpt>
      <trkpt lat="49.25367" lon="1.14016">
        <ele>116.7</ele>
        <time>2016-09-18T08:03:24Z</time>
      </trkpt>
      <trkpt lat="49.25371" lon="1.14">
        <ele>116.8</ele>
        <time>2016-09-18T08:03:27Z</time>
      </trkpt>
      <trkpt lat="49.25375" lon="1.13982">
        <ele>116.9</ele>
        <time>2016-09-18T08:03:30Z</time>
      </trkpt>
      <trkpt lat="49.2538" lon="1.13967">
        <ele>117</ele>
        <time>2016-09-18T08:03:33Z</time>
      </trkpt>
      <trkpt lat="49.25383" lon="1.13954">
        <ele>117.2</ele>
        <time>2016-09-18T08:03:36Z</time>
      </trkpt>
      <trkpt lat="49.25387" lon="1.1394">
        <ele>117.3</ele>
        <time>2016-09-18T08:03:39Z</time>
      </trkpt>
      <trkpt lat="49.2539" lon="1.13921">
        <ele>117.4</ele>
        <time>2016-09-18T08:03:42Z</time>
      </trkpt>
      <trkpt lat="49.25394" lon="1.13902">
        <ele>117.4</ele>
        <time>2016-09-18T08:03:45Z</time>
      </trkpt>
      <trkpt lat="49.25398" lon="1.13883">
        <ele>117.5</ele>
        <time>2016-09-18T08:03:48Z</time>
      </trkpt>
      <trkpt lat="49.25403" lon="1.13871">
        <ele>117.6</ele>
        <time>2016-09-18T08:03:50Z</time>
      </trkpt>
      <trkpt lat="49.25406" lon="1.13857">
        <ele>117.6</ele>
        <time>2016-09-18T08:03:52Z</time>
      </trkpt>
      <trkpt lat="49.25411" lon="1.1384">
        <ele>117.7</ele>
        <time>2016-09-18T08:03:55Z</time>
      </trkpt>
      <trkpt lat="49.25414" lon="1.13822">
        <ele>117.8</ele>
        <time>2016-09-18T08:03:58Z</time>
      </trkpt>
      <trkpt lat="49.25418" lon="1.13804">
        <ele>117.9</ele>
        <time>2016-09-18T08:04:01Z</time>
      </trkpt>
      <trkpt lat="49.25423" lon="1.13787">
        <ele>118.1</ele>
        <time>2016-09-18T08:04:04Z</time>
      </trkpt>
      <trkpt lat="49.25426" lon="1.13773">
        <ele>118.2</ele>
        <time>2016-09-18T08:04:07Z</time>
      </trkpt>
      <trkpt lat="49.25431" lon="1.13754">
        <ele>118.2</ele>
        <time>2016-09-18T08:04:10Z</time>
      </trkpt>
      <trkpt lat="49.25435" lon="1.13736">
        <ele>118.3</ele>
        <time>2016-09-18T08:04:13Z</time>
      </trkpt>
      <trkpt lat="49.25437" lon="1.13722">
        <ele>118.4</ele>
        <time>2016-09-18T08:04:15Z</time>
      </trkpt>
      <trkpt lat="49.2544" lon="1.13707">
        <ele>118.5</ele>
        <time>2016-09-18T08:04:17Z</time>
      </trkpt>
      <trkpt lat="49.25443" lon="1.13693">
        <ele>118.5</ele>
        <time>2016-09-18T08:04:19Z</time>
      </trkpt>
      <trkpt lat="49.25447" lon="1.13681">
        <ele>118.6</ele>
        <time>2016-09-18T08:04:21Z</time>
      </trkpt>
      <trkpt lat="49.25452" lon="1.13664">
        <ele>118.6</ele>
        <time>2016-09-18T08:04:24Z</time>
      </trkpt>
      <trkpt lat="49.25454" lon="1.13649">
        <ele>118.7</ele>
        <time>2016-09-18T08:04:26Z</time>
      </trkpt>
      <trkpt lat="49.25456" lon="1.13635">
        <ele>118.7</ele>
        <time>2016-09-18T08:04:28Z</time>
      </trkpt>
      <trkpt lat="49.25461" lon="1.13617">
        <ele>118.8</ele>
        <time>2016-09-18T08:04:31Z</time>
      </trkpt>
      <trkpt lat="49.25464" lon="1.13596">
        <ele>118.8</ele>
        <time>2016-09-18T08:04:34Z</time>
      </trkpt>
      <trkpt lat="49.25466" lon="1.13582">
        <ele>118.8</ele>
        <time>2016-09-18T08:04:36Z</time>
      </trkpt>
      <trkpt lat="49.25469" lon="1.13569">
        <ele>118.8</ele>
        <time>2016-09-18T08:04:38Z</time>
      </trkpt>
      <trkpt lat="49.25472" lon="1.13553">
        <ele>118.9</ele>
        <time>2016-09-18T08:04:41Z</time>
      </trkpt>
      <trkpt lat="49.25475" lon="1.13536">
        <ele>119</ele>
        <time>2016-09-18T08:04:43Z</time>
      </trkpt>
      <trkpt lat="49.25477" lon="1.1352">
        <ele>119</ele>
        <time>2016-09-18T08:04:45Z</time>
      </trkpt>
      <trkpt lat="49.25481" lon="1.13505">
        <ele>119.1</ele>
        <time>2016-09-18T08:04:47Z</time>
      </trkpt>
      <trkpt lat="49.25486" lon="1.13485">
        <ele>119.1</ele>
        <time>2016-09-18T08:04:50Z</time>
      </trkpt>
      <trkpt lat="49.2549" lon="1.13467">
        <ele>119.2</ele>
        <time>2016-09-18T08:04:53Z</time>
      </trkpt>
      <trkpt lat="49.25494" lon="1.13447">
        <ele>119.4</ele>
        <time>2016-09-18T08:04:56Z</time>
      </trkpt>
      <trkpt lat="49.25498" lon="1.13429">
        <ele>119.4</ele>
        <time>2016-09-18T08:04:59Z</time>
      </trkpt>
      <trkpt lat="49.25501" lon="1.13415">
        <ele>119.5</ele>
        <time>2016-09-18T08:05:01Z</time>
      </trkpt>
      <trkpt lat="49.25504" lon="1.13399">
        <ele>119.5</ele>
        <time>2016-09-18T08:05:03Z</time>
      </trkpt>
      <trkpt lat="49.25506" lon="1.13383">
        <ele>119.6</ele>
        <time>2016-09-18T08:05:05Z</time>
      </trkpt>
      <trkpt lat="49.25509" lon="1.13364">
        <ele>119.6</ele>
        <time>2016-09-18T08:05:08Z</time>
      </trkpt>
      <trkpt lat="49.25512" lon="1.13344">
        <ele>119.7</ele>
        <time>2016-09-18T08:05:11Z</time>
      </trkpt>
      <trkpt lat="49.25517" lon="1.13329">
        <ele>119.7</ele>
        <time>2016-09-18T08:05:14Z</time>
      </trkpt>
      <trkpt lat="49.25525" lon="1.13318">
        <ele>119.7</ele>
        <time>2016-09-18T08:05:17Z</time>
      </trkpt>
      <trkpt lat="49.25534" lon="1.13314">
        <ele>119.8</ele>
        <time>2016-09-18T08:05:21Z</time>
      </trkpt>
      <trkpt lat="49.25546" lon="1.13314">
        <ele>119.8</ele>
        <time>2016-09-18T08:05:25Z</time>
      </trkpt>
      <trkpt lat="49.25557" lon="1.13316">
        <ele>119.9</ele>
        <time>2016-09-18T08:05:28Z</time>
      </trkpt>
      <trkpt lat="49.25568" lon="1.13319">
        <ele>120.1</ele>
        <time>2016-09-18T08:05:31Z</time>
      </trkpt>
      <trkpt lat="49.2558" lon="1.13323">
        <ele>120.2</ele>
        <time>2016-09-18T08:05:34Z</time>
      </trkpt>
      <trkpt lat="49.25591" lon="1.13328">
        <ele>120.3</ele>
        <time>2016-09-18T08:05:37Z</time>
      </trkpt>
      <trkpt lat="49.25602" lon="1.13333">
        <ele>120.4</ele>
        <time>2016-09-18T08:05:40Z</time>
      </trkpt>
      <trkpt lat="49.25614" lon="1.13338">
        <ele>120.6</ele>
        <time>2016-09-18T08:05:43Z</time>
      </trkpt>
      <trkpt lat="49.25624" lon="1.13343">
        <ele>120.8</ele>
        <time>2016-09-18T08:05:46Z</time>
      </trkpt>
      <trkpt lat="49.25634" lon="1.13347">
        <ele>120.9</ele>
        <time>2016-09-18T08:05:49Z</time>
      </trkpt>
      <trkpt lat="49.25645" lon="1.13351">
        <ele>121</ele>
        <time>2016-09-18T08:05:51Z</time>
      </trkpt>
      <trkpt lat="49.25654" lon="1.13354">
        <ele>121.1</ele>
        <time>2016-09-18T08:05:53Z</time>
      </trkpt>
      <trkpt lat="49.25667" lon="1.1336">
        <ele>121.1</ele>
        <time>2016-09-18T08:05:56Z</time>
      </trkpt>
      <trkpt lat="49.25677" lon="1.13365">
        <ele>121.2</ele>
        <time>2016-09-18T08:05:58Z</time>
      </trkpt>
      <trkpt lat="49.25688" lon="1.13372">
        <ele>121.3</ele>
        <time>2016-09-18T08:06:01Z</time>
      </trkpt>
      <trkpt lat="49.25693" lon="1.13386">
        <ele>121.3</ele>
        <time>2016-09-18T08:06:04Z</time>
      </trkpt>
      <trkpt lat="49.25693" lon="1.13401">
        <ele>121.3</ele>
        <time>2016-09-18T08:06:07Z</time>
      </trkpt>
      <trkpt lat="49.25689" lon="1.13418">
        <ele>121.4</ele>
        <time>2016-09-18T08:06:10Z</time>
      </trkpt>
      <trkpt lat="49.25689" lon="1.13435">
        <ele>121.4</ele>
        <time>2016-09-18T08:06:13Z</time>
      </trkpt>
      <trkpt lat="49.2569" lon="1.13449">
        <ele>121.4</ele>
        <time>2016-09-18T08:06:16Z</time>
      </trkpt>
      <trkpt lat="49.25686" lon="1.13468">
        <ele>121.5</ele>
        <time>2016-09-18T08:06:19Z</time>
      </trkpt>
      <trkpt lat="49.25685" lon="1.13482">
        <ele>121.5</ele>
        <time>2016-09-18T08:06:22Z</time>
      </trkpt>
      <trkpt lat="49.25683" lon="1.13496">
        <ele>121.4</ele>
        <time>2016-09-18T08:06:25Z</time>
      </trkpt>
      <trkpt lat="49.25681" lon="1.13511">
        <ele>121.2</ele>
        <time>2016-09-18T08:06:28Z</time>
      </trkpt>
      <trkpt lat="49.25678" lon="1.13528">
        <ele>121.1</ele>
        <time>2016-09-18T08:06:31Z</time>
      </trkpt>
      <trkpt lat="49.25675" lon="1.13544">
        <ele>121</ele>
        <time>2016-09-18T08:06:34Z</time>
      </trkpt>
      <trkpt lat="49.25673" lon="1.13558">
        <ele>120.9</ele>
        <time>2016-09-18T08:06:38Z</time>
      </trkpt>
      <trkpt lat="49.25671" lon="1.13574">
        <ele>120.8</ele>
        <time>2016-09-18T08:06:41Z</time>
      </trkpt>
      <trkpt lat="49.25669" lon="1.1359">
        <ele>120.8</ele>
        <time>2016-09-18T08:06:44Z</time>
      </trkpt>
      <trkpt lat="49.25666" lon="1.13605">
        <ele>120.6</ele>
        <time>2016-09-18T08:06:47Z</time>
      </trkpt>
      <trkpt lat="49.25664" lon="1.13621">
        <ele>120.4</ele>
        <time>2016-09-18T08:06:50Z</time>
      </trkpt>
      <trkpt lat="49.25661" lon="1.13636">
        <ele>120.3</ele>
        <time>2016-09-18T08:06:52Z</time>
      </trkpt>
      <trkpt lat="49.25657" lon="1.13656">
        <ele>120.1</ele>
        <time>2016-09-18T08:06:55Z</time>
      </trkpt>
      <trkpt lat="49.25653" lon="1.1367">
        <ele>120</ele>
        <time>2016-09-18T08:06:57Z</time>
      </trkpt>
      <trkpt lat="49.2565" lon="1.13686">
        <ele>119.9</ele>
        <time>2016-09-18T08:07:00Z</time>
      </trkpt>
      <trkpt lat="49.25647" lon="1.13701">
        <ele>119.7</ele>
        <time>2016-09-18T08:07:02Z</time>
      </trkpt>
      <trkpt lat="49.25645" lon="1.13716">
        <ele>119.5</ele>
        <time>2016-09-18T08:07:05Z</time>
      </trkpt>
      <trkpt lat="49.25644" lon="1.13733">
        <ele>119.3</ele>
        <time>2016-09-18T08:07:09Z</time>
      </trkpt>
      <trkpt lat="49.25648" lon="1.13749">
        <ele>119.1</ele>
        <time>2016-09-18T08:07:12Z</time>
      </trkpt>
      <trkpt lat="49.25656" lon="1.13762">
        <ele>118.8</ele>
        <time>2016-09-18T08:07:16Z</time>
      </trkpt>
      <trkpt lat="49.25665" lon="1.13774">
        <ele>118.4</ele>
        <time>2016-09-18T08:07:21Z</time>
      </trkpt>
      <trkpt lat="49.25675" lon="1.13782">
        <ele>118.2</ele>
        <time>2016-09-18T08:07:25Z</time>
      </trkpt>
      <trkpt lat="49.25684" lon="1.13788">
        <ele>118.1</ele>
        <time>2016-09-18T08:07:28Z</time>
      </trkpt>
      <trkpt lat="49.25693" lon="1.13793">
        <ele>118</ele>
        <time>2016-09-18T08:07:31Z</time>
      </trkpt>
      <trkpt lat="49.25704" lon="1.138">
        <ele>117.9</ele>
        <time>2016-09-18T08:07:34Z</time>
      </trkpt>
      <trkpt lat="49.25713" lon="1.13804">
        <ele>117.9</ele>
        <time>2016-09-18T08:07:37Z</time>
      </trkpt>
      <trkpt lat="49.25722" lon="1.1381">
        <ele>117.8</ele>
        <time>2016-09-18T08:07:40Z</time>
      </trkpt>
      <trkpt lat="49.25732" lon="1.13817">
        <ele>117.7</ele>
        <time>2016-09-18T08:07:45Z</time>
      </trkpt>
      <trkpt lat="49.25744" lon="1.13823">
        <ele>117.7</ele>
        <time>2016-09-18T08:07:49Z</time>
      </trkpt>
      <trkpt lat="49.25755" lon="1.13829">
        <ele>117.7</ele>
        <time>2016-09-18T08:07:52Z</time>
      </trkpt>
      <trkpt lat="49.25766" lon="1.13835">
        <ele>117.7</ele>
        <time>2016-09-18T08:07:55Z</time>
      </trkpt>
      <trkpt lat="49.25779" lon="1.13841">
        <ele>117.8</ele>
        <time>2016-09-18T08:07:58Z</time>
      </trkpt>
      <trkpt lat="49.25788" lon="1.13844">
        <ele>117.8</ele>
        <time>2016-09-18T08:08:00Z</time>
      </trkpt>
      <trkpt lat="49.25799" lon="1.1385">
        <ele>117.9</ele>
        <time>2016-09-18T08:08:03Z</time>
      </trkpt>
      <trkpt lat="49.25808" lon="1.13853">
        <ele>118</ele>
        <time>2016-09-18T08:08:06Z</time>
      </trkpt>
      <trkpt lat="49.25819" lon="1.13856">
        <ele>118</ele>
        <time>2016-09-18T08:08:09Z</time>
      </trkpt>
      <trkpt lat="49.25829" lon="1.13863">
        <ele>118</ele>
        <time>2016-09-18T08:08:12Z</time>
      </trkpt>
      <trkpt lat="49.25838" lon="1.13867">
        <ele>118.1</ele>
        <time>2016-09-18T08:08:15Z</time>
      </trkpt>
      <trkpt lat="49.25849" lon="1.13873">
        <ele>118.3</ele>
        <time>2016-09-18T08:08:19Z</time>
      </trkpt>
      <trkpt lat="49.25859" lon="1.13877">
        <ele>118.5</ele>
        <time>2016-09-18T08:08:22Z</time>
      </trkpt>
      <trkpt lat="49.25869" lon="1.13882">
        <ele>118.7</ele>
        <time>2016-09-18T08:08:25Z</time>
      </trkpt>
      <trkpt lat="49.25881" lon="1.1389">
        <ele>118.9</ele>
        <time>2016-09-18T08:08:28Z</time>
      </trkpt>
      <trkpt lat="49.25891" lon="1.13895">
        <ele>119</ele>
        <time>2016-09-18T08:08:30Z</time>
      </trkpt>
      <trkpt lat="49.25901" lon="1.139">
        <ele>119</ele>
        <time>2016-09-18T08:08:32Z</time>
      </trkpt>
      <trkpt lat="49.25913" lon="1.13906">
        <ele>119.2</ele>
        <time>2016-09-18T08:08:35Z</time>
      </trkpt>
      <trkpt lat="49.25924" lon="1.13912">
        <ele>119.4</ele>
        <time>2016-09-18T08:08:38Z</time>
      </trkpt>
      <trkpt lat="49.25936" lon="1.13918">
        <ele>119.6</ele>
        <time>2016-09-18T08:08:41Z</time>
      </trkpt>
      <trkpt lat="49.25949" lon="1.13923">
        <ele>119.8</ele>
        <time>2016-09-18T08:08:44Z</time>
      </trkpt>
      <trkpt lat="49.2596" lon="1.13927">
        <ele>119.9</ele>
        <time>2016-09-18T08:08:47Z</time>
      </trkpt>
      <trkpt lat="49.25972" lon="1.13932">
        <ele>120</ele>
        <time>2016-09-18T08:08:50Z</time>
      </trkpt>
      <trkpt lat="49.25983" lon="1.13933">
        <ele>120.1</ele>
        <time>2016-09-18T08:08:53Z</time>
      </trkpt>
      <trkpt lat="49.25994" lon="1.13938">
        <ele>120.2</ele>
        <time>2016-09-18T08:08:56Z</time>
      </trkpt>
      <trkpt lat="49.26006" lon="1.13946">
        <ele>120.3</ele>
        <time>2016-09-18T08:08:59Z</time>
      </trkpt>
      <trkpt lat="49.26017" lon="1.13952">
        <ele>120.4</ele>
        <time>2016-09-18T08:09:02Z</time>
      </trkpt>
      <trkpt lat="49.26028" lon="1.13957">
        <ele>120.4</ele>
        <time>2016-09-18T08:09:05Z</time>
      </trkpt>
      <trkpt lat="49.26039" lon="1.13962">
        <ele>120.4</ele>
        <time>2016-09-18T08:09:08Z</time>
      </trkpt>
      <trkpt lat="49.26049" lon="1.13965">
        <ele>120.5</ele>
        <time>2016-09-18T08:09:11Z</time>
      </trkpt>
      <trkpt lat="49.2606" lon="1.1397">
        <ele>120.5</ele>
        <time>2016-09-18T08:09:14Z</time>
      </trkpt>
      <trkpt lat="49.2607" lon="1.13976">
        <ele>120.5</ele>
        <time>2016-09-18T08:09:17Z</time>
      </trkpt>
      <trkpt lat="49.26079" lon="1.13985">
        <ele>120.6</ele>
        <time>2016-09-18T08:09:22Z</time>
      </trkpt>
      <trkpt lat="49.26089" lon="1.13989">
        <ele>120.5</ele>
        <time>2016-09-18T08:09:26Z</time>
      </trkpt>
      <trkpt lat="49.26101" lon="1.13987">
        <ele>120.4</ele>
        <time>2016-09-18T08:09:30Z</time>
      </trkpt>
      <trkpt lat="49.2611" lon="1.13989">
        <ele>120.4</ele>
        <time>2016-09-18T08:09:33Z</time>
      </trkpt>
      <trkpt lat="49.26121" lon="1.13995">
        <ele>120.3</ele>
        <time>2016-09-18T08:09:37Z</time>
      </trkpt>
      <trkpt lat="49.2613" lon="1.13997">
        <ele>120.3</ele>
        <time>2016-09-18T08:09:40Z</time>
      </trkpt>
      <trkpt lat="49.26142" lon="1.14004">
        <ele>120.3</ele>
        <time>2016-09-18T08:09:43Z</time>
      </trkpt>
      <trkpt lat="49.26155" lon="1.1401">
        <ele>120.3</ele>
        <time>2016-09-18T08:09:45Z</time>
      </trkpt>
      <trkpt lat="49.26165" lon="1.14016">
        <ele>120.4</ele>
        <time>2016-09-18T08:09:47Z</time>
      </trkpt>
      <trkpt lat="49.26176" lon="1.1402">
        <ele>120.4</ele>
        <time>2016-09-18T08:09:50Z</time>
      </trkpt>
      <trkpt lat="49.26186" lon="1.14021">
        <ele>120.4</ele>
        <time>2016-09-18T08:09:52Z</time>
      </trkpt>
      <trkpt lat="49.26196" lon="1.1403">
        <ele>120.5</ele>
        <time>2016-09-18T08:09:55Z</time>
      </trkpt>
      <trkpt lat="49.26206" lon="1.14036">
        <ele>120.6</ele>
        <time>2016-09-18T08:09:57Z</time>
      </trkpt>
      <trkpt lat="49.26217" lon="1.14041">
        <ele>120.7</ele>
        <time>2016-09-18T08:10:00Z</time>
      </trkpt>
      <trkpt lat="49.26227" lon="1.1405">
        <ele>120.8</ele>
        <time>2016-09-18T08:10:03Z</time>
      </trkpt>
      <trkpt lat="49.26236" lon="1.14058">
        <ele>121</ele>
        <time>2016-09-18T08:10:06Z</time>
      </trkpt>
      <trkpt lat="49.26248" lon="1.14053">
        <ele>121.3</ele>
        <time>2016-09-18T08:10:10Z</time>
      </trkpt>
      <trkpt lat="49.26254" lon="1.14042">
        <ele>121.6</ele>
        <time>2016-09-18T08:10:14Z</time>
      </trkpt>
      <trkpt lat="49.26255" lon="1.14026">
        <ele>121.9</ele>
        <time>2016-09-18T08:10:18Z</time>
      </trkpt>
      <trkpt lat="49.26255" lon="1.14011">
        <ele>122.2</ele>
        <time>2016-09-18T08:10:22Z</time>
      </trkpt>
      <trkpt lat="49.26256" lon="1.13993">
        <ele>122.4</ele>
        <time>2016-09-18T08:10:27Z</time>
      </trkpt>
      <trkpt lat="49.26256" lon="1.13976">
        <ele>122.5</ele>
        <time>2016-09-18T08:10:30Z</time>
      </trkpt>
      <trkpt lat="49.26254" lon="1.13961">
        <ele>122.6</ele>
        <time>2016-09-18T08:10:33Z</time>
      </trkpt>
      <trkpt lat="49.26252" lon="1.13945">
        <ele>122.7</ele>
        <time>2016-09-18T08:10:36Z</time>
      </trkpt>
      <trkpt lat="49.26251" lon="1.13927">
        <ele>122.8</ele>
        <time>2016-09-18T08:10:39Z</time>
      </trkpt>
      <trkpt lat="49.2625" lon="1.13909">
        <ele>122.8</ele>
        <time>2016-09-18T08:10:42Z</time>
      </trkpt>
      <trkpt lat="49.26248" lon="1.13888">
        <ele>122.9</ele>
        <time>2016-09-18T08:10:45Z</time>
      </trkpt>
      <trkpt lat="49.26245" lon="1.13873">
        <ele>122.9</ele>
        <time>2016-09-18T08:10:47Z</time>
      </trkpt>
      <trkpt lat="49.26243" lon="1.13854">
        <ele>122.9</ele>
        <time>2016-09-18T08:10:50Z</time>
      </trkpt>
      <trkpt lat="49.26243" lon="1.13839">
        <ele>122.9</ele>
        <time>2016-09-18T08:10:53Z</time>
      </trkpt>
      <trkpt lat="49.26245" lon="1.13824">
        <ele>123</ele>
        <time>2016-09-18T08:10:57Z</time>
      </trkpt>
      <trkpt lat="49.26243" lon="1.13805">
        <ele>122.9</ele>
        <time>2016-09-18T08:11:00Z</time>
      </trkpt>
      <trkpt lat="49.2624" lon="1.13791">
        <ele>122.9</ele>
        <time>2016-09-18T08:11:02Z</time>
      </trkpt>
      <trkpt lat="49.26239" lon="1.13771">
        <ele>122.8</ele>
        <time>2016-09-18T08:11:05Z</time>
      </trkpt>
      <trkpt lat="49.26239" lon="1.13752">
        <ele>122.8</ele>
        <time>2016-09-18T08:11:08Z</time>
      </trkpt>
      <trkpt lat="49.26237" lon="1.13737">
        <ele>122.8</ele>
        <time>2016-09-18T08:11:10Z</time>
      </trkpt>
      <trkpt lat="49.26238" lon="1.1372">
        <ele>122.7</ele>
        <time>2016-09-18T08:11:13Z</time>
      </trkpt>
      <trkpt lat="49.26237" lon="1.13702">
        <ele>122.6</ele>
        <time>2016-09-18T08:11:16Z</time>
      </trkpt>
      <trkpt lat="49.26237" lon="1.13685">
        <ele>122.5</ele>
        <time>2016-09-18T08:11:19Z</time>
      </trkpt>
      <trkpt lat="49.26233" lon="1.13666">
        <ele>122.5</ele>
        <time>2016-09-18T08:11:22Z</time>
      </trkpt>
      <trkpt lat="49.26231" lon="1.13652">
        <ele>122.4</ele>
        <time>2016-09-18T08:11:24Z</time>
      </trkpt>
      <trkpt lat="49.26229" lon="1.13635">
        <ele>122.4</ele>
        <time>2016-09-18T08:11:26Z</time>
      </trkpt>
      <trkpt lat="49.26227" lon="1.1362">
        <ele>122.4</ele>
        <time>2016-09-18T08:11:28Z</time>
      </trkpt>
      <trkpt lat="49.26225" lon="1.13606">
        <ele>122.3</ele>
        <time>2016-09-18T08:11:30Z</time>
      </trkpt>
      <trkpt lat="49.26225" lon="1.13592">
        <ele>122.2</ele>
        <time>2016-09-18T08:11:32Z</time>
      </trkpt>
      <trkpt lat="49.26224" lon="1.13577">
        <ele>122.2</ele>
        <time>2016-09-18T08:11:34Z</time>
      </trkpt>
      <trkpt lat="49.26222" lon="1.13562">
        <ele>122.1</ele>
        <time>2016-09-18T08:11:36Z</time>
      </trkpt>
      <trkpt lat="49.26221" lon="1.13546">
        <ele>122</ele>
        <time>2016-09-18T08:11:38Z</time>
      </trkpt>
      <trkpt lat="49.2622" lon="1.13532">
        <ele>122</ele>
        <time>2016-09-18T08:11:40Z</time>
      </trkpt>
      <trkpt lat="49.26218" lon="1.13517">
        <ele>121.9</ele>
        <time>2016-09-18T08:11:42Z</time>
      </trkpt>
      <trkpt lat="49.26217" lon="1.13503">
        <ele>121.9</ele>
        <time>2016-09-18T08:11:44Z</time>
      </trkpt>
      <trkpt lat="49.26216" lon="1.13489">
        <ele>121.8</ele>
        <time>2016-09-18T08:11:46Z</time>
      </trkpt>
      <trkpt lat="49.26215" lon="1.13475">
        <ele>121.8</ele>
        <time>2016-09-18T08:11:48Z</time>
      </trkpt>
      <trkpt lat="49.26214" lon="1.13461">
        <ele>121.8</ele>
        <time>2016-09-18T08:11:50Z</time>
      </trkpt>
      <trkpt lat="49.26213" lon="1.13447">
        <ele>121.7</ele>
        <time>2016-09-18T08:11:52Z</time>
      </trkpt>
      <trkpt lat="49.26212" lon="1.13432">
        <ele>121.7</ele>
        <time>2016-09-18T08:11:54Z</time>
      </trkpt>
      <trkpt lat="49.2621" lon="1.13412">
        <ele>121.7</ele>
        <time>2016-09-18T08:11:57Z</time>
      </trkpt>
      <trkpt lat="49.26209" lon="1.13392">
        <ele>121.7</ele>
        <time>2016-09-18T08:12:00Z</time>
      </trkpt>
      <trkpt lat="49.26209" lon="1.13372">
        <ele>121.6</ele>
        <time>2016-09-18T08:12:03Z</time>
      </trkpt>
      <trkpt lat="49.26217" lon="1.13356">
        <ele>121.6</ele>
        <time>2016-09-18T08:12:06Z</time>
      </trkpt>
      <trkpt lat="49.26225" lon="1.13346">
        <ele>121.6</ele>
        <time>2016-09-18T08:12:08Z</time>
      </trkpt>
      <trkpt lat="49.26232" lon="1.13337">
        <ele>121.6</ele>
        <time>2016-09-18T08:12:10Z</time>
      </trkpt>
      <trkpt lat="49.2624" lon="1.13329">
        <ele>121.6</ele>
        <time>2016-09-18T08:12:12Z</time>
      </trkpt>
      <trkpt lat="49.26248" lon="1.13321">
        <ele>121.6</ele>
        <time>2016-09-18T08:12:14Z</time>
      </trkpt>
      <trkpt lat="49.26256" lon="1.13314">
        <ele>121.6</ele>
        <time>2016-09-18T08:12:16Z</time>
      </trkpt>
      <trkpt lat="49.26265" lon="1.13309">
        <ele>121.6</ele>
        <time>2016-09-18T08:12:18Z</time>
      </trkpt>
      <trkpt lat="49.26277" lon="1.13303">
        <ele>121.6</ele>
        <time>2016-09-18T08:12:21Z</time>
      </trkpt>
      <trkpt lat="49.26286" lon="1.133">
        <ele>121.6</ele>
        <time>2016-09-18T08:12:23Z</time>
      </trkpt>
      <trkpt lat="49.26299" lon="1.13295">
        <ele>121.6</ele>
        <time>2016-09-18T08:12:26Z</time>
      </trkpt>
      <trkpt lat="49.26312" lon="1.13289">
        <ele>121.6</ele>
        <time>2016-09-18T08:12:29Z</time>
      </trkpt>
      <trkpt lat="49.2632" lon="1.13286">
        <ele>121.6</ele>
        <time>2016-09-18T08:12:31Z</time>
      </trkpt>
      <trkpt lat="49.26333" lon="1.13281">
        <ele>121.8</ele>
        <time>2016-09-18T08:12:34Z</time>
      </trkpt>
      <trkpt lat="49.26346" lon="1.13276">
        <ele>121.9</ele>
        <time>2016-09-18T08:12:37Z</time>
      </trkpt>
      <trkpt lat="49.26359" lon="1.13271">
        <ele>122</ele>
        <time>2016-09-18T08:12:40Z</time>
      </trkpt>
      <trkpt lat="49.26372" lon="1.13266">
        <ele>122.2</ele>
        <time>2016-09-18T08:12:43Z</time>
      </trkpt>
      <trkpt lat="49.26385" lon="1.13261">
        <ele>122.3</ele>
        <time>2016-09-18T08:12:46Z</time>
      </trkpt>
      <trkpt lat="49.26398" lon="1.13256">
        <ele>122.4</ele>
        <time>2016-09-18T08:12:49Z</time>
      </trkpt>
      <trkpt lat="49.26407" lon="1.13254">
        <ele>122.5</ele>
        <time>2016-09-18T08:12:51Z</time>
      </trkpt>
      <trkpt lat="49.2642" lon="1.13253">
        <ele>122.6</ele>
        <time>2016-09-18T08:12:54Z</time>
      </trkpt>
      <trkpt lat="49.2643" lon="1.13254">
        <ele>122.7</ele>
        <time>2016-09-18T08:12:56Z</time>
      </trkpt>
      <trkpt lat="49.26438" lon="1.13257">
        <ele>122.8</ele>
        <time>2016-09-18T08:12:58Z</time>
      </trkpt>
      <trkpt lat="49.26451" lon="1.13263">
        <ele>122.9</ele>
        <time>2016-09-18T08:13:01Z</time>
      </trkpt>
      <trkpt lat="49.2646" lon="1.13267">
        <ele>123</ele>
        <time>2016-09-18T08:13:03Z</time>
      </trkpt>
      <trkpt lat="49.26469" lon="1.13271">
        <ele>123.1</ele>
        <time>2016-09-18T08:13:05Z</time>
      </trkpt>
      <trkpt lat="49.26481" lon="1.13276">
        <ele>123.3</ele>
        <time>2016-09-18T08:13:08Z</time>
      </trkpt>
      <trkpt lat="49.26491" lon="1.13283">
        <ele>123.4</ele>
        <time>2016-09-18T08:13:11Z</time>
      </trkpt>
      <trkpt lat="49.26504" lon="1.13289">
        <ele>123.5</ele>
        <time>2016-09-18T08:13:14Z</time>
      </trkpt>
      <trkpt lat="49.26514" lon="1.13292">
        <ele>123.6</ele>
        <time>2016-09-18T08:13:16Z</time>
      </trkpt>
      <trkpt lat="49.26526" lon="1.13294">
        <ele>123.8</ele>
        <time>2016-09-18T08:13:19Z</time>
      </trkpt>
      <trkpt lat="49.26538" lon="1.13301">
        <ele>124</ele>
        <time>2016-09-18T08:13:22Z</time>
      </trkpt>
      <trkpt lat="49.2655" lon="1.13306">
        <ele>124.2</ele>
        <time>2016-09-18T08:13:25Z</time>
      </trkpt>
      <trkpt lat="49.2656" lon="1.13309">
        <ele>124.3</ele>
        <time>2016-09-18T08:13:27Z</time>
      </trkpt>
      <trkpt lat="49.2657" lon="1.13313">
        <ele>124.6</ele>
        <time>2016-09-18T08:13:30Z</time>
      </trkpt>
      <trkpt lat="49.26579" lon="1.13316">
        <ele>124.8</ele>
        <time>2016-09-18T08:13:32Z</time>
      </trkpt>
      <trkpt lat="49.26591" lon="1.13323">
        <ele>125.1</ele>
        <time>2016-09-18T08:13:35Z</time>
      </trkpt>
      <trkpt lat="49.26603" lon="1.13328">
        <ele>125.3</ele>
        <time>2016-09-18T08:13:38Z</time>
      </trkpt>
      <trkpt lat="49.26614" lon="1.13332">
        <ele>125.4</ele>
        <time>2016-09-18T08:13:40Z</time>
      </trkpt>
      <trkpt lat="49.26623" lon="1.13335">
        <ele>125.6</ele>
        <time>2016-09-18T08:13:42Z</time>
      </trkpt>
      <trkpt lat="49.26634" lon="1.13338">
        <ele>125.7</ele>
        <time>2016-09-18T08:13:45Z</time>
      </trkpt>
      <trkpt lat="49.26643" lon="1.13343">
        <ele>125.9</ele>
        <time>2016-09-18T08:13:47Z</time>
      </trkpt>
      <trkpt lat="49.26653" lon="1.13349">
        <ele>126.1</ele>
        <time>2016-09-18T08:13:50Z</time>
      </trkpt>
      <trkpt lat="49.26665" lon="1.13357">
        <ele>126.3</ele>
        <time>2016-09-18T08:13:53Z</time>
      </trkpt>
      <trkpt lat="49.26676" lon="1.13363">
        <ele>126.6</ele>
        <time>2016-09-18T08:13:56Z</time>
      </trkpt>
      <trkpt lat="49.26685" lon="1.13366">
        <ele>126.7</ele>
        <time>2016-09-18T08:13:58Z</time>
      </trkpt>
      <trkpt lat="49.26697" lon="1.13369">
        <ele>126.9</ele>
        <time>2016-09-18T08:14:01Z</time>
      </trkpt>
      <trkpt lat="49.26709" lon="1.13375">
        <ele>127</ele>
        <time>2016-09-18T08:14:04Z</time>
      </trkpt>
      <trkpt lat="49.26718" lon="1.13379">
        <ele>127.1</ele>
        <time>2016-09-18T08:14:06Z</time>
      </trkpt>
      <trkpt lat="49.2673" lon="1.13384">
        <ele>127.2</ele>
        <time>2016-09-18T08:14:08Z</time>
      </trkpt>
      <trkpt lat="49.2674" lon="1.13388">
        <ele>127.3</ele>
        <time>2016-09-18T08:14:10Z</time>
      </trkpt>
      <trkpt lat="49.2675" lon="1.13395">
        <ele>127.4</ele>
        <time>2016-09-18T08:14:13Z</time>
      </trkpt>
      <trkpt lat="49.26763" lon="1.13401">
        <ele>127.5</ele>
        <time>2016-09-18T08:14:16Z</time>
      </trkpt>
      <trkpt lat="49.26776" lon="1.13406">
        <ele>127.6</ele>
        <time>2016-09-18T08:14:19Z</time>
      </trkpt>
      <trkpt lat="49.26787" lon="1.13411">
        <ele>127.7</ele>
        <time>2016-09-18T08:14:21Z</time>
      </trkpt>
      <trkpt lat="49.26796" lon="1.13416">
        <ele>127.7</ele>
        <time>2016-09-18T08:14:23Z</time>
      </trkpt>
      <trkpt lat="49.26806" lon="1.13421">
        <ele>127.8</ele>
        <time>2016-09-18T08:14:25Z</time>
      </trkpt>
      <trkpt lat="49.26816" lon="1.13425">
        <ele>127.8</ele>
        <time>2016-09-18T08:14:27Z</time>
      </trkpt>
      <trkpt lat="49.26827" lon="1.1343">
        <ele>128</ele>
        <time>2016-09-18T08:14:30Z</time>
      </trkpt>
      <trkpt lat="49.26841" lon="1.13436">
        <ele>128.1</ele>
        <time>2016-09-18T08:14:33Z</time>
      </trkpt>
      <trkpt lat="49.26851" lon="1.13441">
        <ele>128.2</ele>
        <time>2016-09-18T08:14:35Z</time>
      </trkpt>
      <trkpt lat="49.2686" lon="1.13445">
        <ele>128.3</ele>
        <time>2016-09-18T08:14:37Z</time>
      </trkpt>
      <trkpt lat="49.26868" lon="1.1345">
        <ele>128.4</ele>
        <time>2016-09-18T08:14:39Z</time>
      </trkpt>
      <trkpt lat="49.2688" lon="1.13455">
        <ele>128.4</ele>
        <time>2016-09-18T08:14:41Z</time>
      </trkpt>
      <trkpt lat="49.2689" lon="1.1346">
        <ele>128.5</ele>
        <time>2016-09-18T08:14:43Z</time>
      </trkpt>
      <trkpt lat="49.269" lon="1.13464">
        <ele>128.6</ele>
        <time>2016-09-18T08:14:45Z</time>
      </trkpt>
      <trkpt lat="49.26913" lon="1.13468">
        <ele>128.7</ele>
        <time>2016-09-18T08:14:48Z</time>
      </trkpt>
      <trkpt lat="49.26922" lon="1.13471">
        <ele>128.7</ele>
        <time>2016-09-18T08:14:50Z</time>
      </trkpt>
      <trkpt lat="49.26936" lon="1.1347">
        <ele>128.8</ele>
        <time>2016-09-18T08:14:53Z</time>
      </trkpt>
      <trkpt lat="49.26945" lon="1.13468">
        <ele>128.9</ele>
        <time>2016-09-18T08:14:55Z</time>
      </trkpt>
      <trkpt lat="49.26955" lon="1.13465">
        <ele>128.9</ele>
        <time>2016-09-18T08:14:57Z</time>
      </trkpt>
      <trkpt lat="49.26964" lon="1.1346">
        <ele>129</ele>
        <time>2016-09-18T08:14:59Z</time>
      </trkpt>
      <trkpt lat="49.26974" lon="1.13456">
        <ele>129</ele>
        <time>2016-09-18T08:15:01Z</time>
      </trkpt>
      <trkpt lat="49.26984" lon="1.13452">
        <ele>129</ele>
        <time>2016-09-18T08:15:03Z</time>
      </trkpt>
      <trkpt lat="49.26993" lon="1.13448">
        <ele>129.1</ele>
        <time>2016-09-18T08:15:05Z</time>
      </trkpt>
      <trkpt lat="49.27001" lon="1.13443">
        <ele>129.1</ele>
        <time>2016-09-18T08:15:07Z</time>
      </trkpt>
      <trkpt lat="49.2701" lon="1.13438">
        <ele>129.1</ele>
        <time>2016-09-18T08:15:09Z</time>
      </trkpt>
      <trkpt lat="49.27019" lon="1.13431">
        <ele>129.1</ele>
        <time>2016-09-18T08:15:11Z</time>
      </trkpt>
      <trkpt lat="49.27032" lon="1.13421">
        <ele>129.1</ele>
        <time>2016-09-18T08:15:14Z</time>
      </trkpt>
      <trkpt lat="49.27041" lon="1.13415">
        <ele>129.2</ele>
        <time>2016-09-18T08:15:16Z</time>
      </trkpt>
      <trkpt lat="49.27049" lon="1.13408">
        <ele>129.2</ele>
        <time>2016-09-18T08:15:18Z</time>
      </trkpt>
      <trkpt lat="49.27058" lon="1.13401">
        <ele>129.2</ele>
        <time>2016-09-18T08:15:20Z</time>
      </trkpt>
      <trkpt lat="49.27069" lon="1.13393">
        <ele>129.1</ele>
        <time>2016-09-18T08:15:22Z</time>
      </trkpt>
      <trkpt lat="49.2708" lon="1.13387">
        <ele>129.1</ele>
        <time>2016-09-18T08:15:24Z</time>
      </trkpt>
      <trkpt lat="49.27088" lon="1.13377">
        <ele>129</ele>
        <time>2016-09-18T08:15:26Z</time>
      </trkpt>
      <trkpt lat="49.27094" lon="1.13365">
        <ele>128.9</ele>
        <time>2016-09-18T08:15:28Z</time>
      </trkpt>
      <trkpt lat="49.27099" lon="1.13351">
        <ele>128.8</ele>
        <time>2016-09-18T08:15:30Z</time>
      </trkpt>
      <trkpt lat="49.271" lon="1.13333">
        <ele>128.6</ele>
        <time>2016-09-18T08:15:32Z</time>
      </trkpt>
      <trkpt lat="49.27102" lon="1.13316">
        <ele>128.5</ele>
        <time>2016-09-18T08:15:34Z</time>
      </trkpt>
      <trkpt lat="49.27104" lon="1.133">
        <ele>128.4</ele>
        <time>2016-09-18T08:15:36Z</time>
      </trkpt>
      <trkpt lat="49.27106" lon="1.13285">
        <ele>128.2</ele>
        <time>2016-09-18T08:15:38Z</time>
      </trkpt>
      <trkpt lat="49.27107" lon="1.13268">
        <ele>128.1</ele>
        <time>2016-09-18T08:15:40Z</time>
      </trkpt>
      <trkpt lat="49.27109" lon="1.13252">
        <ele>127.9</ele>
        <time>2016-09-18T08:15:42Z</time>
      </trkpt>
      <trkpt lat="49.27111" lon="1.13237">
        <ele>127.8</ele>
        <time>2016-09-18T08:15:44Z</time>
      </trkpt>
      <trkpt lat="49.27113" lon="1.1322">
        <ele>127.6</ele>
        <time>2016-09-18T08:15:47Z</time>
      </trkpt>
      <trkpt lat="49.27113" lon="1.132">
        <ele>127.4</ele>
        <time>2016-09-18T08:15:50Z</time>
      </trkpt>
      <trkpt lat="49.27115" lon="1.13181">
        <ele>127.2</ele>
        <time>2016-09-18T08:15:53Z</time>
      </trkpt>
      <trkpt lat="49.27116" lon="1.13163">
        <ele>127.1</ele>
        <time>2016-09-18T08:15:56Z</time>
      </trkpt>
      <trkpt lat="49.27118" lon="1.13144">
        <ele>127</ele>
        <time>2016-09-18T08:15:59Z</time>
      </trkpt>
      <trkpt lat="49.27121" lon="1.13127">
        <ele>126.9</ele>
        <time>2016-09-18T08:16:02Z</time>
      </trkpt>
      <trkpt lat="49.27123" lon="1.13112">
        <ele>126.7</ele>
        <time>2016-09-18T08:16:05Z</time>
      </trkpt>
      <trkpt lat="49.27126" lon="1.13093">
        <ele>126.6</ele>
        <time>2016-09-18T08:16:08Z</time>
      </trkpt>
      <trkpt lat="49.27128" lon="1.13073">
        <ele>126.5</ele>
        <time>2016-09-18T08:16:11Z</time>
      </trkpt>
      <trkpt lat="49.27129" lon="1.13056">
        <ele>126.4</ele>
        <time>2016-09-18T08:16:14Z</time>
      </trkpt>
      <trkpt lat="49.2713" lon="1.1304">
        <ele>126.4</ele>
        <time>2016-09-18T08:16:17Z</time>
      </trkpt>
      <trkpt lat="49.27134" lon="1.13021">
        <ele>126.3</ele>
        <time>2016-09-18T08:16:20Z</time>
      </trkpt>
      <trkpt lat="49.27139" lon="1.13003">
        <ele>126.3</ele>
        <time>2016-09-18T08:16:23Z</time>
      </trkpt>
      <trkpt lat="49.27145" lon="1.12986">
        <ele>126.2</ele>
        <time>2016-09-18T08:16:26Z</time>
      </trkpt>
      <trkpt lat="49.27152" lon="1.12972">
        <ele>126.2</ele>
        <time>2016-09-18T08:16:29Z</time>
      </trkpt>
      <trkpt lat="49.2716" lon="1.12957">
        <ele>126.2</ele>
        <time>2016-09-18T08:16:32Z</time>
      </trkpt>
      <trkpt lat="49.27166" lon="1.1294">
        <ele>126.1</ele>
        <time>2016-09-18T08:16:35Z</time>
      </trkpt>
      <trkpt lat="49.2717" lon="1.12925">
        <ele>126.1</ele>
        <time>2016-09-18T08:16:37Z</time>
      </trkpt>
      <trkpt lat="49.27174" lon="1.12911">
        <ele>126</ele>
        <time>2016-09-18T08:16:39Z</time>
      </trkpt>
      <trkpt lat="49.27182" lon="1.12896">
        <ele>125.9</ele>
        <time>2016-09-18T08:16:42Z</time>
      </trkpt>
      <trkpt lat="49.27184" lon="1.12877">
        <ele>125.9</ele>
        <time>2016-09-18T08:16:44Z</time>
      </trkpt>
      <trkpt lat="49.27186" lon="1.12863">
        <ele>125.8</ele>
        <time>2016-09-18T08:16:46Z</time>
      </trkpt>
      <trkpt lat="49.27188" lon="1.12848">
        <ele>125.7</ele>
        <time>2016-09-18T08:16:48Z</time>
      </trkpt>
      <trkpt lat="49.27189" lon="1.12833">
        <ele>125.7</ele>
        <time>2016-09-18T08:16:50Z</time>
      </trkpt>
      <trkpt lat="49.2719" lon="1.12817">
        <ele>125.6</ele>
        <time>2016-09-18T08:16:52Z</time>
      </trkpt>
      <trkpt lat="49.27191" lon="1.12801">
        <ele>125.5</ele>
        <time>2016-09-18T08:16:54Z</time>
      </trkpt>
      <trkpt lat="49.27192" lon="1.12785">
        <ele>125.4</ele>
        <time>2016-09-18T08:16:56Z</time>
      </trkpt>
      <trkpt lat="49.27193" lon="1.12769">
        <ele>125.3</ele>
        <time>2016-09-18T08:16:58Z</time>
      </trkpt>
      <trkpt lat="49.27194" lon="1.12754">
        <ele>125.2</ele>
        <time>2016-09-18T08:17:00Z</time>
      </trkpt>
      <trkpt lat="49.27196" lon="1.12739">
        <ele>125.1</ele>
        <time>2016-09-18T08:17:02Z</time>
      </trkpt>
      <trkpt lat="49.27197" lon="1.12724">
        <ele>124.9</ele>
        <time>2016-09-18T08:17:04Z</time>
      </trkpt>
      <trkpt lat="49.27198" lon="1.12708">
        <ele>124.8</ele>
        <time>2016-09-18T08:17:06Z</time>
      </trkpt>
      <trkpt lat="49.272" lon="1.12693">
        <ele>124.6</ele>
        <time>2016-09-18T08:17:08Z</time>
      </trkpt>
      <trkpt lat="49.27201" lon="1.12677">
        <ele>124.5</ele>
        <time>2016-09-18T08:17:10Z</time>
      </trkpt>
      <trkpt lat="49.27202" lon="1.12662">
        <ele>124.3</ele>
        <time>2016-09-18T08:17:12Z</time>
      </trkpt>
      <trkpt lat="49.27206" lon="1.12649">
        <ele>123.9</ele>
        <time>2016-09-18T08:17:15Z</time>
      </trkpt>
      <trkpt lat="49.2721" lon="1.12632">
        <ele>123.7</ele>
        <time>2016-09-18T08:17:18Z</time>
      </trkpt>
      <trkpt lat="49.27214" lon="1.12619">
        <ele>123.4</ele>
        <time>2016-09-18T08:17:20Z</time>
      </trkpt>
      <trkpt lat="49.27217" lon="1.12605">
        <ele>123.2</ele>
        <time>2016-09-18T08:17:22Z</time>
      </trkpt>
      <trkpt lat="49.27223" lon="1.12587">
        <ele>122.9</ele>
        <time>2016-09-18T08:17:25Z</time>
      </trkpt>
      <trkpt lat="49.27227" lon="1.12573">
        <ele>122.8</ele>
        <time>2016-09-18T08:17:27Z</time>
      </trkpt>
      <trkpt lat="49.27231" lon="1.1256">
        <ele>122.6</ele>
        <time>2016-09-18T08:17:29Z</time>
      </trkpt>
      <trkpt lat="49.27235" lon="1.12542">
        <ele>122.3</ele>
        <time>2016-09-18T08:17:32Z</time>
      </trkpt>
      <trkpt lat="49.27239" lon="1.12523">
        <ele>121.9</ele>
        <time>2016-09-18T08:17:35Z</time>
      </trkpt>
      <trkpt lat="49.27243" lon="1.12505">
        <ele>121.5</ele>
        <time>2016-09-18T08:17:38Z</time>
      </trkpt>
      <trkpt lat="49.27246" lon="1.12487">
        <ele>121.1</ele>
        <time>2016-09-18T08:17:41Z</time>
      </trkpt>
      <trkpt lat="49.27249" lon="1.12474">
        <ele>120.8</ele>
        <time>2016-09-18T08:17:44Z</time>
      </trkpt>
      <trkpt lat="49.2725" lon="1.1246">
        <ele>118.3</ele>
        <time>2016-09-18T08:22:12Z</time>
      </trkpt>
      <trkpt lat="49.2725" lon="1.12444">
        <ele>118.4</ele>
        <time>2016-09-18T08:22:22Z</time>
      </trkpt>
      <trkpt lat="49.27254" lon="1.1243">
        <ele>118.4</ele>
        <time>2016-09-18T08:22:25Z</time>
      </trkpt>
      <trkpt lat="49.27259" lon="1.12415">
        <ele>118.4</ele>
        <time>2016-09-18T08:22:28Z</time>
      </trkpt>
      <trkpt lat="49.27263" lon="1.12399">
        <ele>118.4</ele>
        <time>2016-09-18T08:22:31Z</time>
      </trkpt>
      <trkpt lat="49.27267" lon="1.12381">
        <ele>118.4</ele>
        <time>2016-09-18T08:22:34Z</time>
      </trkpt>
      <trkpt lat="49.27271" lon="1.12364">
        <ele>118.4</ele>
        <time>2016-09-18T08:22:37Z</time>
      </trkpt>
      <trkpt lat="49.27275" lon="1.12344">
        <ele>118.4</ele>
        <time>2016-09-18T08:22:40Z</time>
      </trkpt>
      <trkpt lat="49.27279" lon="1.12324">
        <ele>118.4</ele>
        <time>2016-09-18T08:22:43Z</time>
      </trkpt>
      <trkpt lat="49.27281" lon="1.1231">
        <ele>118.3</ele>
        <time>2016-09-18T08:22:45Z</time>
      </trkpt>
      <trkpt lat="49.27282" lon="1.12294">
        <ele>118.1</ele>
        <time>2016-09-18T08:22:47Z</time>
      </trkpt>
      <trkpt lat="49.27284" lon="1.12279">
        <ele>117.9</ele>
        <time>2016-09-18T08:22:49Z</time>
      </trkpt>
      <trkpt lat="49.27287" lon="1.12264">
        <ele>117.6</ele>
        <time>2016-09-18T08:22:51Z</time>
      </trkpt>
      <trkpt lat="49.27292" lon="1.12248">
        <ele>117.4</ele>
        <time>2016-09-18T08:22:53Z</time>
      </trkpt>
      <trkpt lat="49.27298" lon="1.12233">
        <ele>117</ele>
        <time>2016-09-18T08:22:55Z</time>
      </trkpt>
      <trkpt lat="49.27305" lon="1.12219">
        <ele>116.7</ele>
        <time>2016-09-18T08:22:57Z</time>
      </trkpt>
      <trkpt lat="49.27311" lon="1.12204">
        <ele>116.3</ele>
        <time>2016-09-18T08:22:59Z</time>
      </trkpt>
      <trkpt lat="49.27318" lon="1.12191">
        <ele>115.9</ele>
        <time>2016-09-18T08:23:01Z</time>
      </trkpt>
      <trkpt lat="49.27325" lon="1.12179">
        <ele>115.5</ele>
        <time>2016-09-18T08:23:03Z</time>
      </trkpt>
      <trkpt lat="49.27333" lon="1.12167">
        <ele>115.2</ele>
        <time>2016-09-18T08:23:05Z</time>
      </trkpt>
      <trkpt lat="49.2734" lon="1.12153">
        <ele>114.7</ele>
        <time>2016-09-18T08:23:07Z</time>
      </trkpt>
      <trkpt lat="49.27347" lon="1.1214">
        <ele>114.2</ele>
        <time>2016-09-18T08:23:09Z</time>
      </trkpt>
      <trkpt lat="49.27354" lon="1.12126">
        <ele>113.8</ele>
        <time>2016-09-18T08:23:11Z</time>
      </trkpt>
      <trkpt lat="49.27362" lon="1.12111">
        <ele>113.3</ele>
        <time>2016-09-18T08:23:13Z</time>
      </trkpt>
      <trkpt lat="49.27369" lon="1.12095">
        <ele>112.9</ele>
        <time>2016-09-18T08:23:15Z</time>
      </trkpt>
      <trkpt lat="49.27376" lon="1.12078">
        <ele>112.4</ele>
        <time>2016-09-18T08:23:17Z</time>
      </trkpt>
      <trkpt lat="49.27383" lon="1.1206">
        <ele>111.8</ele>
        <time>2016-09-18T08:23:19Z</time>
      </trkpt>
      <trkpt lat="49.27389" lon="1.1204">
        <ele>111.1</ele>
        <time>2016-09-18T08:23:21Z</time>
      </trkpt>
      <trkpt lat="49.27396" lon="1.12019">
        <ele>110.3</ele>
        <time>2016-09-18T08:23:23Z</time>
      </trkpt>
      <trkpt lat="49.27404" lon="1.11997">
        <ele>109.5</ele>
        <time>2016-09-18T08:23:25Z</time>
      </trkpt>
      <trkpt lat="49.27411" lon="1.11974">
        <ele>108.8</ele>
        <time>2016-09-18T08:23:27Z</time>
      </trkpt>
      <trkpt lat="49.27418" lon="1.1195">
        <ele>107.9</ele>
        <time>2016-09-18T08:23:29Z</time>
      </trkpt>
      <trkpt lat="49.27424" lon="1.11925">
        <ele>107.1</ele>
        <time>2016-09-18T08:23:31Z</time>
      </trkpt>
      <trkpt lat="49.27428" lon="1.11901">
        <ele>106.2</ele>
        <time>2016-09-18T08:23:33Z</time>
      </trkpt>
      <trkpt lat="49.27431" lon="1.11879">
        <ele>105.3</ele>
        <time>2016-09-18T08:23:35Z</time>
      </trkpt>
      <trkpt lat="49.27435" lon="1.11858">
        <ele>104.3</ele>
        <time>2016-09-18T08:23:37Z</time>
      </trkpt>
      <trkpt lat="49.27441" lon="1.11837">
        <ele>103.4</ele>
        <time>2016-09-18T08:23:39Z</time>
      </trkpt>
      <trkpt lat="49.27449" lon="1.11818">
        <ele>102.6</ele>
        <time>2016-09-18T08:23:41Z</time>
      </trkpt>
      <trkpt lat="49.27458" lon="1.118">
        <ele>101.7</ele>
        <time>2016-09-18T08:23:43Z</time>
      </trkpt>
      <trkpt lat="49.27467" lon="1.11783">
        <ele>100.9</ele>
        <time>2016-09-18T08:23:45Z</time>
      </trkpt>
      <trkpt lat="49.27475" lon="1.11765">
        <ele>100</ele>
        <time>2016-09-18T08:23:47Z</time>
      </trkpt>
      <trkpt lat="49.27483" lon="1.11749">
        <ele>99.2</ele>
        <time>2016-09-18T08:23:49Z</time>
      </trkpt>
      <trkpt lat="49.27493" lon="1.11735">
        <ele>98.5</ele>
        <time>2016-09-18T08:23:51Z</time>
      </trkpt>
      <trkpt lat="49.27503" lon="1.11722">
        <ele>97.7</ele>
        <time>2016-09-18T08:23:53Z</time>
      </trkpt>
      <trkpt lat="49.27516" lon="1.11714">
        <ele>97</ele>
        <time>2016-09-18T08:23:55Z</time>
      </trkpt>
      <trkpt lat="49.27528" lon="1.11706">
        <ele>96.2</ele>
        <time>2016-09-18T08:23:57Z</time>
      </trkpt>
      <trkpt lat="49.2754" lon="1.11697">
        <ele>95.4</ele>
        <time>2016-09-18T08:23:59Z</time>
      </trkpt>
      <trkpt lat="49.27553" lon="1.11692">
        <ele>94.7</ele>
        <time>2016-09-18T08:24:01Z</time>
      </trkpt>
      <trkpt lat="49.27566" lon="1.1169">
        <ele>93.9</ele>
        <time>2016-09-18T08:24:03Z</time>
      </trkpt>
      <trkpt lat="49.27579" lon="1.11691">
        <ele>93.2</ele>
        <time>2016-09-18T08:24:05Z</time>
      </trkpt>
      <trkpt lat="49.27592" lon="1.11689">
        <ele>92.6</ele>
        <time>2016-09-18T08:24:07Z</time>
      </trkpt>
      <trkpt lat="49.27605" lon="1.11683">
        <ele>91.8</ele>
        <time>2016-09-18T08:24:09Z</time>
      </trkpt>
      <trkpt lat="49.27618" lon="1.11676">
        <ele>91.2</ele>
        <time>2016-09-18T08:24:11Z</time>
      </trkpt>
      <trkpt lat="49.2763" lon="1.11666">
        <ele>90.6</ele>
        <time>2016-09-18T08:24:13Z</time>
      </trkpt>
      <trkpt lat="49.27641" lon="1.11654">
        <ele>90</ele>
        <time>2016-09-18T08:24:15Z</time>
      </trkpt>
      <trkpt lat="49.27654" lon="1.11645">
        <ele>89.3</ele>
        <time>2016-09-18T08:24:17Z</time>
      </trkpt>
      <trkpt lat="49.27664" lon="1.11633">
        <ele>88.6</ele>
        <time>2016-09-18T08:24:19Z</time>
      </trkpt>
      <trkpt lat="49.27674" lon="1.11622">
        <ele>88.1</ele>
        <time>2016-09-18T08:24:21Z</time>
      </trkpt>
      <trkpt lat="49.27683" lon="1.11612">
        <ele>87.6</ele>
        <time>2016-09-18T08:24:23Z</time>
      </trkpt>
      <trkpt lat="49.27692" lon="1.11603">
        <ele>87.1</ele>
        <time>2016-09-18T08:24:25Z</time>
      </trkpt>
      <trkpt lat="49.27702" lon="1.11596">
        <ele>86.8</ele>
        <time>2016-09-18T08:24:27Z</time>
      </trkpt>
      <trkpt lat="49.27712" lon="1.11588">
        <ele>86.4</ele>
        <time>2016-09-18T08:24:29Z</time>
      </trkpt>
      <trkpt lat="49.27721" lon="1.11582">
        <ele>86.1</ele>
        <time>2016-09-18T08:24:31Z</time>
      </trkpt>
      <trkpt lat="49.27731" lon="1.11578">
        <ele>85.9</ele>
        <time>2016-09-18T08:24:33Z</time>
      </trkpt>
      <trkpt lat="49.27742" lon="1.11576">
        <ele>85.6</ele>
        <time>2016-09-18T08:24:35Z</time>
      </trkpt>
      <trkpt lat="49.27754" lon="1.11574">
        <ele>85.4</ele>
        <time>2016-09-18T08:24:37Z</time>
      </trkpt>
      <trkpt lat="49.27765" lon="1.11571">
        <ele>85</ele>
        <time>2016-09-18T08:24:39Z</time>
      </trkpt>
      <trkpt lat="49.27777" lon="1.11571">
        <ele>84.6</ele>
        <time>2016-09-18T08:24:41Z</time>
      </trkpt>
      <trkpt lat="49.27789" lon="1.1157">
        <ele>84.3</ele>
        <time>2016-09-18T08:24:43Z</time>
      </trkpt>
      <trkpt lat="49.278" lon="1.11567">
        <ele>84</ele>
        <time>2016-09-18T08:24:45Z</time>
      </trkpt>
      <trkpt lat="49.27812" lon="1.11563">
        <ele>83.6</ele>
        <time>2016-09-18T08:24:47Z</time>
      </trkpt>
      <trkpt lat="49.27825" lon="1.11561">
        <ele>83.2</ele>
        <time>2016-09-18T08:24:49Z</time>
      </trkpt>
      <trkpt lat="49.27838" lon="1.11558">
        <ele>82.7</ele>
        <time>2016-09-18T08:24:51Z</time>
      </trkpt>
      <trkpt lat="49.2785" lon="1.11554">
        <ele>82.3</ele>
        <time>2016-09-18T08:24:53Z</time>
      </trkpt>
      <trkpt lat="49.27863" lon="1.11555">
        <ele>81.8</ele>
        <time>2016-09-18T08:24:55Z</time>
      </trkpt>
      <trkpt lat="49.27876" lon="1.11557">
        <ele>81.4</ele>
        <time>2016-09-18T08:24:57Z</time>
      </trkpt>
      <trkpt lat="49.2789" lon="1.1156">
        <ele>81</ele>
        <time>2016-09-18T08:24:59Z</time>
      </trkpt>
      <trkpt lat="49.27903" lon="1.1156">
        <ele>80.6</ele>
        <time>2016-09-18T08:25:01Z</time>
      </trkpt>
      <trkpt lat="49.27916" lon="1.11561">
        <ele>80.2</ele>
        <time>2016-09-18T08:25:03Z</time>
      </trkpt>
      <trkpt lat="49.27929" lon="1.11561">
        <ele>79.9</ele>
        <time>2016-09-18T08:25:05Z</time>
      </trkpt>
      <trkpt lat="49.27941" lon="1.11561">
        <ele>79.6</ele>
        <time>2016-09-18T08:25:07Z</time>
      </trkpt>
      <trkpt lat="49.27954" lon="1.11566">
        <ele>79.3</ele>
        <time>2016-09-18T08:25:09Z</time>
      </trkpt>
      <trkpt lat="49.27964" lon="1.11577">
        <ele>79</ele>
        <time>2016-09-18T08:25:11Z</time>
      </trkpt>
      <trkpt lat="49.27975" lon="1.11589">
        <ele>78.7</ele>
        <time>2016-09-18T08:25:13Z</time>
      </trkpt>
      <trkpt lat="49.27985" lon="1.116">
        <ele>78.4</ele>
        <time>2016-09-18T08:25:15Z</time>
      </trkpt>
      <trkpt lat="49.27993" lon="1.11611">
        <ele>78.1</ele>
        <time>2016-09-18T08:25:17Z</time>
      </trkpt>
      <trkpt lat="49.28003" lon="1.1162">
        <ele>77.9</ele>
        <time>2016-09-18T08:25:19Z</time>
      </trkpt>
      <trkpt lat="49.28012" lon="1.1163">
        <ele>77.6</ele>
        <time>2016-09-18T08:25:21Z</time>
      </trkpt>
      <trkpt lat="49.28024" lon="1.11642">
        <ele>77.5</ele>
        <time>2016-09-18T08:25:23Z</time>
      </trkpt>
      <trkpt lat="49.28032" lon="1.11652">
        <ele>77.5</ele>
        <time>2016-09-18T08:25:25Z</time>
      </trkpt>
      <trkpt lat="49.2804" lon="1.11663">
        <ele>77.5</ele>
        <time>2016-09-18T08:25:27Z</time>
      </trkpt>
      <trkpt lat="49.28049" lon="1.11673">
        <ele>77.5</ele>
        <time>2016-09-18T08:25:29Z</time>
      </trkpt>
      <trkpt lat="49.28058" lon="1.11684">
        <ele>77.5</ele>
        <time>2016-09-18T08:25:31Z</time>
      </trkpt>
      <trkpt lat="49.28068" lon="1.11696">
        <ele>77.5</ele>
        <time>2016-09-18T08:25:33Z</time>
      </trkpt>
      <trkpt lat="49.28078" lon="1.11708">
        <ele>77.4</ele>
        <time>2016-09-18T08:25:35Z</time>
      </trkpt>
      <trkpt lat="49.28089" lon="1.11722">
        <ele>77.2</ele>
        <time>2016-09-18T08:25:37Z</time>
      </trkpt>
      <trkpt lat="49.28099" lon="1.11736">
        <ele>76.9</ele>
        <time>2016-09-18T08:25:39Z</time>
      </trkpt>
      <trkpt lat="49.28111" lon="1.11753">
        <ele>76.4</ele>
        <time>2016-09-18T08:25:41Z</time>
      </trkpt>
      <trkpt lat="49.2812" lon="1.11763">
        <ele>76</ele>
        <time>2016-09-18T08:25:42Z</time>
      </trkpt>
      <trkpt lat="49.28128" lon="1.11772">
        <ele>75.7</ele>
        <time>2016-09-18T08:25:43Z</time>
      </trkpt>
      <trkpt lat="49.28136" lon="1.11781">
        <ele>75.4</ele>
        <time>2016-09-18T08:25:44Z</time>
      </trkpt>
      <trkpt lat="49.28144" lon="1.1179">
        <ele>75</ele>
        <time>2016-09-18T08:25:45Z</time>
      </trkpt>
      <trkpt lat="49.28152" lon="1.11799">
        <ele>74.7</ele>
        <time>2016-09-18T08:25:46Z</time>
      </trkpt>
      <trkpt lat="49.2816" lon="1.11809">
        <ele>74.3</ele>
        <time>2016-09-18T08:25:47Z</time>
      </trkpt>
      <trkpt lat="49.28168" lon="1.11818">
        <ele>73.8</ele>
        <time>2016-09-18T08:25:48Z</time>
      </trkpt>
      <trkpt lat="49.28176" lon="1.11828">
        <ele>73.4</ele>
        <time>2016-09-18T08:25:49Z</time>
      </trkpt>
      <trkpt lat="49.28184" lon="1.11838">
        <ele>73</ele>
        <time>2016-09-18T08:25:50Z</time>
      </trkpt>
      <trkpt lat="49.28192" lon="1.11847">
        <ele>72.6</ele>
        <time>2016-09-18T08:25:51Z</time>
      </trkpt>
      <trkpt lat="49.282" lon="1.11857">
        <ele>72.2</ele>
        <time>2016-09-18T08:25:52Z</time>
      </trkpt>
      <trkpt lat="49.28208" lon="1.11866">
        <ele>71.8</ele>
        <time>2016-09-18T08:25:53Z</time>
      </trkpt>
      <trkpt lat="49.28215" lon="1.11875">
        <ele>71.3</ele>
        <time>2016-09-18T08:25:54Z</time>
      </trkpt>
      <trkpt lat="49.28223" lon="1.11883">
        <ele>71</ele>
        <time>2016-09-18T08:25:55Z</time>
      </trkpt>
      <trkpt lat="49.28238" lon="1.119">
        <ele>70.1</ele>
        <time>2016-09-18T08:25:57Z</time>
      </trkpt>
      <trkpt lat="49.28252" lon="1.11916">
        <ele>69.2</ele>
        <time>2016-09-18T08:25:59Z</time>
      </trkpt>
      <trkpt lat="49.28264" lon="1.1193">
        <ele>68.3</ele>
        <time>2016-09-18T08:26:01Z</time>
      </trkpt>
      <trkpt lat="49.28274" lon="1.11941">
        <ele>67.6</ele>
        <time>2016-09-18T08:26:03Z</time>
      </trkpt>
      <trkpt lat="49.28282" lon="1.11949">
        <ele>66.5</ele>
        <time>2016-09-18T08:26:06Z</time>
      </trkpt>
      <trkpt lat="49.28289" lon="1.1194">
        <ele>64.6</ele>
        <time>2016-09-18T08:26:13Z</time>
      </trkpt>
      <trkpt lat="49.28301" lon="1.1194">
        <ele>63.6</ele>
        <time>2016-09-18T08:26:18Z</time>
      </trkpt>
      <trkpt lat="49.28311" lon="1.11935">
        <ele>63.2</ele>
        <time>2016-09-18T08:26:21Z</time>
      </trkpt>
      <trkpt lat="49.28321" lon="1.11926">
        <ele>62.6</ele>
        <time>2016-09-18T08:26:24Z</time>
      </trkpt>
      <trkpt lat="49.28331" lon="1.11923">
        <ele>62.2</ele>
        <time>2016-09-18T08:26:26Z</time>
      </trkpt>
      <trkpt lat="49.28346" lon="1.11926">
        <ele>61.8</ele>
        <time>2016-09-18T08:26:28Z</time>
      </trkpt>
      <trkpt lat="49.28347" lon="1.1191">
        <ele>61.2</ele>
        <time>2016-09-18T08:26:32Z</time>
      </trkpt>
      <trkpt lat="49.28348" lon="1.11896">
        <ele>60.9</ele>
        <time>2016-09-18T08:26:35Z</time>
      </trkpt>
      <trkpt lat="49.2835" lon="1.11879">
        <ele>60.8</ele>
        <time>2016-09-18T08:26:38Z</time>
      </trkpt>
      <trkpt lat="49.28349" lon="1.11861">
        <ele>60.7</ele>
        <time>2016-09-18T08:26:41Z</time>
      </trkpt>
      <trkpt lat="49.28352" lon="1.11843">
        <ele>60.9</ele>
        <time>2016-09-18T08:26:44Z</time>
      </trkpt>
      <trkpt lat="49.28351" lon="1.11829">
        <ele>61</ele>
        <time>2016-09-18T08:26:46Z</time>
      </trkpt>
      <trkpt lat="49.28348" lon="1.11813">
        <ele>61.1</ele>
        <time>2016-09-18T08:26:48Z</time>
      </trkpt>
      <trkpt lat="49.28345" lon="1.11799">
        <ele>61.2</ele>
        <time>2016-09-18T08:26:50Z</time>
      </trkpt>
      <trkpt lat="49.28342" lon="1.11785">
        <ele>61.5</ele>
        <time>2016-09-18T08:26:52Z</time>
      </trkpt>
      <trkpt lat="49.28338" lon="1.1177">
        <ele>61.7</ele>
        <time>2016-09-18T08:26:54Z</time>
      </trkpt>
      <trkpt lat="49.28334" lon="1.11755">
        <ele>62</ele>
        <time>2016-09-18T08:26:56Z</time>
      </trkpt>
      <trkpt lat="49.28332" lon="1.11736">
        <ele>62.6</ele>
        <time>2016-09-18T08:26:59Z</time>
      </trkpt>
      <trkpt lat="49.28331" lon="1.11717">
        <ele>63</ele>
        <time>2016-09-18T08:27:02Z</time>
      </trkpt>
      <trkpt lat="49.28326" lon="1.11701">
        <ele>63.3</ele>
        <time>2016-09-18T08:27:04Z</time>
      </trkpt>
      <trkpt lat="49.28323" lon="1.11682">
        <ele>63.9</ele>
        <time>2016-09-18T08:27:07Z</time>
      </trkpt>
      <trkpt lat="49.2832" lon="1.11663">
        <ele>64.4</ele>
        <time>2016-09-18T08:27:10Z</time>
      </trkpt>
      <trkpt lat="49.28316" lon="1.11645">
        <ele>65</ele>
        <time>2016-09-18T08:27:13Z</time>
      </trkpt>
      <trkpt lat="49.28315" lon="1.11626">
        <ele>65.6</ele>
        <time>2016-09-18T08:27:16Z</time>
      </trkpt>
      <trkpt lat="49.28315" lon="1.11607">
        <ele>66.1</ele>
        <time>2016-09-18T08:27:19Z</time>
      </trkpt>
      <trkpt lat="49.28314" lon="1.1159">
        <ele>66.5</ele>
        <time>2016-09-18T08:27:22Z</time>
      </trkpt>
      <trkpt lat="49.28316" lon="1.11576">
        <ele>66.9</ele>
        <time>2016-09-18T08:27:25Z</time>
      </trkpt>
      <trkpt lat="49.28316" lon="1.11556">
        <ele>67.3</ele>
        <time>2016-09-18T08:27:28Z</time>
      </trkpt>
      <trkpt lat="49.28317" lon="1.11538">
        <ele>67.6</ele>
        <time>2016-09-18T08:27:31Z</time>
      </trkpt>
      <trkpt lat="49.28317" lon="1.1152">
        <ele>67.9</ele>
        <time>2016-09-18T08:27:34Z</time>
      </trkpt>
      <trkpt lat="49.28318" lon="1.11503">
        <ele>68.2</ele>
        <time>2016-09-18T08:27:37Z</time>
      </trkpt>
      <trkpt lat="49.28319" lon="1.11487">
        <ele>68.4</ele>
        <time>2016-09-18T08:27:40Z</time>
      </trkpt>
      <trkpt lat="49.28322" lon="1.11468">
        <ele>68.7</ele>
        <time>2016-09-18T08:27:43Z</time>
      </trkpt>
      <trkpt lat="49.28323" lon="1.11451">
        <ele>69</ele>
        <time>2016-09-18T08:27:46Z</time>
      </trkpt>
      <trkpt lat="49.28325" lon="1.11434">
        <ele>69.3</ele>
        <time>2016-09-18T08:27:49Z</time>
      </trkpt>
      <trkpt lat="49.28325" lon="1.11416">
        <ele>69.7</ele>
        <time>2016-09-18T08:27:52Z</time>
      </trkpt>
      <trkpt lat="49.28325" lon="1.114">
        <ele>70</ele>
        <time>2016-09-18T08:27:55Z</time>
      </trkpt>
      <trkpt lat="49.28327" lon="1.11383">
        <ele>70.3</ele>
        <time>2016-09-18T08:27:58Z</time>
      </trkpt>
      <trkpt lat="49.28334" lon="1.11367">
        <ele>70.5</ele>
        <time>2016-09-18T08:28:01Z</time>
      </trkpt>
      <trkpt lat="49.28341" lon="1.11355">
        <ele>70.4</ele>
        <time>2016-09-18T08:28:03Z</time>
      </trkpt>
      <trkpt lat="49.2835" lon="1.11346">
        <ele>70.3</ele>
        <time>2016-09-18T08:28:05Z</time>
      </trkpt>
      <trkpt lat="49.28358" lon="1.11335">
        <ele>70.1</ele>
        <time>2016-09-18T08:28:07Z</time>
      </trkpt>
      <trkpt lat="49.28366" lon="1.11325">
        <ele>69.7</ele>
        <time>2016-09-18T08:28:09Z</time>
      </trkpt>
      <trkpt lat="49.28372" lon="1.11313">
        <ele>69.2</ele>
        <time>2016-09-18T08:28:11Z</time>
      </trkpt>
      <trkpt lat="49.28374" lon="1.11299">
        <ele>68.8</ele>
        <time>2016-09-18T08:28:13Z</time>
      </trkpt>
      <trkpt lat="49.28379" lon="1.11284">
        <ele>68.3</ele>
        <time>2016-09-18T08:28:16Z</time>
      </trkpt>
      <trkpt lat="49.28379" lon="1.11264">
        <ele>67.9</ele>
        <time>2016-09-18T08:28:19Z</time>
      </trkpt>
      <trkpt lat="49.28381" lon="1.11248">
        <ele>67.6</ele>
        <time>2016-09-18T08:28:22Z</time>
      </trkpt>
      <trkpt lat="49.28384" lon="1.11232">
        <ele>67.6</ele>
        <time>2016-09-18T08:28:25Z</time>
      </trkpt>
      <trkpt lat="49.28386" lon="1.11213">
        <ele>67.6</ele>
        <time>2016-09-18T08:28:28Z</time>
      </trkpt>
      <trkpt lat="49.28389" lon="1.11193">
        <ele>67.6</ele>
        <time>2016-09-18T08:28:31Z</time>
      </trkpt>
      <trkpt lat="49.28391" lon="1.11178">
        <ele>67.6</ele>
        <time>2016-09-18T08:28:33Z</time>
      </trkpt>
      <trkpt lat="49.28394" lon="1.11161">
        <ele>67.6</ele>
        <time>2016-09-18T08:28:35Z</time>
      </trkpt>
      <trkpt lat="49.28398" lon="1.11146">
        <ele>67.6</ele>
        <time>2016-09-18T08:28:37Z</time>
      </trkpt>
      <trkpt lat="49.284" lon="1.11132">
        <ele>67.7</ele>
        <time>2016-09-18T08:28:39Z</time>
      </trkpt>
      <trkpt lat="49.28402" lon="1.11115">
        <ele>67.7</ele>
        <time>2016-09-18T08:28:41Z</time>
      </trkpt>
      <trkpt lat="49.28405" lon="1.111">
        <ele>67.7</ele>
        <time>2016-09-18T08:28:43Z</time>
      </trkpt>
      <trkpt lat="49.28408" lon="1.11084">
        <ele>67.7</ele>
        <time>2016-09-18T08:28:45Z</time>
      </trkpt>
      <trkpt lat="49.28417" lon="1.11076">
        <ele>67.6</ele>
        <time>2016-09-18T08:28:47Z</time>
      </trkpt>
      <trkpt lat="49.28427" lon="1.11069">
        <ele>67.2</ele>
        <time>2016-09-18T08:28:50Z</time>
      </trkpt>
      <trkpt lat="49.28436" lon="1.11067">
        <ele>67</ele>
        <time>2016-09-18T08:28:52Z</time>
      </trkpt>
      <trkpt lat="49.28445" lon="1.11067">
        <ele>66.8</ele>
        <time>2016-09-18T08:28:54Z</time>
      </trkpt>
      <trkpt lat="49.28454" lon="1.11066">
        <ele>66.6</ele>
        <time>2016-09-18T08:28:56Z</time>
      </trkpt>
      <trkpt lat="49.28464" lon="1.11065">
        <ele>66.3</ele>
        <time>2016-09-18T08:28:58Z</time>
      </trkpt>
      <trkpt lat="49.28475" lon="1.11064">
        <ele>66</ele>
        <time>2016-09-18T08:29:00Z</time>
      </trkpt>
      <trkpt lat="49.28489" lon="1.11064">
        <ele>65.7</ele>
        <time>2016-09-18T08:29:02Z</time>
      </trkpt>
      <trkpt lat="49.285" lon="1.11064">
        <ele>65.2</ele>
        <time>2016-09-18T08:29:04Z</time>
      </trkpt>
      <trkpt lat="49.2851" lon="1.11052">
        <ele>64.5</ele>
        <time>2016-09-18T08:29:07Z</time>
      </trkpt>
      <trkpt lat="49.28515" lon="1.11031">
        <ele>63.9</ele>
        <time>2016-09-18T08:29:10Z</time>
      </trkpt>
      <trkpt lat="49.28518" lon="1.11014">
        <ele>63.6</ele>
        <time>2016-09-18T08:29:12Z</time>
      </trkpt>
      <trkpt lat="49.28519" lon="1.10996">
        <ele>63.3</ele>
        <time>2016-09-18T08:29:14Z</time>
      </trkpt>
      <trkpt lat="49.28522" lon="1.10978">
        <ele>63</ele>
        <time>2016-09-18T08:29:16Z</time>
      </trkpt>
      <trkpt lat="49.28524" lon="1.1096">
        <ele>62.8</ele>
        <time>2016-09-18T08:29:18Z</time>
      </trkpt>
      <trkpt lat="49.28526" lon="1.10942">
        <ele>62.5</ele>
        <time>2016-09-18T08:29:20Z</time>
      </trkpt>
      <trkpt lat="49.28528" lon="1.10923">
        <ele>62.3</ele>
        <time>2016-09-18T08:29:22Z</time>
      </trkpt>
      <trkpt lat="49.28531" lon="1.10907">
        <ele>62.1</ele>
        <time>2016-09-18T08:29:24Z</time>
      </trkpt>
      <trkpt lat="49.28527" lon="1.1089">
        <ele>61.7</ele>
        <time>2016-09-18T08:29:27Z</time>
      </trkpt>
      <trkpt lat="49.28516" lon="1.10886">
        <ele>61.4</ele>
        <time>2016-09-18T08:29:30Z</time>
      </trkpt>
      <trkpt lat="49.28504" lon="1.10883">
        <ele>61.2</ele>
        <time>2016-09-18T08:29:33Z</time>
      </trkpt>
      <trkpt lat="49.28494" lon="1.10882">
        <ele>61</ele>
        <time>2016-09-18T08:29:36Z</time>
      </trkpt>
      <trkpt lat="49.28481" lon="1.10879">
        <ele>61</ele>
        <time>2016-09-18T08:29:39Z</time>
      </trkpt>
      <trkpt lat="49.2847" lon="1.10877">
        <ele>61.2</ele>
        <time>2016-09-18T08:29:42Z</time>
      </trkpt>
      <trkpt lat="49.28459" lon="1.10873">
        <ele>61.3</ele>
        <time>2016-09-18T08:29:45Z</time>
      </trkpt>
      <trkpt lat="49.28447" lon="1.10871">
        <ele>61.6</ele>
        <time>2016-09-18T08:29:48Z</time>
      </trkpt>
      <trkpt lat="49.28437" lon="1.10868">
        <ele>62</ele>
        <time>2016-09-18T08:29:51Z</time>
      </trkpt>
      <trkpt lat="49.28424" lon="1.10865">
        <ele>62.3</ele>
        <time>2016-09-18T08:29:54Z</time>
      </trkpt>
      <trkpt lat="49.28412" lon="1.1086">
        <ele>62.7</ele>
        <time>2016-09-18T08:29:57Z</time>
      </trkpt>
      <trkpt lat="49.28402" lon="1.10859">
        <ele>63.1</ele>
        <time>2016-09-18T08:30:00Z</time>
      </trkpt>
      <trkpt lat="49.28393" lon="1.10858">
        <ele>63.5</ele>
        <time>2016-09-18T08:30:03Z</time>
      </trkpt>
      <trkpt lat="49.28381" lon="1.10856">
        <ele>64</ele>
        <time>2016-09-18T08:30:06Z</time>
      </trkpt>
      <trkpt lat="49.28371" lon="1.10853">
        <ele>64.5</ele>
        <time>2016-09-18T08:30:09Z</time>
      </trkpt>
      <trkpt lat="49.28361" lon="1.1085">
        <ele>65.1</ele>
        <time>2016-09-18T08:30:12Z</time>
      </trkpt>
      <trkpt lat="49.2835" lon="1.10848">
        <ele>65.7</ele>
        <time>2016-09-18T08:30:15Z</time>
      </trkpt>
      <trkpt lat="49.28341" lon="1.10845">
        <ele>66.3</ele>
        <time>2016-09-18T08:30:18Z</time>
      </trkpt>
      <trkpt lat="49.2833" lon="1.10842">
        <ele>66.9</ele>
        <time>2016-09-18T08:30:21Z</time>
      </trkpt>
      <trkpt lat="49.28321" lon="1.1084">
        <ele>67.5</ele>
        <time>2016-09-18T08:30:24Z</time>
      </trkpt>
      <trkpt lat="49.28311" lon="1.10839">
        <ele>68.1</ele>
        <time>2016-09-18T08:30:27Z</time>
      </trkpt>
      <trkpt lat="49.28299" lon="1.10837">
        <ele>68.8</ele>
        <time>2016-09-18T08:30:31Z</time>
      </trkpt>
      <trkpt lat="49.2829" lon="1.10835">
        <ele>69.3</ele>
        <time>2016-09-18T08:30:34Z</time>
      </trkpt>
      <trkpt lat="49.28281" lon="1.10833">
        <ele>69.8</ele>
        <time>2016-09-18T08:30:37Z</time>
      </trkpt>
      <trkpt lat="49.2827" lon="1.10831">
        <ele>70.6</ele>
        <time>2016-09-18T08:30:41Z</time>
      </trkpt>
      <trkpt lat="49.28259" lon="1.10828">
        <ele>71.5</ele>
        <time>2016-09-18T08:30:45Z</time>
      </trkpt>
      <trkpt lat="49.28249" lon="1.10826">
        <ele>72.2</ele>
        <time>2016-09-18T08:30:49Z</time>
      </trkpt>
      <trkpt lat="49.2824" lon="1.10825">
        <ele>73</ele>
        <time>2016-09-18T08:30:53Z</time>
      </trkpt>
      <trkpt lat="49.2823" lon="1.10823">
        <ele>73.9</ele>
        <time>2016-09-18T08:30:57Z</time>
      </trkpt>
      <trkpt lat="49.2822" lon="1.10823">
        <ele>74.8</ele>
        <time>2016-09-18T08:31:02Z</time>
      </trkpt>
      <trkpt lat="49.2821" lon="1.10819">
        <ele>75.6</ele>
        <time>2016-09-18T08:31:06Z</time>
      </trkpt>
      <trkpt lat="49.28201" lon="1.1082">
        <ele>76.4</ele>
        <time>2016-09-18T08:31:10Z</time>
      </trkpt>
      <trkpt lat="49.28198" lon="1.10836">
        <ele>77.1</ele>
        <time>2016-09-18T08:31:14Z</time>
      </trkpt>
      <trkpt lat="49.28196" lon="1.1085">
        <ele>77.5</ele>
        <time>2016-09-18T08:31:17Z</time>
      </trkpt>
      <trkpt lat="49.28193" lon="1.10865">
        <ele>77.9</ele>
        <time>2016-09-18T08:31:20Z</time>
      </trkpt>
      <trkpt lat="49.28191" lon="1.10881">
        <ele>78.3</ele>
        <time>2016-09-18T08:31:23Z</time>
      </trkpt>
      <trkpt lat="49.28188" lon="1.10896">
        <ele>78.8</ele>
        <time>2016-09-18T08:31:26Z</time>
      </trkpt>
      <trkpt lat="49.28186" lon="1.10912">
        <ele>79.2</ele>
        <time>2016-09-18T08:31:29Z</time>
      </trkpt>
      <trkpt lat="49.28183" lon="1.1093">
        <ele>79.6</ele>
        <time>2016-09-18T08:31:32Z</time>
      </trkpt>
      <trkpt lat="49.2818" lon="1.10946">
        <ele>80</ele>
        <time>2016-09-18T08:31:35Z</time>
      </trkpt>
      <trkpt lat="49.28178" lon="1.10964">
        <ele>80.4</ele>
        <time>2016-09-18T08:31:38Z</time>
      </trkpt>
      <trkpt lat="49.28175" lon="1.10982">
        <ele>80.6</ele>
        <time>2016-09-18T08:31:41Z</time>
      </trkpt>
      <trkpt lat="49.28172" lon="1.11001">
        <ele>80.9</ele>
        <time>2016-09-18T08:31:44Z</time>
      </trkpt>
      <trkpt lat="49.2817" lon="1.11019">
        <ele>81.1</ele>
        <time>2016-09-18T08:31:47Z</time>
      </trkpt>
      <trkpt lat="49.28167" lon="1.11037">
        <ele>81.3</ele>
        <time>2016-09-18T08:31:50Z</time>
      </trkpt>
      <trkpt lat="49.28164" lon="1.11055">
        <ele>81.4</ele>
        <time>2016-09-18T08:31:53Z</time>
      </trkpt>
      <trkpt lat="49.28162" lon="1.11075">
        <ele>81.6</ele>
        <time>2016-09-18T08:31:56Z</time>
      </trkpt>
      <trkpt lat="49.2816" lon="1.11095">
        <ele>81.7</ele>
        <time>2016-09-18T08:31:59Z</time>
      </trkpt>
      <trkpt lat="49.28156" lon="1.11115">
        <ele>81.8</ele>
        <time>2016-09-18T08:32:02Z</time>
      </trkpt>
      <trkpt lat="49.28154" lon="1.11129">
        <ele>81.9</ele>
        <time>2016-09-18T08:32:04Z</time>
      </trkpt>
      <trkpt lat="49.28153" lon="1.11143">
        <ele>82</ele>
        <time>2016-09-18T08:32:06Z</time>
      </trkpt>
      <trkpt lat="49.28151" lon="1.11157">
        <ele>82.1</ele>
        <time>2016-09-18T08:32:08Z</time>
      </trkpt>
      <trkpt lat="49.2815" lon="1.11171">
        <ele>82.1</ele>
        <time>2016-09-18T08:32:10Z</time>
      </trkpt>
      <trkpt lat="49.28148" lon="1.11185">
        <ele>82.2</ele>
        <time>2016-09-18T08:32:12Z</time>
      </trkpt>
      <trkpt lat="49.28146" lon="1.112">
        <ele>82.2</ele>
        <time>2016-09-18T08:32:14Z</time>
      </trkpt>
      <trkpt lat="49.28144" lon="1.11215">
        <ele>82.3</ele>
        <time>2016-09-18T08:32:16Z</time>
      </trkpt>
      <trkpt lat="49.28142" lon="1.11229">
        <ele>82.4</ele>
        <time>2016-09-18T08:32:18Z</time>
      </trkpt>
      <trkpt lat="49.2814" lon="1.11243">
        <ele>82.4</ele>
        <time>2016-09-18T08:32:20Z</time>
      </trkpt>
      <trkpt lat="49.28138" lon="1.11258">
        <ele>82.4</ele>
        <time>2016-09-18T08:32:22Z</time>
      </trkpt>
      <trkpt lat="49.28137" lon="1.11271">
        <ele>82.5</ele>
        <time>2016-09-18T08:32:24Z</time>
      </trkpt>
      <trkpt lat="49.28136" lon="1.11285">
        <ele>82.5</ele>
        <time>2016-09-18T08:32:26Z</time>
      </trkpt>
      <trkpt lat="49.28134" lon="1.11299">
        <ele>82.6</ele>
        <time>2016-09-18T08:32:28Z</time>
      </trkpt>
      <trkpt lat="49.28132" lon="1.11313">
        <ele>82.7</ele>
        <time>2016-09-18T08:32:30Z</time>
      </trkpt>
      <trkpt lat="49.28131" lon="1.11328">
        <ele>82.8</ele>
        <time>2016-09-18T08:32:32Z</time>
      </trkpt>
      <trkpt lat="49.28129" lon="1.11343">
        <ele>82.9</ele>
        <time>2016-09-18T08:32:34Z</time>
      </trkpt>
      <trkpt lat="49.28128" lon="1.11357">
        <ele>83</ele>
        <time>2016-09-18T08:32:36Z</time>
      </trkpt>
      <trkpt lat="49.28126" lon="1.11372">
        <ele>83</ele>
        <time>2016-09-18T08:32:38Z</time>
      </trkpt>
      <trkpt lat="49.28125" lon="1.11386">
        <ele>83.1</ele>
        <time>2016-09-18T08:32:40Z</time>
      </trkpt>
      <trkpt lat="49.28123" lon="1.11401">
        <ele>83.2</ele>
        <time>2016-09-18T08:32:42Z</time>
      </trkpt>
      <trkpt lat="49.28122" lon="1.11416">
        <ele>83.2</ele>
        <time>2016-09-18T08:32:44Z</time>
      </trkpt>
      <trkpt lat="49.2812" lon="1.11431">
        <ele>83.3</ele>
        <time>2016-09-18T08:32:46Z</time>
      </trkpt>
      <trkpt lat="49.28118" lon="1.11445">
        <ele>83.3</ele>
        <time>2016-09-18T08:32:48Z</time>
      </trkpt>
      <trkpt lat="49.28117" lon="1.1146">
        <ele>83.2</ele>
        <time>2016-09-18T08:32:50Z</time>
      </trkpt>
      <trkpt lat="49.28115" lon="1.11475">
        <ele>83.1</ele>
        <time>2016-09-18T08:32:52Z</time>
      </trkpt>
      <trkpt lat="49.28113" lon="1.11492">
        <ele>82.9</ele>
        <time>2016-09-18T08:32:54Z</time>
      </trkpt>
      <trkpt lat="49.28112" lon="1.11509">
        <ele>82.6</ele>
        <time>2016-09-18T08:32:56Z</time>
      </trkpt>
      <trkpt lat="49.2811" lon="1.11524">
        <ele>82.3</ele>
        <time>2016-09-18T08:32:58Z</time>
      </trkpt>
      <trkpt lat="49.281" lon="1.11522">
        <ele>81.3</ele>
        <time>2016-09-18T08:33:04Z</time>
      </trkpt>
      <trkpt lat="49.28095" lon="1.1151">
        <ele>80.9</ele>
        <time>2016-09-18T08:33:07Z</time>
      </trkpt>
      <trkpt lat="49.28088" lon="1.11498">
        <ele>80.5</ele>
        <time>2016-09-18T08:33:11Z</time>
      </trkpt>
      <trkpt lat="49.28082" lon="1.11485">
        <ele>80.5</ele>
        <time>2016-09-18T08:33:15Z</time>
      </trkpt>
      <trkpt lat="49.28076" lon="1.11473">
        <ele>80.5</ele>
        <time>2016-09-18T08:33:19Z</time>
      </trkpt>
      <trkpt lat="49.2807" lon="1.11461">
        <ele>80.7</ele>
        <time>2016-09-18T08:33:23Z</time>
      </trkpt>
      <trkpt lat="49.28064" lon="1.11447">
        <ele>81</ele>
        <time>2016-09-18T08:33:28Z</time>
      </trkpt>
      <trkpt lat="49.28059" lon="1.11433">
        <ele>81.6</ele>
        <time>2016-09-18T08:33:33Z</time>
      </trkpt>
      <trkpt lat="49.28055" lon="1.11419">
        <ele>82.4</ele>
        <time>2016-09-18T08:33:39Z</time>
      </trkpt>
      <trkpt lat="49.2805" lon="1.11405">
        <ele>83</ele>
        <time>2016-09-18T08:33:44Z</time>
      </trkpt>
      <trkpt lat="49.28046" lon="1.11391">
        <ele>83.7</ele>
        <time>2016-09-18T08:33:49Z</time>
      </trkpt>
      <trkpt lat="49.28042" lon="1.11376">
        <ele>84.6</ele>
        <time>2016-09-18T08:33:54Z</time>
      </trkpt>
      <trkpt lat="49.28039" lon="1.11362">
        <ele>85.4</ele>
        <time>2016-09-18T08:33:59Z</time>
      </trkpt>
      <trkpt lat="49.28036" lon="1.11349">
        <ele>86.3</ele>
        <time>2016-09-18T08:34:04Z</time>
      </trkpt>
      <trkpt lat="49.28032" lon="1.11334">
        <ele>87.4</ele>
        <time>2016-09-18T08:34:10Z</time>
      </trkpt>
      <trkpt lat="49.28028" lon="1.11319">
        <ele>88.2</ele>
        <time>2016-09-18T08:34:15Z</time>
      </trkpt>
      <trkpt lat="49.28023" lon="1.11304">
        <ele>89.1</ele>
        <time>2016-09-18T08:34:20Z</time>
      </trkpt>
      <trkpt lat="49.28018" lon="1.11292">
        <ele>89.8</ele>
        <time>2016-09-18T08:34:24Z</time>
      </trkpt>
      <trkpt lat="49.28011" lon="1.11281">
        <ele>90.5</ele>
        <time>2016-09-18T08:34:28Z</time>
      </trkpt>
      <trkpt lat="49.28004" lon="1.11269">
        <ele>91.5</ele>
        <time>2016-09-18T08:34:33Z</time>
      </trkpt>
      <trkpt lat="49.27996" lon="1.1126">
        <ele>92.3</ele>
        <time>2016-09-18T08:34:37Z</time>
      </trkpt>
      <trkpt lat="49.27988" lon="1.1125">
        <ele>93.3</ele>
        <time>2016-09-18T08:34:42Z</time>
      </trkpt>
      <trkpt lat="49.2798" lon="1.1124">
        <ele>94.3</ele>
        <time>2016-09-18T08:34:47Z</time>
      </trkpt>
      <trkpt lat="49.27971" lon="1.11231">
        <ele>95.3</ele>
        <time>2016-09-18T08:34:52Z</time>
      </trkpt>
      <trkpt lat="49.27962" lon="1.11226">
        <ele>96.3</ele>
        <time>2016-09-18T08:34:57Z</time>
      </trkpt>
      <trkpt lat="49.27953" lon="1.1122">
        <ele>97.3</ele>
        <time>2016-09-18T08:35:02Z</time>
      </trkpt>
      <trkpt lat="49.27945" lon="1.11211">
        <ele>98.4</ele>
        <time>2016-09-18T08:35:08Z</time>
      </trkpt>
      <trkpt lat="49.27938" lon="1.112">
        <ele>99.6</ele>
        <time>2016-09-18T08:35:14Z</time>
      </trkpt>
      <trkpt lat="49.27929" lon="1.1119">
        <ele>100.5</ele>
        <time>2016-09-18T08:35:19Z</time>
      </trkpt>
      <trkpt lat="49.27921" lon="1.11179">
        <ele>101.5</ele>
        <time>2016-09-18T08:35:24Z</time>
      </trkpt>
      <trkpt lat="49.27914" lon="1.11169">
        <ele>102.2</ele>
        <time>2016-09-18T08:35:28Z</time>
      </trkpt>
      <trkpt lat="49.27908" lon="1.11159">
        <ele>102.9</ele>
        <time>2016-09-18T08:35:32Z</time>
      </trkpt>
      <trkpt lat="49.279" lon="1.11149">
        <ele>103.7</ele>
        <time>2016-09-18T08:35:36Z</time>
      </trkpt>
      <trkpt lat="49.27893" lon="1.11138">
        <ele>104.6</ele>
        <time>2016-09-18T08:35:41Z</time>
      </trkpt>
      <trkpt lat="49.27885" lon="1.11127">
        <ele>105.4</ele>
        <time>2016-09-18T08:35:46Z</time>
      </trkpt>
      <trkpt lat="49.27878" lon="1.11116">
        <ele>106.1</ele>
        <time>2016-09-18T08:35:50Z</time>
      </trkpt>
      <trkpt lat="49.27874" lon="1.11102">
        <ele>107.1</ele>
        <time>2016-09-18T08:35:55Z</time>
      </trkpt>
      <trkpt lat="49.27867" lon="1.1109">
        <ele>107.9</ele>
        <time>2016-09-18T08:35:59Z</time>
      </trkpt>
      <trkpt lat="49.2786" lon="1.11076">
        <ele>108.7</ele>
        <time>2016-09-18T08:36:03Z</time>
      </trkpt>
      <trkpt lat="49.27853" lon="1.11062">
        <ele>109.5</ele>
        <time>2016-09-18T08:36:07Z</time>
      </trkpt>
      <trkpt lat="49.27847" lon="1.11046">
        <ele>110.3</ele>
        <time>2016-09-18T08:36:11Z</time>
      </trkpt>
      <trkpt lat="49.27843" lon="1.11033">
        <ele>110.8</ele>
        <time>2016-09-18T08:36:14Z</time>
      </trkpt>
      <trkpt lat="49.27841" lon="1.1102">
        <ele>111.4</ele>
        <time>2016-09-18T08:36:17Z</time>
      </trkpt>
      <trkpt lat="49.27838" lon="1.11002">
        <ele>112.2</ele>
        <time>2016-09-18T08:36:21Z</time>
      </trkpt>
      <trkpt lat="49.27835" lon="1.10988">
        <ele>112.8</ele>
        <time>2016-09-18T08:36:24Z</time>
      </trkpt>
      <trkpt lat="49.27831" lon="1.10975">
        <ele>113.5</ele>
        <time>2016-09-18T08:36:27Z</time>
      </trkpt>
      <trkpt lat="49.27827" lon="1.10961">
        <ele>114.2</ele>
        <time>2016-09-18T08:36:30Z</time>
      </trkpt>
      <trkpt lat="49.27822" lon="1.10947">
        <ele>114.7</ele>
        <time>2016-09-18T08:36:33Z</time>
      </trkpt>
      <trkpt lat="49.27818" lon="1.10933">
        <ele>115.2</ele>
        <time>2016-09-18T08:36:36Z</time>
      </trkpt>
      <trkpt lat="49.27814" lon="1.10918">
        <ele>115.5</ele>
        <time>2016-09-18T08:36:39Z</time>
      </trkpt>
      <trkpt lat="49.27811" lon="1.10902">
        <ele>115.9</ele>
        <time>2016-09-18T08:36:42Z</time>
      </trkpt>
      <trkpt lat="49.27809" lon="1.10886">
        <ele>116.2</ele>
        <time>2016-09-18T08:36:45Z</time>
      </trkpt>
      <trkpt lat="49.27808" lon="1.10869">
        <ele>116.4</ele>
        <time>2016-09-18T08:36:48Z</time>
      </trkpt>
      <trkpt lat="49.27807" lon="1.10851">
        <ele>116.7</ele>
        <time>2016-09-18T08:36:51Z</time>
      </trkpt>
      <trkpt lat="49.27807" lon="1.10834">
        <ele>117</ele>
        <time>2016-09-18T08:36:54Z</time>
      </trkpt>
      <trkpt lat="49.27808" lon="1.10817">
        <ele>117.2</ele>
        <time>2016-09-18T08:36:57Z</time>
      </trkpt>
      <trkpt lat="49.27809" lon="1.10797">
        <ele>117.5</ele>
        <time>2016-09-18T08:37:00Z</time>
      </trkpt>
      <trkpt lat="49.27809" lon="1.10777">
        <ele>117.7</ele>
        <time>2016-09-18T08:37:03Z</time>
      </trkpt>
      <trkpt lat="49.27809" lon="1.10757">
        <ele>118.1</ele>
        <time>2016-09-18T08:37:06Z</time>
      </trkpt>
      <trkpt lat="49.27808" lon="1.10737">
        <ele>118.3</ele>
        <time>2016-09-18T08:37:09Z</time>
      </trkpt>
      <trkpt lat="49.27806" lon="1.10717">
        <ele>118.6</ele>
        <time>2016-09-18T08:37:12Z</time>
      </trkpt>
      <trkpt lat="49.27804" lon="1.10699">
        <ele>118.7</ele>
        <time>2016-09-18T08:37:15Z</time>
      </trkpt>
      <trkpt lat="49.278" lon="1.10686">
        <ele>119</ele>
        <time>2016-09-18T08:37:18Z</time>
      </trkpt>
      <trkpt lat="49.27794" lon="1.10675">
        <ele>119.3</ele>
        <time>2016-09-18T08:37:22Z</time>
      </trkpt>
      <trkpt lat="49.27789" lon="1.10691">
        <ele>120.3</ele>
        <time>2016-09-18T08:38:21Z</time>
      </trkpt>
      <trkpt lat="49.27789" lon="1.10705">
        <ele>120.3</ele>
        <time>2016-09-18T08:38:24Z</time>
      </trkpt>
      <trkpt lat="49.27787" lon="1.10721">
        <ele>120.2</ele>
        <time>2016-09-18T08:38:27Z</time>
      </trkpt>
      <trkpt lat="49.27784" lon="1.10739">
        <ele>120.2</ele>
        <time>2016-09-18T08:38:30Z</time>
      </trkpt>
      <trkpt lat="49.27781" lon="1.10757">
        <ele>120.1</ele>
        <time>2016-09-18T08:38:33Z</time>
      </trkpt>
      <trkpt lat="49.27779" lon="1.10777">
        <ele>120.1</ele>
        <time>2016-09-18T08:38:36Z</time>
      </trkpt>
      <trkpt lat="49.27776" lon="1.10797">
        <ele>120.1</ele>
        <time>2016-09-18T08:38:39Z</time>
      </trkpt>
      <trkpt lat="49.27774" lon="1.10812">
        <ele>120</ele>
        <time>2016-09-18T08:38:41Z</time>
      </trkpt>
      <trkpt lat="49.27773" lon="1.10829">
        <ele>119.9</ele>
        <time>2016-09-18T08:38:43Z</time>
      </trkpt>
      <trkpt lat="49.27771" lon="1.10846">
        <ele>119.7</ele>
        <time>2016-09-18T08:38:45Z</time>
      </trkpt>
      <trkpt lat="49.2777" lon="1.10864">
        <ele>119.5</ele>
        <time>2016-09-18T08:38:47Z</time>
      </trkpt>
      <trkpt lat="49.27769" lon="1.10883">
        <ele>119.3</ele>
        <time>2016-09-18T08:38:49Z</time>
      </trkpt>
      <trkpt lat="49.27768" lon="1.10903">
        <ele>119</ele>
        <time>2016-09-18T08:38:51Z</time>
      </trkpt>
      <trkpt lat="49.27766" lon="1.10921">
        <ele>118.7</ele>
        <time>2016-09-18T08:38:53Z</time>
      </trkpt>
      <trkpt lat="49.27765" lon="1.10939">
        <ele>118.5</ele>
        <time>2016-09-18T08:38:55Z</time>
      </trkpt>
      <trkpt lat="49.27763" lon="1.1096">
        <ele>118.1</ele>
        <time>2016-09-18T08:38:57Z</time>
      </trkpt>
      <trkpt lat="49.27761" lon="1.10981">
        <ele>117.8</ele>
        <time>2016-09-18T08:38:59Z</time>
      </trkpt>
      <trkpt lat="49.27758" lon="1.11002">
        <ele>117.2</ele>
        <time>2016-09-18T08:39:01Z</time>
      </trkpt>
      <trkpt lat="49.27757" lon="1.11023">
        <ele>116.5</ele>
        <time>2016-09-18T08:39:03Z</time>
      </trkpt>
      <trkpt lat="49.27754" lon="1.11044">
        <ele>115.9</ele>
        <time>2016-09-18T08:39:05Z</time>
      </trkpt>
      <trkpt lat="49.27753" lon="1.11067">
        <ele>115</ele>
        <time>2016-09-18T08:39:07Z</time>
      </trkpt>
      <trkpt lat="49.27752" lon="1.11089">
        <ele>114</ele>
        <time>2016-09-18T08:39:09Z</time>
      </trkpt>
      <trkpt lat="49.27749" lon="1.11111">
        <ele>112.9</ele>
        <time>2016-09-18T08:39:11Z</time>
      </trkpt>
      <trkpt lat="49.27747" lon="1.1113">
        <ele>111.2</ele>
        <time>2016-09-18T08:39:13Z</time>
      </trkpt>
      <trkpt lat="49.27744" lon="1.1115">
        <ele>109.8</ele>
        <time>2016-09-18T08:39:15Z</time>
      </trkpt>
      <trkpt lat="49.27741" lon="1.11173">
        <ele>108.3</ele>
        <time>2016-09-18T08:39:17Z</time>
      </trkpt>
      <trkpt lat="49.27735" lon="1.11193">
        <ele>106.9</ele>
        <time>2016-09-18T08:39:19Z</time>
      </trkpt>
      <trkpt lat="49.27731" lon="1.11209">
        <ele>105.7</ele>
        <time>2016-09-18T08:39:21Z</time>
      </trkpt>
      <trkpt lat="49.27729" lon="1.11224">
        <ele>104.6</ele>
        <time>2016-09-18T08:39:23Z</time>
      </trkpt>
      <trkpt lat="49.27725" lon="1.11237">
        <ele>103.7</ele>
        <time>2016-09-18T08:39:25Z</time>
      </trkpt>
      <trkpt lat="49.27725" lon="1.11258">
        <ele>102.6</ele>
        <time>2016-09-18T08:39:28Z</time>
      </trkpt>
      <trkpt lat="49.27724" lon="1.11272">
        <ele>101.9</ele>
        <time>2016-09-18T08:39:31Z</time>
      </trkpt>
      <trkpt lat="49.27714" lon="1.11274">
        <ele>99.9</ele>
        <time>2016-09-18T08:40:28Z</time>
      </trkpt>
      <trkpt lat="49.27705" lon="1.11264">
        <ele>100.5</ele>
        <time>2016-09-18T08:40:34Z</time>
      </trkpt>
      <trkpt lat="49.27696" lon="1.11256">
        <ele>101.1</ele>
        <time>2016-09-18T08:40:39Z</time>
      </trkpt>
      <trkpt lat="49.27687" lon="1.11248">
        <ele>101.7</ele>
        <time>2016-09-18T08:40:43Z</time>
      </trkpt>
      <trkpt lat="49.27679" lon="1.11237">
        <ele>102.5</ele>
        <time>2016-09-18T08:40:48Z</time>
      </trkpt>
      <trkpt lat="49.27671" lon="1.11227">
        <ele>103.4</ele>
        <time>2016-09-18T08:40:53Z</time>
      </trkpt>
      <trkpt lat="49.27663" lon="1.11219">
        <ele>104.2</ele>
        <time>2016-09-18T08:40:57Z</time>
      </trkpt>
      <trkpt lat="49.27656" lon="1.1121">
        <ele>105.1</ele>
        <time>2016-09-18T08:41:02Z</time>
      </trkpt>
      <trkpt lat="49.27648" lon="1.112">
        <ele>106.3</ele>
        <time>2016-09-18T08:41:07Z</time>
      </trkpt>
      <trkpt lat="49.2764" lon="1.1119">
        <ele>107.5</ele>
        <time>2016-09-18T08:41:12Z</time>
      </trkpt>
      <trkpt lat="49.27631" lon="1.1118">
        <ele>108.4</ele>
        <time>2016-09-18T08:41:16Z</time>
      </trkpt>
      <trkpt lat="49.27623" lon="1.1117">
        <ele>109.6</ele>
        <time>2016-09-18T08:41:21Z</time>
      </trkpt>
      <trkpt lat="49.27614" lon="1.11161">
        <ele>110.5</ele>
        <time>2016-09-18T08:41:25Z</time>
      </trkpt>
      <trkpt lat="49.27607" lon="1.11151">
        <ele>111.4</ele>
        <time>2016-09-18T08:41:29Z</time>
      </trkpt>
      <trkpt lat="49.276" lon="1.11141">
        <ele>112.2</ele>
        <time>2016-09-18T08:41:33Z</time>
      </trkpt>
      <trkpt lat="49.27592" lon="1.11132">
        <ele>113</ele>
        <time>2016-09-18T08:41:37Z</time>
      </trkpt>
      <trkpt lat="49.27583" lon="1.11122">
        <ele>113.7</ele>
        <time>2016-09-18T08:41:41Z</time>
      </trkpt>
      <trkpt lat="49.27576" lon="1.11113">
        <ele>114.4</ele>
        <time>2016-09-18T08:41:45Z</time>
      </trkpt>
      <trkpt lat="49.27568" lon="1.11103">
        <ele>115</ele>
        <time>2016-09-18T08:41:49Z</time>
      </trkpt>
      <trkpt lat="49.27559" lon="1.11093">
        <ele>115.5</ele>
        <time>2016-09-18T08:41:52Z</time>
      </trkpt>
      <trkpt lat="49.27551" lon="1.11085">
        <ele>115.9</ele>
        <time>2016-09-18T08:41:55Z</time>
      </trkpt>
      <trkpt lat="49.27542" lon="1.11073">
        <ele>116.4</ele>
        <time>2016-09-18T08:41:59Z</time>
      </trkpt>
      <trkpt lat="49.27534" lon="1.11063">
        <ele>116.9</ele>
        <time>2016-09-18T08:42:03Z</time>
      </trkpt>
      <trkpt lat="49.27525" lon="1.11053">
        <ele>117.3</ele>
        <time>2016-09-18T08:42:07Z</time>
      </trkpt>
      <trkpt lat="49.27521" lon="1.11038">
        <ele>117.5</ele>
        <time>2016-09-18T08:42:10Z</time>
      </trkpt>
      <trkpt lat="49.2752" lon="1.11024">
        <ele>117.7</ele>
        <time>2016-09-18T08:42:13Z</time>
      </trkpt>
      <trkpt lat="49.27518" lon="1.11006">
        <ele>118</ele>
        <time>2016-09-18T08:42:17Z</time>
      </trkpt>
      <trkpt lat="49.27515" lon="1.10991">
        <ele>118.2</ele>
        <time>2016-09-18T08:42:20Z</time>
      </trkpt>
      <trkpt lat="49.27511" lon="1.10977">
        <ele>118.4</ele>
        <time>2016-09-18T08:42:23Z</time>
      </trkpt>
      <trkpt lat="49.27508" lon="1.10963">
        <ele>118.6</ele>
        <time>2016-09-18T08:42:26Z</time>
      </trkpt>
      <trkpt lat="49.27505" lon="1.10944">
        <ele>118.9</ele>
        <time>2016-09-18T08:42:30Z</time>
      </trkpt>
      <trkpt lat="49.275" lon="1.10927">
        <ele>119.1</ele>
        <time>2016-09-18T08:42:33Z</time>
      </trkpt>
      <trkpt lat="49.27496" lon="1.10915">
        <ele>119.1</ele>
        <time>2016-09-18T08:42:35Z</time>
      </trkpt>
      <trkpt lat="49.27492" lon="1.10895">
        <ele>119.3</ele>
        <time>2016-09-18T08:42:38Z</time>
      </trkpt>
      <trkpt lat="49.27489" lon="1.10882">
        <ele>119.3</ele>
        <time>2016-09-18T08:42:40Z</time>
      </trkpt>
      <trkpt lat="49.27487" lon="1.10865">
        <ele>119.4</ele>
        <time>2016-09-18T08:42:43Z</time>
      </trkpt>
      <trkpt lat="49.27484" lon="1.10852">
        <ele>119.5</ele>
        <time>2016-09-18T08:42:45Z</time>
      </trkpt>
      <trkpt lat="49.27485" lon="1.10832">
        <ele>119.6</ele>
        <time>2016-09-18T08:42:48Z</time>
      </trkpt>
      <trkpt lat="49.27493" lon="1.10817">
        <ele>119.6</ele>
        <time>2016-09-18T08:42:51Z</time>
      </trkpt>
      <trkpt lat="49.27503" lon="1.10804">
        <ele>119.7</ele>
        <time>2016-09-18T08:42:54Z</time>
      </trkpt>
      <trkpt lat="49.27516" lon="1.10794">
        <ele>119.7</ele>
        <time>2016-09-18T08:42:57Z</time>
      </trkpt>
      <trkpt lat="49.27528" lon="1.10783">
        <ele>119.7</ele>
        <time>2016-09-18T08:43:00Z</time>
      </trkpt>
      <trkpt lat="49.27539" lon="1.10771">
        <ele>119.8</ele>
        <time>2016-09-18T08:43:03Z</time>
      </trkpt>
      <trkpt lat="49.27549" lon="1.10758">
        <ele>119.8</ele>
        <time>2016-09-18T08:43:06Z</time>
      </trkpt>
      <trkpt lat="49.27559" lon="1.10749">
        <ele>119.8</ele>
        <time>2016-09-18T08:43:09Z</time>
      </trkpt>
      <trkpt lat="49.27568" lon="1.10742">
        <ele>119.7</ele>
        <time>2016-09-18T08:43:11Z</time>
      </trkpt>
      <trkpt lat="49.27579" lon="1.10735">
        <ele>119.5</ele>
        <time>2016-09-18T08:43:13Z</time>
      </trkpt>
      <trkpt lat="49.27587" lon="1.10726">
        <ele>119.3</ele>
        <time>2016-09-18T08:43:15Z</time>
      </trkpt>
      <trkpt lat="49.27596" lon="1.10718">
        <ele>119.1</ele>
        <time>2016-09-18T08:43:17Z</time>
      </trkpt>
      <trkpt lat="49.27607" lon="1.10708">
        <ele>119</ele>
        <time>2016-09-18T08:43:20Z</time>
      </trkpt>
      <trkpt lat="49.27618" lon="1.10698">
        <ele>119</ele>
        <time>2016-09-18T08:43:23Z</time>
      </trkpt>
      <trkpt lat="49.27629" lon="1.10693">
        <ele>119</ele>
        <time>2016-09-18T08:43:26Z</time>
      </trkpt>
      <trkpt lat="49.27641" lon="1.10689">
        <ele>119</ele>
        <time>2016-09-18T08:43:29Z</time>
      </trkpt>
      <trkpt lat="49.27653" lon="1.1068">
        <ele>119</ele>
        <time>2016-09-18T08:43:32Z</time>
      </trkpt>
      <trkpt lat="49.27664" lon="1.10673">
        <ele>119</ele>
        <time>2016-09-18T08:43:35Z</time>
      </trkpt>
      <trkpt lat="49.27677" lon="1.10666">
        <ele>119</ele>
        <time>2016-09-18T08:43:38Z</time>
      </trkpt>
      <trkpt lat="49.27691" lon="1.10658">
        <ele>119.1</ele>
        <time>2016-09-18T08:43:41Z</time>
      </trkpt>
      <trkpt lat="49.27699" lon="1.10653">
        <ele>119.2</ele>
        <time>2016-09-18T08:43:43Z</time>
      </trkpt>
      <trkpt lat="49.27708" lon="1.10648">
        <ele>119.3</ele>
        <time>2016-09-18T08:43:45Z</time>
      </trkpt>
      <trkpt lat="49.27717" lon="1.10643">
        <ele>119.3</ele>
        <time>2016-09-18T08:43:47Z</time>
      </trkpt>
      <trkpt lat="49.27731" lon="1.10642">
        <ele>119.4</ele>
        <time>2016-09-18T08:43:50Z</time>
      </trkpt>
      <trkpt lat="49.27739" lon="1.1065">
        <ele>119.5</ele>
        <time>2016-09-18T08:43:52Z</time>
      </trkpt>
      <trkpt lat="49.27749" lon="1.10657">
        <ele>119.6</ele>
        <time>2016-09-18T08:43:54Z</time>
      </trkpt>
      <trkpt lat="49.27758" lon="1.10663">
        <ele>119.6</ele>
        <time>2016-09-18T08:43:56Z</time>
      </trkpt>
      <trkpt lat="49.27768" lon="1.10662">
        <ele>119.7</ele>
        <time>2016-09-18T08:43:58Z</time>
      </trkpt>
      <trkpt lat="49.27775" lon="1.10646">
        <ele>119.7</ele>
        <time>2016-09-18T08:44:01Z</time>
      </trkpt>
      <trkpt lat="49.27779" lon="1.10628">
        <ele>119.8</ele>
        <time>2016-09-18T08:44:04Z</time>
      </trkpt>
      <trkpt lat="49.27783" lon="1.10608">
        <ele>120</ele>
        <time>2016-09-18T08:44:07Z</time>
      </trkpt>
      <trkpt lat="49.27785" lon="1.10595">
        <ele>120.1</ele>
        <time>2016-09-18T08:44:09Z</time>
      </trkpt>
      <trkpt lat="49.27788" lon="1.10581">
        <ele>120.2</ele>
        <time>2016-09-18T08:44:11Z</time>
      </trkpt>
      <trkpt lat="49.27789" lon="1.10567">
        <ele>120.3</ele>
        <time>2016-09-18T08:44:13Z</time>
      </trkpt>
      <trkpt lat="49.27791" lon="1.10554">
        <ele>120.4</ele>
        <time>2016-09-18T08:44:15Z</time>
      </trkpt>
      <trkpt lat="49.27794" lon="1.1054">
        <ele>120.6</ele>
        <time>2016-09-18T08:44:17Z</time>
      </trkpt>
      <trkpt lat="49.27796" lon="1.10526">
        <ele>120.7</ele>
        <time>2016-09-18T08:44:19Z</time>
      </trkpt>
      <trkpt lat="49.27798" lon="1.10511">
        <ele>120.8</ele>
        <time>2016-09-18T08:44:21Z</time>
      </trkpt>
      <trkpt lat="49.278" lon="1.10497">
        <ele>120.9</ele>
        <time>2016-09-18T08:44:23Z</time>
      </trkpt>
      <trkpt lat="49.27801" lon="1.10483">
        <ele>121</ele>
        <time>2016-09-18T08:44:25Z</time>
      </trkpt>
      <trkpt lat="49.27803" lon="1.10469">
        <ele>121</ele>
        <time>2016-09-18T08:44:27Z</time>
      </trkpt>
      <trkpt lat="49.27804" lon="1.10449">
        <ele>121.2</ele>
        <time>2016-09-18T08:44:30Z</time>
      </trkpt>
      <trkpt lat="49.27806" lon="1.10435">
        <ele>121.2</ele>
        <time>2016-09-18T08:44:32Z</time>
      </trkpt>
      <trkpt lat="49.27808" lon="1.1042">
        <ele>121.3</ele>
        <time>2016-09-18T08:44:34Z</time>
      </trkpt>
      <trkpt lat="49.2781" lon="1.10406">
        <ele>121.3</ele>
        <time>2016-09-18T08:44:36Z</time>
      </trkpt>
      <trkpt lat="49.27812" lon="1.10391">
        <ele>121.2</ele>
        <time>2016-09-18T08:44:38Z</time>
      </trkpt>
      <trkpt lat="49.27814" lon="1.10376">
        <ele>121.1</ele>
        <time>2016-09-18T08:44:40Z</time>
      </trkpt>
      <trkpt lat="49.27814" lon="1.10358">
        <ele>120.7</ele>
        <time>2016-09-18T08:44:43Z</time>
      </trkpt>
      <trkpt lat="49.27806" lon="1.10346">
        <ele>120.4</ele>
        <time>2016-09-18T08:44:46Z</time>
      </trkpt>
      <trkpt lat="49.27798" lon="1.10335">
        <ele>120.2</ele>
        <time>2016-09-18T08:44:49Z</time>
      </trkpt>
      <trkpt lat="49.2779" lon="1.10324">
        <ele>120</ele>
        <time>2016-09-18T08:44:52Z</time>
      </trkpt>
      <trkpt lat="49.27782" lon="1.10313">
        <ele>119.9</ele>
        <time>2016-09-18T08:44:55Z</time>
      </trkpt>
      <trkpt lat="49.27773" lon="1.10302">
        <ele>119.8</ele>
        <time>2016-09-18T08:44:58Z</time>
      </trkpt>
      <trkpt lat="49.27765" lon="1.10289">
        <ele>119.7</ele>
        <time>2016-09-18T08:45:01Z</time>
      </trkpt>
      <trkpt lat="49.27757" lon="1.10277">
        <ele>119.7</ele>
        <time>2016-09-18T08:45:04Z</time>
      </trkpt>
      <trkpt lat="49.27748" lon="1.10266">
        <ele>119.7</ele>
        <time>2016-09-18T08:45:07Z</time>
      </trkpt>
      <trkpt lat="49.2774" lon="1.10255">
        <ele>119.7</ele>
        <time>2016-09-18T08:45:10Z</time>
      </trkpt>
      <trkpt lat="49.2773" lon="1.10245">
        <ele>119.8</ele>
        <time>2016-09-18T08:45:14Z</time>
      </trkpt>
      <trkpt lat="49.27724" lon="1.10235">
        <ele>120</ele>
        <time>2016-09-18T08:45:17Z</time>
      </trkpt>
      <trkpt lat="49.27715" lon="1.10224">
        <ele>120.2</ele>
        <time>2016-09-18T08:45:21Z</time>
      </trkpt>
      <trkpt lat="49.27706" lon="1.10213">
        <ele>120.4</ele>
        <time>2016-09-18T08:45:25Z</time>
      </trkpt>
      <trkpt lat="49.27699" lon="1.10203">
        <ele>120.5</ele>
        <time>2016-09-18T08:45:28Z</time>
      </trkpt>
      <trkpt lat="49.27692" lon="1.10194">
        <ele>120.7</ele>
        <time>2016-09-18T08:45:31Z</time>
      </trkpt>
      <trkpt lat="49.27684" lon="1.10185">
        <ele>120.9</ele>
        <time>2016-09-18T08:45:34Z</time>
      </trkpt>
      <trkpt lat="49.27676" lon="1.10175">
        <ele>121.1</ele>
        <time>2016-09-18T08:45:37Z</time>
      </trkpt>
      <trkpt lat="49.27668" lon="1.10165">
        <ele>121.2</ele>
        <time>2016-09-18T08:45:40Z</time>
      </trkpt>
      <trkpt lat="49.2766" lon="1.10154">
        <ele>121.4</ele>
        <time>2016-09-18T08:45:43Z</time>
      </trkpt>
      <trkpt lat="49.27652" lon="1.10144">
        <ele>121.5</ele>
        <time>2016-09-18T08:45:46Z</time>
      </trkpt>
      <trkpt lat="49.27644" lon="1.10134">
        <ele>121.6</ele>
        <time>2016-09-18T08:45:49Z</time>
      </trkpt>
      <trkpt lat="49.27635" lon="1.10123">
        <ele>121.7</ele>
        <time>2016-09-18T08:45:52Z</time>
      </trkpt>
      <trkpt lat="49.27627" lon="1.10113">
        <ele>121.8</ele>
        <time>2016-09-18T08:45:55Z</time>
      </trkpt>
      <trkpt lat="49.27619" lon="1.10101">
        <ele>121.8</ele>
        <time>2016-09-18T08:45:58Z</time>
      </trkpt>
      <trkpt lat="49.27611" lon="1.10092">
        <ele>121.9</ele>
        <time>2016-09-18T08:46:01Z</time>
      </trkpt>
      <trkpt lat="49.27603" lon="1.10084">
        <ele>122</ele>
        <time>2016-09-18T08:46:04Z</time>
      </trkpt>
      <trkpt lat="49.27596" lon="1.1007">
        <ele>122</ele>
        <time>2016-09-18T08:46:07Z</time>
      </trkpt>
      <trkpt lat="49.27588" lon="1.1006">
        <ele>122.1</ele>
        <time>2016-09-18T08:46:10Z</time>
      </trkpt>
      <trkpt lat="49.2758" lon="1.10052">
        <ele>122.1</ele>
        <time>2016-09-18T08:46:13Z</time>
      </trkpt>
      <trkpt lat="49.27571" lon="1.10042">
        <ele>122.2</ele>
        <time>2016-09-18T08:46:16Z</time>
      </trkpt>
      <trkpt lat="49.27561" lon="1.1003">
        <ele>122.2</ele>
        <time>2016-09-18T08:46:19Z</time>
      </trkpt>
      <trkpt lat="49.27553" lon="1.1002">
        <ele>122.3</ele>
        <time>2016-09-18T08:46:22Z</time>
      </trkpt>
      <trkpt lat="49.27545" lon="1.10008">
        <ele>122.3</ele>
        <time>2016-09-18T08:46:25Z</time>
      </trkpt>
      <trkpt lat="49.27536" lon="1.09996">
        <ele>122.3</ele>
        <time>2016-09-18T08:46:28Z</time>
      </trkpt>
      <trkpt lat="49.27527" lon="1.09982">
        <ele>122.3</ele>
        <time>2016-09-18T08:46:31Z</time>
      </trkpt>
      <trkpt lat="49.27517" lon="1.09973">
        <ele>122.3</ele>
        <time>2016-09-18T08:46:33Z</time>
      </trkpt>
      <trkpt lat="49.27509" lon="1.09962">
        <ele>122.3</ele>
        <time>2016-09-18T08:46:35Z</time>
      </trkpt>
      <trkpt lat="49.27499" lon="1.0995">
        <ele>122.2</ele>
        <time>2016-09-18T08:46:38Z</time>
      </trkpt>
      <trkpt lat="49.27489" lon="1.09938">
        <ele>122.2</ele>
        <time>2016-09-18T08:46:41Z</time>
      </trkpt>
      <trkpt lat="49.27478" lon="1.09924">
        <ele>122</ele>
        <time>2016-09-18T08:46:44Z</time>
      </trkpt>
      <trkpt lat="49.27471" lon="1.09914">
        <ele>122</ele>
        <time>2016-09-18T08:46:46Z</time>
      </trkpt>
      <trkpt lat="49.27462" lon="1.09901">
        <ele>121.9</ele>
        <time>2016-09-18T08:46:49Z</time>
      </trkpt>
      <trkpt lat="49.27454" lon="1.09891">
        <ele>121.8</ele>
        <time>2016-09-18T08:46:51Z</time>
      </trkpt>
      <trkpt lat="49.27446" lon="1.0988">
        <ele>121.7</ele>
        <time>2016-09-18T08:46:53Z</time>
      </trkpt>
      <trkpt lat="49.27438" lon="1.0987">
        <ele>121.5</ele>
        <time>2016-09-18T08:46:55Z</time>
      </trkpt>
      <trkpt lat="49.2743" lon="1.09863">
        <ele>121.3</ele>
        <time>2016-09-18T08:46:57Z</time>
      </trkpt>
      <trkpt lat="49.27419" lon="1.09851">
        <ele>121.1</ele>
        <time>2016-09-18T08:47:00Z</time>
      </trkpt>
      <trkpt lat="49.27411" lon="1.0984">
        <ele>120.9</ele>
        <time>2016-09-18T08:47:02Z</time>
      </trkpt>
      <trkpt lat="49.27404" lon="1.09829">
        <ele>120.7</ele>
        <time>2016-09-18T08:47:04Z</time>
      </trkpt>
      <trkpt lat="49.27396" lon="1.09814">
        <ele>120.5</ele>
        <time>2016-09-18T08:47:07Z</time>
      </trkpt>
      <trkpt lat="49.27388" lon="1.09805">
        <ele>120.4</ele>
        <time>2016-09-18T08:47:09Z</time>
      </trkpt>
      <trkpt lat="49.2738" lon="1.09798">
        <ele>120.3</ele>
        <time>2016-09-18T08:47:11Z</time>
      </trkpt>
      <trkpt lat="49.27371" lon="1.0979">
        <ele>120.2</ele>
        <time>2016-09-18T08:47:13Z</time>
      </trkpt>
      <trkpt lat="49.27361" lon="1.09776">
        <ele>120.1</ele>
        <time>2016-09-18T08:47:16Z</time>
      </trkpt>
      <trkpt lat="49.27353" lon="1.09767">
        <ele>120</ele>
        <time>2016-09-18T08:47:18Z</time>
      </trkpt>
      <trkpt lat="49.27346" lon="1.09754">
        <ele>119.9</ele>
        <time>2016-09-18T08:47:20Z</time>
      </trkpt>
      <trkpt lat="49.27335" lon="1.09742">
        <ele>119.8</ele>
        <time>2016-09-18T08:47:23Z</time>
      </trkpt>
      <trkpt lat="49.27327" lon="1.09735">
        <ele>119.7</ele>
        <time>2016-09-18T08:47:25Z</time>
      </trkpt>
      <trkpt lat="49.27319" lon="1.09725">
        <ele>119.7</ele>
        <time>2016-09-18T08:47:27Z</time>
      </trkpt>
      <trkpt lat="49.27312" lon="1.09716">
        <ele>119.6</ele>
        <time>2016-09-18T08:47:29Z</time>
      </trkpt>
      <trkpt lat="49.27302" lon="1.09702">
        <ele>119.6</ele>
        <time>2016-09-18T08:47:32Z</time>
      </trkpt>
      <trkpt lat="49.27295" lon="1.09693">
        <ele>119.5</ele>
        <time>2016-09-18T08:47:34Z</time>
      </trkpt>
      <trkpt lat="49.27286" lon="1.09679">
        <ele>119.5</ele>
        <time>2016-09-18T08:47:37Z</time>
      </trkpt>
      <trkpt lat="49.27275" lon="1.09665">
        <ele>119.4</ele>
        <time>2016-09-18T08:47:40Z</time>
      </trkpt>
      <trkpt lat="49.27264" lon="1.09653">
        <ele>119.3</ele>
        <time>2016-09-18T08:47:43Z</time>
      </trkpt>
      <trkpt lat="49.27256" lon="1.09642">
        <ele>119.2</ele>
        <time>2016-09-18T08:47:45Z</time>
      </trkpt>
      <trkpt lat="49.27246" lon="1.09631">
        <ele>119.2</ele>
        <time>2016-09-18T08:47:47Z</time>
      </trkpt>
      <trkpt lat="49.27237" lon="1.09618">
        <ele>119</ele>
        <time>2016-09-18T08:47:49Z</time>
      </trkpt>
      <trkpt lat="49.27228" lon="1.0961">
        <ele>118.9</ele>
        <time>2016-09-18T08:47:51Z</time>
      </trkpt>
      <trkpt lat="49.27221" lon="1.096">
        <ele>118.7</ele>
        <time>2016-09-18T08:47:53Z</time>
      </trkpt>
      <trkpt lat="49.27214" lon="1.09589">
        <ele>118.3</ele>
        <time>2016-09-18T08:47:55Z</time>
      </trkpt>
      <trkpt lat="49.27207" lon="1.09579">
        <ele>118</ele>
        <time>2016-09-18T08:47:57Z</time>
      </trkpt>
      <trkpt lat="49.27201" lon="1.09567">
        <ele>117.7</ele>
        <time>2016-09-18T08:47:59Z</time>
      </trkpt>
      <trkpt lat="49.27193" lon="1.09554">
        <ele>117.1</ele>
        <time>2016-09-18T08:48:02Z</time>
      </trkpt>
      <trkpt lat="49.27184" lon="1.09545">
        <ele>116.7</ele>
        <time>2016-09-18T08:48:04Z</time>
      </trkpt>
      <trkpt lat="49.27178" lon="1.09535">
        <ele>116.4</ele>
        <time>2016-09-18T08:48:06Z</time>
      </trkpt>
      <trkpt lat="49.27175" lon="1.09521">
        <ele>116.1</ele>
        <time>2016-09-18T08:48:09Z</time>
      </trkpt>
      <trkpt lat="49.27168" lon="1.09504">
        <ele>115.9</ele>
        <time>2016-09-18T08:48:13Z</time>
      </trkpt>
      <trkpt lat="49.27164" lon="1.09487">
        <ele>115.8</ele>
        <time>2016-09-18T08:48:16Z</time>
      </trkpt>
      <trkpt lat="49.27169" lon="1.09468">
        <ele>115.8</ele>
        <time>2016-09-18T08:48:19Z</time>
      </trkpt>
      <trkpt lat="49.27177" lon="1.0945">
        <ele>115.7</ele>
        <time>2016-09-18T08:48:22Z</time>
      </trkpt>
      <trkpt lat="49.27188" lon="1.09435">
        <ele>115.3</ele>
        <time>2016-09-18T08:48:25Z</time>
      </trkpt>
      <trkpt lat="49.27195" lon="1.09426">
        <ele>114.9</ele>
        <time>2016-09-18T08:48:27Z</time>
      </trkpt>
      <trkpt lat="49.27202" lon="1.09415">
        <ele>114.3</ele>
        <time>2016-09-18T08:48:29Z</time>
      </trkpt>
      <trkpt lat="49.27208" lon="1.094">
        <ele>113.3</ele>
        <time>2016-09-18T08:48:32Z</time>
      </trkpt>
      <trkpt lat="49.27208" lon="1.09381">
        <ele>111.9</ele>
        <time>2016-09-18T08:48:36Z</time>
      </trkpt>
      <trkpt lat="49.272" lon="1.0937">
        <ele>111.1</ele>
        <time>2016-09-18T08:48:39Z</time>
      </trkpt>
      <trkpt lat="49.27192" lon="1.09356">
        <ele>110.3</ele>
        <time>2016-09-18T08:48:42Z</time>
      </trkpt>
      <trkpt lat="49.27184" lon="1.0934">
        <ele>109.7</ele>
        <time>2016-09-18T08:48:45Z</time>
      </trkpt>
      <trkpt lat="49.27178" lon="1.09329">
        <ele>109.3</ele>
        <time>2016-09-18T08:48:47Z</time>
      </trkpt>
      <trkpt lat="49.27172" lon="1.09318">
        <ele>108.7</ele>
        <time>2016-09-18T08:48:49Z</time>
      </trkpt>
      <trkpt lat="49.27161" lon="1.09304">
        <ele>108</ele>
        <time>2016-09-18T08:48:52Z</time>
      </trkpt>
      <trkpt lat="49.27153" lon="1.09293">
        <ele>107.3</ele>
        <time>2016-09-18T08:48:54Z</time>
      </trkpt>
      <trkpt lat="49.27144" lon="1.09278">
        <ele>106.3</ele>
        <time>2016-09-18T08:48:57Z</time>
      </trkpt>
      <trkpt lat="49.27136" lon="1.09264">
        <ele>105.5</ele>
        <time>2016-09-18T08:48:59Z</time>
      </trkpt>
      <trkpt lat="49.27129" lon="1.09254">
        <ele>104.7</ele>
        <time>2016-09-18T08:49:01Z</time>
      </trkpt>
      <trkpt lat="49.2712" lon="1.09247">
        <ele>103.9</ele>
        <time>2016-09-18T08:49:03Z</time>
      </trkpt>
      <trkpt lat="49.2711" lon="1.09253">
        <ele>102.8</ele>
        <time>2016-09-18T08:49:06Z</time>
      </trkpt>
      <trkpt lat="49.27099" lon="1.09259">
        <ele>101.6</ele>
        <time>2016-09-18T08:49:10Z</time>
      </trkpt>
      <trkpt lat="49.27089" lon="1.09264">
        <ele>100.9</ele>
        <time>2016-09-18T08:49:14Z</time>
      </trkpt>
      <trkpt lat="49.27079" lon="1.09268">
        <ele>100.4</ele>
        <time>2016-09-18T08:49:19Z</time>
      </trkpt>
      <trkpt lat="49.27068" lon="1.09272">
        <ele>100.3</ele>
        <time>2016-09-18T08:49:24Z</time>
      </trkpt>
      <trkpt lat="49.27058" lon="1.09275">
        <ele>100.5</ele>
        <time>2016-09-18T08:49:28Z</time>
      </trkpt>
      <trkpt lat="49.27047" lon="1.09278">
        <ele>100.6</ele>
        <time>2016-09-18T08:49:32Z</time>
      </trkpt>
      <trkpt lat="49.27038" lon="1.09279">
        <ele>100.9</ele>
        <time>2016-09-18T08:49:35Z</time>
      </trkpt>
      <trkpt lat="49.27028" lon="1.0928">
        <ele>101.1</ele>
        <time>2016-09-18T08:49:38Z</time>
      </trkpt>
      <trkpt lat="49.27018" lon="1.09281">
        <ele>101.3</ele>
        <time>2016-09-18T08:49:41Z</time>
      </trkpt>
      <trkpt lat="49.27009" lon="1.09282">
        <ele>101.6</ele>
        <time>2016-09-18T08:49:44Z</time>
      </trkpt>
      <trkpt lat="49.26998" lon="1.09284">
        <ele>101.8</ele>
        <time>2016-09-18T08:49:47Z</time>
      </trkpt>
      <trkpt lat="49.26988" lon="1.09286">
        <ele>102.1</ele>
        <time>2016-09-18T08:49:50Z</time>
      </trkpt>
      <trkpt lat="49.26979" lon="1.09289">
        <ele>102.3</ele>
        <time>2016-09-18T08:49:53Z</time>
      </trkpt>
      <trkpt lat="49.26969" lon="1.0928">
        <ele>102.7</ele>
        <time>2016-09-18T08:49:57Z</time>
      </trkpt>
      <trkpt lat="49.26958" lon="1.09267">
        <ele>103</ele>
        <time>2016-09-18T08:50:00Z</time>
      </trkpt>
      <trkpt lat="49.26948" lon="1.09256">
        <ele>102.9</ele>
        <time>2016-09-18T08:50:02Z</time>
      </trkpt>
      <trkpt lat="49.26936" lon="1.09241">
        <ele>102.6</ele>
        <time>2016-09-18T08:50:04Z</time>
      </trkpt>
      <trkpt lat="49.26925" lon="1.09228">
        <ele>102.2</ele>
        <time>2016-09-18T08:50:06Z</time>
      </trkpt>
      <trkpt lat="49.26915" lon="1.09216">
        <ele>101.5</ele>
        <time>2016-09-18T08:50:08Z</time>
      </trkpt>
      <trkpt lat="49.26907" lon="1.09206">
        <ele>100.6</ele>
        <time>2016-09-18T08:50:10Z</time>
      </trkpt>
      <trkpt lat="49.26896" lon="1.09194">
        <ele>99.7</ele>
        <time>2016-09-18T08:50:12Z</time>
      </trkpt>
      <trkpt lat="49.26885" lon="1.09178">
        <ele>98.7</ele>
        <time>2016-09-18T08:50:14Z</time>
      </trkpt>
      <trkpt lat="49.26874" lon="1.09163">
        <ele>97.4</ele>
        <time>2016-09-18T08:50:16Z</time>
      </trkpt>
      <trkpt lat="49.26862" lon="1.09149">
        <ele>96.1</ele>
        <time>2016-09-18T08:50:18Z</time>
      </trkpt>
      <trkpt lat="49.26854" lon="1.09139">
        <ele>94.7</ele>
        <time>2016-09-18T08:50:20Z</time>
      </trkpt>
      <trkpt lat="49.26845" lon="1.09127">
        <ele>93.2</ele>
        <time>2016-09-18T08:50:22Z</time>
      </trkpt>
      <trkpt lat="49.26842" lon="1.09112">
        <ele>91.7</ele>
        <time>2016-09-18T08:50:24Z</time>
      </trkpt>
      <trkpt lat="49.26836" lon="1.09102">
        <ele>90.3</ele>
        <time>2016-09-18T08:50:26Z</time>
      </trkpt>
      <trkpt lat="49.26843" lon="1.09089">
        <ele>85.3</ele>
        <time>2016-09-18T08:50:34Z</time>
      </trkpt>
      <trkpt lat="49.26854" lon="1.09087">
        <ele>83.9</ele>
        <time>2016-09-18T08:50:37Z</time>
      </trkpt>
      <trkpt lat="49.26864" lon="1.09086">
        <ele>83</ele>
        <time>2016-09-18T08:50:39Z</time>
      </trkpt>
      <trkpt lat="49.26874" lon="1.09085">
        <ele>82.2</ele>
        <time>2016-09-18T08:50:41Z</time>
      </trkpt>
      <trkpt lat="49.26884" lon="1.09086">
        <ele>81.5</ele>
        <time>2016-09-18T08:50:43Z</time>
      </trkpt>
      <trkpt lat="49.26895" lon="1.09086">
        <ele>80.8</ele>
        <time>2016-09-18T08:50:45Z</time>
      </trkpt>
      <trkpt lat="49.26905" lon="1.09086">
        <ele>80.3</ele>
        <time>2016-09-18T08:50:47Z</time>
      </trkpt>
      <trkpt lat="49.26916" lon="1.09086">
        <ele>79.7</ele>
        <time>2016-09-18T08:50:49Z</time>
      </trkpt>
      <trkpt lat="49.26926" lon="1.09089">
        <ele>79.1</ele>
        <time>2016-09-18T08:50:51Z</time>
      </trkpt>
      <trkpt lat="49.26936" lon="1.09094">
        <ele>78.6</ele>
        <time>2016-09-18T08:50:53Z</time>
      </trkpt>
      <trkpt lat="49.26944" lon="1.091">
        <ele>78.1</ele>
        <time>2016-09-18T08:50:55Z</time>
      </trkpt>
      <trkpt lat="49.26954" lon="1.09105">
        <ele>77.6</ele>
        <time>2016-09-18T08:50:57Z</time>
      </trkpt>
      <trkpt lat="49.26965" lon="1.09106">
        <ele>77.1</ele>
        <time>2016-09-18T08:50:59Z</time>
      </trkpt>
      <trkpt lat="49.26976" lon="1.09108">
        <ele>76.7</ele>
        <time>2016-09-18T08:51:01Z</time>
      </trkpt>
      <trkpt lat="49.26987" lon="1.09106">
        <ele>76.3</ele>
        <time>2016-09-18T08:51:03Z</time>
      </trkpt>
      <trkpt lat="49.26998" lon="1.09103">
        <ele>76</ele>
        <time>2016-09-18T08:51:05Z</time>
      </trkpt>
      <trkpt lat="49.2701" lon="1.091">
        <ele>75.7</ele>
        <time>2016-09-18T08:51:07Z</time>
      </trkpt>
      <trkpt lat="49.27021" lon="1.09095">
        <ele>75.3</ele>
        <time>2016-09-18T08:51:09Z</time>
      </trkpt>
      <trkpt lat="49.27032" lon="1.09091">
        <ele>74.9</ele>
        <time>2016-09-18T08:51:11Z</time>
      </trkpt>
      <trkpt lat="49.27043" lon="1.09085">
        <ele>74.6</ele>
        <time>2016-09-18T08:51:13Z</time>
      </trkpt>
      <trkpt lat="49.27055" lon="1.09084">
        <ele>74.2</ele>
        <time>2016-09-18T08:51:15Z</time>
      </trkpt>
      <trkpt lat="49.27066" lon="1.09082">
        <ele>73.8</ele>
        <time>2016-09-18T08:51:17Z</time>
      </trkpt>
      <trkpt lat="49.27076" lon="1.09075">
        <ele>73.4</ele>
        <time>2016-09-18T08:51:19Z</time>
      </trkpt>
      <trkpt lat="49.27087" lon="1.0907">
        <ele>73.1</ele>
        <time>2016-09-18T08:51:21Z</time>
      </trkpt>
      <trkpt lat="49.27096" lon="1.09065">
        <ele>72.7</ele>
        <time>2016-09-18T08:51:23Z</time>
      </trkpt>
      <trkpt lat="49.27108" lon="1.09061">
        <ele>72.3</ele>
        <time>2016-09-18T08:51:25Z</time>
      </trkpt>
      <trkpt lat="49.27121" lon="1.09057">
        <ele>71.9</ele>
        <time>2016-09-18T08:51:27Z</time>
      </trkpt>
      <trkpt lat="49.27132" lon="1.09051">
        <ele>71.6</ele>
        <time>2016-09-18T08:51:29Z</time>
      </trkpt>
      <trkpt lat="49.27143" lon="1.09045">
        <ele>71.4</ele>
        <time>2016-09-18T08:51:31Z</time>
      </trkpt>
      <trkpt lat="49.27151" lon="1.09038">
        <ele>71.1</ele>
        <time>2016-09-18T08:51:33Z</time>
      </trkpt>
      <trkpt lat="49.27159" lon="1.0903">
        <ele>70.9</ele>
        <time>2016-09-18T08:51:35Z</time>
      </trkpt>
      <trkpt lat="49.27171" lon="1.0902">
        <ele>70.7</ele>
        <time>2016-09-18T08:51:38Z</time>
      </trkpt>
      <trkpt lat="49.2718" lon="1.09007">
        <ele>70.7</ele>
        <time>2016-09-18T08:51:41Z</time>
      </trkpt>
      <trkpt lat="49.27189" lon="1.08994">
        <ele>70.7</ele>
        <time>2016-09-18T08:51:44Z</time>
      </trkpt>
      <trkpt lat="49.27198" lon="1.08981">
        <ele>70.8</ele>
        <time>2016-09-18T08:51:47Z</time>
      </trkpt>
      <trkpt lat="49.27207" lon="1.0897">
        <ele>70.9</ele>
        <time>2016-09-18T08:51:50Z</time>
      </trkpt>
      <trkpt lat="49.2721" lon="1.08956">
        <ele>71.3</ele>
        <time>2016-09-18T08:51:55Z</time>
      </trkpt>
      <trkpt lat="49.27218" lon="1.08965">
        <ele>71.8</ele>
        <time>2016-09-18T08:52:06Z</time>
      </trkpt>
      <trkpt lat="49.27226" lon="1.08974">
        <ele>72.3</ele>
        <time>2016-09-18T08:52:12Z</time>
      </trkpt>
      <trkpt lat="49.27233" lon="1.08983">
        <ele>72.8</ele>
        <time>2016-09-18T08:52:17Z</time>
      </trkpt>
      <trkpt lat="49.27241" lon="1.08992">
        <ele>73.5</ele>
        <time>2016-09-18T08:52:23Z</time>
      </trkpt>
      <trkpt lat="49.27248" lon="1.09002">
        <ele>74.5</ele>
        <time>2016-09-18T08:52:30Z</time>
      </trkpt>
      <trkpt lat="49.27256" lon="1.09012">
        <ele>75.4</ele>
        <time>2016-09-18T08:52:36Z</time>
      </trkpt>
      <trkpt lat="49.27265" lon="1.09021">
        <ele>76.3</ele>
        <time>2016-09-18T08:52:42Z</time>
      </trkpt>
      <trkpt lat="49.27274" lon="1.09026">
        <ele>77.2</ele>
        <time>2016-09-18T08:52:48Z</time>
      </trkpt>
      <trkpt lat="49.2728" lon="1.09016">
        <ele>77.9</ele>
        <time>2016-09-18T08:52:53Z</time>
      </trkpt>
      <trkpt lat="49.27286" lon="1.09002">
        <ele>78.5</ele>
        <time>2016-09-18T08:52:57Z</time>
      </trkpt>
      <trkpt lat="49.27294" lon="1.08989">
        <ele>79</ele>
        <time>2016-09-18T08:53:01Z</time>
      </trkpt>
      <trkpt lat="49.27299" lon="1.08974">
        <ele>79</ele>
        <time>2016-09-18T08:53:05Z</time>
      </trkpt>
      <trkpt lat="49.27296" lon="1.08959">
        <ele>78.7</ele>
        <time>2016-09-18T08:53:08Z</time>
      </trkpt>
      <trkpt lat="49.27292" lon="1.08938">
        <ele>78.1</ele>
        <time>2016-09-18T08:53:11Z</time>
      </trkpt>
      <trkpt lat="49.27297" lon="1.08922">
        <ele>77.3</ele>
        <time>2016-09-18T08:53:14Z</time>
      </trkpt>
      <trkpt lat="49.27302" lon="1.08905">
        <ele>76.6</ele>
        <time>2016-09-18T08:53:16Z</time>
      </trkpt>
      <trkpt lat="49.27308" lon="1.0889">
        <ele>75.8</ele>
        <time>2016-09-18T08:53:18Z</time>
      </trkpt>
      <trkpt lat="49.27314" lon="1.08876">
        <ele>74.9</ele>
        <time>2016-09-18T08:53:20Z</time>
      </trkpt>
      <trkpt lat="49.27318" lon="1.08858">
        <ele>73.9</ele>
        <time>2016-09-18T08:53:22Z</time>
      </trkpt>
      <trkpt lat="49.27321" lon="1.0884">
        <ele>72.9</ele>
        <time>2016-09-18T08:53:24Z</time>
      </trkpt>
      <trkpt lat="49.27325" lon="1.08825">
        <ele>71.7</ele>
        <time>2016-09-18T08:53:26Z</time>
      </trkpt>
      <trkpt lat="49.2733" lon="1.08813">
        <ele>70.5</ele>
        <time>2016-09-18T08:53:28Z</time>
      </trkpt>
      <trkpt lat="49.2734" lon="1.08798">
        <ele>69.3</ele>
        <time>2016-09-18T08:53:30Z</time>
      </trkpt>
      <trkpt lat="49.27348" lon="1.08783">
        <ele>68.2</ele>
        <time>2016-09-18T08:53:32Z</time>
      </trkpt>
      <trkpt lat="49.27353" lon="1.08765">
        <ele>67.2</ele>
        <time>2016-09-18T08:53:34Z</time>
      </trkpt>
      <trkpt lat="49.27357" lon="1.08748">
        <ele>66.3</ele>
        <time>2016-09-18T08:53:36Z</time>
      </trkpt>
      <trkpt lat="49.27363" lon="1.08734">
        <ele>65.5</ele>
        <time>2016-09-18T08:53:38Z</time>
      </trkpt>
      <trkpt lat="49.27367" lon="1.0872">
        <ele>64.7</ele>
        <time>2016-09-18T08:53:40Z</time>
      </trkpt>
      <trkpt lat="49.27371" lon="1.08707">
        <ele>64.1</ele>
        <time>2016-09-18T08:53:42Z</time>
      </trkpt>
      <trkpt lat="49.27375" lon="1.08694">
        <ele>63.5</ele>
        <time>2016-09-18T08:53:44Z</time>
      </trkpt>
      <trkpt lat="49.27381" lon="1.08682">
        <ele>62.8</ele>
        <time>2016-09-18T08:53:47Z</time>
      </trkpt>
      <trkpt lat="49.27377" lon="1.08665">
        <ele>61.9</ele>
        <time>2016-09-18T08:53:52Z</time>
      </trkpt>
      <trkpt lat="49.2737" lon="1.08656">
        <ele>61.3</ele>
        <time>2016-09-18T08:53:56Z</time>
      </trkpt>
      <trkpt lat="49.27363" lon="1.08646">
        <ele>61</ele>
        <time>2016-09-18T08:53:59Z</time>
      </trkpt>
      <trkpt lat="49.27355" lon="1.08633">
        <ele>60.9</ele>
        <time>2016-09-18T08:54:02Z</time>
      </trkpt>
      <trkpt lat="49.27348" lon="1.08623">
        <ele>60.8</ele>
        <time>2016-09-18T08:54:05Z</time>
      </trkpt>
      <trkpt lat="49.27342" lon="1.08613">
        <ele>60.9</ele>
        <time>2016-09-18T08:54:08Z</time>
      </trkpt>
      <trkpt lat="49.27334" lon="1.08601">
        <ele>61.2</ele>
        <time>2016-09-18T08:54:12Z</time>
      </trkpt>
      <trkpt lat="49.27326" lon="1.08592">
        <ele>61.7</ele>
        <time>2016-09-18T08:54:16Z</time>
      </trkpt>
      <trkpt lat="49.27319" lon="1.08581">
        <ele>62.4</ele>
        <time>2016-09-18T08:54:20Z</time>
      </trkpt>
      <trkpt lat="49.27312" lon="1.08571">
        <ele>63.2</ele>
        <time>2016-09-18T08:54:24Z</time>
      </trkpt>
      <trkpt lat="49.27305" lon="1.08561">
        <ele>64.1</ele>
        <time>2016-09-18T08:54:28Z</time>
      </trkpt>
      <trkpt lat="49.27299" lon="1.0855">
        <ele>65.2</ele>
        <time>2016-09-18T08:54:32Z</time>
      </trkpt>
      <trkpt lat="49.27291" lon="1.08542">
        <ele>66.3</ele>
        <time>2016-09-18T08:54:36Z</time>
      </trkpt>
      <trkpt lat="49.27284" lon="1.08533">
        <ele>67.3</ele>
        <time>2016-09-18T08:54:40Z</time>
      </trkpt>
      <trkpt lat="49.27277" lon="1.08524">
        <ele>68.2</ele>
        <time>2016-09-18T08:54:44Z</time>
      </trkpt>
      <trkpt lat="49.27269" lon="1.08514">
        <ele>69</ele>
        <time>2016-09-18T08:54:48Z</time>
      </trkpt>
      <trkpt lat="49.27262" lon="1.08505">
        <ele>69.8</ele>
        <time>2016-09-18T08:54:52Z</time>
      </trkpt>
      <trkpt lat="49.27254" lon="1.08496">
        <ele>70.5</ele>
        <time>2016-09-18T08:54:56Z</time>
      </trkpt>
      <trkpt lat="49.27245" lon="1.08486">
        <ele>71.2</ele>
        <time>2016-09-18T08:55:00Z</time>
      </trkpt>
      <trkpt lat="49.27238" lon="1.08475">
        <ele>71.7</ele>
        <time>2016-09-18T08:55:03Z</time>
      </trkpt>
      <trkpt lat="49.2723" lon="1.08468">
        <ele>72.2</ele>
        <time>2016-09-18T08:55:06Z</time>
      </trkpt>
      <trkpt lat="49.27223" lon="1.08458">
        <ele>72.7</ele>
        <time>2016-09-18T08:55:09Z</time>
      </trkpt>
      <trkpt lat="49.27215" lon="1.08449">
        <ele>73.1</ele>
        <time>2016-09-18T08:55:12Z</time>
      </trkpt>
      <trkpt lat="49.27208" lon="1.0844">
        <ele>73.5</ele>
        <time>2016-09-18T08:55:15Z</time>
      </trkpt>
      <trkpt lat="49.272" lon="1.0843">
        <ele>73.8</ele>
        <time>2016-09-18T08:55:18Z</time>
      </trkpt>
      <trkpt lat="49.27193" lon="1.08419">
        <ele>74.2</ele>
        <time>2016-09-18T08:55:21Z</time>
      </trkpt>
      <trkpt lat="49.27186" lon="1.08408">
        <ele>74.5</ele>
        <time>2016-09-18T08:55:24Z</time>
      </trkpt>
      <trkpt lat="49.27177" lon="1.08397">
        <ele>74.8</ele>
        <time>2016-09-18T08:55:27Z</time>
      </trkpt>
      <trkpt lat="49.2717" lon="1.08387">
        <ele>75.1</ele>
        <time>2016-09-18T08:55:30Z</time>
      </trkpt>
      <trkpt lat="49.27162" lon="1.08377">
        <ele>75.3</ele>
        <time>2016-09-18T08:55:33Z</time>
      </trkpt>
      <trkpt lat="49.27155" lon="1.08367">
        <ele>75.5</ele>
        <time>2016-09-18T08:55:36Z</time>
      </trkpt>
      <trkpt lat="49.27146" lon="1.08356">
        <ele>75.7</ele>
        <time>2016-09-18T08:55:39Z</time>
      </trkpt>
      <trkpt lat="49.27137" lon="1.08344">
        <ele>75.9</ele>
        <time>2016-09-18T08:55:42Z</time>
      </trkpt>
      <trkpt lat="49.27128" lon="1.08332">
        <ele>76</ele>
        <time>2016-09-18T08:55:45Z</time>
      </trkpt>
      <trkpt lat="49.27118" lon="1.08319">
        <ele>76.1</ele>
        <time>2016-09-18T08:55:48Z</time>
      </trkpt>
      <trkpt lat="49.2711" lon="1.08309">
        <ele>76.2</ele>
        <time>2016-09-18T08:55:50Z</time>
      </trkpt>
      <trkpt lat="49.27102" lon="1.08298">
        <ele>76.3</ele>
        <time>2016-09-18T08:55:52Z</time>
      </trkpt>
      <trkpt lat="49.27093" lon="1.08287">
        <ele>76.3</ele>
        <time>2016-09-18T08:55:54Z</time>
      </trkpt>
      <trkpt lat="49.27085" lon="1.08277">
        <ele>76.2</ele>
        <time>2016-09-18T08:55:56Z</time>
      </trkpt>
      <trkpt lat="49.27078" lon="1.08268">
        <ele>76.2</ele>
        <time>2016-09-18T08:55:58Z</time>
      </trkpt>
      <trkpt lat="49.2707" lon="1.08256">
        <ele>76.1</ele>
        <time>2016-09-18T08:56:01Z</time>
      </trkpt>
      <trkpt lat="49.27063" lon="1.08246">
        <ele>76</ele>
        <time>2016-09-18T08:56:04Z</time>
      </trkpt>
      <trkpt lat="49.27056" lon="1.08237">
        <ele>75.9</ele>
        <time>2016-09-18T08:56:09Z</time>
      </trkpt>
      <trkpt lat="49.27047" lon="1.08226">
        <ele>75.8</ele>
        <time>2016-09-18T08:56:14Z</time>
      </trkpt>
      <trkpt lat="49.27037" lon="1.08214">
        <ele>75.8</ele>
        <time>2016-09-18T08:56:17Z</time>
      </trkpt>
      <trkpt lat="49.27029" lon="1.08204">
        <ele>75.7</ele>
        <time>2016-09-18T08:56:19Z</time>
      </trkpt>
      <trkpt lat="49.27021" lon="1.08195">
        <ele>75.6</ele>
        <time>2016-09-18T08:56:23Z</time>
      </trkpt>
      <trkpt lat="49.27016" lon="1.08208">
        <ele>75</ele>
        <time>2016-09-18T08:56:37Z</time>
      </trkpt>
      <trkpt lat="49.2701" lon="1.08219">
        <ele>74.9</ele>
        <time>2016-09-18T08:56:40Z</time>
      </trkpt>
      <trkpt lat="49.27003" lon="1.08233">
        <ele>74.9</ele>
        <time>2016-09-18T08:56:43Z</time>
      </trkpt>
      <trkpt lat="49.26997" lon="1.08244">
        <ele>75</ele>
        <time>2016-09-18T08:56:46Z</time>
      </trkpt>
      <trkpt lat="49.26991" lon="1.08255">
        <ele>75.2</ele>
        <time>2016-09-18T08:56:49Z</time>
      </trkpt>
      <trkpt lat="49.26985" lon="1.08267">
        <ele>75.5</ele>
        <time>2016-09-18T08:56:52Z</time>
      </trkpt>
      <trkpt lat="49.26978" lon="1.08279">
        <ele>75.9</ele>
        <time>2016-09-18T08:56:56Z</time>
      </trkpt>
      <trkpt lat="49.2697" lon="1.08291">
        <ele>76.4</ele>
        <time>2016-09-18T08:57:00Z</time>
      </trkpt>
      <trkpt lat="49.26964" lon="1.08304">
        <ele>77.1</ele>
        <time>2016-09-18T08:57:04Z</time>
      </trkpt>
      <trkpt lat="49.26957" lon="1.08316">
        <ele>77.8</ele>
        <time>2016-09-18T08:57:08Z</time>
      </trkpt>
      <trkpt lat="49.26951" lon="1.08329">
        <ele>78.7</ele>
        <time>2016-09-18T08:57:13Z</time>
      </trkpt>
      <trkpt lat="49.26944" lon="1.08339">
        <ele>79.5</ele>
        <time>2016-09-18T08:57:17Z</time>
      </trkpt>
      <trkpt lat="49.26938" lon="1.08352">
        <ele>80.5</ele>
        <time>2016-09-18T08:57:22Z</time>
      </trkpt>
      <trkpt lat="49.26932" lon="1.08362">
        <ele>81.3</ele>
        <time>2016-09-18T08:57:26Z</time>
      </trkpt>
      <trkpt lat="49.26925" lon="1.08375">
        <ele>82.4</ele>
        <time>2016-09-18T08:57:31Z</time>
      </trkpt>
      <trkpt lat="49.26919" lon="1.08386">
        <ele>83.3</ele>
        <time>2016-09-18T08:57:35Z</time>
      </trkpt>
      <trkpt lat="49.26914" lon="1.08398">
        <ele>84.4</ele>
        <time>2016-09-18T08:57:40Z</time>
      </trkpt>
      <trkpt lat="49.26909" lon="1.08409">
        <ele>85.5</ele>
        <time>2016-09-18T08:57:45Z</time>
      </trkpt>
      <trkpt lat="49.26902" lon="1.08422">
        <ele>86.7</ele>
        <time>2016-09-18T08:57:51Z</time>
      </trkpt>
      <trkpt lat="49.26895" lon="1.08433">
        <ele>87.7</ele>
        <time>2016-09-18T08:57:56Z</time>
      </trkpt>
      <trkpt lat="49.26888" lon="1.08442">
        <ele>88.8</ele>
        <time>2016-09-18T08:58:02Z</time>
      </trkpt>
      <trkpt lat="49.26884" lon="1.08455">
        <ele>89.8</ele>
        <time>2016-09-18T08:58:08Z</time>
      </trkpt>
      <trkpt lat="49.26879" lon="1.08467">
        <ele>90.8</ele>
        <time>2016-09-18T08:58:14Z</time>
      </trkpt>
      <trkpt lat="49.26874" lon="1.0848">
        <ele>92</ele>
        <time>2016-09-18T08:58:21Z</time>
      </trkpt>
      <trkpt lat="49.26865" lon="1.08489">
        <ele>92.8</ele>
        <time>2016-09-18T08:58:26Z</time>
      </trkpt>
      <trkpt lat="49.26855" lon="1.08491">
        <ele>93.8</ele>
        <time>2016-09-18T08:58:32Z</time>
      </trkpt>
      <trkpt lat="49.26848" lon="1.08482">
        <ele>94.5</ele>
        <time>2016-09-18T08:58:36Z</time>
      </trkpt>
      <trkpt lat="49.26837" lon="1.08474">
        <ele>95.1</ele>
        <time>2016-09-18T08:58:40Z</time>
      </trkpt>
      <trkpt lat="49.2683" lon="1.08465">
        <ele>95.8</ele>
        <time>2016-09-18T08:58:44Z</time>
      </trkpt>
      <trkpt lat="49.26824" lon="1.08453">
        <ele>96.6</ele>
        <time>2016-09-18T08:58:49Z</time>
      </trkpt>
      <trkpt lat="49.26817" lon="1.08443">
        <ele>97.1</ele>
        <time>2016-09-18T08:58:53Z</time>
      </trkpt>
      <trkpt lat="49.2681" lon="1.08431">
        <ele>97.7</ele>
        <time>2016-09-18T08:58:57Z</time>
      </trkpt>
      <trkpt lat="49.26802" lon="1.08422">
        <ele>98</ele>
        <time>2016-09-18T08:59:00Z</time>
      </trkpt>
      <trkpt lat="49.26795" lon="1.0841">
        <ele>98.4</ele>
        <time>2016-09-18T08:59:04Z</time>
      </trkpt>
      <trkpt lat="49.26787" lon="1.08398">
        <ele>98.9</ele>
        <time>2016-09-18T08:59:09Z</time>
      </trkpt>
      <trkpt lat="49.26781" lon="1.08386">
        <ele>99.2</ele>
        <time>2016-09-18T08:59:12Z</time>
      </trkpt>
      <trkpt lat="49.26775" lon="1.08375">
        <ele>99.5</ele>
        <time>2016-09-18T08:59:15Z</time>
      </trkpt>
      <trkpt lat="49.26764" lon="1.08367">
        <ele>100</ele>
        <time>2016-09-18T08:59:19Z</time>
      </trkpt>
      <trkpt lat="49.26755" lon="1.08356">
        <ele>100.3</ele>
        <time>2016-09-18T08:59:22Z</time>
      </trkpt>
      <trkpt lat="49.26746" lon="1.08343">
        <ele>100.6</ele>
        <time>2016-09-18T08:59:25Z</time>
      </trkpt>
      <trkpt lat="49.26739" lon="1.08333">
        <ele>100.7</ele>
        <time>2016-09-18T08:59:27Z</time>
      </trkpt>
      <trkpt lat="49.26728" lon="1.08326">
        <ele>101</ele>
        <time>2016-09-18T08:59:29Z</time>
      </trkpt>
      <trkpt lat="49.26717" lon="1.08316">
        <ele>101.2</ele>
        <time>2016-09-18T08:59:32Z</time>
      </trkpt>
      <trkpt lat="49.26709" lon="1.08323">
        <ele>101.8</ele>
        <time>2016-09-18T08:59:37Z</time>
      </trkpt>
      <trkpt lat="49.26703" lon="1.08336">
        <ele>102.6</ele>
        <time>2016-09-18T08:59:42Z</time>
      </trkpt>
      <trkpt lat="49.26696" lon="1.08347">
        <ele>103.4</ele>
        <time>2016-09-18T08:59:46Z</time>
      </trkpt>
      <trkpt lat="49.2669" lon="1.08361">
        <ele>104.3</ele>
        <time>2016-09-18T08:59:50Z</time>
      </trkpt>
      <trkpt lat="49.26687" lon="1.08377">
        <ele>105.1</ele>
        <time>2016-09-18T08:59:54Z</time>
      </trkpt>
      <trkpt lat="49.26681" lon="1.08392">
        <ele>106.1</ele>
        <time>2016-09-18T08:59:59Z</time>
      </trkpt>
      <trkpt lat="49.26679" lon="1.08406">
        <ele>106.8</ele>
        <time>2016-09-18T09:00:03Z</time>
      </trkpt>
      <trkpt lat="49.26678" lon="1.08422">
        <ele>107.5</ele>
        <time>2016-09-18T09:00:07Z</time>
      </trkpt>
      <trkpt lat="49.26678" lon="1.08438">
        <ele>108.3</ele>
        <time>2016-09-18T09:00:12Z</time>
      </trkpt>
      <trkpt lat="49.26669" lon="1.0845">
        <ele>109.2</ele>
        <time>2016-09-18T09:00:18Z</time>
      </trkpt>
      <trkpt lat="49.2666" lon="1.08452">
        <ele>109.8</ele>
        <time>2016-09-18T09:00:22Z</time>
      </trkpt>
      <trkpt lat="49.26649" lon="1.08451">
        <ele>110.3</ele>
        <time>2016-09-18T09:00:25Z</time>
      </trkpt>
      <trkpt lat="49.26638" lon="1.08451">
        <ele>110.7</ele>
        <time>2016-09-18T09:00:28Z</time>
      </trkpt>
      <trkpt lat="49.26628" lon="1.08448">
        <ele>111.1</ele>
        <time>2016-09-18T09:00:31Z</time>
      </trkpt>
      <trkpt lat="49.26616" lon="1.08443">
        <ele>111.7</ele>
        <time>2016-09-18T09:00:35Z</time>
      </trkpt>
      <trkpt lat="49.26604" lon="1.08437">
        <ele>112.3</ele>
        <time>2016-09-18T09:00:39Z</time>
      </trkpt>
      <trkpt lat="49.26596" lon="1.08431">
        <ele>112.6</ele>
        <time>2016-09-18T09:00:42Z</time>
      </trkpt>
      <trkpt lat="49.26584" lon="1.08427">
        <ele>112.9</ele>
        <time>2016-09-18T09:00:45Z</time>
      </trkpt>
      <trkpt lat="49.26576" lon="1.08422">
        <ele>113.2</ele>
        <time>2016-09-18T09:00:48Z</time>
      </trkpt>
      <trkpt lat="49.26564" lon="1.08416">
        <ele>113.5</ele>
        <time>2016-09-18T09:00:51Z</time>
      </trkpt>
      <trkpt lat="49.26555" lon="1.0841">
        <ele>113.8</ele>
        <time>2016-09-18T09:00:54Z</time>
      </trkpt>
      <trkpt lat="49.26546" lon="1.08405">
        <ele>114.2</ele>
        <time>2016-09-18T09:00:57Z</time>
      </trkpt>
      <trkpt lat="49.26534" lon="1.08396">
        <ele>114.5</ele>
        <time>2016-09-18T09:01:00Z</time>
      </trkpt>
      <trkpt lat="49.26525" lon="1.08389">
        <ele>114.8</ele>
        <time>2016-09-18T09:01:03Z</time>
      </trkpt>
      <trkpt lat="49.26515" lon="1.0838">
        <ele>115.1</ele>
        <time>2016-09-18T09:01:06Z</time>
      </trkpt>
      <trkpt lat="49.26502" lon="1.08373">
        <ele>115.3</ele>
        <time>2016-09-18T09:01:09Z</time>
      </trkpt>
      <trkpt lat="49.26488" lon="1.08366">
        <ele>115.6</ele>
        <time>2016-09-18T09:01:12Z</time>
      </trkpt>
      <trkpt lat="49.26479" lon="1.08358">
        <ele>115.8</ele>
        <time>2016-09-18T09:01:14Z</time>
      </trkpt>
      <trkpt lat="49.26468" lon="1.08349">
        <ele>116</ele>
        <time>2016-09-18T09:01:17Z</time>
      </trkpt>
      <trkpt lat="49.26457" lon="1.08344">
        <ele>116.3</ele>
        <time>2016-09-18T09:01:20Z</time>
      </trkpt>
      <trkpt lat="49.26448" lon="1.08338">
        <ele>116.6</ele>
        <time>2016-09-18T09:01:23Z</time>
      </trkpt>
      <trkpt lat="49.26439" lon="1.08334">
        <ele>116.8</ele>
        <time>2016-09-18T09:01:25Z</time>
      </trkpt>
      <trkpt lat="49.26429" lon="1.08329">
        <ele>117</ele>
        <time>2016-09-18T09:01:27Z</time>
      </trkpt>
      <trkpt lat="49.26419" lon="1.08319">
        <ele>117.3</ele>
        <time>2016-09-18T09:01:30Z</time>
      </trkpt>
      <trkpt lat="49.26407" lon="1.08316">
        <ele>117.5</ele>
        <time>2016-09-18T09:01:33Z</time>
      </trkpt>
      <trkpt lat="49.26397" lon="1.08312">
        <ele>117.7</ele>
        <time>2016-09-18T09:01:37Z</time>
      </trkpt>
      <trkpt lat="49.26388" lon="1.0832">
        <ele>119.1</ele>
        <time>2016-09-18T09:02:54Z</time>
      </trkpt>
      <trkpt lat="49.26381" lon="1.08333">
        <ele>119.1</ele>
        <time>2016-09-18T09:03:00Z</time>
      </trkpt>
      <trkpt lat="49.26377" lon="1.08346">
        <ele>119.1</ele>
        <time>2016-09-18T09:03:04Z</time>
      </trkpt>
      <trkpt lat="49.26372" lon="1.08359">
        <ele>119.2</ele>
        <time>2016-09-18T09:03:08Z</time>
      </trkpt>
      <trkpt lat="49.26373" lon="1.08373">
        <ele>119.2</ele>
        <time>2016-09-18T09:03:12Z</time>
      </trkpt>
      <trkpt lat="49.26366" lon="1.08386">
        <ele>119.2</ele>
        <time>2016-09-18T09:03:15Z</time>
      </trkpt>
      <trkpt lat="49.26358" lon="1.08393">
        <ele>119.3</ele>
        <time>2016-09-18T09:03:18Z</time>
      </trkpt>
      <trkpt lat="49.26348" lon="1.08401">
        <ele>119.4</ele>
        <time>2016-09-18T09:03:22Z</time>
      </trkpt>
      <trkpt lat="49.26339" lon="1.08407">
        <ele>119.5</ele>
        <time>2016-09-18T09:03:25Z</time>
      </trkpt>
      <trkpt lat="49.26328" lon="1.08416">
        <ele>119.6</ele>
        <time>2016-09-18T09:03:28Z</time>
      </trkpt>
      <trkpt lat="49.26321" lon="1.0843">
        <ele>119.6</ele>
        <time>2016-09-18T09:03:31Z</time>
      </trkpt>
      <trkpt lat="49.26327" lon="1.08443">
        <ele>119.7</ele>
        <time>2016-09-18T09:03:35Z</time>
      </trkpt>
      <trkpt lat="49.26333" lon="1.08457">
        <ele>119.8</ele>
        <time>2016-09-18T09:03:39Z</time>
      </trkpt>
      <trkpt lat="49.26339" lon="1.08468">
        <ele>119.8</ele>
        <time>2016-09-18T09:03:41Z</time>
      </trkpt>
      <trkpt lat="49.26347" lon="1.08482">
        <ele>119.8</ele>
        <time>2016-09-18T09:03:44Z</time>
      </trkpt>
      <trkpt lat="49.26355" lon="1.08494">
        <ele>119.8</ele>
        <time>2016-09-18T09:03:47Z</time>
      </trkpt>
      <trkpt lat="49.26363" lon="1.08503">
        <ele>119.8</ele>
        <time>2016-09-18T09:03:49Z</time>
      </trkpt>
      <trkpt lat="49.26371" lon="1.08513">
        <ele>119.8</ele>
        <time>2016-09-18T09:03:51Z</time>
      </trkpt>
      <trkpt lat="49.26381" lon="1.08527">
        <ele>119.7</ele>
        <time>2016-09-18T09:03:54Z</time>
      </trkpt>
      <trkpt lat="49.26391" lon="1.0854">
        <ele>119.6</ele>
        <time>2016-09-18T09:03:57Z</time>
      </trkpt>
      <trkpt lat="49.264" lon="1.08552">
        <ele>119.6</ele>
        <time>2016-09-18T09:04:00Z</time>
      </trkpt>
      <trkpt lat="49.26407" lon="1.08563">
        <ele>119.5</ele>
        <time>2016-09-18T09:04:02Z</time>
      </trkpt>
      <trkpt lat="49.26414" lon="1.08573">
        <ele>119.3</ele>
        <time>2016-09-18T09:04:04Z</time>
      </trkpt>
      <trkpt lat="49.26421" lon="1.08585">
        <ele>119.1</ele>
        <time>2016-09-18T09:04:06Z</time>
      </trkpt>
      <trkpt lat="49.26433" lon="1.08597">
        <ele>119</ele>
        <time>2016-09-18T09:04:08Z</time>
      </trkpt>
      <trkpt lat="49.26442" lon="1.08605">
        <ele>118.7</ele>
        <time>2016-09-18T09:04:10Z</time>
      </trkpt>
      <trkpt lat="49.2645" lon="1.08623">
        <ele>118.4</ele>
        <time>2016-09-18T09:04:13Z</time>
      </trkpt>
      <trkpt lat="49.26461" lon="1.08637">
        <ele>118.1</ele>
        <time>2016-09-18T09:04:15Z</time>
      </trkpt>
      <trkpt lat="49.2647" lon="1.08649">
        <ele>117.8</ele>
        <time>2016-09-18T09:04:17Z</time>
      </trkpt>
      <trkpt lat="49.26482" lon="1.08664">
        <ele>117.4</ele>
        <time>2016-09-18T09:04:19Z</time>
      </trkpt>
      <trkpt lat="49.2649" lon="1.08675">
        <ele>116.9</ele>
        <time>2016-09-18T09:04:21Z</time>
      </trkpt>
      <trkpt lat="49.26498" lon="1.08686">
        <ele>116.2</ele>
        <time>2016-09-18T09:04:23Z</time>
      </trkpt>
      <trkpt lat="49.26507" lon="1.08698">
        <ele>115.5</ele>
        <time>2016-09-18T09:04:25Z</time>
      </trkpt>
      <trkpt lat="49.26516" lon="1.08709">
        <ele>114.7</ele>
        <time>2016-09-18T09:04:27Z</time>
      </trkpt>
      <trkpt lat="49.26521" lon="1.08724">
        <ele>113.8</ele>
        <time>2016-09-18T09:04:29Z</time>
      </trkpt>
      <trkpt lat="49.26532" lon="1.08738">
        <ele>112.9</ele>
        <time>2016-09-18T09:04:31Z</time>
      </trkpt>
      <trkpt lat="49.26542" lon="1.0875">
        <ele>112.1</ele>
        <time>2016-09-18T09:04:33Z</time>
      </trkpt>
      <trkpt lat="49.2655" lon="1.08758">
        <ele>111.3</ele>
        <time>2016-09-18T09:04:35Z</time>
      </trkpt>
      <trkpt lat="49.26559" lon="1.08765">
        <ele>110.3</ele>
        <time>2016-09-18T09:04:38Z</time>
      </trkpt>
      <trkpt lat="49.26566" lon="1.08775">
        <ele>109.5</ele>
        <time>2016-09-18T09:04:41Z</time>
      </trkpt>
      <trkpt lat="49.26574" lon="1.08785">
        <ele>108.8</ele>
        <time>2016-09-18T09:04:43Z</time>
      </trkpt>
      <trkpt lat="49.26582" lon="1.08795">
        <ele>108</ele>
        <time>2016-09-18T09:04:45Z</time>
      </trkpt>
      <trkpt lat="49.2659" lon="1.08805">
        <ele>107.1</ele>
        <time>2016-09-18T09:04:47Z</time>
      </trkpt>
      <trkpt lat="49.26598" lon="1.08814">
        <ele>105.9</ele>
        <time>2016-09-18T09:04:49Z</time>
      </trkpt>
      <trkpt lat="49.26606" lon="1.08823">
        <ele>104.5</ele>
        <time>2016-09-18T09:04:51Z</time>
      </trkpt>
      <trkpt lat="49.26616" lon="1.08835">
        <ele>102.4</ele>
        <time>2016-09-18T09:04:54Z</time>
      </trkpt>
      <trkpt lat="49.26624" lon="1.08844">
        <ele>100.8</ele>
        <time>2016-09-18T09:04:56Z</time>
      </trkpt>
      <trkpt lat="49.26632" lon="1.08857">
        <ele>99.3</ele>
        <time>2016-09-18T09:04:58Z</time>
      </trkpt>
      <trkpt lat="49.26641" lon="1.08867">
        <ele>97.7</ele>
        <time>2016-09-18T09:05:00Z</time>
      </trkpt>
      <trkpt lat="49.2665" lon="1.08878">
        <ele>96.2</ele>
        <time>2016-09-18T09:05:02Z</time>
      </trkpt>
      <trkpt lat="49.2666" lon="1.0889">
        <ele>94.7</ele>
        <time>2016-09-18T09:05:04Z</time>
      </trkpt>
      <trkpt lat="49.26671" lon="1.08903">
        <ele>93.3</ele>
        <time>2016-09-18T09:05:06Z</time>
      </trkpt>
      <trkpt lat="49.26679" lon="1.08914">
        <ele>92</ele>
        <time>2016-09-18T09:05:08Z</time>
      </trkpt>
      <trkpt lat="49.26686" lon="1.08925">
        <ele>90.3</ele>
        <time>2016-09-18T09:05:11Z</time>
      </trkpt>
      <trkpt lat="49.26691" lon="1.08937">
        <ele>88.4</ele>
        <time>2016-09-18T09:05:15Z</time>
      </trkpt>
      <trkpt lat="49.26683" lon="1.0893">
        <ele>84.9</ele>
        <time>2016-09-18T09:05:26Z</time>
      </trkpt>
      <trkpt lat="49.26672" lon="1.08931">
        <ele>84</ele>
        <time>2016-09-18T09:05:31Z</time>
      </trkpt>
      <trkpt lat="49.26661" lon="1.08939">
        <ele>83.6</ele>
        <time>2016-09-18T09:05:35Z</time>
      </trkpt>
      <trkpt lat="49.26652" lon="1.08947">
        <ele>83.6</ele>
        <time>2016-09-18T09:05:38Z</time>
      </trkpt>
      <trkpt lat="49.26643" lon="1.08959">
        <ele>84</ele>
        <time>2016-09-18T09:05:42Z</time>
      </trkpt>
      <trkpt lat="49.26635" lon="1.08971">
        <ele>84.6</ele>
        <time>2016-09-18T09:05:46Z</time>
      </trkpt>
      <trkpt lat="49.26628" lon="1.08982">
        <ele>85.1</ele>
        <time>2016-09-18T09:05:49Z</time>
      </trkpt>
      <trkpt lat="49.26621" lon="1.0899">
        <ele>85.4</ele>
        <time>2016-09-18T09:05:51Z</time>
      </trkpt>
      <trkpt lat="49.26613" lon="1.09">
        <ele>86.1</ele>
        <time>2016-09-18T09:05:55Z</time>
      </trkpt>
      <trkpt lat="49.26604" lon="1.09006">
        <ele>87</ele>
        <time>2016-09-18T09:06:00Z</time>
      </trkpt>
      <trkpt lat="49.26594" lon="1.09012">
        <ele>87.6</ele>
        <time>2016-09-18T09:06:04Z</time>
      </trkpt>
      <trkpt lat="49.26583" lon="1.09014">
        <ele>87.9</ele>
        <time>2016-09-18T09:06:07Z</time>
      </trkpt>
      <trkpt lat="49.26568" lon="1.09022">
        <ele>88.2</ele>
        <time>2016-09-18T09:06:10Z</time>
      </trkpt>
      <trkpt lat="49.26558" lon="1.09031">
        <ele>88.3</ele>
        <time>2016-09-18T09:06:13Z</time>
      </trkpt>
      <trkpt lat="49.26549" lon="1.09041">
        <ele>88.4</ele>
        <time>2016-09-18T09:06:16Z</time>
      </trkpt>
      <trkpt lat="49.26542" lon="1.09053">
        <ele>88.4</ele>
        <time>2016-09-18T09:06:19Z</time>
      </trkpt>
      <trkpt lat="49.26531" lon="1.09064">
        <ele>88.5</ele>
        <time>2016-09-18T09:06:21Z</time>
      </trkpt>
      <trkpt lat="49.26521" lon="1.09077">
        <ele>88.5</ele>
        <time>2016-09-18T09:06:24Z</time>
      </trkpt>
      <trkpt lat="49.26507" lon="1.0909">
        <ele>88.6</ele>
        <time>2016-09-18T09:06:27Z</time>
      </trkpt>
      <trkpt lat="49.26498" lon="1.09101">
        <ele>88.7</ele>
        <time>2016-09-18T09:06:30Z</time>
      </trkpt>
      <trkpt lat="49.26487" lon="1.09111">
        <ele>88.7</ele>
        <time>2016-09-18T09:06:32Z</time>
      </trkpt>
      <trkpt lat="49.26478" lon="1.09119">
        <ele>88.8</ele>
        <time>2016-09-18T09:06:33Z</time>
      </trkpt>
      <trkpt lat="49.26466" lon="1.09132">
        <ele>88.9</ele>
        <time>2016-09-18T09:06:35Z</time>
      </trkpt>
      <trkpt lat="49.26457" lon="1.0914">
        <ele>89.1</ele>
        <time>2016-09-18T09:06:37Z</time>
      </trkpt>
      <trkpt lat="49.2645" lon="1.09148">
        <ele>89.5</ele>
        <time>2016-09-18T09:06:41Z</time>
      </trkpt>
      <trkpt lat="49.26442" lon="1.09159">
        <ele>89.8</ele>
        <time>2016-09-18T09:06:44Z</time>
      </trkpt>
      <trkpt lat="49.26435" lon="1.09173">
        <ele>90.5</ele>
        <time>2016-09-18T09:06:48Z</time>
      </trkpt>
      <trkpt lat="49.2643" lon="1.09189">
        <ele>91.2</ele>
        <time>2016-09-18T09:06:52Z</time>
      </trkpt>
      <trkpt lat="49.26427" lon="1.09204">
        <ele>91.9</ele>
        <time>2016-09-18T09:06:56Z</time>
      </trkpt>
      <trkpt lat="49.26426" lon="1.0922">
        <ele>92.5</ele>
        <time>2016-09-18T09:07:00Z</time>
      </trkpt>
      <trkpt lat="49.26421" lon="1.09232">
        <ele>92.9</ele>
        <time>2016-09-18T09:07:03Z</time>
      </trkpt>
      <trkpt lat="49.26415" lon="1.09247">
        <ele>93.2</ele>
        <time>2016-09-18T09:07:06Z</time>
      </trkpt>
      <trkpt lat="49.26411" lon="1.09264">
        <ele>93.5</ele>
        <time>2016-09-18T09:07:09Z</time>
      </trkpt>
      <trkpt lat="49.26408" lon="1.09277">
        <ele>93.7</ele>
        <time>2016-09-18T09:07:12Z</time>
      </trkpt>
      <trkpt lat="49.26403" lon="1.09289">
        <ele>94.3</ele>
        <time>2016-09-18T09:07:20Z</time>
      </trkpt>
      <trkpt lat="49.26395" lon="1.09297">
        <ele>95.1</ele>
        <time>2016-09-18T09:07:39Z</time>
      </trkpt>
      <trkpt lat="49.26392" lon="1.09313">
        <ele>95.3</ele>
        <time>2016-09-18T09:07:52Z</time>
      </trkpt>
      <trkpt lat="49.26392" lon="1.09328">
        <ele>95.4</ele>
        <time>2016-09-18T09:07:55Z</time>
      </trkpt>
      <trkpt lat="49.26393" lon="1.09344">
        <ele>95.5</ele>
        <time>2016-09-18T09:07:58Z</time>
      </trkpt>
      <trkpt lat="49.26399" lon="1.09361">
        <ele>95.8</ele>
        <time>2016-09-18T09:08:02Z</time>
      </trkpt>
      <trkpt lat="49.26398" lon="1.09377">
        <ele>96</ele>
        <time>2016-09-18T09:08:05Z</time>
      </trkpt>
      <trkpt lat="49.264" lon="1.09393">
        <ele>96.4</ele>
        <time>2016-09-18T09:08:09Z</time>
      </trkpt>
      <trkpt lat="49.264" lon="1.09408">
        <ele>96.8</ele>
        <time>2016-09-18T09:08:12Z</time>
      </trkpt>
      <trkpt lat="49.26398" lon="1.09424">
        <ele>97.1</ele>
        <time>2016-09-18T09:08:15Z</time>
      </trkpt>
      <trkpt lat="49.26399" lon="1.0944">
        <ele>97.5</ele>
        <time>2016-09-18T09:08:18Z</time>
      </trkpt>
      <trkpt lat="49.26404" lon="1.09453">
        <ele>98</ele>
        <time>2016-09-18T09:08:21Z</time>
      </trkpt>
      <trkpt lat="49.26402" lon="1.09468">
        <ele>98.3</ele>
        <time>2016-09-18T09:08:24Z</time>
      </trkpt>
      <trkpt lat="49.26402" lon="1.09483">
        <ele>98.7</ele>
        <time>2016-09-18T09:08:27Z</time>
      </trkpt>
      <trkpt lat="49.26401" lon="1.09499">
        <ele>99</ele>
        <time>2016-09-18T09:08:30Z</time>
      </trkpt>
      <trkpt lat="49.26403" lon="1.09513">
        <ele>99.4</ele>
        <time>2016-09-18T09:08:33Z</time>
      </trkpt>
      <trkpt lat="49.26403" lon="1.09528">
        <ele>99.9</ele>
        <time>2016-09-18T09:08:37Z</time>
      </trkpt>
      <trkpt lat="49.26403" lon="1.09544">
        <ele>100.6</ele>
        <time>2016-09-18T09:08:42Z</time>
      </trkpt>
      <trkpt lat="49.26404" lon="1.0956">
        <ele>101.2</ele>
        <time>2016-09-18T09:08:47Z</time>
      </trkpt>
      <trkpt lat="49.26404" lon="1.09575">
        <ele>101.9</ele>
        <time>2016-09-18T09:08:52Z</time>
      </trkpt>
      <trkpt lat="49.26406" lon="1.0959">
        <ele>102.5</ele>
        <time>2016-09-18T09:08:57Z</time>
      </trkpt>
      <trkpt lat="49.26408" lon="1.09604">
        <ele>103.3</ele>
        <time>2016-09-18T09:09:03Z</time>
      </trkpt>
      <trkpt lat="49.26412" lon="1.09617">
        <ele>104</ele>
        <time>2016-09-18T09:09:09Z</time>
      </trkpt>
      <trkpt lat="49.26413" lon="1.09632">
        <ele>104.6</ele>
        <time>2016-09-18T09:09:14Z</time>
      </trkpt>
      <trkpt lat="49.26412" lon="1.09648">
        <ele>105.2</ele>
        <time>2016-09-18T09:09:19Z</time>
      </trkpt>
      <trkpt lat="49.26413" lon="1.09665">
        <ele>106</ele>
        <time>2016-09-18T09:09:25Z</time>
      </trkpt>
      <trkpt lat="49.26413" lon="1.09682">
        <ele>106.7</ele>
        <time>2016-09-18T09:09:30Z</time>
      </trkpt>
      <trkpt lat="49.26416" lon="1.09696">
        <ele>107.2</ele>
        <time>2016-09-18T09:09:34Z</time>
      </trkpt>
      <trkpt lat="49.26416" lon="1.09712">
        <ele>107.8</ele>
        <time>2016-09-18T09:09:38Z</time>
      </trkpt>
      <trkpt lat="49.26418" lon="1.09726">
        <ele>108.3</ele>
        <time>2016-09-18T09:09:42Z</time>
      </trkpt>
      <trkpt lat="49.26419" lon="1.09741">
        <ele>108.9</ele>
        <time>2016-09-18T09:09:46Z</time>
      </trkpt>
      <trkpt lat="49.26421" lon="1.09758">
        <ele>109.7</ele>
        <time>2016-09-18T09:09:51Z</time>
      </trkpt>
      <trkpt lat="49.26423" lon="1.09776">
        <ele>110</ele>
        <time>2016-09-18T09:09:57Z</time>
      </trkpt>
      <trkpt lat="49.26428" lon="1.09791">
        <ele>111</ele>
        <time>2016-09-18T09:10:01Z</time>
      </trkpt>
      <trkpt lat="49.26433" lon="1.09804">
        <ele>111</ele>
        <time>2016-09-18T09:10:05Z</time>
      </trkpt>
      <trkpt lat="49.26436" lon="1.09818">
        <ele>112.2</ele>
        <time>2016-09-18T09:10:09Z</time>
      </trkpt>
      <trkpt lat="49.26439" lon="1.09836">
        <ele>112</ele>
        <time>2016-09-18T09:10:13Z</time>
      </trkpt>
      <trkpt lat="49.26442" lon="1.0985">
        <ele>113.1</ele>
        <time>2016-09-18T09:10:16Z</time>
      </trkpt>
      <trkpt lat="49.26445" lon="1.09863">
        <ele>113.4</ele>
        <time>2016-09-18T09:10:19Z</time>
      </trkpt>
      <trkpt lat="49.26448" lon="1.09881">
        <ele>113</ele>
        <time>2016-09-18T09:10:23Z</time>
      </trkpt>
      <trkpt lat="49.26451" lon="1.09897">
        <ele>114.5</ele>
        <time>2016-09-18T09:10:27Z</time>
      </trkpt>
      <trkpt lat="49.26453" lon="1.09912">
        <ele>115.1</ele>
        <time>2016-09-18T09:10:31Z</time>
      </trkpt>
      <trkpt lat="49.2646" lon="1.09923">
        <ele>115.5</ele>
        <time>2016-09-18T09:10:35Z</time>
      </trkpt>
      <trkpt lat="49.26469" lon="1.09937">
        <ele>116</ele>
        <time>2016-09-18T09:10:40Z</time>
      </trkpt>
      <trkpt lat="49.26478" lon="1.09949">
        <ele>116.2</ele>
        <time>2016-09-18T09:10:44Z</time>
      </trkpt>
      <trkpt lat="49.26488" lon="1.09968">
        <ele>116.5</ele>
        <time>2016-09-18T09:10:49Z</time>
      </trkpt>
      <trkpt lat="49.26494" lon="1.09982">
        <ele>116.7</ele>
        <time>2016-09-18T09:10:53Z</time>
      </trkpt>
      <trkpt lat="49.26501" lon="1.09994">
        <ele>116.9</ele>
        <time>2016-09-18T09:10:56Z</time>
      </trkpt>
      <trkpt lat="49.2651" lon="1.10001">
        <ele>117.1</ele>
        <time>2016-09-18T09:10:59Z</time>
      </trkpt>
      <trkpt lat="49.26519" lon="1.10005">
        <ele>117.3</ele>
        <time>2016-09-18T09:11:02Z</time>
      </trkpt>
      <trkpt lat="49.26529" lon="1.1001">
        <ele>117.5</ele>
        <time>2016-09-18T09:11:05Z</time>
      </trkpt>
      <trkpt lat="49.26539" lon="1.10012">
        <ele>117.7</ele>
        <time>2016-09-18T09:11:08Z</time>
      </trkpt>
      <trkpt lat="49.26552" lon="1.10016">
        <ele>117</ele>
        <time>2016-09-18T09:11:12Z</time>
      </trkpt>
      <trkpt lat="49.26563" lon="1.10021">
        <ele>118.3</ele>
        <time>2016-09-18T09:11:15Z</time>
      </trkpt>
      <trkpt lat="49.26572" lon="1.10025">
        <ele>118.6</ele>
        <time>2016-09-18T09:11:18Z</time>
      </trkpt>
      <trkpt lat="49.26587" lon="1.10045">
        <ele>119</ele>
        <time>2016-09-18T09:11:23Z</time>
      </trkpt>
      <trkpt lat="49.26591" lon="1.1006">
        <ele>119.2</ele>
        <time>2016-09-18T09:11:26Z</time>
      </trkpt>
      <trkpt lat="49.26595" lon="1.10073">
        <ele>119.5</ele>
        <time>2016-09-18T09:11:29Z</time>
      </trkpt>
      <trkpt lat="49.26595" lon="1.10091">
        <ele>119.6</ele>
        <time>2016-09-18T09:11:32Z</time>
      </trkpt>
      <trkpt lat="49.26596" lon="1.10109">
        <ele>119.8</ele>
        <time>2016-09-18T09:11:35Z</time>
      </trkpt>
      <trkpt lat="49.26597" lon="1.10127">
        <ele>120</ele>
        <time>2016-09-18T09:11:38Z</time>
      </trkpt>
      <trkpt lat="49.26599" lon="1.10142">
        <ele>120.2</ele>
        <time>2016-09-18T09:11:41Z</time>
      </trkpt>
      <trkpt lat="49.26601" lon="1.10157">
        <ele>120.5</ele>
        <time>2016-09-18T09:11:44Z</time>
      </trkpt>
      <trkpt lat="49.266" lon="1.10173">
        <ele>120.7</ele>
        <time>2016-09-18T09:11:47Z</time>
      </trkpt>
      <trkpt lat="49.266" lon="1.10188">
        <ele>120.9</ele>
        <time>2016-09-18T09:11:50Z</time>
      </trkpt>
      <trkpt lat="49.26598" lon="1.10205">
        <ele>121.2</ele>
        <time>2016-09-18T09:11:53Z</time>
      </trkpt>
      <trkpt lat="49.26596" lon="1.1022">
        <ele>121.5</ele>
        <time>2016-09-18T09:11:56Z</time>
      </trkpt>
      <trkpt lat="49.26592" lon="1.10235">
        <ele>121.7</ele>
        <time>2016-09-18T09:11:59Z</time>
      </trkpt>
      <trkpt lat="49.26584" lon="1.10248">
        <ele>121.9</ele>
        <time>2016-09-18T09:12:02Z</time>
      </trkpt>
      <trkpt lat="49.26575" lon="1.10262">
        <ele>122.2</ele>
        <time>2016-09-18T09:12:05Z</time>
      </trkpt>
      <trkpt lat="49.26567" lon="1.10276">
        <ele>122.5</ele>
        <time>2016-09-18T09:12:08Z</time>
      </trkpt>
      <trkpt lat="49.26559" lon="1.10292">
        <ele>122.8</ele>
        <time>2016-09-18T09:12:11Z</time>
      </trkpt>
      <trkpt lat="49.26554" lon="1.10308">
        <ele>123</ele>
        <time>2016-09-18T09:12:14Z</time>
      </trkpt>
      <trkpt lat="49.26549" lon="1.10322">
        <ele>123.1</ele>
        <time>2016-09-18T09:12:17Z</time>
      </trkpt>
      <trkpt lat="49.26545" lon="1.10337">
        <ele>123.3</ele>
        <time>2016-09-18T09:12:20Z</time>
      </trkpt>
      <trkpt lat="49.26541" lon="1.10353">
        <ele>123.4</ele>
        <time>2016-09-18T09:12:23Z</time>
      </trkpt>
      <trkpt lat="49.26537" lon="1.10369">
        <ele>123.7</ele>
        <time>2016-09-18T09:12:26Z</time>
      </trkpt>
      <trkpt lat="49.26533" lon="1.10385">
        <ele>123.8</ele>
        <time>2016-09-18T09:12:29Z</time>
      </trkpt>
      <trkpt lat="49.26527" lon="1.10401">
        <ele>124</ele>
        <time>2016-09-18T09:12:32Z</time>
      </trkpt>
      <trkpt lat="49.26523" lon="1.10416">
        <ele>124.1</ele>
        <time>2016-09-18T09:12:35Z</time>
      </trkpt>
      <trkpt lat="49.26517" lon="1.10428">
        <ele>124.2</ele>
        <time>2016-09-18T09:12:38Z</time>
      </trkpt>
      <trkpt lat="49.26508" lon="1.10442">
        <ele>124.4</ele>
        <time>2016-09-18T09:12:41Z</time>
      </trkpt>
      <trkpt lat="49.26499" lon="1.10456">
        <ele>124.5</ele>
        <time>2016-09-18T09:12:44Z</time>
      </trkpt>
      <trkpt lat="49.26492" lon="1.10465">
        <ele>124.6</ele>
        <time>2016-09-18T09:12:46Z</time>
      </trkpt>
      <trkpt lat="49.26483" lon="1.10479">
        <ele>124.7</ele>
        <time>2016-09-18T09:12:49Z</time>
      </trkpt>
      <trkpt lat="49.26476" lon="1.10489">
        <ele>124.7</ele>
        <time>2016-09-18T09:12:51Z</time>
      </trkpt>
      <trkpt lat="49.26469" lon="1.10499">
        <ele>124.8</ele>
        <time>2016-09-18T09:12:53Z</time>
      </trkpt>
      <trkpt lat="49.26463" lon="1.10509">
        <ele>124.8</ele>
        <time>2016-09-18T09:12:55Z</time>
      </trkpt>
      <trkpt lat="49.26456" lon="1.10519">
        <ele>124.9</ele>
        <time>2016-09-18T09:12:57Z</time>
      </trkpt>
      <trkpt lat="49.26449" lon="1.10528">
        <ele>124.9</ele>
        <time>2016-09-18T09:12:59Z</time>
      </trkpt>
      <trkpt lat="49.26443" lon="1.10538">
        <ele>125</ele>
        <time>2016-09-18T09:13:01Z</time>
      </trkpt>
      <trkpt lat="49.26436" lon="1.10548">
        <ele>125</ele>
        <time>2016-09-18T09:13:03Z</time>
      </trkpt>
      <trkpt lat="49.26426" lon="1.10561">
        <ele>125.1</ele>
        <time>2016-09-18T09:13:06Z</time>
      </trkpt>
      <trkpt lat="49.26418" lon="1.10574">
        <ele>125.2</ele>
        <time>2016-09-18T09:13:09Z</time>
      </trkpt>
      <trkpt lat="49.26409" lon="1.10586">
        <ele>125.3</ele>
        <time>2016-09-18T09:13:12Z</time>
      </trkpt>
      <trkpt lat="49.264" lon="1.10599">
        <ele>125.3</ele>
        <time>2016-09-18T09:13:15Z</time>
      </trkpt>
      <trkpt lat="49.26393" lon="1.10611">
        <ele>125.4</ele>
        <time>2016-09-18T09:13:18Z</time>
      </trkpt>
      <trkpt lat="49.26383" lon="1.10623">
        <ele>125.4</ele>
        <time>2016-09-18T09:13:21Z</time>
      </trkpt>
      <trkpt lat="49.26374" lon="1.10636">
        <ele>125.4</ele>
        <time>2016-09-18T09:13:24Z</time>
      </trkpt>
      <trkpt lat="49.26364" lon="1.1065">
        <ele>125.4</ele>
        <time>2016-09-18T09:13:27Z</time>
      </trkpt>
      <trkpt lat="49.26355" lon="1.10665">
        <ele>125.5</ele>
        <time>2016-09-18T09:13:30Z</time>
      </trkpt>
      <trkpt lat="49.26348" lon="1.10674">
        <ele>125.5</ele>
        <time>2016-09-18T09:13:32Z</time>
      </trkpt>
      <trkpt lat="49.26341" lon="1.10684">
        <ele>125.5</ele>
        <time>2016-09-18T09:13:34Z</time>
      </trkpt>
      <trkpt lat="49.26334" lon="1.10694">
        <ele>125.5</ele>
        <time>2016-09-18T09:13:36Z</time>
      </trkpt>
      <trkpt lat="49.26327" lon="1.10704">
        <ele>125.5</ele>
        <time>2016-09-18T09:13:38Z</time>
      </trkpt>
      <trkpt lat="49.2632" lon="1.10714">
        <ele>125.5</ele>
        <time>2016-09-18T09:13:40Z</time>
      </trkpt>
      <trkpt lat="49.26314" lon="1.10725">
        <ele>125.5</ele>
        <time>2016-09-18T09:13:42Z</time>
      </trkpt>
      <trkpt lat="49.26307" lon="1.10735">
        <ele>125.5</ele>
        <time>2016-09-18T09:13:44Z</time>
      </trkpt>
      <trkpt lat="49.263" lon="1.10744">
        <ele>125.5</ele>
        <time>2016-09-18T09:13:46Z</time>
      </trkpt>
      <trkpt lat="49.26293" lon="1.10754">
        <ele>125.5</ele>
        <time>2016-09-18T09:13:48Z</time>
      </trkpt>
      <trkpt lat="49.26287" lon="1.10764">
        <ele>125.5</ele>
        <time>2016-09-18T09:13:50Z</time>
      </trkpt>
      <trkpt lat="49.26281" lon="1.10774">
        <ele>125.6</ele>
        <time>2016-09-18T09:13:52Z</time>
      </trkpt>
      <trkpt lat="49.26274" lon="1.10784">
        <ele>125.6</ele>
        <time>2016-09-18T09:13:54Z</time>
      </trkpt>
      <trkpt lat="49.26266" lon="1.10794">
        <ele>125.6</ele>
        <time>2016-09-18T09:13:56Z</time>
      </trkpt>
      <trkpt lat="49.26259" lon="1.10805">
        <ele>125.6</ele>
        <time>2016-09-18T09:13:58Z</time>
      </trkpt>
      <trkpt lat="49.26251" lon="1.10816">
        <ele>125.6</ele>
        <time>2016-09-18T09:14:00Z</time>
      </trkpt>
      <trkpt lat="49.26244" lon="1.10826">
        <ele>125.6</ele>
        <time>2016-09-18T09:14:02Z</time>
      </trkpt>
      <trkpt lat="49.26236" lon="1.10837">
        <ele>125.6</ele>
        <time>2016-09-18T09:14:04Z</time>
      </trkpt>
      <trkpt lat="49.26229" lon="1.10849">
        <ele>125.6</ele>
        <time>2016-09-18T09:14:06Z</time>
      </trkpt>
      <trkpt lat="49.26221" lon="1.1086">
        <ele>125.6</ele>
        <time>2016-09-18T09:14:08Z</time>
      </trkpt>
      <trkpt lat="49.26214" lon="1.10872">
        <ele>125.6</ele>
        <time>2016-09-18T09:14:10Z</time>
      </trkpt>
      <trkpt lat="49.26208" lon="1.10884">
        <ele>125.6</ele>
        <time>2016-09-18T09:14:12Z</time>
      </trkpt>
      <trkpt lat="49.262" lon="1.10893">
        <ele>125.6</ele>
        <time>2016-09-18T09:14:14Z</time>
      </trkpt>
      <trkpt lat="49.26191" lon="1.1089">
        <ele>125.6</ele>
        <time>2016-09-18T09:14:16Z</time>
      </trkpt>
      <trkpt lat="49.26185" lon="1.10879">
        <ele>125.6</ele>
        <time>2016-09-18T09:14:18Z</time>
      </trkpt>
      <trkpt lat="49.26182" lon="1.10866">
        <ele>125.6</ele>
        <time>2016-09-18T09:14:20Z</time>
      </trkpt>
      <trkpt lat="49.26177" lon="1.10846">
        <ele>125.5</ele>
        <time>2016-09-18T09:14:23Z</time>
      </trkpt>
      <trkpt lat="49.26172" lon="1.10834">
        <ele>125.5</ele>
        <time>2016-09-18T09:14:25Z</time>
      </trkpt>
      <trkpt lat="49.26168" lon="1.10822">
        <ele>125.5</ele>
        <time>2016-09-18T09:14:27Z</time>
      </trkpt>
      <trkpt lat="49.26162" lon="1.10803">
        <ele>125.5</ele>
        <time>2016-09-18T09:14:30Z</time>
      </trkpt>
      <trkpt lat="49.26153" lon="1.10792">
        <ele>125.5</ele>
        <time>2016-09-18T09:14:33Z</time>
      </trkpt>
      <trkpt lat="49.26142" lon="1.10802">
        <ele>125.5</ele>
        <time>2016-09-18T09:14:36Z</time>
      </trkpt>
      <trkpt lat="49.26134" lon="1.10811">
        <ele>125.4</ele>
        <time>2016-09-18T09:14:38Z</time>
      </trkpt>
      <trkpt lat="49.26126" lon="1.10821">
        <ele>125.4</ele>
        <time>2016-09-18T09:14:40Z</time>
      </trkpt>
      <trkpt lat="49.26119" lon="1.10831">
        <ele>125.4</ele>
        <time>2016-09-18T09:14:42Z</time>
      </trkpt>
      <trkpt lat="49.26111" lon="1.10841">
        <ele>125.4</ele>
        <time>2016-09-18T09:14:44Z</time>
      </trkpt>
      <trkpt lat="49.26103" lon="1.1085">
        <ele>125.3</ele>
        <time>2016-09-18T09:14:46Z</time>
      </trkpt>
      <trkpt lat="49.26095" lon="1.10859">
        <ele>125.3</ele>
        <time>2016-09-18T09:14:48Z</time>
      </trkpt>
      <trkpt lat="49.26087" lon="1.10868">
        <ele>125.2</ele>
        <time>2016-09-18T09:14:50Z</time>
      </trkpt>
      <trkpt lat="49.2608" lon="1.10878">
        <ele>125.1</ele>
        <time>2016-09-18T09:14:52Z</time>
      </trkpt>
      <trkpt lat="49.26072" lon="1.10888">
        <ele>125.1</ele>
        <time>2016-09-18T09:14:54Z</time>
      </trkpt>
      <trkpt lat="49.26064" lon="1.10897">
        <ele>125</ele>
        <time>2016-09-18T09:14:56Z</time>
      </trkpt>
      <trkpt lat="49.26056" lon="1.10908">
        <ele>124.9</ele>
        <time>2016-09-18T09:14:58Z</time>
      </trkpt>
      <trkpt lat="49.26048" lon="1.10918">
        <ele>124.8</ele>
        <time>2016-09-18T09:15:00Z</time>
      </trkpt>
      <trkpt lat="49.26041" lon="1.1093">
        <ele>124.6</ele>
        <time>2016-09-18T09:15:02Z</time>
      </trkpt>
      <trkpt lat="49.26034" lon="1.10943">
        <ele>124.4</ele>
        <time>2016-09-18T09:15:04Z</time>
      </trkpt>
      <trkpt lat="49.26026" lon="1.10955">
        <ele>124.2</ele>
        <time>2016-09-18T09:15:06Z</time>
      </trkpt>
      <trkpt lat="49.26019" lon="1.10968">
        <ele>124.1</ele>
        <time>2016-09-18T09:15:08Z</time>
      </trkpt>
      <trkpt lat="49.26011" lon="1.10981">
        <ele>123.9</ele>
        <time>2016-09-18T09:15:10Z</time>
      </trkpt>
      <trkpt lat="49.26003" lon="1.10994">
        <ele>123.7</ele>
        <time>2016-09-18T09:15:12Z</time>
      </trkpt>
      <trkpt lat="49.25995" lon="1.11006">
        <ele>123.4</ele>
        <time>2016-09-18T09:15:14Z</time>
      </trkpt>
      <trkpt lat="49.25986" lon="1.11019">
        <ele>123.2</ele>
        <time>2016-09-18T09:15:16Z</time>
      </trkpt>
      <trkpt lat="49.25977" lon="1.11031">
        <ele>123</ele>
        <time>2016-09-18T09:15:18Z</time>
      </trkpt>
      <trkpt lat="49.25968" lon="1.11044">
        <ele>122.8</ele>
        <time>2016-09-18T09:15:20Z</time>
      </trkpt>
      <trkpt lat="49.25958" lon="1.11057">
        <ele>122.5</ele>
        <time>2016-09-18T09:15:22Z</time>
      </trkpt>
      <trkpt lat="49.25948" lon="1.1107">
        <ele>122.2</ele>
        <time>2016-09-18T09:15:24Z</time>
      </trkpt>
      <trkpt lat="49.25937" lon="1.11081">
        <ele>121.9</ele>
        <time>2016-09-18T09:15:26Z</time>
      </trkpt>
      <trkpt lat="49.25926" lon="1.11089">
        <ele>121.6</ele>
        <time>2016-09-18T09:15:28Z</time>
      </trkpt>
      <trkpt lat="49.25914" lon="1.11095">
        <ele>121.3</ele>
        <time>2016-09-18T09:15:30Z</time>
      </trkpt>
      <trkpt lat="49.25902" lon="1.111">
        <ele>121</ele>
        <time>2016-09-18T09:15:32Z</time>
      </trkpt>
      <trkpt lat="49.25889" lon="1.11105">
        <ele>120.7</ele>
        <time>2016-09-18T09:15:34Z</time>
      </trkpt>
      <trkpt lat="49.25877" lon="1.11112">
        <ele>120.4</ele>
        <time>2016-09-18T09:15:36Z</time>
      </trkpt>
      <trkpt lat="49.25865" lon="1.11121">
        <ele>120.1</ele>
        <time>2016-09-18T09:15:38Z</time>
      </trkpt>
      <trkpt lat="49.25853" lon="1.11131">
        <ele>119.8</ele>
        <time>2016-09-18T09:15:40Z</time>
      </trkpt>
      <trkpt lat="49.25841" lon="1.1114">
        <ele>119.5</ele>
        <time>2016-09-18T09:15:42Z</time>
      </trkpt>
      <trkpt lat="49.25828" lon="1.1115">
        <ele>119.2</ele>
        <time>2016-09-18T09:15:44Z</time>
      </trkpt>
      <trkpt lat="49.25816" lon="1.11159">
        <ele>118.8</ele>
        <time>2016-09-18T09:15:46Z</time>
      </trkpt>
      <trkpt lat="49.25805" lon="1.11168">
        <ele>118.5</ele>
        <time>2016-09-18T09:15:48Z</time>
      </trkpt>
      <trkpt lat="49.25796" lon="1.11177">
        <ele>118.1</ele>
        <time>2016-09-18T09:15:50Z</time>
      </trkpt>
      <trkpt lat="49.25787" lon="1.11188">
        <ele>117.7</ele>
        <time>2016-09-18T09:15:52Z</time>
      </trkpt>
      <trkpt lat="49.25781" lon="1.11201">
        <ele>117.2</ele>
        <time>2016-09-18T09:15:54Z</time>
      </trkpt>
      <trkpt lat="49.25776" lon="1.11215">
        <ele>116.8</ele>
        <time>2016-09-18T09:15:56Z</time>
      </trkpt>
      <trkpt lat="49.2577" lon="1.11228">
        <ele>116.5</ele>
        <time>2016-09-18T09:15:58Z</time>
      </trkpt>
      <trkpt lat="49.25764" lon="1.11241">
        <ele>116.2</ele>
        <time>2016-09-18T09:16:00Z</time>
      </trkpt>
      <trkpt lat="49.25759" lon="1.11255">
        <ele>115.8</ele>
        <time>2016-09-18T09:16:02Z</time>
      </trkpt>
      <trkpt lat="49.25754" lon="1.11268">
        <ele>115.5</ele>
        <time>2016-09-18T09:16:04Z</time>
      </trkpt>
      <trkpt lat="49.25749" lon="1.11282">
        <ele>115.1</ele>
        <time>2016-09-18T09:16:06Z</time>
      </trkpt>
      <trkpt lat="49.25745" lon="1.11297">
        <ele>114.8</ele>
        <time>2016-09-18T09:16:08Z</time>
      </trkpt>
      <trkpt lat="49.2574" lon="1.11313">
        <ele>114.5</ele>
        <time>2016-09-18T09:16:10Z</time>
      </trkpt>
      <trkpt lat="49.25736" lon="1.11329">
        <ele>114.2</ele>
        <time>2016-09-18T09:16:12Z</time>
      </trkpt>
      <trkpt lat="49.25731" lon="1.11346">
        <ele>113.8</ele>
        <time>2016-09-18T09:16:14Z</time>
      </trkpt>
      <trkpt lat="49.25726" lon="1.11362">
        <ele>113.4</ele>
        <time>2016-09-18T09:16:16Z</time>
      </trkpt>
      <trkpt lat="49.25721" lon="1.11378">
        <ele>113</ele>
        <time>2016-09-18T09:16:18Z</time>
      </trkpt>
      <trkpt lat="49.25713" lon="1.11392">
        <ele>112.6</ele>
        <time>2016-09-18T09:16:20Z</time>
      </trkpt>
      <trkpt lat="49.25704" lon="1.11406">
        <ele>112.2</ele>
        <time>2016-09-18T09:16:22Z</time>
      </trkpt>
      <trkpt lat="49.25694" lon="1.11422">
        <ele>111.6</ele>
        <time>2016-09-18T09:16:24Z</time>
      </trkpt>
      <trkpt lat="49.25684" lon="1.11438">
        <ele>111.2</ele>
        <time>2016-09-18T09:16:26Z</time>
      </trkpt>
      <trkpt lat="49.25673" lon="1.11453">
        <ele>110.7</ele>
        <time>2016-09-18T09:16:28Z</time>
      </trkpt>
      <trkpt lat="49.25663" lon="1.11469">
        <ele>110.1</ele>
        <time>2016-09-18T09:16:30Z</time>
      </trkpt>
      <trkpt lat="49.25652" lon="1.11484">
        <ele>109.6</ele>
        <time>2016-09-18T09:16:32Z</time>
      </trkpt>
      <trkpt lat="49.25643" lon="1.11499">
        <ele>109.1</ele>
        <time>2016-09-18T09:16:34Z</time>
      </trkpt>
      <trkpt lat="49.25632" lon="1.11516">
        <ele>108.5</ele>
        <time>2016-09-18T09:16:36Z</time>
      </trkpt>
      <trkpt lat="49.25624" lon="1.11531">
        <ele>107.9</ele>
        <time>2016-09-18T09:16:38Z</time>
      </trkpt>
      <trkpt lat="49.25616" lon="1.11547">
        <ele>107.4</ele>
        <time>2016-09-18T09:16:40Z</time>
      </trkpt>
      <trkpt lat="49.25607" lon="1.11561">
        <ele>106.8</ele>
        <time>2016-09-18T09:16:42Z</time>
      </trkpt>
      <trkpt lat="49.25597" lon="1.11575">
        <ele>106.2</ele>
        <time>2016-09-18T09:16:44Z</time>
      </trkpt>
      <trkpt lat="49.25589" lon="1.11589">
        <ele>105.7</ele>
        <time>2016-09-18T09:16:46Z</time>
      </trkpt>
      <trkpt lat="49.25582" lon="1.11603">
        <ele>105.1</ele>
        <time>2016-09-18T09:16:48Z</time>
      </trkpt>
      <trkpt lat="49.25577" lon="1.1162">
        <ele>104.6</ele>
        <time>2016-09-18T09:16:50Z</time>
      </trkpt>
      <trkpt lat="49.25576" lon="1.11635">
        <ele>104</ele>
        <time>2016-09-18T09:16:52Z</time>
      </trkpt>
      <trkpt lat="49.25576" lon="1.11652">
        <ele>103.4</ele>
        <time>2016-09-18T09:16:54Z</time>
      </trkpt>
      <trkpt lat="49.25574" lon="1.11674">
        <ele>102.9</ele>
        <time>2016-09-18T09:16:56Z</time>
      </trkpt>
      <trkpt lat="49.25571" lon="1.11693">
        <ele>102.4</ele>
        <time>2016-09-18T09:16:58Z</time>
      </trkpt>
      <trkpt lat="49.2557" lon="1.11712">
        <ele>101.7</ele>
        <time>2016-09-18T09:17:00Z</time>
      </trkpt>
      <trkpt lat="49.25572" lon="1.11733">
        <ele>101.1</ele>
        <time>2016-09-18T09:17:02Z</time>
      </trkpt>
      <trkpt lat="49.25569" lon="1.11755">
        <ele>100.5</ele>
        <time>2016-09-18T09:17:04Z</time>
      </trkpt>
      <trkpt lat="49.25565" lon="1.11776">
        <ele>100</ele>
        <time>2016-09-18T09:17:06Z</time>
      </trkpt>
      <trkpt lat="49.25561" lon="1.11796">
        <ele>99.4</ele>
        <time>2016-09-18T09:17:08Z</time>
      </trkpt>
      <trkpt lat="49.25556" lon="1.11819">
        <ele>98.8</ele>
        <time>2016-09-18T09:17:10Z</time>
      </trkpt>
      <trkpt lat="49.25551" lon="1.11841">
        <ele>98.2</ele>
        <time>2016-09-18T09:17:12Z</time>
      </trkpt>
      <trkpt lat="49.25544" lon="1.11863">
        <ele>97.7</ele>
        <time>2016-09-18T09:17:14Z</time>
      </trkpt>
      <trkpt lat="49.25536" lon="1.11881">
        <ele>97.2</ele>
        <time>2016-09-18T09:17:16Z</time>
      </trkpt>
      <trkpt lat="49.25528" lon="1.11897">
        <ele>96.6</ele>
        <time>2016-09-18T09:17:18Z</time>
      </trkpt>
      <trkpt lat="49.25519" lon="1.11912">
        <ele>96.2</ele>
        <time>2016-09-18T09:17:20Z</time>
      </trkpt>
      <trkpt lat="49.25509" lon="1.11925">
        <ele>95.6</ele>
        <time>2016-09-18T09:17:22Z</time>
      </trkpt>
      <trkpt lat="49.25499" lon="1.11935">
        <ele>95.1</ele>
        <time>2016-09-18T09:17:24Z</time>
      </trkpt>
      <trkpt lat="49.25487" lon="1.11942">
        <ele>94.6</ele>
        <time>2016-09-18T09:17:26Z</time>
      </trkpt>
      <trkpt lat="49.25475" lon="1.11945">
        <ele>94.2</ele>
        <time>2016-09-18T09:17:28Z</time>
      </trkpt>
      <trkpt lat="49.25464" lon="1.11947">
        <ele>93.8</ele>
        <time>2016-09-18T09:17:30Z</time>
      </trkpt>
      <trkpt lat="49.25453" lon="1.1195">
        <ele>93.4</ele>
        <time>2016-09-18T09:17:32Z</time>
      </trkpt>
      <trkpt lat="49.25441" lon="1.11952">
        <ele>93.1</ele>
        <time>2016-09-18T09:17:34Z</time>
      </trkpt>
      <trkpt lat="49.25429" lon="1.11954">
        <ele>92.8</ele>
        <time>2016-09-18T09:17:36Z</time>
      </trkpt>
      <trkpt lat="49.25418" lon="1.11956">
        <ele>92.5</ele>
        <time>2016-09-18T09:17:38Z</time>
      </trkpt>
      <trkpt lat="49.25406" lon="1.11955">
        <ele>92.2</ele>
        <time>2016-09-18T09:17:40Z</time>
      </trkpt>
      <trkpt lat="49.25395" lon="1.11956">
        <ele>92</ele>
        <time>2016-09-18T09:17:42Z</time>
      </trkpt>
      <trkpt lat="49.25384" lon="1.11956">
        <ele>91.7</ele>
        <time>2016-09-18T09:17:44Z</time>
      </trkpt>
      <trkpt lat="49.25374" lon="1.11957">
        <ele>91.4</ele>
        <time>2016-09-18T09:17:46Z</time>
      </trkpt>
      <trkpt lat="49.25363" lon="1.11957">
        <ele>91.2</ele>
        <time>2016-09-18T09:17:48Z</time>
      </trkpt>
      <trkpt lat="49.25352" lon="1.11958">
        <ele>91</ele>
        <time>2016-09-18T09:17:50Z</time>
      </trkpt>
      <trkpt lat="49.25341" lon="1.1196">
        <ele>90.9</ele>
        <time>2016-09-18T09:17:52Z</time>
      </trkpt>
      <trkpt lat="49.2533" lon="1.11962">
        <ele>90.7</ele>
        <time>2016-09-18T09:17:54Z</time>
      </trkpt>
      <trkpt lat="49.25318" lon="1.11966">
        <ele>90.6</ele>
        <time>2016-09-18T09:17:56Z</time>
      </trkpt>
      <trkpt lat="49.25307" lon="1.1197">
        <ele>90.4</ele>
        <time>2016-09-18T09:17:58Z</time>
      </trkpt>
      <trkpt lat="49.25296" lon="1.11977">
        <ele>90.3</ele>
        <time>2016-09-18T09:18:00Z</time>
      </trkpt>
      <trkpt lat="49.25285" lon="1.11984">
        <ele>90.1</ele>
        <time>2016-09-18T09:18:02Z</time>
      </trkpt>
      <trkpt lat="49.25275" lon="1.11993">
        <ele>89.9</ele>
        <time>2016-09-18T09:18:04Z</time>
      </trkpt>
      <trkpt lat="49.25264" lon="1.12002">
        <ele>89.6</ele>
        <time>2016-09-18T09:18:06Z</time>
      </trkpt>
      <trkpt lat="49.25252" lon="1.12014">
        <ele>89.3</ele>
        <time>2016-09-18T09:18:08Z</time>
      </trkpt>
      <trkpt lat="49.25242" lon="1.12025">
        <ele>89</ele>
        <time>2016-09-18T09:18:10Z</time>
      </trkpt>
      <trkpt lat="49.25231" lon="1.12036">
        <ele>88.7</ele>
        <time>2016-09-18T09:18:12Z</time>
      </trkpt>
      <trkpt lat="49.25221" lon="1.12046">
        <ele>88.4</ele>
        <time>2016-09-18T09:18:14Z</time>
      </trkpt>
      <trkpt lat="49.2521" lon="1.12056">
        <ele>88.1</ele>
        <time>2016-09-18T09:18:16Z</time>
      </trkpt>
      <trkpt lat="49.252" lon="1.12067">
        <ele>87.8</ele>
        <time>2016-09-18T09:18:18Z</time>
      </trkpt>
      <trkpt lat="49.25189" lon="1.12076">
        <ele>87.5</ele>
        <time>2016-09-18T09:18:20Z</time>
      </trkpt>
      <trkpt lat="49.25178" lon="1.12084">
        <ele>87.2</ele>
        <time>2016-09-18T09:18:22Z</time>
      </trkpt>
      <trkpt lat="49.25167" lon="1.12092">
        <ele>86.9</ele>
        <time>2016-09-18T09:18:24Z</time>
      </trkpt>
      <trkpt lat="49.25155" lon="1.12099">
        <ele>86.6</ele>
        <time>2016-09-18T09:18:26Z</time>
      </trkpt>
      <trkpt lat="49.25144" lon="1.12106">
        <ele>86.3</ele>
        <time>2016-09-18T09:18:28Z</time>
      </trkpt>
      <trkpt lat="49.25133" lon="1.12112">
        <ele>86</ele>
        <time>2016-09-18T09:18:30Z</time>
      </trkpt>
      <trkpt lat="49.25122" lon="1.12119">
        <ele>85.7</ele>
        <time>2016-09-18T09:18:32Z</time>
      </trkpt>
      <trkpt lat="49.25111" lon="1.12127">
        <ele>85.4</ele>
        <time>2016-09-18T09:18:34Z</time>
      </trkpt>
      <trkpt lat="49.251" lon="1.12134">
        <ele>85.1</ele>
        <time>2016-09-18T09:18:36Z</time>
      </trkpt>
      <trkpt lat="49.25089" lon="1.12143">
        <ele>84.9</ele>
        <time>2016-09-18T09:18:38Z</time>
      </trkpt>
      <trkpt lat="49.25078" lon="1.12152">
        <ele>84.5</ele>
        <time>2016-09-18T09:18:40Z</time>
      </trkpt>
      <trkpt lat="49.25068" lon="1.12162">
        <ele>84.2</ele>
        <time>2016-09-18T09:18:42Z</time>
      </trkpt>
      <trkpt lat="49.25058" lon="1.12172">
        <ele>83.9</ele>
        <time>2016-09-18T09:18:44Z</time>
      </trkpt>
      <trkpt lat="49.25047" lon="1.12183">
        <ele>83.7</ele>
        <time>2016-09-18T09:18:46Z</time>
      </trkpt>
      <trkpt lat="49.25038" lon="1.12195">
        <ele>83.4</ele>
        <time>2016-09-18T09:18:48Z</time>
      </trkpt>
      <trkpt lat="49.25028" lon="1.12207">
        <ele>83.1</ele>
        <time>2016-09-18T09:18:50Z</time>
      </trkpt>
      <trkpt lat="49.25019" lon="1.12219">
        <ele>82.9</ele>
        <time>2016-09-18T09:18:52Z</time>
      </trkpt>
      <trkpt lat="49.25011" lon="1.12232">
        <ele>82.6</ele>
        <time>2016-09-18T09:18:54Z</time>
      </trkpt>
      <trkpt lat="49.25003" lon="1.12245">
        <ele>82.3</ele>
        <time>2016-09-18T09:18:56Z</time>
      </trkpt>
      <trkpt lat="49.24996" lon="1.12259">
        <ele>82.1</ele>
        <time>2016-09-18T09:18:58Z</time>
      </trkpt>
      <trkpt lat="49.2499" lon="1.12273">
        <ele>81.8</ele>
        <time>2016-09-18T09:19:00Z</time>
      </trkpt>
      <trkpt lat="49.24985" lon="1.12286">
        <ele>81.5</ele>
        <time>2016-09-18T09:19:02Z</time>
      </trkpt>
      <trkpt lat="49.24981" lon="1.12302">
        <ele>81.3</ele>
        <time>2016-09-18T09:19:04Z</time>
      </trkpt>
      <trkpt lat="49.24977" lon="1.12317">
        <ele>81</ele>
        <time>2016-09-18T09:19:06Z</time>
      </trkpt>
      <trkpt lat="49.24977" lon="1.12333">
        <ele>80.8</ele>
        <time>2016-09-18T09:19:08Z</time>
      </trkpt>
      <trkpt lat="49.24979" lon="1.1235">
        <ele>80.5</ele>
        <time>2016-09-18T09:19:10Z</time>
      </trkpt>
      <trkpt lat="49.24974" lon="1.12365">
        <ele>80.1</ele>
        <time>2016-09-18T09:19:13Z</time>
      </trkpt>
      <trkpt lat="49.24966" lon="1.12379">
        <ele>79.7</ele>
        <time>2016-09-18T09:19:16Z</time>
      </trkpt>
      <trkpt lat="49.24963" lon="1.12392">
        <ele>79.4</ele>
        <time>2016-09-18T09:19:18Z</time>
      </trkpt>
      <trkpt lat="49.2496" lon="1.12407">
        <ele>79.2</ele>
        <time>2016-09-18T09:19:20Z</time>
      </trkpt>
      <trkpt lat="49.24962" lon="1.12424">
        <ele>78.9</ele>
        <time>2016-09-18T09:19:23Z</time>
      </trkpt>
      <trkpt lat="49.24961" lon="1.12444">
        <ele>78.6</ele>
        <time>2016-09-18T09:19:26Z</time>
      </trkpt>
      <trkpt lat="49.24961" lon="1.12458">
        <ele>78.5</ele>
        <time>2016-09-18T09:19:28Z</time>
      </trkpt>
      <trkpt lat="49.24962" lon="1.12476">
        <ele>78.4</ele>
        <time>2016-09-18T09:19:30Z</time>
      </trkpt>
      <trkpt lat="49.24967" lon="1.12492">
        <ele>78.4</ele>
        <time>2016-09-18T09:19:32Z</time>
      </trkpt>
      <trkpt lat="49.2497" lon="1.12507">
        <ele>78.3</ele>
        <time>2016-09-18T09:19:34Z</time>
      </trkpt>
      <trkpt lat="49.24972" lon="1.12521">
        <ele>78.2</ele>
        <time>2016-09-18T09:19:36Z</time>
      </trkpt>
      <trkpt lat="49.24974" lon="1.12538">
        <ele>78.2</ele>
        <time>2016-09-18T09:19:38Z</time>
      </trkpt>
      <trkpt lat="49.24976" lon="1.12558">
        <ele>78.1</ele>
        <time>2016-09-18T09:19:41Z</time>
      </trkpt>
      <trkpt lat="49.24979" lon="1.12573">
        <ele>78</ele>
        <time>2016-09-18T09:19:43Z</time>
      </trkpt>
      <trkpt lat="49.24983" lon="1.12586">
        <ele>78</ele>
        <time>2016-09-18T09:19:45Z</time>
      </trkpt>
      <trkpt lat="49.24986" lon="1.126">
        <ele>77.9</ele>
        <time>2016-09-18T09:19:47Z</time>
      </trkpt>
      <trkpt lat="49.24987" lon="1.12618">
        <ele>77.7</ele>
        <time>2016-09-18T09:19:50Z</time>
      </trkpt>
      <trkpt lat="49.24989" lon="1.12633">
        <ele>77.6</ele>
        <time>2016-09-18T09:19:52Z</time>
      </trkpt>
      <trkpt lat="49.24992" lon="1.12653">
        <ele>77.4</ele>
        <time>2016-09-18T09:19:55Z</time>
      </trkpt>
      <trkpt lat="49.24995" lon="1.12667">
        <ele>77.3</ele>
        <time>2016-09-18T09:19:57Z</time>
      </trkpt>
      <trkpt lat="49.25" lon="1.12683">
        <ele>77.1</ele>
        <time>2016-09-18T09:20:00Z</time>
      </trkpt>
      <trkpt lat="49.25001" lon="1.12697">
        <ele>76.8</ele>
        <time>2016-09-18T09:20:02Z</time>
      </trkpt>
      <trkpt lat="49.25" lon="1.12713">
        <ele>76.7</ele>
        <time>2016-09-18T09:20:04Z</time>
      </trkpt>
      <trkpt lat="49.25" lon="1.12729">
        <ele>76.5</ele>
        <time>2016-09-18T09:20:06Z</time>
      </trkpt>
      <trkpt lat="49.25003" lon="1.12742">
        <ele>76.3</ele>
        <time>2016-09-18T09:20:09Z</time>
      </trkpt>
      <trkpt lat="49.25003" lon="1.12759">
        <ele>76</ele>
        <time>2016-09-18T09:20:13Z</time>
      </trkpt>
      <trkpt lat="49.25003" lon="1.12774">
        <ele>75.7</ele>
        <time>2016-09-18T09:20:18Z</time>
      </trkpt>
      <trkpt lat="49.25003" lon="1.12792">
        <ele>75.5</ele>
        <time>2016-09-18T09:20:23Z</time>
      </trkpt>
      <trkpt lat="49.25006" lon="1.12806">
        <ele>75.4</ele>
        <time>2016-09-18T09:20:26Z</time>
      </trkpt>
      <trkpt lat="49.25003" lon="1.1282">
        <ele>75.2</ele>
        <time>2016-09-18T09:20:29Z</time>
      </trkpt>
      <trkpt lat="49.24999" lon="1.1284">
        <ele>75</ele>
        <time>2016-09-18T09:20:33Z</time>
      </trkpt>
      <trkpt lat="49.24993" lon="1.12855">
        <ele>74.8</ele>
        <time>2016-09-18T09:20:36Z</time>
      </trkpt>
      <trkpt lat="49.24986" lon="1.12872">
        <ele>74.6</ele>
        <time>2016-09-18T09:20:39Z</time>
      </trkpt>
      <trkpt lat="49.24978" lon="1.12889">
        <ele>74.3</ele>
        <time>2016-09-18T09:20:42Z</time>
      </trkpt>
      <trkpt lat="49.24973" lon="1.12902">
        <ele>74.1</ele>
        <time>2016-09-18T09:20:44Z</time>
      </trkpt>
      <trkpt lat="49.24965" lon="1.12918">
        <ele>73.9</ele>
        <time>2016-09-18T09:20:47Z</time>
      </trkpt>
      <trkpt lat="49.24961" lon="1.12932">
        <ele>73.5</ele>
        <time>2016-09-18T09:20:50Z</time>
      </trkpt>
      <trkpt lat="49.24956" lon="1.12946">
        <ele>73.2</ele>
        <time>2016-09-18T09:20:53Z</time>
      </trkpt>
      <trkpt lat="49.24949" lon="1.1296">
        <ele>72.9</ele>
        <time>2016-09-18T09:20:56Z</time>
      </trkpt>
      <trkpt lat="49.24942" lon="1.12971">
        <ele>72.6</ele>
        <time>2016-09-18T09:20:59Z</time>
      </trkpt>
      <trkpt lat="49.24932" lon="1.12982">
        <ele>72.4</ele>
        <time>2016-09-18T09:21:02Z</time>
      </trkpt>
      <trkpt lat="49.24922" lon="1.12995">
        <ele>72.1</ele>
        <time>2016-09-18T09:21:05Z</time>
      </trkpt>
      <trkpt lat="49.24916" lon="1.13005">
        <ele>71.8</ele>
        <time>2016-09-18T09:21:08Z</time>
      </trkpt>
      <trkpt lat="49.24906" lon="1.13018">
        <ele>71.6</ele>
        <time>2016-09-18T09:21:11Z</time>
      </trkpt>
      <trkpt lat="49.24896" lon="1.13031">
        <ele>71.3</ele>
        <time>2016-09-18T09:21:14Z</time>
      </trkpt>
      <trkpt lat="49.24887" lon="1.13044">
        <ele>71.1</ele>
        <time>2016-09-18T09:21:17Z</time>
      </trkpt>
      <trkpt lat="49.24881" lon="1.13058">
        <ele>70.9</ele>
        <time>2016-09-18T09:21:20Z</time>
      </trkpt>
      <trkpt lat="49.24877" lon="1.13071">
        <ele>70.7</ele>
        <time>2016-09-18T09:21:23Z</time>
      </trkpt>
      <trkpt lat="49.24875" lon="1.13089">
        <ele>70.5</ele>
        <time>2016-09-18T09:21:27Z</time>
      </trkpt>
      <trkpt lat="49.24873" lon="1.13104">
        <ele>70.2</ele>
        <time>2016-09-18T09:21:30Z</time>
      </trkpt>
      <trkpt lat="49.2487" lon="1.1312">
        <ele>70</ele>
        <time>2016-09-18T09:21:33Z</time>
      </trkpt>
      <trkpt lat="49.2487" lon="1.13134">
        <ele>69.8</ele>
        <time>2016-09-18T09:21:36Z</time>
      </trkpt>
      <trkpt lat="49.24869" lon="1.13148">
        <ele>69.5</ele>
        <time>2016-09-18T09:21:39Z</time>
      </trkpt>
      <trkpt lat="49.24868" lon="1.13165">
        <ele>69.3</ele>
        <time>2016-09-18T09:21:43Z</time>
      </trkpt>
      <trkpt lat="49.24864" lon="1.13178">
        <ele>69.2</ele>
        <time>2016-09-18T09:21:46Z</time>
      </trkpt>
      <trkpt lat="49.24857" lon="1.13189">
        <ele>69</ele>
        <time>2016-09-18T09:21:50Z</time>
      </trkpt>
      <trkpt lat="49.24847" lon="1.13188">
        <ele>68.8</ele>
        <time>2016-09-18T09:21:56Z</time>
      </trkpt>
      <trkpt lat="49.24837" lon="1.13187">
        <ele>69.1</ele>
        <time>2016-09-18T09:22:01Z</time>
      </trkpt>
      <trkpt lat="49.24828" lon="1.13184">
        <ele>69.7</ele>
        <time>2016-09-18T09:22:06Z</time>
      </trkpt>
      <trkpt lat="49.24818" lon="1.13181">
        <ele>70.8</ele>
        <time>2016-09-18T09:22:12Z</time>
      </trkpt>
      <trkpt lat="49.2481" lon="1.13176">
        <ele>72</ele>
        <time>2016-09-18T09:22:18Z</time>
      </trkpt>
      <trkpt lat="49.248" lon="1.13173">
        <ele>73.5</ele>
        <time>2016-09-18T09:22:25Z</time>
      </trkpt>
      <trkpt lat="49.24791" lon="1.13168">
        <ele>76</ele>
        <time>2016-09-18T09:22:38Z</time>
      </trkpt>
      <trkpt lat="49.24782" lon="1.13163">
        <ele>78.7</ele>
        <time>2016-09-18T09:22:52Z</time>
      </trkpt>
      <trkpt lat="49.24774" lon="1.1317">
        <ele>81.8</ele>
        <time>2016-09-18T09:23:07Z</time>
      </trkpt>
      <trkpt lat="49.2477" lon="1.13184">
        <ele>83.4</ele>
        <time>2016-09-18T09:23:28Z</time>
      </trkpt>
      <trkpt lat="49.24772" lon="1.132">
        <ele>83.6</ele>
        <time>2016-09-18T09:23:33Z</time>
      </trkpt>
      <trkpt lat="49.24772" lon="1.13218">
        <ele>83.7</ele>
        <time>2016-09-18T09:23:37Z</time>
      </trkpt>
      <trkpt lat="49.24771" lon="1.13232">
        <ele>83.7</ele>
        <time>2016-09-18T09:23:40Z</time>
      </trkpt>
      <trkpt lat="49.24773" lon="1.13248">
        <ele>83.7</ele>
        <time>2016-09-18T09:23:43Z</time>
      </trkpt>
      <trkpt lat="49.24778" lon="1.13264">
        <ele>83.6</ele>
        <time>2016-09-18T09:23:47Z</time>
      </trkpt>
      <trkpt lat="49.24777" lon="1.13278">
        <ele>83.5</ele>
        <time>2016-09-18T09:23:50Z</time>
      </trkpt>
      <trkpt lat="49.24778" lon="1.13297">
        <ele>83.4</ele>
        <time>2016-09-18T09:23:55Z</time>
      </trkpt>
      <trkpt lat="49.24778" lon="1.13313">
        <ele>83.4</ele>
        <time>2016-09-18T09:23:59Z</time>
      </trkpt>
      <trkpt lat="49.24779" lon="1.1333">
        <ele>83.3</ele>
        <time>2016-09-18T09:24:03Z</time>
      </trkpt>
      <trkpt lat="49.24775" lon="1.13345">
        <ele>83.3</ele>
        <time>2016-09-18T09:24:06Z</time>
      </trkpt>
      <trkpt lat="49.24776" lon="1.1336">
        <ele>83.2</ele>
        <time>2016-09-18T09:24:10Z</time>
      </trkpt>
      <trkpt lat="49.24778" lon="1.13376">
        <ele>83.1</ele>
        <time>2016-09-18T09:24:14Z</time>
      </trkpt>
      <trkpt lat="49.24777" lon="1.13394">
        <ele>83</ele>
        <time>2016-09-18T09:24:17Z</time>
      </trkpt>
      <trkpt lat="49.24774" lon="1.1341">
        <ele>82.9</ele>
        <time>2016-09-18T09:24:20Z</time>
      </trkpt>
      <trkpt lat="49.24774" lon="1.13427">
        <ele>82.8</ele>
        <time>2016-09-18T09:24:23Z</time>
      </trkpt>
      <trkpt lat="49.24775" lon="1.13448">
        <ele>82.5</ele>
        <time>2016-09-18T09:24:26Z</time>
      </trkpt>
      <trkpt lat="49.24773" lon="1.13468">
        <ele>82.2</ele>
        <time>2016-09-18T09:24:29Z</time>
      </trkpt>
      <trkpt lat="49.24773" lon="1.13483">
        <ele>82.1</ele>
        <time>2016-09-18T09:24:31Z</time>
      </trkpt>
      <trkpt lat="49.24771" lon="1.13499">
        <ele>81.9</ele>
        <time>2016-09-18T09:24:33Z</time>
      </trkpt>
      <trkpt lat="49.24771" lon="1.13513">
        <ele>81.8</ele>
        <time>2016-09-18T09:24:35Z</time>
      </trkpt>
      <trkpt lat="49.24771" lon="1.13532">
        <ele>81.7</ele>
        <time>2016-09-18T09:24:38Z</time>
      </trkpt>
      <trkpt lat="49.24771" lon="1.1355">
        <ele>81.5</ele>
        <time>2016-09-18T09:24:41Z</time>
      </trkpt>
      <trkpt lat="49.24769" lon="1.1357">
        <ele>81.4</ele>
        <time>2016-09-18T09:24:44Z</time>
      </trkpt>
      <trkpt lat="49.24767" lon="1.13589">
        <ele>81.3</ele>
        <time>2016-09-18T09:24:47Z</time>
      </trkpt>
      <trkpt lat="49.24768" lon="1.13603">
        <ele>81.2</ele>
        <time>2016-09-18T09:24:49Z</time>
      </trkpt>
      <trkpt lat="49.24765" lon="1.13619">
        <ele>81.1</ele>
        <time>2016-09-18T09:24:51Z</time>
      </trkpt>
      <trkpt lat="49.24764" lon="1.13634">
        <ele>80.7</ele>
        <time>2016-09-18T09:24:53Z</time>
      </trkpt>
      <trkpt lat="49.24764" lon="1.13649">
        <ele>80.4</ele>
        <time>2016-09-18T09:24:55Z</time>
      </trkpt>
      <trkpt lat="49.2476" lon="1.13666">
        <ele>80.1</ele>
        <time>2016-09-18T09:24:57Z</time>
      </trkpt>
      <trkpt lat="49.24759" lon="1.13684">
        <ele>79.9</ele>
        <time>2016-09-18T09:24:59Z</time>
      </trkpt>
      <trkpt lat="49.24759" lon="1.137">
        <ele>79.8</ele>
        <time>2016-09-18T09:25:01Z</time>
      </trkpt>
      <trkpt lat="49.24759" lon="1.13715">
        <ele>79.6</ele>
        <time>2016-09-18T09:25:03Z</time>
      </trkpt>
      <trkpt lat="49.24756" lon="1.13732">
        <ele>79.5</ele>
        <time>2016-09-18T09:25:05Z</time>
      </trkpt>
      <trkpt lat="49.24755" lon="1.13747">
        <ele>79.4</ele>
        <time>2016-09-18T09:25:07Z</time>
      </trkpt>
      <trkpt lat="49.24753" lon="1.13764">
        <ele>79.2</ele>
        <time>2016-09-18T09:25:09Z</time>
      </trkpt>
      <trkpt lat="49.2475" lon="1.13783">
        <ele>79.1</ele>
        <time>2016-09-18T09:25:11Z</time>
      </trkpt>
      <trkpt lat="49.24749" lon="1.13802">
        <ele>78.9</ele>
        <time>2016-09-18T09:25:13Z</time>
      </trkpt>
      <trkpt lat="49.24747" lon="1.13816">
        <ele>78.8</ele>
        <time>2016-09-18T09:25:15Z</time>
      </trkpt>
      <trkpt lat="49.24745" lon="1.13832">
        <ele>78.6</ele>
        <time>2016-09-18T09:25:18Z</time>
      </trkpt>
      <trkpt lat="49.24737" lon="1.13839">
        <ele>78.4</ele>
        <time>2016-09-18T09:25:23Z</time>
      </trkpt>
      <trkpt lat="49.2473" lon="1.1385">
        <ele>78.1</ele>
        <time>2016-09-18T09:25:33Z</time>
      </trkpt>
      <trkpt lat="49.2473" lon="1.13865">
        <ele>77.9</ele>
        <time>2016-09-18T09:25:41Z</time>
      </trkpt>
      <trkpt lat="49.24739" lon="1.13866">
        <ele>77.1</ele>
        <time>2016-09-18T09:27:22Z</time>
      </trkpt>
      <trkpt lat="49.24735" lon="1.13851">
        <ele>77.1</ele>
        <time>2016-09-18T09:27:41Z</time>
      </trkpt>
      <trkpt lat="49.24732" lon="1.13835">
        <ele>77.1</ele>
        <time>2016-09-18T09:27:46Z</time>
      </trkpt>
      <trkpt lat="49.2473" lon="1.13821">
        <ele>77.1</ele>
        <time>2016-09-18T09:27:51Z</time>
      </trkpt>
      <trkpt lat="49.2472" lon="1.13815">
        <ele>77.1</ele>
        <time>2016-09-18T09:27:55Z</time>
      </trkpt>
      <trkpt lat="49.24709" lon="1.13812">
        <ele>77.7</ele>
        <time>2016-09-18T09:28:01Z</time>
      </trkpt>
      <trkpt lat="49.24699" lon="1.13808">
        <ele>78.4</ele>
        <time>2016-09-18T09:28:05Z</time>
      </trkpt>
      <trkpt lat="49.24689" lon="1.13804">
        <ele>79.3</ele>
        <time>2016-09-18T09:28:09Z</time>
      </trkpt>
      <trkpt lat="49.24679" lon="1.13799">
        <ele>80.1</ele>
        <time>2016-09-18T09:28:13Z</time>
      </trkpt>
      <trkpt lat="49.24669" lon="1.13796">
        <ele>80.9</ele>
        <time>2016-09-18T09:28:17Z</time>
      </trkpt>
      <trkpt lat="49.2466" lon="1.13791">
        <ele>81.7</ele>
        <time>2016-09-18T09:28:21Z</time>
      </trkpt>
      <trkpt lat="49.24651" lon="1.13796">
        <ele>82.7</ele>
        <time>2016-09-18T09:28:26Z</time>
      </trkpt>
      <trkpt lat="49.24641" lon="1.13791">
        <ele>83.7</ele>
        <time>2016-09-18T09:28:31Z</time>
      </trkpt>
      <trkpt lat="49.24631" lon="1.13788">
        <ele>84.6</ele>
        <time>2016-09-18T09:28:36Z</time>
      </trkpt>
      <trkpt lat="49.24621" lon="1.13786">
        <ele>85.4</ele>
        <time>2016-09-18T09:28:40Z</time>
      </trkpt>
      <trkpt lat="49.24609" lon="1.13786">
        <ele>86.5</ele>
        <time>2016-09-18T09:28:45Z</time>
      </trkpt>
      <trkpt lat="49.246" lon="1.13782">
        <ele>87.5</ele>
        <time>2016-09-18T09:28:50Z</time>
      </trkpt>
      <trkpt lat="49.2459" lon="1.13781">
        <ele>88.4</ele>
        <time>2016-09-18T09:28:55Z</time>
      </trkpt>
      <trkpt lat="49.24581" lon="1.1378">
        <ele>89.1</ele>
        <time>2016-09-18T09:28:59Z</time>
      </trkpt>
      <trkpt lat="49.24572" lon="1.13778">
        <ele>89.9</ele>
        <time>2016-09-18T09:29:03Z</time>
      </trkpt>
      <trkpt lat="49.24562" lon="1.13768">
        <ele>90.7</ele>
        <time>2016-09-18T09:29:08Z</time>
      </trkpt>
      <trkpt lat="49.24553" lon="1.13763">
        <ele>91.2</ele>
        <time>2016-09-18T09:29:11Z</time>
      </trkpt>
      <trkpt lat="49.24542" lon="1.13757">
        <ele>91.8</ele>
        <time>2016-09-18T09:29:15Z</time>
      </trkpt>
      <trkpt lat="49.24532" lon="1.1375">
        <ele>92.3</ele>
        <time>2016-09-18T09:29:19Z</time>
      </trkpt>
      <trkpt lat="49.24524" lon="1.13744">
        <ele>92.7</ele>
        <time>2016-09-18T09:29:22Z</time>
      </trkpt>
      <trkpt lat="49.24513" lon="1.13737">
        <ele>93.3</ele>
        <time>2016-09-18T09:29:27Z</time>
      </trkpt>
      <trkpt lat="49.24505" lon="1.13733">
        <ele>93.7</ele>
        <time>2016-09-18T09:29:30Z</time>
      </trkpt>
      <trkpt lat="49.24496" lon="1.13731">
        <ele>94.1</ele>
        <time>2016-09-18T09:29:33Z</time>
      </trkpt>
      <trkpt lat="49.24485" lon="1.13727">
        <ele>94.7</ele>
        <time>2016-09-18T09:29:37Z</time>
      </trkpt>
      <trkpt lat="49.24473" lon="1.13723">
        <ele>95.5</ele>
        <time>2016-09-18T09:29:41Z</time>
      </trkpt>
      <trkpt lat="49.24464" lon="1.13716">
        <ele>96.1</ele>
        <time>2016-09-18T09:29:45Z</time>
      </trkpt>
      <trkpt lat="49.24457" lon="1.13707">
        <ele>96.7</ele>
        <time>2016-09-18T09:29:49Z</time>
      </trkpt>
      <trkpt lat="49.24448" lon="1.13701">
        <ele>97.3</ele>
        <time>2016-09-18T09:29:53Z</time>
      </trkpt>
      <trkpt lat="49.2444" lon="1.13696">
        <ele>97.8</ele>
        <time>2016-09-18T09:29:56Z</time>
      </trkpt>
      <trkpt lat="49.2443" lon="1.13691">
        <ele>98.3</ele>
        <time>2016-09-18T09:29:59Z</time>
      </trkpt>
      <trkpt lat="49.24423" lon="1.13679">
        <ele>98.9</ele>
        <time>2016-09-18T09:30:03Z</time>
      </trkpt>
      <trkpt lat="49.24419" lon="1.13667">
        <ele>99.3</ele>
        <time>2016-09-18T09:30:06Z</time>
      </trkpt>
      <trkpt lat="49.24409" lon="1.13657">
        <ele>99.7</ele>
        <time>2016-09-18T09:30:09Z</time>
      </trkpt>
      <trkpt lat="49.24398" lon="1.13653">
        <ele>100.1</ele>
        <time>2016-09-18T09:30:12Z</time>
      </trkpt>
      <trkpt lat="49.24391" lon="1.13645">
        <ele>100.6</ele>
        <time>2016-09-18T09:30:15Z</time>
      </trkpt>
      <trkpt lat="49.24393" lon="1.13627">
        <ele>101.1</ele>
        <time>2016-09-18T09:30:19Z</time>
      </trkpt>
      <trkpt lat="49.24396" lon="1.13613">
        <ele>101.4</ele>
        <time>2016-09-18T09:30:22Z</time>
      </trkpt>
      <trkpt lat="49.24399" lon="1.13595">
        <ele>101.8</ele>
        <time>2016-09-18T09:30:25Z</time>
      </trkpt>
      <trkpt lat="49.24402" lon="1.13578">
        <ele>102</ele>
        <time>2016-09-18T09:30:28Z</time>
      </trkpt>
      <trkpt lat="49.24405" lon="1.1356">
        <ele>102.3</ele>
        <time>2016-09-18T09:30:31Z</time>
      </trkpt>
      <trkpt lat="49.24407" lon="1.13545">
        <ele>102.4</ele>
        <time>2016-09-18T09:30:33Z</time>
      </trkpt>
      <trkpt lat="49.2441" lon="1.1353">
        <ele>102.5</ele>
        <time>2016-09-18T09:30:35Z</time>
      </trkpt>
      <trkpt lat="49.24413" lon="1.13513">
        <ele>102.5</ele>
        <time>2016-09-18T09:30:37Z</time>
      </trkpt>
      <trkpt lat="49.24416" lon="1.13495">
        <ele>102.4</ele>
        <time>2016-09-18T09:30:39Z</time>
      </trkpt>
      <trkpt lat="49.24419" lon="1.13477">
        <ele>102.2</ele>
        <time>2016-09-18T09:30:41Z</time>
      </trkpt>
      <trkpt lat="49.24422" lon="1.13458">
        <ele>102.1</ele>
        <time>2016-09-18T09:30:43Z</time>
      </trkpt>
      <trkpt lat="49.24425" lon="1.13441">
        <ele>101.9</ele>
        <time>2016-09-18T09:30:45Z</time>
      </trkpt>
      <trkpt lat="49.24428" lon="1.13423">
        <ele>101.7</ele>
        <time>2016-09-18T09:30:47Z</time>
      </trkpt>
      <trkpt lat="49.24432" lon="1.13407">
        <ele>101.6</ele>
        <time>2016-09-18T09:30:49Z</time>
      </trkpt>
      <trkpt lat="49.24434" lon="1.13391">
        <ele>101.4</ele>
        <time>2016-09-18T09:30:51Z</time>
      </trkpt>
      <trkpt lat="49.24437" lon="1.13376">
        <ele>101.3</ele>
        <time>2016-09-18T09:30:53Z</time>
      </trkpt>
      <trkpt lat="49.2444" lon="1.13362">
        <ele>101.2</ele>
        <time>2016-09-18T09:30:55Z</time>
      </trkpt>
      <trkpt lat="49.24443" lon="1.13344">
        <ele>101.2</ele>
        <time>2016-09-18T09:30:58Z</time>
      </trkpt>
      <trkpt lat="49.24446" lon="1.13327">
        <ele>101.3</ele>
        <time>2016-09-18T09:31:01Z</time>
      </trkpt>
      <trkpt lat="49.2445" lon="1.13309">
        <ele>101.5</ele>
        <time>2016-09-18T09:31:04Z</time>
      </trkpt>
      <trkpt lat="49.24452" lon="1.13295">
        <ele>101.7</ele>
        <time>2016-09-18T09:31:06Z</time>
      </trkpt>
      <trkpt lat="49.24453" lon="1.13281">
        <ele>101.9</ele>
        <time>2016-09-18T09:31:08Z</time>
      </trkpt>
      <trkpt lat="49.24456" lon="1.13263">
        <ele>102.3</ele>
        <time>2016-09-18T09:31:11Z</time>
      </trkpt>
      <trkpt lat="49.24459" lon="1.13247">
        <ele>102.6</ele>
        <time>2016-09-18T09:31:14Z</time>
      </trkpt>
      <trkpt lat="49.24461" lon="1.13228">
        <ele>102.9</ele>
        <time>2016-09-18T09:31:17Z</time>
      </trkpt>
      <trkpt lat="49.24464" lon="1.13209">
        <ele>103.2</ele>
        <time>2016-09-18T09:31:20Z</time>
      </trkpt>
      <trkpt lat="49.24467" lon="1.1319">
        <ele>103.6</ele>
        <time>2016-09-18T09:31:23Z</time>
      </trkpt>
      <trkpt lat="49.24471" lon="1.1317">
        <ele>103.9</ele>
        <time>2016-09-18T09:31:26Z</time>
      </trkpt>
      <trkpt lat="49.24473" lon="1.13156">
        <ele>104.1</ele>
        <time>2016-09-18T09:31:28Z</time>
      </trkpt>
      <trkpt lat="49.24475" lon="1.13142">
        <ele>104.2</ele>
        <time>2016-09-18T09:31:30Z</time>
      </trkpt>
      <trkpt lat="49.24479" lon="1.13124">
        <ele>104.5</ele>
        <time>2016-09-18T09:31:33Z</time>
      </trkpt>
      <trkpt lat="49.24481" lon="1.1311">
        <ele>104.6</ele>
        <time>2016-09-18T09:31:35Z</time>
      </trkpt>
      <trkpt lat="49.24483" lon="1.13096">
        <ele>104.8</ele>
        <time>2016-09-18T09:31:37Z</time>
      </trkpt>
      <trkpt lat="49.24485" lon="1.13082">
        <ele>104.9</ele>
        <time>2016-09-18T09:31:39Z</time>
      </trkpt>
      <trkpt lat="49.24488" lon="1.13063">
        <ele>105.2</ele>
        <time>2016-09-18T09:31:42Z</time>
      </trkpt>
      <trkpt lat="49.24488" lon="1.13045">
        <ele>105.4</ele>
        <time>2016-09-18T09:31:45Z</time>
      </trkpt>
      <trkpt lat="49.2448" lon="1.13035">
        <ele>105.6</ele>
        <time>2016-09-18T09:31:48Z</time>
      </trkpt>
      <trkpt lat="49.24468" lon="1.13029">
        <ele>105.7</ele>
        <time>2016-09-18T09:31:51Z</time>
      </trkpt>
      <trkpt lat="49.24457" lon="1.13024">
        <ele>105.9</ele>
        <time>2016-09-18T09:31:54Z</time>
      </trkpt>
      <trkpt lat="49.24446" lon="1.13017">
        <ele>106.1</ele>
        <time>2016-09-18T09:31:57Z</time>
      </trkpt>
      <trkpt lat="49.24434" lon="1.13012">
        <ele>106.3</ele>
        <time>2016-09-18T09:32:00Z</time>
      </trkpt>
      <trkpt lat="49.24422" lon="1.13006">
        <ele>106.5</ele>
        <time>2016-09-18T09:32:03Z</time>
      </trkpt>
      <trkpt lat="49.24411" lon="1.13001">
        <ele>106.7</ele>
        <time>2016-09-18T09:32:06Z</time>
      </trkpt>
      <trkpt lat="49.244" lon="1.12994">
        <ele>106.9</ele>
        <time>2016-09-18T09:32:09Z</time>
      </trkpt>
      <trkpt lat="49.24391" lon="1.12987">
        <ele>107.2</ele>
        <time>2016-09-18T09:32:12Z</time>
      </trkpt>
      <trkpt lat="49.24382" lon="1.12982">
        <ele>107.6</ele>
        <time>2016-09-18T09:32:16Z</time>
      </trkpt>
      <trkpt lat="49.24371" lon="1.12979">
        <ele>107.9</ele>
        <time>2016-09-18T09:32:20Z</time>
      </trkpt>
      <trkpt lat="49.24362" lon="1.12977">
        <ele>108.2</ele>
        <time>2016-09-18T09:32:23Z</time>
      </trkpt>
      <trkpt lat="49.24352" lon="1.1297">
        <ele>108.5</ele>
        <time>2016-09-18T09:32:27Z</time>
      </trkpt>
      <trkpt lat="49.24344" lon="1.12965">
        <ele>108.7</ele>
        <time>2016-09-18T09:32:30Z</time>
      </trkpt>
      <trkpt lat="49.24333" lon="1.1296">
        <ele>108.9</ele>
        <time>2016-09-18T09:32:34Z</time>
      </trkpt>
      <trkpt lat="49.24321" lon="1.12956">
        <ele>109.1</ele>
        <time>2016-09-18T09:32:38Z</time>
      </trkpt>
      <trkpt lat="49.24312" lon="1.12952">
        <ele>109.3</ele>
        <time>2016-09-18T09:32:41Z</time>
      </trkpt>
      <trkpt lat="49.24303" lon="1.12947">
        <ele>109.7</ele>
        <time>2016-09-18T09:32:45Z</time>
      </trkpt>
      <trkpt lat="49.24294" lon="1.12943">
        <ele>109.9</ele>
        <time>2016-09-18T09:32:48Z</time>
      </trkpt>
      <trkpt lat="49.24284" lon="1.12938">
        <ele>110.2</ele>
        <time>2016-09-18T09:32:51Z</time>
      </trkpt>
      <trkpt lat="49.24274" lon="1.12933">
        <ele>110.4</ele>
        <time>2016-09-18T09:32:54Z</time>
      </trkpt>
      <trkpt lat="49.24264" lon="1.12929">
        <ele>110.7</ele>
        <time>2016-09-18T09:32:57Z</time>
      </trkpt>
      <trkpt lat="49.24255" lon="1.12924">
        <ele>110.9</ele>
        <time>2016-09-18T09:33:00Z</time>
      </trkpt>
      <trkpt lat="49.24245" lon="1.12921">
        <ele>111.2</ele>
        <time>2016-09-18T09:33:03Z</time>
      </trkpt>
      <trkpt lat="49.24234" lon="1.12917">
        <ele>111.5</ele>
        <time>2016-09-18T09:33:06Z</time>
      </trkpt>
      <trkpt lat="49.24224" lon="1.12912">
        <ele>111.8</ele>
        <time>2016-09-18T09:33:09Z</time>
      </trkpt>
      <trkpt lat="49.24214" lon="1.12908">
        <ele>112</ele>
        <time>2016-09-18T09:33:12Z</time>
      </trkpt>
      <trkpt lat="49.24202" lon="1.12902">
        <ele>112.4</ele>
        <time>2016-09-18T09:33:15Z</time>
      </trkpt>
      <trkpt lat="49.24193" lon="1.12898">
        <ele>112.6</ele>
        <time>2016-09-18T09:33:18Z</time>
      </trkpt>
      <trkpt lat="49.24182" lon="1.12895">
        <ele>112.9</ele>
        <time>2016-09-18T09:33:22Z</time>
      </trkpt>
      <trkpt lat="49.24172" lon="1.12894">
        <ele>113.1</ele>
        <time>2016-09-18T09:33:25Z</time>
      </trkpt>
      <trkpt lat="49.24163" lon="1.12889">
        <ele>113.3</ele>
        <time>2016-09-18T09:33:28Z</time>
      </trkpt>
      <trkpt lat="49.24155" lon="1.12883">
        <ele>113.5</ele>
        <time>2016-09-18T09:33:31Z</time>
      </trkpt>
      <trkpt lat="49.24144" lon="1.12876">
        <ele>113.8</ele>
        <time>2016-09-18T09:33:34Z</time>
      </trkpt>
      <trkpt lat="49.24133" lon="1.12871">
        <ele>114</ele>
        <time>2016-09-18T09:33:37Z</time>
      </trkpt>
      <trkpt lat="49.24121" lon="1.12864">
        <ele>114.3</ele>
        <time>2016-09-18T09:33:40Z</time>
      </trkpt>
      <trkpt lat="49.24112" lon="1.12859">
        <ele>114.4</ele>
        <time>2016-09-18T09:33:42Z</time>
      </trkpt>
      <trkpt lat="49.241" lon="1.12854">
        <ele>114.6</ele>
        <time>2016-09-18T09:33:45Z</time>
      </trkpt>
      <trkpt lat="49.24087" lon="1.1285">
        <ele>114.7</ele>
        <time>2016-09-18T09:33:48Z</time>
      </trkpt>
      <trkpt lat="49.24074" lon="1.12845">
        <ele>114.8</ele>
        <time>2016-09-18T09:33:51Z</time>
      </trkpt>
      <trkpt lat="49.24065" lon="1.12841">
        <ele>114.9</ele>
        <time>2016-09-18T09:33:53Z</time>
      </trkpt>
      <trkpt lat="49.24056" lon="1.12837">
        <ele>115</ele>
        <time>2016-09-18T09:33:55Z</time>
      </trkpt>
      <trkpt lat="49.24047" lon="1.12833">
        <ele>115.1</ele>
        <time>2016-09-18T09:33:57Z</time>
      </trkpt>
      <trkpt lat="49.24035" lon="1.12827">
        <ele>115.2</ele>
        <time>2016-09-18T09:34:00Z</time>
      </trkpt>
      <trkpt lat="49.24022" lon="1.12824">
        <ele>115.3</ele>
        <time>2016-09-18T09:34:03Z</time>
      </trkpt>
      <trkpt lat="49.24011" lon="1.12819">
        <ele>115.4</ele>
        <time>2016-09-18T09:34:06Z</time>
      </trkpt>
      <trkpt lat="49.24" lon="1.12814">
        <ele>115.4</ele>
        <time>2016-09-18T09:34:09Z</time>
      </trkpt>
      <trkpt lat="49.23987" lon="1.1281">
        <ele>115.5</ele>
        <time>2016-09-18T09:34:12Z</time>
      </trkpt>
      <trkpt lat="49.23976" lon="1.12804">
        <ele>115.5</ele>
        <time>2016-09-18T09:34:15Z</time>
      </trkpt>
      <trkpt lat="49.23965" lon="1.12794">
        <ele>115.5</ele>
        <time>2016-09-18T09:34:18Z</time>
      </trkpt>
      <trkpt lat="49.23954" lon="1.12787">
        <ele>115.6</ele>
        <time>2016-09-18T09:34:21Z</time>
      </trkpt>
      <trkpt lat="49.23945" lon="1.12784">
        <ele>115.6</ele>
        <time>2016-09-18T09:34:24Z</time>
      </trkpt>
      <trkpt lat="49.23935" lon="1.12782">
        <ele>115.6</ele>
        <time>2016-09-18T09:34:27Z</time>
      </trkpt>
      <trkpt lat="49.23925" lon="1.12775">
        <ele>115.6</ele>
        <time>2016-09-18T09:34:31Z</time>
      </trkpt>
      <trkpt lat="49.23914" lon="1.12771">
        <ele>115.6</ele>
        <time>2016-09-18T09:34:35Z</time>
      </trkpt>
      <trkpt lat="49.23905" lon="1.12768">
        <ele>115.6</ele>
        <time>2016-09-18T09:34:39Z</time>
      </trkpt>
      <trkpt lat="49.23895" lon="1.12764">
        <ele>115.5</ele>
        <time>2016-09-18T09:34:43Z</time>
      </trkpt>
      <trkpt lat="49.23884" lon="1.12759">
        <ele>115.4</ele>
        <time>2016-09-18T09:34:46Z</time>
      </trkpt>
      <trkpt lat="49.23873" lon="1.12756">
        <ele>115.4</ele>
        <time>2016-09-18T09:34:49Z</time>
      </trkpt>
      <trkpt lat="49.23864" lon="1.12753">
        <ele>115.3</ele>
        <time>2016-09-18T09:34:51Z</time>
      </trkpt>
      <trkpt lat="49.23853" lon="1.12744">
        <ele>115.2</ele>
        <time>2016-09-18T09:34:54Z</time>
      </trkpt>
      <trkpt lat="49.23845" lon="1.12736">
        <ele>115.1</ele>
        <time>2016-09-18T09:34:57Z</time>
      </trkpt>
      <trkpt lat="49.23835" lon="1.12731">
        <ele>115</ele>
        <time>2016-09-18T09:35:00Z</time>
      </trkpt>
      <trkpt lat="49.23824" lon="1.12726">
        <ele>114.9</ele>
        <time>2016-09-18T09:35:03Z</time>
      </trkpt>
      <trkpt lat="49.23811" lon="1.12725">
        <ele>114.8</ele>
        <time>2016-09-18T09:35:06Z</time>
      </trkpt>
      <trkpt lat="49.23799" lon="1.12716">
        <ele>114.6</ele>
        <time>2016-09-18T09:35:09Z</time>
      </trkpt>
      <trkpt lat="49.23787" lon="1.12714">
        <ele>114.4</ele>
        <time>2016-09-18T09:35:12Z</time>
      </trkpt>
      <trkpt lat="49.23777" lon="1.12711">
        <ele>114.1</ele>
        <time>2016-09-18T09:35:15Z</time>
      </trkpt>
      <trkpt lat="49.23767" lon="1.12708">
        <ele>113.9</ele>
        <time>2016-09-18T09:35:18Z</time>
      </trkpt>
      <trkpt lat="49.23756" lon="1.127">
        <ele>113.6</ele>
        <time>2016-09-18T09:35:21Z</time>
      </trkpt>
      <trkpt lat="49.23748" lon="1.12693">
        <ele>113.2</ele>
        <time>2016-09-18T09:35:25Z</time>
      </trkpt>
      <trkpt lat="49.23738" lon="1.12686">
        <ele>112.9</ele>
        <time>2016-09-18T09:35:29Z</time>
      </trkpt>
      <trkpt lat="49.23729" lon="1.12685">
        <ele>112.7</ele>
        <time>2016-09-18T09:35:32Z</time>
      </trkpt>
      <trkpt lat="49.2372" lon="1.12675">
        <ele>112.5</ele>
        <time>2016-09-18T09:35:36Z</time>
      </trkpt>
      <trkpt lat="49.23718" lon="1.12661">
        <ele>112.4</ele>
        <time>2016-09-18T09:35:39Z</time>
      </trkpt>
      <trkpt lat="49.23716" lon="1.12645">
        <ele>112.3</ele>
        <time>2016-09-18T09:35:42Z</time>
      </trkpt>
      <trkpt lat="49.23715" lon="1.12624">
        <ele>112.2</ele>
        <time>2016-09-18T09:35:45Z</time>
      </trkpt>
      <trkpt lat="49.23713" lon="1.12609">
        <ele>112</ele>
        <time>2016-09-18T09:35:47Z</time>
      </trkpt>
      <trkpt lat="49.23712" lon="1.12595">
        <ele>111.9</ele>
        <time>2016-09-18T09:35:49Z</time>
      </trkpt>
      <trkpt lat="49.23711" lon="1.12579">
        <ele>111.8</ele>
        <time>2016-09-18T09:35:51Z</time>
      </trkpt>
      <trkpt lat="49.23708" lon="1.12562">
        <ele>111.7</ele>
        <time>2016-09-18T09:35:53Z</time>
      </trkpt>
      <trkpt lat="49.23705" lon="1.12545">
        <ele>111.6</ele>
        <time>2016-09-18T09:35:55Z</time>
      </trkpt>
      <trkpt lat="49.23703" lon="1.12528">
        <ele>111.6</ele>
        <time>2016-09-18T09:35:57Z</time>
      </trkpt>
      <trkpt lat="49.23702" lon="1.12511">
        <ele>111.5</ele>
        <time>2016-09-18T09:35:59Z</time>
      </trkpt>
      <trkpt lat="49.23702" lon="1.12494">
        <ele>111.5</ele>
        <time>2016-09-18T09:36:01Z</time>
      </trkpt>
      <trkpt lat="49.23702" lon="1.12477">
        <ele>111.5</ele>
        <time>2016-09-18T09:36:03Z</time>
      </trkpt>
      <trkpt lat="49.23699" lon="1.1246">
        <ele>111.4</ele>
        <time>2016-09-18T09:36:05Z</time>
      </trkpt>
      <trkpt lat="49.23695" lon="1.12442">
        <ele>111.4</ele>
        <time>2016-09-18T09:36:07Z</time>
      </trkpt>
      <trkpt lat="49.23692" lon="1.12427">
        <ele>111.4</ele>
        <time>2016-09-18T09:36:09Z</time>
      </trkpt>
      <trkpt lat="49.2369" lon="1.12411">
        <ele>111.3</ele>
        <time>2016-09-18T09:36:11Z</time>
      </trkpt>
      <trkpt lat="49.23687" lon="1.12393">
        <ele>111.3</ele>
        <time>2016-09-18T09:36:13Z</time>
      </trkpt>
      <trkpt lat="49.23684" lon="1.12375">
        <ele>111.3</ele>
        <time>2016-09-18T09:36:15Z</time>
      </trkpt>
      <trkpt lat="49.2368" lon="1.12358">
        <ele>111.3</ele>
        <time>2016-09-18T09:36:17Z</time>
      </trkpt>
      <trkpt lat="49.23677" lon="1.1234">
        <ele>111.3</ele>
        <time>2016-09-18T09:36:19Z</time>
      </trkpt>
      <trkpt lat="49.23673" lon="1.12322">
        <ele>111.3</ele>
        <time>2016-09-18T09:36:21Z</time>
      </trkpt>
      <trkpt lat="49.2367" lon="1.12306">
        <ele>111.3</ele>
        <time>2016-09-18T09:36:23Z</time>
      </trkpt>
      <trkpt lat="49.23666" lon="1.12289">
        <ele>111.3</ele>
        <time>2016-09-18T09:36:25Z</time>
      </trkpt>
      <trkpt lat="49.23663" lon="1.12272">
        <ele>111.3</ele>
        <time>2016-09-18T09:36:27Z</time>
      </trkpt>
      <trkpt lat="49.2366" lon="1.12254">
        <ele>111.4</ele>
        <time>2016-09-18T09:36:29Z</time>
      </trkpt>
      <trkpt lat="49.23657" lon="1.12236">
        <ele>111.4</ele>
        <time>2016-09-18T09:36:31Z</time>
      </trkpt>
      <trkpt lat="49.23653" lon="1.12218">
        <ele>111.5</ele>
        <time>2016-09-18T09:36:33Z</time>
      </trkpt>
      <trkpt lat="49.2365" lon="1.12199">
        <ele>111.5</ele>
        <time>2016-09-18T09:36:35Z</time>
      </trkpt>
      <trkpt lat="49.23646" lon="1.12181">
        <ele>111.5</ele>
        <time>2016-09-18T09:36:37Z</time>
      </trkpt>
      <trkpt lat="49.23643" lon="1.12163">
        <ele>111.6</ele>
        <time>2016-09-18T09:36:39Z</time>
      </trkpt>
      <trkpt lat="49.2364" lon="1.12145">
        <ele>111.7</ele>
        <time>2016-09-18T09:36:41Z</time>
      </trkpt>
      <trkpt lat="49.23636" lon="1.12127">
        <ele>111.8</ele>
        <time>2016-09-18T09:36:43Z</time>
      </trkpt>
      <trkpt lat="49.23633" lon="1.12109">
        <ele>111.9</ele>
        <time>2016-09-18T09:36:45Z</time>
      </trkpt>
      <trkpt lat="49.23629" lon="1.1209">
        <ele>112</ele>
        <time>2016-09-18T09:36:47Z</time>
      </trkpt>
      <trkpt lat="49.23625" lon="1.12073">
        <ele>112.1</ele>
        <time>2016-09-18T09:36:49Z</time>
      </trkpt>
      <trkpt lat="49.23618" lon="1.12059">
        <ele>112.2</ele>
        <time>2016-09-18T09:36:51Z</time>
      </trkpt>
      <trkpt lat="49.23609" lon="1.12047">
        <ele>112.2</ele>
        <time>2016-09-18T09:36:53Z</time>
      </trkpt>
      <trkpt lat="49.23598" lon="1.12036">
        <ele>112.3</ele>
        <time>2016-09-18T09:36:55Z</time>
      </trkpt>
      <trkpt lat="49.23586" lon="1.12026">
        <ele>112.3</ele>
        <time>2016-09-18T09:36:57Z</time>
      </trkpt>
      <trkpt lat="49.23575" lon="1.12019">
        <ele>112.3</ele>
        <time>2016-09-18T09:36:59Z</time>
      </trkpt>
      <trkpt lat="49.23565" lon="1.12013">
        <ele>112.3</ele>
        <time>2016-09-18T09:37:01Z</time>
      </trkpt>
      <trkpt lat="49.23554" lon="1.12003">
        <ele>112.2</ele>
        <time>2016-09-18T09:37:03Z</time>
      </trkpt>
      <trkpt lat="49.23545" lon="1.11991">
        <ele>112</ele>
        <time>2016-09-18T09:37:05Z</time>
      </trkpt>
      <trkpt lat="49.23539" lon="1.11973">
        <ele>111.8</ele>
        <time>2016-09-18T09:37:07Z</time>
      </trkpt>
      <trkpt lat="49.23536" lon="1.11954">
        <ele>111.6</ele>
        <time>2016-09-18T09:37:09Z</time>
      </trkpt>
      <trkpt lat="49.23535" lon="1.11932">
        <ele>111.3</ele>
        <time>2016-09-18T09:37:11Z</time>
      </trkpt>
      <trkpt lat="49.23532" lon="1.1191">
        <ele>111.1</ele>
        <time>2016-09-18T09:37:13Z</time>
      </trkpt>
      <trkpt lat="49.23529" lon="1.1189">
        <ele>110.8</ele>
        <time>2016-09-18T09:37:15Z</time>
      </trkpt>
      <trkpt lat="49.23526" lon="1.11874">
        <ele>110.6</ele>
        <time>2016-09-18T09:37:17Z</time>
      </trkpt>
      <trkpt lat="49.23521" lon="1.1186">
        <ele>110.4</ele>
        <time>2016-09-18T09:37:18Z</time>
      </trkpt>
      <trkpt lat="49.23515" lon="1.11841">
        <ele>110.1</ele>
        <time>2016-09-18T09:37:20Z</time>
      </trkpt>
      <trkpt lat="49.23509" lon="1.11821">
        <ele>109.7</ele>
        <time>2016-09-18T09:37:22Z</time>
      </trkpt>
      <trkpt lat="49.23504" lon="1.11805">
        <ele>109.1</ele>
        <time>2016-09-18T09:37:24Z</time>
      </trkpt>
      <trkpt lat="49.23497" lon="1.11789">
        <ele>108.5</ele>
        <time>2016-09-18T09:37:26Z</time>
      </trkpt>
      <trkpt lat="49.23487" lon="1.11778">
        <ele>107.8</ele>
        <time>2016-09-18T09:37:28Z</time>
      </trkpt>
      <trkpt lat="49.23471" lon="1.11782">
        <ele>107.1</ele>
        <time>2016-09-18T09:37:30Z</time>
      </trkpt>
      <trkpt lat="49.23461" lon="1.11784">
        <ele>106.7</ele>
        <time>2016-09-18T09:37:31Z</time>
      </trkpt>
      <trkpt lat="49.2345" lon="1.11786">
        <ele>106.2</ele>
        <time>2016-09-18T09:37:32Z</time>
      </trkpt>
      <trkpt lat="49.23439" lon="1.11788">
        <ele>105.6</ele>
        <time>2016-09-18T09:37:33Z</time>
      </trkpt>
      <trkpt lat="49.2343" lon="1.11789">
        <ele>105</ele>
        <time>2016-09-18T09:37:34Z</time>
      </trkpt>
      <trkpt lat="49.23416" lon="1.11786">
        <ele>103.6</ele>
        <time>2016-09-18T09:37:36Z</time>
      </trkpt>
      <trkpt lat="49.23408" lon="1.11778">
        <ele>102.4</ele>
        <time>2016-09-18T09:37:38Z</time>
      </trkpt>
      <trkpt lat="49.23401" lon="1.11763">
        <ele>100.7</ele>
        <time>2016-09-18T09:37:41Z</time>
      </trkpt>
      <trkpt lat="49.23398" lon="1.11749">
        <ele>99.8</ele>
        <time>2016-09-18T09:37:43Z</time>
      </trkpt>
      <trkpt lat="49.23393" lon="1.11736">
        <ele>98.7</ele>
        <time>2016-09-18T09:37:46Z</time>
      </trkpt>
      <trkpt lat="49.23387" lon="1.1172">
        <ele>97.5</ele>
        <time>2016-09-18T09:37:50Z</time>
      </trkpt>
      <trkpt lat="49.23377" lon="1.11722">
        <ele>96.8</ele>
        <time>2016-09-18T09:37:53Z</time>
      </trkpt>
      <trkpt lat="49.23372" lon="1.11734">
        <ele>96</ele>
        <time>2016-09-18T09:37:58Z</time>
      </trkpt>
      <trkpt lat="49.23366" lon="1.11747">
        <ele>95.5</ele>
        <time>2016-09-18T09:38:02Z</time>
      </trkpt>
      <trkpt lat="49.23363" lon="1.1176">
        <ele>95.5</ele>
        <time>2016-09-18T09:38:07Z</time>
      </trkpt>
      <trkpt lat="49.2336" lon="1.11775">
        <ele>95.7</ele>
        <time>2016-09-18T09:38:11Z</time>
      </trkpt>
      <trkpt lat="49.23357" lon="1.1179">
        <ele>96.2</ele>
        <time>2016-09-18T09:38:16Z</time>
      </trkpt>
      <trkpt lat="49.23353" lon="1.11806">
        <ele>96.9</ele>
        <time>2016-09-18T09:38:21Z</time>
      </trkpt>
      <trkpt lat="49.2335" lon="1.11822">
        <ele>97.7</ele>
        <time>2016-09-18T09:38:26Z</time>
      </trkpt>
      <trkpt lat="49.23346" lon="1.11837">
        <ele>98.5</ele>
        <time>2016-09-18T09:38:31Z</time>
      </trkpt>
      <trkpt lat="49.23339" lon="1.11847">
        <ele>99.1</ele>
        <time>2016-09-18T09:38:36Z</time>
      </trkpt>
      <trkpt lat="49.23329" lon="1.11851">
        <ele>99.9</ele>
        <time>2016-09-18T09:38:41Z</time>
      </trkpt>
      <trkpt lat="49.23319" lon="1.11858">
        <ele>101</ele>
        <time>2016-09-18T09:38:47Z</time>
      </trkpt>
      <trkpt lat="49.23309" lon="1.11863">
        <ele>101.9</ele>
        <time>2016-09-18T09:38:52Z</time>
      </trkpt>
      <trkpt lat="49.233" lon="1.11857">
        <ele>102.7</ele>
        <time>2016-09-18T09:38:57Z</time>
      </trkpt>
      <trkpt lat="49.23294" lon="1.11846">
        <ele>103.6</ele>
        <time>2016-09-18T09:39:03Z</time>
      </trkpt>
      <trkpt lat="49.23286" lon="1.11833">
        <ele>104.3</ele>
        <time>2016-09-18T09:39:08Z</time>
      </trkpt>
      <trkpt lat="49.23279" lon="1.11822">
        <ele>104.8</ele>
        <time>2016-09-18T09:39:12Z</time>
      </trkpt>
      <trkpt lat="49.23272" lon="1.11813">
        <ele>105.1</ele>
        <time>2016-09-18T09:39:15Z</time>
      </trkpt>
      <trkpt lat="49.23263" lon="1.11802">
        <ele>105.8</ele>
        <time>2016-09-18T09:39:20Z</time>
      </trkpt>
      <trkpt lat="49.23258" lon="1.11785">
        <ele>106.3</ele>
        <time>2016-09-18T09:39:25Z</time>
      </trkpt>
      <trkpt lat="49.2325" lon="1.11772">
        <ele>106.6</ele>
        <time>2016-09-18T09:39:28Z</time>
      </trkpt>
      <trkpt lat="49.23241" lon="1.11762">
        <ele>106.9</ele>
        <time>2016-09-18T09:39:30Z</time>
      </trkpt>
      <trkpt lat="49.23232" lon="1.1175">
        <ele>107.3</ele>
        <time>2016-09-18T09:39:33Z</time>
      </trkpt>
      <trkpt lat="49.23223" lon="1.11743">
        <ele>107.7</ele>
        <time>2016-09-18T09:39:36Z</time>
      </trkpt>
      <trkpt lat="49.23213" lon="1.11748">
        <ele>108.1</ele>
        <time>2016-09-18T09:39:39Z</time>
      </trkpt>
      <trkpt lat="49.23203" lon="1.11757">
        <ele>108.6</ele>
        <time>2016-09-18T09:39:43Z</time>
      </trkpt>
      <trkpt lat="49.23195" lon="1.11766">
        <ele>109</ele>
        <time>2016-09-18T09:39:46Z</time>
      </trkpt>
      <trkpt lat="49.23185" lon="1.11774">
        <ele>109.4</ele>
        <time>2016-09-18T09:39:50Z</time>
      </trkpt>
      <trkpt lat="49.23176" lon="1.11782">
        <ele>109.7</ele>
        <time>2016-09-18T09:39:53Z</time>
      </trkpt>
      <trkpt lat="49.23167" lon="1.11792">
        <ele>109.9</ele>
        <time>2016-09-18T09:39:56Z</time>
      </trkpt>
      <trkpt lat="49.23158" lon="1.11802">
        <ele>110.1</ele>
        <time>2016-09-18T09:39:59Z</time>
      </trkpt>
      <trkpt lat="49.23148" lon="1.11813">
        <ele>110.3</ele>
        <time>2016-09-18T09:40:03Z</time>
      </trkpt>
      <trkpt lat="49.23139" lon="1.11822">
        <ele>110.4</ele>
        <time>2016-09-18T09:40:05Z</time>
      </trkpt>
      <trkpt lat="49.23128" lon="1.11829">
        <ele>110.5</ele>
        <time>2016-09-18T09:40:08Z</time>
      </trkpt>
      <trkpt lat="49.2312" lon="1.11837">
        <ele>110.6</ele>
        <time>2016-09-18T09:40:10Z</time>
      </trkpt>
      <trkpt lat="49.23112" lon="1.11845">
        <ele>110.6</ele>
        <time>2016-09-18T09:40:12Z</time>
      </trkpt>
      <trkpt lat="49.23101" lon="1.11856">
        <ele>110.7</ele>
        <time>2016-09-18T09:40:15Z</time>
      </trkpt>
      <trkpt lat="49.23094" lon="1.11865">
        <ele>110.7</ele>
        <time>2016-09-18T09:40:17Z</time>
      </trkpt>
      <trkpt lat="49.23083" lon="1.11872">
        <ele>110.8</ele>
        <time>2016-09-18T09:40:19Z</time>
      </trkpt>
      <trkpt lat="49.23071" lon="1.11882">
        <ele>110.8</ele>
        <time>2016-09-18T09:40:21Z</time>
      </trkpt>
      <trkpt lat="49.23059" lon="1.1189">
        <ele>110.8</ele>
        <time>2016-09-18T09:40:23Z</time>
      </trkpt>
      <trkpt lat="49.23048" lon="1.11899">
        <ele>110.8</ele>
        <time>2016-09-18T09:40:25Z</time>
      </trkpt>
      <trkpt lat="49.23037" lon="1.11907">
        <ele>110.9</ele>
        <time>2016-09-18T09:40:27Z</time>
      </trkpt>
      <trkpt lat="49.23025" lon="1.11915">
        <ele>110.9</ele>
        <time>2016-09-18T09:40:29Z</time>
      </trkpt>
      <trkpt lat="49.23012" lon="1.1192">
        <ele>110.9</ele>
        <time>2016-09-18T09:40:31Z</time>
      </trkpt>
      <trkpt lat="49.23" lon="1.11924">
        <ele>110.7</ele>
        <time>2016-09-18T09:40:33Z</time>
      </trkpt>
      <trkpt lat="49.22988" lon="1.11926">
        <ele>110.6</ele>
        <time>2016-09-18T09:40:35Z</time>
      </trkpt>
      <trkpt lat="49.22977" lon="1.11929">
        <ele>110.4</ele>
        <time>2016-09-18T09:40:37Z</time>
      </trkpt>
      <trkpt lat="49.22963" lon="1.11937">
        <ele>110</ele>
        <time>2016-09-18T09:40:39Z</time>
      </trkpt>
      <trkpt lat="49.22948" lon="1.11942">
        <ele>109.6</ele>
        <time>2016-09-18T09:40:41Z</time>
      </trkpt>
      <trkpt lat="49.22933" lon="1.11947">
        <ele>109</ele>
        <time>2016-09-18T09:40:43Z</time>
      </trkpt>
      <trkpt lat="49.22919" lon="1.11953">
        <ele>108.1</ele>
        <time>2016-09-18T09:40:45Z</time>
      </trkpt>
      <trkpt lat="49.22905" lon="1.11961">
        <ele>107.1</ele>
        <time>2016-09-18T09:40:47Z</time>
      </trkpt>
      <trkpt lat="49.22893" lon="1.11976">
        <ele>106.1</ele>
        <time>2016-09-18T09:40:49Z</time>
      </trkpt>
      <trkpt lat="49.22884" lon="1.11993">
        <ele>105</ele>
        <time>2016-09-18T09:40:51Z</time>
      </trkpt>
      <trkpt lat="49.22877" lon="1.12011">
        <ele>104</ele>
        <time>2016-09-18T09:40:53Z</time>
      </trkpt>
      <trkpt lat="49.2287" lon="1.12029">
        <ele>102.8</ele>
        <time>2016-09-18T09:40:55Z</time>
      </trkpt>
      <trkpt lat="49.22863" lon="1.12045">
        <ele>101.5</ele>
        <time>2016-09-18T09:40:57Z</time>
      </trkpt>
      <trkpt lat="49.2286" lon="1.12062">
        <ele>100</ele>
        <time>2016-09-18T09:40:59Z</time>
      </trkpt>
      <trkpt lat="49.22858" lon="1.12076">
        <ele>98.5</ele>
        <time>2016-09-18T09:41:01Z</time>
      </trkpt>
      <trkpt lat="49.22856" lon="1.12094">
        <ele>96.1</ele>
        <time>2016-09-18T09:41:04Z</time>
      </trkpt>
      <trkpt lat="49.22854" lon="1.12108">
        <ele>93.8</ele>
        <time>2016-09-18T09:41:07Z</time>
      </trkpt>
      <trkpt lat="49.22852" lon="1.12125">
        <ele>90.9</ele>
        <time>2016-09-18T09:41:11Z</time>
      </trkpt>
      <trkpt lat="49.22851" lon="1.12143">
        <ele>88.6</ele>
        <time>2016-09-18T09:41:14Z</time>
      </trkpt>
      <trkpt lat="49.2285" lon="1.12164">
        <ele>86.5</ele>
        <time>2016-09-18T09:41:17Z</time>
      </trkpt>
      <trkpt lat="49.2285" lon="1.12178">
        <ele>85.1</ele>
        <time>2016-09-18T09:41:19Z</time>
      </trkpt>
      <trkpt lat="49.22848" lon="1.12198">
        <ele>83</ele>
        <time>2016-09-18T09:41:22Z</time>
      </trkpt>
      <trkpt lat="49.22848" lon="1.12217">
        <ele>80.7</ele>
        <time>2016-09-18T09:41:25Z</time>
      </trkpt>
      <trkpt lat="49.22848" lon="1.12236">
        <ele>78</ele>
        <time>2016-09-18T09:41:29Z</time>
      </trkpt>
      <trkpt lat="49.22844" lon="1.12251">
        <ele>74.4</ele>
        <time>2016-09-18T09:41:35Z</time>
      </trkpt>
      <trkpt lat="49.22841" lon="1.12269">
        <ele>72.4</ele>
        <time>2016-09-18T09:41:39Z</time>
      </trkpt>
      <trkpt lat="49.22838" lon="1.12287">
        <ele>71.1</ele>
        <time>2016-09-18T09:41:42Z</time>
      </trkpt>
      <trkpt lat="49.22838" lon="1.12304">
        <ele>69.8</ele>
        <time>2016-09-18T09:41:45Z</time>
      </trkpt>
      <trkpt lat="49.22838" lon="1.1232">
        <ele>68.8</ele>
        <time>2016-09-18T09:41:48Z</time>
      </trkpt>
      <trkpt lat="49.22836" lon="1.12334">
        <ele>68</ele>
        <time>2016-09-18T09:41:51Z</time>
      </trkpt>
      <trkpt lat="49.22834" lon="1.12348">
        <ele>67.1</ele>
        <time>2016-09-18T09:41:55Z</time>
      </trkpt>
      <trkpt lat="49.22831" lon="1.12362">
        <ele>64.3</ele>
        <time>2016-09-18T09:42:26Z</time>
      </trkpt>
      <trkpt lat="49.22829" lon="1.12377">
        <ele>64.5</ele>
        <time>2016-09-18T09:42:32Z</time>
      </trkpt>
      <trkpt lat="49.22827" lon="1.12391">
        <ele>65.5</ele>
        <time>2016-09-18T09:42:37Z</time>
      </trkpt>
      <trkpt lat="49.22825" lon="1.12407">
        <ele>67.3</ele>
        <time>2016-09-18T09:42:44Z</time>
      </trkpt>
      <trkpt lat="49.22822" lon="1.12422">
        <ele>69.1</ele>
        <time>2016-09-18T09:42:50Z</time>
      </trkpt>
      <trkpt lat="49.2282" lon="1.12437">
        <ele>71.2</ele>
        <time>2016-09-18T09:42:57Z</time>
      </trkpt>
      <trkpt lat="49.22818" lon="1.1245">
        <ele>73.5</ele>
        <time>2016-09-18T09:43:05Z</time>
      </trkpt>
      <trkpt lat="49.22817" lon="1.12465">
        <ele>76</ele>
        <time>2016-09-18T09:43:14Z</time>
      </trkpt>
      <trkpt lat="49.22816" lon="1.1248">
        <ele>77.9</ele>
        <time>2016-09-18T09:43:21Z</time>
      </trkpt>
      <trkpt lat="49.22815" lon="1.12495">
        <ele>79.7</ele>
        <time>2016-09-18T09:43:28Z</time>
      </trkpt>
      <trkpt lat="49.22814" lon="1.12509">
        <ele>81.4</ele>
        <time>2016-09-18T09:43:35Z</time>
      </trkpt>
      <trkpt lat="49.22814" lon="1.12524">
        <ele>82.8</ele>
        <time>2016-09-18T09:43:41Z</time>
      </trkpt>
      <trkpt lat="49.22814" lon="1.1254">
        <ele>84.2</ele>
        <time>2016-09-18T09:43:47Z</time>
      </trkpt>
      <trkpt lat="49.22813" lon="1.12555">
        <ele>85.2</ele>
        <time>2016-09-18T09:43:52Z</time>
      </trkpt>
      <trkpt lat="49.22811" lon="1.12572">
        <ele>86.2</ele>
        <time>2016-09-18T09:43:57Z</time>
      </trkpt>
      <trkpt lat="49.2281" lon="1.12592">
        <ele>86.9</ele>
        <time>2016-09-18T09:44:01Z</time>
      </trkpt>
      <trkpt lat="49.22809" lon="1.12611">
        <ele>87.3</ele>
        <time>2016-09-18T09:44:04Z</time>
      </trkpt>
      <trkpt lat="49.2281" lon="1.12631">
        <ele>87.6</ele>
        <time>2016-09-18T09:44:07Z</time>
      </trkpt>
      <trkpt lat="49.22812" lon="1.12649">
        <ele>87.8</ele>
        <time>2016-09-18T09:44:10Z</time>
      </trkpt>
      <trkpt lat="49.22809" lon="1.12666">
        <ele>88</ele>
        <time>2016-09-18T09:44:13Z</time>
      </trkpt>
      <trkpt lat="49.22807" lon="1.12684">
        <ele>88.2</ele>
        <time>2016-09-18T09:44:16Z</time>
      </trkpt>
      <trkpt lat="49.22804" lon="1.12701">
        <ele>88.5</ele>
        <time>2016-09-18T09:44:19Z</time>
      </trkpt>
      <trkpt lat="49.22802" lon="1.12717">
        <ele>88.8</ele>
        <time>2016-09-18T09:44:22Z</time>
      </trkpt>
      <trkpt lat="49.22801" lon="1.12734">
        <ele>89.2</ele>
        <time>2016-09-18T09:44:25Z</time>
      </trkpt>
      <trkpt lat="49.22801" lon="1.12751">
        <ele>89.5</ele>
        <time>2016-09-18T09:44:28Z</time>
      </trkpt>
      <trkpt lat="49.22801" lon="1.12769">
        <ele>89.9</ele>
        <time>2016-09-18T09:44:31Z</time>
      </trkpt>
      <trkpt lat="49.22801" lon="1.12787">
        <ele>90.3</ele>
        <time>2016-09-18T09:44:34Z</time>
      </trkpt>
      <trkpt lat="49.22799" lon="1.12807">
        <ele>90.7</ele>
        <time>2016-09-18T09:44:37Z</time>
      </trkpt>
      <trkpt lat="49.22797" lon="1.12822">
        <ele>91</ele>
        <time>2016-09-18T09:44:39Z</time>
      </trkpt>
      <trkpt lat="49.22796" lon="1.1284">
        <ele>91.4</ele>
        <time>2016-09-18T09:44:42Z</time>
      </trkpt>
      <trkpt lat="49.2279" lon="1.12856">
        <ele>91.8</ele>
        <time>2016-09-18T09:44:45Z</time>
      </trkpt>
      <trkpt lat="49.22786" lon="1.12871">
        <ele>92.3</ele>
        <time>2016-09-18T09:44:49Z</time>
      </trkpt>
      <trkpt lat="49.22785" lon="1.12885">
        <ele>92.7</ele>
        <time>2016-09-18T09:44:53Z</time>
      </trkpt>
      <trkpt lat="49.22784" lon="1.12901">
        <ele>93.1</ele>
        <time>2016-09-18T09:44:57Z</time>
      </trkpt>
      <trkpt lat="49.22776" lon="1.12909">
        <ele>93.5</ele>
        <time>2016-09-18T09:45:00Z</time>
      </trkpt>
      <trkpt lat="49.22765" lon="1.12904">
        <ele>93.9</ele>
        <time>2016-09-18T09:45:03Z</time>
      </trkpt>
      <trkpt lat="49.22752" lon="1.12901">
        <ele>94.3</ele>
        <time>2016-09-18T09:45:06Z</time>
      </trkpt>
      <trkpt lat="49.2274" lon="1.12897">
        <ele>94.7</ele>
        <time>2016-09-18T09:45:09Z</time>
      </trkpt>
      <trkpt lat="49.22727" lon="1.12893">
        <ele>95.2</ele>
        <time>2016-09-18T09:45:12Z</time>
      </trkpt>
      <trkpt lat="49.22715" lon="1.12888">
        <ele>95.6</ele>
        <time>2016-09-18T09:45:15Z</time>
      </trkpt>
      <trkpt lat="49.22703" lon="1.12883">
        <ele>96</ele>
        <time>2016-09-18T09:45:18Z</time>
      </trkpt>
      <trkpt lat="49.22694" lon="1.12879">
        <ele>96.3</ele>
        <time>2016-09-18T09:45:20Z</time>
      </trkpt>
      <trkpt lat="49.22682" lon="1.12874">
        <ele>96.9</ele>
        <time>2016-09-18T09:45:23Z</time>
      </trkpt>
      <trkpt lat="49.22672" lon="1.12872">
        <ele>97.4</ele>
        <time>2016-09-18T09:45:26Z</time>
      </trkpt>
      <trkpt lat="49.22661" lon="1.12866">
        <ele>97.9</ele>
        <time>2016-09-18T09:45:29Z</time>
      </trkpt>
      <trkpt lat="49.22649" lon="1.1286">
        <ele>98.4</ele>
        <time>2016-09-18T09:45:32Z</time>
      </trkpt>
      <trkpt lat="49.2264" lon="1.12855">
        <ele>98.8</ele>
        <time>2016-09-18T09:45:34Z</time>
      </trkpt>
      <trkpt lat="49.22629" lon="1.12851">
        <ele>99.3</ele>
        <time>2016-09-18T09:45:37Z</time>
      </trkpt>
      <trkpt lat="49.22618" lon="1.12845">
        <ele>99.8</ele>
        <time>2016-09-18T09:45:40Z</time>
      </trkpt>
      <trkpt lat="49.22607" lon="1.1284">
        <ele>100.4</ele>
        <time>2016-09-18T09:45:43Z</time>
      </trkpt>
      <trkpt lat="49.22595" lon="1.12835">
        <ele>100.9</ele>
        <time>2016-09-18T09:45:46Z</time>
      </trkpt>
      <trkpt lat="49.22583" lon="1.12829">
        <ele>101.6</ele>
        <time>2016-09-18T09:45:49Z</time>
      </trkpt>
      <trkpt lat="49.22571" lon="1.12825">
        <ele>102.2</ele>
        <time>2016-09-18T09:45:52Z</time>
      </trkpt>
      <trkpt lat="49.2256" lon="1.1282">
        <ele>102.8</ele>
        <time>2016-09-18T09:45:55Z</time>
      </trkpt>
      <trkpt lat="49.22549" lon="1.12815">
        <ele>103.4</ele>
        <time>2016-09-18T09:45:58Z</time>
      </trkpt>
      <trkpt lat="49.22538" lon="1.12809">
        <ele>104.1</ele>
        <time>2016-09-18T09:46:01Z</time>
      </trkpt>
      <trkpt lat="49.22529" lon="1.12806">
        <ele>104.5</ele>
        <time>2016-09-18T09:46:03Z</time>
      </trkpt>
      <trkpt lat="49.22517" lon="1.12801">
        <ele>105.2</ele>
        <time>2016-09-18T09:46:06Z</time>
      </trkpt>
      <trkpt lat="49.22509" lon="1.12795">
        <ele>105.9</ele>
        <time>2016-09-18T09:46:09Z</time>
      </trkpt>
      <trkpt lat="49.22499" lon="1.12792">
        <ele>106.5</ele>
        <time>2016-09-18T09:46:12Z</time>
      </trkpt>
      <trkpt lat="49.2249" lon="1.1279">
        <ele>107.3</ele>
        <time>2016-09-18T09:46:16Z</time>
      </trkpt>
      <trkpt lat="49.2248" lon="1.12786">
        <ele>107.9</ele>
        <time>2016-09-18T09:46:19Z</time>
      </trkpt>
      <trkpt lat="49.22469" lon="1.12783">
        <ele>108.6</ele>
        <time>2016-09-18T09:46:23Z</time>
      </trkpt>
      <trkpt lat="49.2246" lon="1.1278">
        <ele>109.1</ele>
        <time>2016-09-18T09:46:26Z</time>
      </trkpt>
      <trkpt lat="49.22449" lon="1.12775">
        <ele>109.8</ele>
        <time>2016-09-18T09:46:30Z</time>
      </trkpt>
      <trkpt lat="49.2244" lon="1.12771">
        <ele>110.4</ele>
        <time>2016-09-18T09:46:33Z</time>
      </trkpt>
      <trkpt lat="49.22428" lon="1.12766">
        <ele>111.1</ele>
        <time>2016-09-18T09:46:37Z</time>
      </trkpt>
      <trkpt lat="49.22418" lon="1.12762">
        <ele>111.7</ele>
        <time>2016-09-18T09:46:40Z</time>
      </trkpt>
      <trkpt lat="49.22413" lon="1.12748">
        <ele>112.5</ele>
        <time>2016-09-18T09:46:44Z</time>
      </trkpt>
      <trkpt lat="49.22413" lon="1.12734">
        <ele>113.2</ele>
        <time>2016-09-18T09:46:48Z</time>
      </trkpt>
      <trkpt lat="49.22416" lon="1.1272">
        <ele>113.7</ele>
        <time>2016-09-18T09:46:51Z</time>
      </trkpt>
      <trkpt lat="49.22419" lon="1.12705">
        <ele>114.1</ele>
        <time>2016-09-18T09:46:54Z</time>
      </trkpt>
      <trkpt lat="49.22426" lon="1.1269">
        <ele>114.6</ele>
        <time>2016-09-18T09:46:58Z</time>
      </trkpt>
      <trkpt lat="49.2243" lon="1.12676">
        <ele>114.8</ele>
        <time>2016-09-18T09:47:01Z</time>
      </trkpt>
      <trkpt lat="49.22432" lon="1.12656">
        <ele>115</ele>
        <time>2016-09-18T09:47:04Z</time>
      </trkpt>
      <trkpt lat="49.22433" lon="1.12638">
        <ele>115.2</ele>
        <time>2016-09-18T09:47:07Z</time>
      </trkpt>
      <trkpt lat="49.22435" lon="1.12623">
        <ele>115.5</ele>
        <time>2016-09-18T09:47:10Z</time>
      </trkpt>
      <trkpt lat="49.22435" lon="1.12605">
        <ele>115.7</ele>
        <time>2016-09-18T09:47:14Z</time>
      </trkpt>
      <trkpt lat="49.22434" lon="1.12591">
        <ele>115.9</ele>
        <time>2016-09-18T09:47:18Z</time>
      </trkpt>
      <trkpt lat="49.22435" lon="1.12573">
        <ele>116</ele>
        <time>2016-09-18T09:47:21Z</time>
      </trkpt>
      <trkpt lat="49.22438" lon="1.12556">
        <ele>116.1</ele>
        <time>2016-09-18T09:47:24Z</time>
      </trkpt>
      <trkpt lat="49.22441" lon="1.12541">
        <ele>116.2</ele>
        <time>2016-09-18T09:47:27Z</time>
      </trkpt>
      <trkpt lat="49.22447" lon="1.12527">
        <ele>116.4</ele>
        <time>2016-09-18T09:47:30Z</time>
      </trkpt>
      <trkpt lat="49.2245" lon="1.12511">
        <ele>116.5</ele>
        <time>2016-09-18T09:47:33Z</time>
      </trkpt>
      <trkpt lat="49.22452" lon="1.12495">
        <ele>116.7</ele>
        <time>2016-09-18T09:47:36Z</time>
      </trkpt>
      <trkpt lat="49.22454" lon="1.12479">
        <ele>116.9</ele>
        <time>2016-09-18T09:47:39Z</time>
      </trkpt>
      <trkpt lat="49.22456" lon="1.12462">
        <ele>117.1</ele>
        <time>2016-09-18T09:47:42Z</time>
      </trkpt>
      <trkpt lat="49.2246" lon="1.1245">
        <ele>117.4</ele>
        <time>2016-09-18T09:47:45Z</time>
      </trkpt>
      <trkpt lat="49.22462" lon="1.12432">
        <ele>117.7</ele>
        <time>2016-09-18T09:47:48Z</time>
      </trkpt>
      <trkpt lat="49.22464" lon="1.12416">
        <ele>118.1</ele>
        <time>2016-09-18T09:47:51Z</time>
      </trkpt>
      <trkpt lat="49.22468" lon="1.12398">
        <ele>118.6</ele>
        <time>2016-09-18T09:47:55Z</time>
      </trkpt>
      <trkpt lat="49.22471" lon="1.12381">
        <ele>119</ele>
        <time>2016-09-18T09:47:58Z</time>
      </trkpt>
      <trkpt lat="49.22471" lon="1.12366">
        <ele>119.3</ele>
        <time>2016-09-18T09:48:00Z</time>
      </trkpt>
      <trkpt lat="49.22473" lon="1.12349">
        <ele>119.7</ele>
        <time>2016-09-18T09:48:03Z</time>
      </trkpt>
      <trkpt lat="49.22473" lon="1.12332">
        <ele>119.9</ele>
        <time>2016-09-18T09:48:06Z</time>
      </trkpt>
      <trkpt lat="49.22476" lon="1.12319">
        <ele>120.2</ele>
        <time>2016-09-18T09:48:09Z</time>
      </trkpt>
      <trkpt lat="49.2248" lon="1.12302">
        <ele>120.4</ele>
        <time>2016-09-18T09:48:12Z</time>
      </trkpt>
      <trkpt lat="49.22484" lon="1.12289">
        <ele>120.5</ele>
        <time>2016-09-18T09:48:14Z</time>
      </trkpt>
      <trkpt lat="49.22486" lon="1.12274">
        <ele>120.6</ele>
        <time>2016-09-18T09:48:16Z</time>
      </trkpt>
      <trkpt lat="49.22488" lon="1.1226">
        <ele>120.6</ele>
        <time>2016-09-18T09:48:18Z</time>
      </trkpt>
      <trkpt lat="49.22491" lon="1.12245">
        <ele>120.5</ele>
        <time>2016-09-18T09:48:20Z</time>
      </trkpt>
      <trkpt lat="49.22495" lon="1.12228">
        <ele>120.3</ele>
        <time>2016-09-18T09:48:23Z</time>
      </trkpt>
      <trkpt lat="49.2249" lon="1.12212">
        <ele>119.9</ele>
        <time>2016-09-18T09:48:26Z</time>
      </trkpt>
      <trkpt lat="49.22482" lon="1.12205">
        <ele>119.5</ele>
        <time>2016-09-18T09:48:29Z</time>
      </trkpt>
      <trkpt lat="49.22471" lon="1.12198">
        <ele>119.3</ele>
        <time>2016-09-18T09:48:32Z</time>
      </trkpt>
      <trkpt lat="49.22462" lon="1.12189">
        <ele>119.3</ele>
        <time>2016-09-18T09:48:36Z</time>
      </trkpt>
      <trkpt lat="49.22452" lon="1.12181">
        <ele>119.7</ele>
        <time>2016-09-18T09:48:40Z</time>
      </trkpt>
      <trkpt lat="49.22442" lon="1.12175">
        <ele>120.1</ele>
        <time>2016-09-18T09:48:44Z</time>
      </trkpt>
      <trkpt lat="49.22431" lon="1.12169">
        <ele>120.6</ele>
        <time>2016-09-18T09:48:48Z</time>
      </trkpt>
      <trkpt lat="49.22423" lon="1.12164">
        <ele>121</ele>
        <time>2016-09-18T09:48:51Z</time>
      </trkpt>
      <trkpt lat="49.22414" lon="1.1216">
        <ele>121.6</ele>
        <time>2016-09-18T09:48:55Z</time>
      </trkpt>
      <trkpt lat="49.22402" lon="1.12155">
        <ele>122</ele>
        <time>2016-09-18T09:48:59Z</time>
      </trkpt>
      <trkpt lat="49.22392" lon="1.1215">
        <ele>122.3</ele>
        <time>2016-09-18T09:49:02Z</time>
      </trkpt>
      <trkpt lat="49.22381" lon="1.12146">
        <ele>122.6</ele>
        <time>2016-09-18T09:49:05Z</time>
      </trkpt>
      <trkpt lat="49.22369" lon="1.12142">
        <ele>122.8</ele>
        <time>2016-09-18T09:49:08Z</time>
      </trkpt>
      <trkpt lat="49.22357" lon="1.12138">
        <ele>122.9</ele>
        <time>2016-09-18T09:49:11Z</time>
      </trkpt>
      <trkpt lat="49.22345" lon="1.12134">
        <ele>123</ele>
        <time>2016-09-18T09:49:14Z</time>
      </trkpt>
      <trkpt lat="49.22334" lon="1.12129">
        <ele>123.1</ele>
        <time>2016-09-18T09:49:17Z</time>
      </trkpt>
      <trkpt lat="49.22324" lon="1.12124">
        <ele>123.2</ele>
        <time>2016-09-18T09:49:20Z</time>
      </trkpt>
      <trkpt lat="49.22314" lon="1.12122">
        <ele>123.3</ele>
        <time>2016-09-18T09:49:23Z</time>
      </trkpt>
      <trkpt lat="49.22304" lon="1.1212">
        <ele>123.3</ele>
        <time>2016-09-18T09:49:26Z</time>
      </trkpt>
      <trkpt lat="49.22296" lon="1.12114">
        <ele>123.3</ele>
        <time>2016-09-18T09:49:29Z</time>
      </trkpt>
      <trkpt lat="49.22286" lon="1.12108">
        <ele>123.3</ele>
        <time>2016-09-18T09:49:32Z</time>
      </trkpt>
      <trkpt lat="49.22273" lon="1.12103">
        <ele>123.3</ele>
        <time>2016-09-18T09:49:35Z</time>
      </trkpt>
      <trkpt lat="49.22264" lon="1.12099">
        <ele>123.3</ele>
        <time>2016-09-18T09:49:37Z</time>
      </trkpt>
      <trkpt lat="49.22255" lon="1.12095">
        <ele>123.3</ele>
        <time>2016-09-18T09:49:39Z</time>
      </trkpt>
      <trkpt lat="49.22242" lon="1.12089">
        <ele>123.4</ele>
        <time>2016-09-18T09:49:42Z</time>
      </trkpt>
      <trkpt lat="49.22234" lon="1.12077">
        <ele>123.4</ele>
        <time>2016-09-18T09:49:45Z</time>
      </trkpt>
      <trkpt lat="49.22234" lon="1.1206">
        <ele>123.4</ele>
        <time>2016-09-18T09:49:48Z</time>
      </trkpt>
      <trkpt lat="49.22237" lon="1.12043">
        <ele>123.4</ele>
        <time>2016-09-18T09:49:51Z</time>
      </trkpt>
      <trkpt lat="49.2224" lon="1.12025">
        <ele>123.4</ele>
        <time>2016-09-18T09:49:54Z</time>
      </trkpt>
      <trkpt lat="49.22244" lon="1.12007">
        <ele>123.5</ele>
        <time>2016-09-18T09:49:57Z</time>
      </trkpt>
      <trkpt lat="49.22247" lon="1.1199">
        <ele>123.6</ele>
        <time>2016-09-18T09:50:00Z</time>
      </trkpt>
      <trkpt lat="49.22247" lon="1.1197">
        <ele>123.7</ele>
        <time>2016-09-18T09:50:03Z</time>
      </trkpt>
      <trkpt lat="49.22244" lon="1.11953">
        <ele>123.7</ele>
        <time>2016-09-18T09:50:06Z</time>
      </trkpt>
      <trkpt lat="49.22239" lon="1.1194">
        <ele>123.8</ele>
        <time>2016-09-18T09:50:08Z</time>
      </trkpt>
      <trkpt lat="49.22234" lon="1.11928">
        <ele>123.9</ele>
        <time>2016-09-18T09:50:10Z</time>
      </trkpt>
      <trkpt lat="49.22228" lon="1.11911">
        <ele>124</ele>
        <time>2016-09-18T09:50:13Z</time>
      </trkpt>
      <trkpt lat="49.22221" lon="1.11894">
        <ele>124.2</ele>
        <time>2016-09-18T09:50:16Z</time>
      </trkpt>
      <trkpt lat="49.22214" lon="1.11878">
        <ele>124.3</ele>
        <time>2016-09-18T09:50:19Z</time>
      </trkpt>
      <trkpt lat="49.22209" lon="1.11862">
        <ele>124.4</ele>
        <time>2016-09-18T09:50:22Z</time>
      </trkpt>
      <trkpt lat="49.22207" lon="1.11848">
        <ele>124.5</ele>
        <time>2016-09-18T09:50:25Z</time>
      </trkpt>
      <trkpt lat="49.22202" lon="1.11827">
        <ele>124.7</ele>
        <time>2016-09-18T09:50:28Z</time>
      </trkpt>
      <trkpt lat="49.22199" lon="1.11813">
        <ele>124.7</ele>
        <time>2016-09-18T09:50:30Z</time>
      </trkpt>
      <trkpt lat="49.22197" lon="1.11793">
        <ele>124.9</ele>
        <time>2016-09-18T09:50:33Z</time>
      </trkpt>
      <trkpt lat="49.22192" lon="1.11779">
        <ele>125</ele>
        <time>2016-09-18T09:50:35Z</time>
      </trkpt>
      <trkpt lat="49.22186" lon="1.11764">
        <ele>125.2</ele>
        <time>2016-09-18T09:50:37Z</time>
      </trkpt>
      <trkpt lat="49.22179" lon="1.11751">
        <ele>125.3</ele>
        <time>2016-09-18T09:50:39Z</time>
      </trkpt>
      <trkpt lat="49.22172" lon="1.11739">
        <ele>125.5</ele>
        <time>2016-09-18T09:50:41Z</time>
      </trkpt>
      <trkpt lat="49.22165" lon="1.11729">
        <ele>125.6</ele>
        <time>2016-09-18T09:50:43Z</time>
      </trkpt>
      <trkpt lat="49.22157" lon="1.11718">
        <ele>125.8</ele>
        <time>2016-09-18T09:50:45Z</time>
      </trkpt>
      <trkpt lat="49.22149" lon="1.11708">
        <ele>126</ele>
        <time>2016-09-18T09:50:47Z</time>
      </trkpt>
      <trkpt lat="49.22141" lon="1.11699">
        <ele>126.2</ele>
        <time>2016-09-18T09:50:49Z</time>
      </trkpt>
      <trkpt lat="49.22134" lon="1.1169">
        <ele>126.4</ele>
        <time>2016-09-18T09:50:51Z</time>
      </trkpt>
      <trkpt lat="49.22126" lon="1.11677">
        <ele>126.6</ele>
        <time>2016-09-18T09:50:53Z</time>
      </trkpt>
      <trkpt lat="49.2212" lon="1.11664">
        <ele>126.7</ele>
        <time>2016-09-18T09:50:55Z</time>
      </trkpt>
      <trkpt lat="49.22113" lon="1.11651">
        <ele>126.9</ele>
        <time>2016-09-18T09:50:57Z</time>
      </trkpt>
      <trkpt lat="49.22106" lon="1.11638">
        <ele>127.1</ele>
        <time>2016-09-18T09:50:59Z</time>
      </trkpt>
      <trkpt lat="49.22099" lon="1.11626">
        <ele>127.3</ele>
        <time>2016-09-18T09:51:01Z</time>
      </trkpt>
      <trkpt lat="49.22093" lon="1.11614">
        <ele>127.6</ele>
        <time>2016-09-18T09:51:03Z</time>
      </trkpt>
      <trkpt lat="49.22087" lon="1.11602">
        <ele>127.8</ele>
        <time>2016-09-18T09:51:05Z</time>
      </trkpt>
      <trkpt lat="49.22081" lon="1.1159">
        <ele>128</ele>
        <time>2016-09-18T09:51:07Z</time>
      </trkpt>
      <trkpt lat="49.22074" lon="1.11576">
        <ele>128.3</ele>
        <time>2016-09-18T09:51:09Z</time>
      </trkpt>
      <trkpt lat="49.22067" lon="1.11564">
        <ele>128.6</ele>
        <time>2016-09-18T09:51:11Z</time>
      </trkpt>
      <trkpt lat="49.2206" lon="1.11552">
        <ele>128.9</ele>
        <time>2016-09-18T09:51:13Z</time>
      </trkpt>
      <trkpt lat="49.22053" lon="1.11541">
        <ele>129.1</ele>
        <time>2016-09-18T09:51:15Z</time>
      </trkpt>
      <trkpt lat="49.22046" lon="1.1153">
        <ele>129.3</ele>
        <time>2016-09-18T09:51:17Z</time>
      </trkpt>
      <trkpt lat="49.22039" lon="1.1152">
        <ele>129.6</ele>
        <time>2016-09-18T09:51:19Z</time>
      </trkpt>
      <trkpt lat="49.22032" lon="1.11509">
        <ele>129.8</ele>
        <time>2016-09-18T09:51:21Z</time>
      </trkpt>
      <trkpt lat="49.22026" lon="1.11498">
        <ele>129.9</ele>
        <time>2016-09-18T09:51:23Z</time>
      </trkpt>
      <trkpt lat="49.22021" lon="1.11487">
        <ele>130.2</ele>
        <time>2016-09-18T09:51:25Z</time>
      </trkpt>
      <trkpt lat="49.22015" lon="1.1147">
        <ele>130.6</ele>
        <time>2016-09-18T09:51:28Z</time>
      </trkpt>
      <trkpt lat="49.22009" lon="1.11453">
        <ele>130.9</ele>
        <time>2016-09-18T09:51:31Z</time>
      </trkpt>
      <trkpt lat="49.22004" lon="1.11436">
        <ele>131.2</ele>
        <time>2016-09-18T09:51:34Z</time>
      </trkpt>
      <trkpt lat="49.21999" lon="1.1142">
        <ele>131.5</ele>
        <time>2016-09-18T09:51:37Z</time>
      </trkpt>
      <trkpt lat="49.21994" lon="1.11404">
        <ele>131.7</ele>
        <time>2016-09-18T09:51:40Z</time>
      </trkpt>
      <trkpt lat="49.21989" lon="1.11389">
        <ele>132</ele>
        <time>2016-09-18T09:51:43Z</time>
      </trkpt>
      <trkpt lat="49.21984" lon="1.11375">
        <ele>132.3</ele>
        <time>2016-09-18T09:51:46Z</time>
      </trkpt>
      <trkpt lat="49.21977" lon="1.11359">
        <ele>132.6</ele>
        <time>2016-09-18T09:51:49Z</time>
      </trkpt>
      <trkpt lat="49.2197" lon="1.11343">
        <ele>133</ele>
        <time>2016-09-18T09:51:52Z</time>
      </trkpt>
      <trkpt lat="49.21963" lon="1.11327">
        <ele>133.3</ele>
        <time>2016-09-18T09:51:55Z</time>
      </trkpt>
      <trkpt lat="49.21956" lon="1.11311">
        <ele>133.6</ele>
        <time>2016-09-18T09:51:58Z</time>
      </trkpt>
      <trkpt lat="49.21949" lon="1.11295">
        <ele>133.9</ele>
        <time>2016-09-18T09:52:01Z</time>
      </trkpt>
      <trkpt lat="49.21942" lon="1.11279">
        <ele>134.2</ele>
        <time>2016-09-18T09:52:04Z</time>
      </trkpt>
      <trkpt lat="49.21936" lon="1.11268">
        <ele>134.4</ele>
        <time>2016-09-18T09:52:06Z</time>
      </trkpt>
      <trkpt lat="49.21931" lon="1.11256">
        <ele>134.6</ele>
        <time>2016-09-18T09:52:08Z</time>
      </trkpt>
      <trkpt lat="49.21924" lon="1.1124">
        <ele>135</ele>
        <time>2016-09-18T09:52:11Z</time>
      </trkpt>
      <trkpt lat="49.21917" lon="1.11223">
        <ele>135.3</ele>
        <time>2016-09-18T09:52:14Z</time>
      </trkpt>
      <trkpt lat="49.21911" lon="1.11206">
        <ele>135.6</ele>
        <time>2016-09-18T09:52:17Z</time>
      </trkpt>
      <trkpt lat="49.21906" lon="1.11189">
        <ele>135.9</ele>
        <time>2016-09-18T09:52:20Z</time>
      </trkpt>
      <trkpt lat="49.21901" lon="1.11171">
        <ele>136.2</ele>
        <time>2016-09-18T09:52:23Z</time>
      </trkpt>
      <trkpt lat="49.21898" lon="1.11158">
        <ele>136.4</ele>
        <time>2016-09-18T09:52:25Z</time>
      </trkpt>
      <trkpt lat="49.21894" lon="1.11144">
        <ele>136.6</ele>
        <time>2016-09-18T09:52:27Z</time>
      </trkpt>
      <trkpt lat="49.2189" lon="1.11131">
        <ele>136.7</ele>
        <time>2016-09-18T09:52:29Z</time>
      </trkpt>
      <trkpt lat="49.21886" lon="1.11118">
        <ele>136.9</ele>
        <time>2016-09-18T09:52:31Z</time>
      </trkpt>
      <trkpt lat="49.21881" lon="1.11106">
        <ele>137.1</ele>
        <time>2016-09-18T09:52:33Z</time>
      </trkpt>
      <trkpt lat="49.21875" lon="1.11089">
        <ele>137.4</ele>
        <time>2016-09-18T09:52:36Z</time>
      </trkpt>
      <trkpt lat="49.21869" lon="1.11077">
        <ele>137.6</ele>
        <time>2016-09-18T09:52:39Z</time>
      </trkpt>
      <trkpt lat="49.21862" lon="1.11063">
        <ele>138</ele>
        <time>2016-09-18T09:52:42Z</time>
      </trkpt>
      <trkpt lat="49.21855" lon="1.11049">
        <ele>138.3</ele>
        <time>2016-09-18T09:52:45Z</time>
      </trkpt>
      <trkpt lat="49.21847" lon="1.11033">
        <ele>138.7</ele>
        <time>2016-09-18T09:52:48Z</time>
      </trkpt>
      <trkpt lat="49.2184" lon="1.11017">
        <ele>139.1</ele>
        <time>2016-09-18T09:52:51Z</time>
      </trkpt>
      <trkpt lat="49.21832" lon="1.11002">
        <ele>139.4</ele>
        <time>2016-09-18T09:52:54Z</time>
      </trkpt>
      <trkpt lat="49.21823" lon="1.10988">
        <ele>139.8</ele>
        <time>2016-09-18T09:52:57Z</time>
      </trkpt>
      <trkpt lat="49.21816" lon="1.10979">
        <ele>140</ele>
        <time>2016-09-18T09:52:59Z</time>
      </trkpt>
      <trkpt lat="49.21809" lon="1.1097">
        <ele>140.3</ele>
        <time>2016-09-18T09:53:01Z</time>
      </trkpt>
      <trkpt lat="49.218" lon="1.10959">
        <ele>140.6</ele>
        <time>2016-09-18T09:53:04Z</time>
      </trkpt>
      <trkpt lat="49.21793" lon="1.1095">
        <ele>140.9</ele>
        <time>2016-09-18T09:53:07Z</time>
      </trkpt>
      <trkpt lat="49.21782" lon="1.10938">
        <ele>141.2</ele>
        <time>2016-09-18T09:53:10Z</time>
      </trkpt>
      <trkpt lat="49.21773" lon="1.10944">
        <ele>141.7</ele>
        <time>2016-09-18T09:53:14Z</time>
      </trkpt>
      <trkpt lat="49.21763" lon="1.10945">
        <ele>142.1</ele>
        <time>2016-09-18T09:53:20Z</time>
      </trkpt>
      <trkpt lat="49.21753" lon="1.10941">
        <ele>142.5</ele>
        <time>2016-09-18T09:53:26Z</time>
      </trkpt>
      <trkpt lat="49.21743" lon="1.10938">
        <ele>143</ele>
        <time>2016-09-18T09:53:38Z</time>
      </trkpt>
      <trkpt lat="49.21735" lon="1.10932">
        <ele>143.2</ele>
        <time>2016-09-18T09:53:42Z</time>
      </trkpt>
      <trkpt lat="49.21725" lon="1.10934">
        <ele>143.4</ele>
        <time>2016-09-18T09:53:48Z</time>
      </trkpt>
      <trkpt lat="49.21716" lon="1.10928">
        <ele>143.6</ele>
        <time>2016-09-18T09:53:56Z</time>
      </trkpt>
      <trkpt lat="49.21707" lon="1.10924">
        <ele>143.7</ele>
        <time>2016-09-18T09:54:01Z</time>
      </trkpt>
      <trkpt lat="49.21697" lon="1.10921">
        <ele>143.9</ele>
        <time>2016-09-18T09:54:06Z</time>
      </trkpt>
      <trkpt lat="49.21687" lon="1.10919">
        <ele>144.2</ele>
        <time>2016-09-18T09:54:11Z</time>
      </trkpt>
      <trkpt lat="49.21676" lon="1.10915">
        <ele>144.4</ele>
        <time>2016-09-18T09:54:16Z</time>
      </trkpt>
      <trkpt lat="49.21665" lon="1.10912">
        <ele>144.6</ele>
        <time>2016-09-18T09:54:20Z</time>
      </trkpt>
      <trkpt lat="49.21655" lon="1.10908">
        <ele>144.7</ele>
        <time>2016-09-18T09:54:23Z</time>
      </trkpt>
      <trkpt lat="49.21643" lon="1.10906">
        <ele>144.8</ele>
        <time>2016-09-18T09:54:26Z</time>
      </trkpt>
      <trkpt lat="49.21632" lon="1.10902">
        <ele>144.9</ele>
        <time>2016-09-18T09:54:29Z</time>
      </trkpt>
      <trkpt lat="49.2162" lon="1.10899">
        <ele>145</ele>
        <time>2016-09-18T09:54:32Z</time>
      </trkpt>
      <trkpt lat="49.21608" lon="1.10896">
        <ele>145</ele>
        <time>2016-09-18T09:54:35Z</time>
      </trkpt>
      <trkpt lat="49.21597" lon="1.10892">
        <ele>145.1</ele>
        <time>2016-09-18T09:54:37Z</time>
      </trkpt>
      <trkpt lat="49.21588" lon="1.10889">
        <ele>145.2</ele>
        <time>2016-09-18T09:54:39Z</time>
      </trkpt>
      <trkpt lat="49.21579" lon="1.10887">
        <ele>145.2</ele>
        <time>2016-09-18T09:54:41Z</time>
      </trkpt>
      <trkpt lat="49.21569" lon="1.10886">
        <ele>145.3</ele>
        <time>2016-09-18T09:54:43Z</time>
      </trkpt>
      <trkpt lat="49.21557" lon="1.10891">
        <ele>145.4</ele>
        <time>2016-09-18T09:54:46Z</time>
      </trkpt>
      <trkpt lat="49.21547" lon="1.10894">
        <ele>145.4</ele>
        <time>2016-09-18T09:54:48Z</time>
      </trkpt>
      <trkpt lat="49.21537" lon="1.10899">
        <ele>145.4</ele>
        <time>2016-09-18T09:54:50Z</time>
      </trkpt>
      <trkpt lat="49.21528" lon="1.10906">
        <ele>145.4</ele>
        <time>2016-09-18T09:54:52Z</time>
      </trkpt>
      <trkpt lat="49.21518" lon="1.10914">
        <ele>145.4</ele>
        <time>2016-09-18T09:54:54Z</time>
      </trkpt>
      <trkpt lat="49.21506" lon="1.10917">
        <ele>145.3</ele>
        <time>2016-09-18T09:54:56Z</time>
      </trkpt>
      <trkpt lat="49.21495" lon="1.10929">
        <ele>145</ele>
        <time>2016-09-18T09:54:59Z</time>
      </trkpt>
      <trkpt lat="49.21489" lon="1.10941">
        <ele>144.7</ele>
        <time>2016-09-18T09:55:01Z</time>
      </trkpt>
      <trkpt lat="49.21479" lon="1.10943">
        <ele>144.5</ele>
        <time>2016-09-18T09:55:03Z</time>
      </trkpt>
      <trkpt lat="49.21468" lon="1.1094">
        <ele>144.2</ele>
        <time>2016-09-18T09:55:05Z</time>
      </trkpt>
      <trkpt lat="49.21455" lon="1.10937">
        <ele>144</ele>
        <time>2016-09-18T09:55:07Z</time>
      </trkpt>
      <trkpt lat="49.21444" lon="1.10938">
        <ele>143.7</ele>
        <time>2016-09-18T09:55:09Z</time>
      </trkpt>
      <trkpt lat="49.21432" lon="1.10944">
        <ele>143.5</ele>
        <time>2016-09-18T09:55:11Z</time>
      </trkpt>
      <trkpt lat="49.21422" lon="1.10948">
        <ele>143.2</ele>
        <time>2016-09-18T09:55:13Z</time>
      </trkpt>
      <trkpt lat="49.21413" lon="1.10948">
        <ele>142.9</ele>
        <time>2016-09-18T09:55:15Z</time>
      </trkpt>
      <trkpt lat="49.214" lon="1.10949">
        <ele>142.5</ele>
        <time>2016-09-18T09:55:18Z</time>
      </trkpt>
      <trkpt lat="49.21391" lon="1.10957">
        <ele>142.2</ele>
        <time>2016-09-18T09:55:20Z</time>
      </trkpt>
      <trkpt lat="49.21387" lon="1.10972">
        <ele>142</ele>
        <time>2016-09-18T09:55:22Z</time>
      </trkpt>
      <trkpt lat="49.21382" lon="1.10987">
        <ele>141.7</ele>
        <time>2016-09-18T09:55:24Z</time>
      </trkpt>
      <trkpt lat="49.21377" lon="1.10999">
        <ele>141.4</ele>
        <time>2016-09-18T09:55:26Z</time>
      </trkpt>
      <trkpt lat="49.21376" lon="1.11018">
        <ele>141</ele>
        <time>2016-09-18T09:55:29Z</time>
      </trkpt>
      <trkpt lat="49.2138" lon="1.11031">
        <ele>140.6</ele>
        <time>2016-09-18T09:55:31Z</time>
      </trkpt>
      <trkpt lat="49.21385" lon="1.11043">
        <ele>140.3</ele>
        <time>2016-09-18T09:55:33Z</time>
      </trkpt>
      <trkpt lat="49.21389" lon="1.11061">
        <ele>139.9</ele>
        <time>2016-09-18T09:55:36Z</time>
      </trkpt>
      <trkpt lat="49.2139" lon="1.11078">
        <ele>139.7</ele>
        <time>2016-09-18T09:55:38Z</time>
      </trkpt>
      <trkpt lat="49.21395" lon="1.111">
        <ele>139.4</ele>
        <time>2016-09-18T09:55:41Z</time>
      </trkpt>
      <trkpt lat="49.21397" lon="1.11116">
        <ele>139.2</ele>
        <time>2016-09-18T09:55:43Z</time>
      </trkpt>
      <trkpt lat="49.214" lon="1.11133">
        <ele>139</ele>
        <time>2016-09-18T09:55:45Z</time>
      </trkpt>
      <trkpt lat="49.21402" lon="1.11148">
        <ele>138.8</ele>
        <time>2016-09-18T09:55:47Z</time>
      </trkpt>
      <trkpt lat="49.21405" lon="1.11164">
        <ele>138.5</ele>
        <time>2016-09-18T09:55:49Z</time>
      </trkpt>
      <trkpt lat="49.21408" lon="1.11185">
        <ele>138.3</ele>
        <time>2016-09-18T09:55:51Z</time>
      </trkpt>
      <trkpt lat="49.21409" lon="1.11204">
        <ele>138</ele>
        <time>2016-09-18T09:55:53Z</time>
      </trkpt>
      <trkpt lat="49.21409" lon="1.11223">
        <ele>137.8</ele>
        <time>2016-09-18T09:55:55Z</time>
      </trkpt>
      <trkpt lat="49.21408" lon="1.11238">
        <ele>137.7</ele>
        <time>2016-09-18T09:55:57Z</time>
      </trkpt>
      <trkpt lat="49.21409" lon="1.11252">
        <ele>137.5</ele>
        <time>2016-09-18T09:55:59Z</time>
      </trkpt>
      <trkpt lat="49.21409" lon="1.11268">
        <ele>137.3</ele>
        <time>2016-09-18T09:56:01Z</time>
      </trkpt>
      <trkpt lat="49.2141" lon="1.11285">
        <ele>137.2</ele>
        <time>2016-09-18T09:56:03Z</time>
      </trkpt>
      <trkpt lat="49.2141" lon="1.11305">
        <ele>137.1</ele>
        <time>2016-09-18T09:56:05Z</time>
      </trkpt>
      <trkpt lat="49.21412" lon="1.11324">
        <ele>136.9</ele>
        <time>2016-09-18T09:56:07Z</time>
      </trkpt>
      <trkpt lat="49.21413" lon="1.11344">
        <ele>136.8</ele>
        <time>2016-09-18T09:56:09Z</time>
      </trkpt>
      <trkpt lat="49.21416" lon="1.11368">
        <ele>136.6</ele>
        <time>2016-09-18T09:56:11Z</time>
      </trkpt>
      <trkpt lat="49.21418" lon="1.1139">
        <ele>136.5</ele>
        <time>2016-09-18T09:56:13Z</time>
      </trkpt>
      <trkpt lat="49.21419" lon="1.11408">
        <ele>136.3</ele>
        <time>2016-09-18T09:56:15Z</time>
      </trkpt>
      <trkpt lat="49.2142" lon="1.11426">
        <ele>136.2</ele>
        <time>2016-09-18T09:56:17Z</time>
      </trkpt>
      <trkpt lat="49.2142" lon="1.11443">
        <ele>136</ele>
        <time>2016-09-18T09:56:19Z</time>
      </trkpt>
      <trkpt lat="49.21412" lon="1.11455">
        <ele>135.9</ele>
        <time>2016-09-18T09:56:21Z</time>
      </trkpt>
      <trkpt lat="49.21403" lon="1.11469">
        <ele>135.8</ele>
        <time>2016-09-18T09:56:23Z</time>
      </trkpt>
      <trkpt lat="49.21393" lon="1.1148">
        <ele>135.6</ele>
        <time>2016-09-18T09:56:25Z</time>
      </trkpt>
      <trkpt lat="49.21383" lon="1.11493">
        <ele>135.2</ele>
        <time>2016-09-18T09:56:27Z</time>
      </trkpt>
      <trkpt lat="49.21373" lon="1.11508">
        <ele>134.8</ele>
        <time>2016-09-18T09:56:29Z</time>
      </trkpt>
      <trkpt lat="49.21363" lon="1.11521">
        <ele>134.1</ele>
        <time>2016-09-18T09:56:31Z</time>
      </trkpt>
      <trkpt lat="49.21353" lon="1.11536">
        <ele>133.2</ele>
        <time>2016-09-18T09:56:33Z</time>
      </trkpt>
      <trkpt lat="49.21344" lon="1.11555">
        <ele>132.3</ele>
        <time>2016-09-18T09:56:35Z</time>
      </trkpt>
      <trkpt lat="49.21335" lon="1.11578">
        <ele>131</ele>
        <time>2016-09-18T09:56:37Z</time>
      </trkpt>
      <trkpt lat="49.21331" lon="1.11591">
        <ele>130.4</ele>
        <time>2016-09-18T09:56:38Z</time>
      </trkpt>
      <trkpt lat="49.21327" lon="1.11604">
        <ele>129.8</ele>
        <time>2016-09-18T09:56:39Z</time>
      </trkpt>
      <trkpt lat="49.21317" lon="1.11629">
        <ele>128.5</ele>
        <time>2016-09-18T09:56:41Z</time>
      </trkpt>
      <trkpt lat="49.21306" lon="1.11649">
        <ele>127.2</ele>
        <time>2016-09-18T09:56:43Z</time>
      </trkpt>
      <trkpt lat="49.21297" lon="1.11667">
        <ele>125.8</ele>
        <time>2016-09-18T09:56:45Z</time>
      </trkpt>
      <trkpt lat="49.21289" lon="1.11682">
        <ele>124.4</ele>
        <time>2016-09-18T09:56:47Z</time>
      </trkpt>
      <trkpt lat="49.21279" lon="1.11701">
        <ele>123.1</ele>
        <time>2016-09-18T09:56:49Z</time>
      </trkpt>
      <trkpt lat="49.21272" lon="1.11717">
        <ele>121.8</ele>
        <time>2016-09-18T09:56:51Z</time>
      </trkpt>
      <trkpt lat="49.21265" lon="1.11734">
        <ele>120.3</ele>
        <time>2016-09-18T09:56:53Z</time>
      </trkpt>
      <trkpt lat="49.2126" lon="1.11754">
        <ele>119.2</ele>
        <time>2016-09-18T09:56:55Z</time>
      </trkpt>
      <trkpt lat="49.21252" lon="1.11769">
        <ele>118.2</ele>
        <time>2016-09-18T09:56:57Z</time>
      </trkpt>
      <trkpt lat="49.21246" lon="1.11783">
        <ele>117.3</ele>
        <time>2016-09-18T09:56:59Z</time>
      </trkpt>
      <trkpt lat="49.21241" lon="1.11796">
        <ele>116.4</ele>
        <time>2016-09-18T09:57:01Z</time>
      </trkpt>
      <trkpt lat="49.21237" lon="1.11813">
        <ele>115.2</ele>
        <time>2016-09-18T09:57:04Z</time>
      </trkpt>
      <trkpt lat="49.21234" lon="1.11828">
        <ele>114.1</ele>
        <time>2016-09-18T09:57:07Z</time>
      </trkpt>
      <trkpt lat="49.21229" lon="1.11844">
        <ele>112.8</ele>
        <time>2016-09-18T09:57:11Z</time>
      </trkpt>
      <trkpt lat="49.21225" lon="1.11857">
        <ele>112</ele>
        <time>2016-09-18T09:57:14Z</time>
      </trkpt>
      <trkpt lat="49.21219" lon="1.11876">
        <ele>111.3</ele>
        <time>2016-09-18T09:57:17Z</time>
      </trkpt>
      <trkpt lat="49.21214" lon="1.11891">
        <ele>110.8</ele>
        <time>2016-09-18T09:57:19Z</time>
      </trkpt>
      <trkpt lat="49.2121" lon="1.11908">
        <ele>110.4</ele>
        <time>2016-09-18T09:57:21Z</time>
      </trkpt>
      <trkpt lat="49.21207" lon="1.11922">
        <ele>109.9</ele>
        <time>2016-09-18T09:57:23Z</time>
      </trkpt>
      <trkpt lat="49.21206" lon="1.11943">
        <ele>109.2</ele>
        <time>2016-09-18T09:57:26Z</time>
      </trkpt>
      <trkpt lat="49.21205" lon="1.11959">
        <ele>108.8</ele>
        <time>2016-09-18T09:57:28Z</time>
      </trkpt>
      <trkpt lat="49.21205" lon="1.11978">
        <ele>108.4</ele>
        <time>2016-09-18T09:57:30Z</time>
      </trkpt>
      <trkpt lat="49.21203" lon="1.11995">
        <ele>108</ele>
        <time>2016-09-18T09:57:32Z</time>
      </trkpt>
      <trkpt lat="49.21201" lon="1.12012">
        <ele>107.6</ele>
        <time>2016-09-18T09:57:34Z</time>
      </trkpt>
      <trkpt lat="49.21201" lon="1.1203">
        <ele>107.2</ele>
        <time>2016-09-18T09:57:36Z</time>
      </trkpt>
      <trkpt lat="49.21202" lon="1.12044">
        <ele>106.9</ele>
        <time>2016-09-18T09:57:38Z</time>
      </trkpt>
      <trkpt lat="49.21203" lon="1.12059">
        <ele>106.5</ele>
        <time>2016-09-18T09:57:40Z</time>
      </trkpt>
      <trkpt lat="49.21203" lon="1.12076">
        <ele>106.2</ele>
        <time>2016-09-18T09:57:42Z</time>
      </trkpt>
      <trkpt lat="49.21202" lon="1.12092">
        <ele>105.9</ele>
        <time>2016-09-18T09:57:45Z</time>
      </trkpt>
      <trkpt lat="49.21201" lon="1.12109">
        <ele>105.6</ele>
        <time>2016-09-18T09:57:48Z</time>
      </trkpt>
      <trkpt lat="49.21198" lon="1.12128">
        <ele>105.4</ele>
        <time>2016-09-18T09:57:51Z</time>
      </trkpt>
      <trkpt lat="49.21195" lon="1.12143">
        <ele>105.1</ele>
        <time>2016-09-18T09:57:53Z</time>
      </trkpt>
      <trkpt lat="49.21191" lon="1.1216">
        <ele>104.7</ele>
        <time>2016-09-18T09:57:55Z</time>
      </trkpt>
      <trkpt lat="49.21187" lon="1.12175">
        <ele>104.3</ele>
        <time>2016-09-18T09:57:57Z</time>
      </trkpt>
      <trkpt lat="49.2118" lon="1.12183">
        <ele>103.4</ele>
        <time>2016-09-18T09:58:01Z</time>
      </trkpt>
      <trkpt lat="49.2117" lon="1.1219">
        <ele>102.6</ele>
        <time>2016-09-18T09:58:06Z</time>
      </trkpt>
      <trkpt lat="49.2116" lon="1.12188">
        <ele>102.1</ele>
        <time>2016-09-18T09:58:10Z</time>
      </trkpt>
      <trkpt lat="49.21152" lon="1.12182">
        <ele>101.7</ele>
        <time>2016-09-18T09:58:14Z</time>
      </trkpt>
      <trkpt lat="49.21153" lon="1.12166">
        <ele>101.2</ele>
        <time>2016-09-18T09:58:20Z</time>
      </trkpt>
      <trkpt lat="49.21157" lon="1.12153">
        <ele>101</ele>
        <time>2016-09-18T09:58:24Z</time>
      </trkpt>
      <trkpt lat="49.21157" lon="1.12139">
        <ele>100.8</ele>
        <time>2016-09-18T09:58:28Z</time>
      </trkpt>
      <trkpt lat="49.2116" lon="1.12126">
        <ele>100.8</ele>
        <time>2016-09-18T09:58:32Z</time>
      </trkpt>
      <trkpt lat="49.21162" lon="1.12112">
        <ele>100.8</ele>
        <time>2016-09-18T09:58:36Z</time>
      </trkpt>
      <trkpt lat="49.21162" lon="1.12096">
        <ele>100.8</ele>
        <time>2016-09-18T09:58:41Z</time>
      </trkpt>
      <trkpt lat="49.21163" lon="1.12082">
        <ele>100.9</ele>
        <time>2016-09-18T09:58:45Z</time>
      </trkpt>
      <trkpt lat="49.21166" lon="1.12066">
        <ele>101.2</ele>
        <time>2016-09-18T09:58:50Z</time>
      </trkpt>
      <trkpt lat="49.21166" lon="1.12048">
        <ele>101.4</ele>
        <time>2016-09-18T09:58:56Z</time>
      </trkpt>
      <trkpt lat="49.21162" lon="1.12034">
        <ele>101.8</ele>
        <time>2016-09-18T09:59:02Z</time>
      </trkpt>
      <trkpt lat="49.21156" lon="1.12023">
        <ele>102.7</ele>
        <time>2016-09-18T09:59:11Z</time>
      </trkpt>
      <trkpt lat="49.21156" lon="1.12008">
        <ele>103.5</ele>
        <time>2016-09-18T09:59:17Z</time>
      </trkpt>
      <trkpt lat="49.21158" lon="1.11992">
        <ele>104.1</ele>
        <time>2016-09-18T09:59:23Z</time>
      </trkpt>
      <trkpt lat="49.21161" lon="1.11977">
        <ele>104.6</ele>
        <time>2016-09-18T09:59:28Z</time>
      </trkpt>
      <trkpt lat="49.21162" lon="1.11962">
        <ele>105</ele>
        <time>2016-09-18T09:59:33Z</time>
      </trkpt>
      <trkpt lat="49.21164" lon="1.11949">
        <ele>105.4</ele>
        <time>2016-09-18T09:59:38Z</time>
      </trkpt>
      <trkpt lat="49.21165" lon="1.11933">
        <ele>105.8</ele>
        <time>2016-09-18T09:59:44Z</time>
      </trkpt>
      <trkpt lat="49.21166" lon="1.11918">
        <ele>106.3</ele>
        <time>2016-09-18T09:59:50Z</time>
      </trkpt>
      <trkpt lat="49.2117" lon="1.11903">
        <ele>106.6</ele>
        <time>2016-09-18T09:59:56Z</time>
      </trkpt>
      <trkpt lat="49.21172" lon="1.1189">
        <ele>106.8</ele>
        <time>2016-09-18T10:00:02Z</time>
      </trkpt>
      <trkpt lat="49.21174" lon="1.11875">
        <ele>107.1</ele>
        <time>2016-09-18T10:00:07Z</time>
      </trkpt>
      <trkpt lat="49.21178" lon="1.11863">
        <ele>107.4</ele>
        <time>2016-09-18T10:00:13Z</time>
      </trkpt>
      <trkpt lat="49.21182" lon="1.11847">
        <ele>107.9</ele>
        <time>2016-09-18T10:00:20Z</time>
      </trkpt>
      <trkpt lat="49.21184" lon="1.11833">
        <ele>108.3</ele>
        <time>2016-09-18T10:00:25Z</time>
      </trkpt>
      <trkpt lat="49.21187" lon="1.11819">
        <ele>108.7</ele>
        <time>2016-09-18T10:00:31Z</time>
      </trkpt>
      <trkpt lat="49.2119" lon="1.11805">
        <ele>109</ele>
        <time>2016-09-18T10:00:37Z</time>
      </trkpt>
      <trkpt lat="49.21194" lon="1.1179">
        <ele>109.2</ele>
        <time>2016-09-18T10:00:43Z</time>
      </trkpt>
      <trkpt lat="49.21198" lon="1.11778">
        <ele>109.4</ele>
        <time>2016-09-18T10:00:48Z</time>
      </trkpt>
      <trkpt lat="49.21204" lon="1.11764">
        <ele>109.6</ele>
        <time>2016-09-18T10:00:54Z</time>
      </trkpt>
      <trkpt lat="49.21208" lon="1.11749">
        <ele>109.9</ele>
        <time>2016-09-18T10:01:00Z</time>
      </trkpt>
      <trkpt lat="49.21213" lon="1.11738">
        <ele>110.2</ele>
        <time>2016-09-18T10:01:05Z</time>
      </trkpt>
      <trkpt lat="49.21219" lon="1.11726">
        <ele>110.4</ele>
        <time>2016-09-18T10:01:12Z</time>
      </trkpt>
      <trkpt lat="49.21224" lon="1.1171">
        <ele>110.5</ele>
        <time>2016-09-18T10:01:17Z</time>
      </trkpt>
      <trkpt lat="49.21229" lon="1.11697">
        <ele>110.7</ele>
        <time>2016-09-18T10:01:21Z</time>
      </trkpt>
      <trkpt lat="49.21236" lon="1.11683">
        <ele>110.9</ele>
        <time>2016-09-18T10:01:25Z</time>
      </trkpt>
      <trkpt lat="49.21242" lon="1.11668">
        <ele>111</ele>
        <time>2016-09-18T10:01:29Z</time>
      </trkpt>
      <trkpt lat="49.21246" lon="1.11654">
        <ele>111.3</ele>
        <time>2016-09-18T10:01:33Z</time>
      </trkpt>
      <trkpt lat="49.21252" lon="1.11641">
        <ele>111.6</ele>
        <time>2016-09-18T10:01:37Z</time>
      </trkpt>
      <trkpt lat="49.21255" lon="1.11628">
        <ele>111.9</ele>
        <time>2016-09-18T10:01:41Z</time>
      </trkpt>
      <trkpt lat="49.21261" lon="1.11616">
        <ele>112.4</ele>
        <time>2016-09-18T10:01:46Z</time>
      </trkpt>
      <trkpt lat="49.21263" lon="1.116">
        <ele>112.8</ele>
        <time>2016-09-18T10:01:51Z</time>
      </trkpt>
      <trkpt lat="49.21257" lon="1.11587">
        <ele>113.2</ele>
        <time>2016-09-18T10:01:56Z</time>
      </trkpt>
      <trkpt lat="49.2125" lon="1.11576">
        <ele>113.9</ele>
        <time>2016-09-18T10:02:01Z</time>
      </trkpt>
      <trkpt lat="49.2124" lon="1.11573">
        <ele>115.2</ele>
        <time>2016-09-18T10:02:09Z</time>
      </trkpt>
      <trkpt lat="49.2123" lon="1.11577">
        <ele>116.5</ele>
        <time>2016-09-18T10:02:17Z</time>
      </trkpt>
      <trkpt lat="49.21221" lon="1.11582">
        <ele>117.7</ele>
        <time>2016-09-18T10:02:24Z</time>
      </trkpt>
      <trkpt lat="49.21213" lon="1.1159">
        <ele>119.3</ele>
        <time>2016-09-18T10:02:33Z</time>
      </trkpt>
      <trkpt lat="49.21204" lon="1.11597">
        <ele>121.8</ele>
        <time>2016-09-18T10:02:51Z</time>
      </trkpt>
      <trkpt lat="49.21195" lon="1.116">
        <ele>123.1</ele>
        <time>2016-09-18T10:02:59Z</time>
      </trkpt>
      <trkpt lat="49.21186" lon="1.11603">
        <ele>124.3</ele>
        <time>2016-09-18T10:03:06Z</time>
      </trkpt>
      <trkpt lat="49.21177" lon="1.1161">
        <ele>125.7</ele>
        <time>2016-09-18T10:03:14Z</time>
      </trkpt>
      <trkpt lat="49.21169" lon="1.11616">
        <ele>127</ele>
        <time>2016-09-18T10:03:21Z</time>
      </trkpt>
      <trkpt lat="49.21159" lon="1.11621">
        <ele>128.3</ele>
        <time>2016-09-18T10:03:28Z</time>
      </trkpt>
      <trkpt lat="49.21149" lon="1.11622">
        <ele>129.5</ele>
        <time>2016-09-18T10:03:35Z</time>
      </trkpt>
      <trkpt lat="49.21139" lon="1.11624">
        <ele>130.3</ele>
        <time>2016-09-18T10:03:41Z</time>
      </trkpt>
      <trkpt lat="49.21128" lon="1.11627">
        <ele>131</ele>
        <time>2016-09-18T10:03:45Z</time>
      </trkpt>
      <trkpt lat="49.21118" lon="1.11631">
        <ele>131.4</ele>
        <time>2016-09-18T10:03:48Z</time>
      </trkpt>
      <trkpt lat="49.21107" lon="1.11635">
        <ele>132.1</ele>
        <time>2016-09-18T10:03:52Z</time>
      </trkpt>
      <trkpt lat="49.21097" lon="1.11636">
        <ele>132.5</ele>
        <time>2016-09-18T10:03:55Z</time>
      </trkpt>
      <trkpt lat="49.21088" lon="1.11639">
        <ele>132.9</ele>
        <time>2016-09-18T10:03:58Z</time>
      </trkpt>
      <trkpt lat="49.21078" lon="1.11639">
        <ele>133.2</ele>
        <time>2016-09-18T10:04:02Z</time>
      </trkpt>
      <trkpt lat="49.21067" lon="1.11642">
        <ele>133.4</ele>
        <time>2016-09-18T10:04:05Z</time>
      </trkpt>
      <trkpt lat="49.21057" lon="1.1165">
        <ele>133.7</ele>
        <time>2016-09-18T10:04:09Z</time>
      </trkpt>
      <trkpt lat="49.21046" lon="1.11659">
        <ele>133.8</ele>
        <time>2016-09-18T10:04:13Z</time>
      </trkpt>
      <trkpt lat="49.21038" lon="1.11668">
        <ele>133.9</ele>
        <time>2016-09-18T10:04:16Z</time>
      </trkpt>
      <trkpt lat="49.21028" lon="1.11677">
        <ele>134</ele>
        <time>2016-09-18T10:04:19Z</time>
      </trkpt>
      <trkpt lat="49.2102" lon="1.11685">
        <ele>133.9</ele>
        <time>2016-09-18T10:04:23Z</time>
      </trkpt>
      <trkpt lat="49.21014" lon="1.11695">
        <ele>133.8</ele>
        <time>2016-09-18T10:05:39Z</time>
      </trkpt>
      <trkpt lat="49.21022" lon="1.11689">
        <ele>133.5</ele>
        <time>2016-09-18T10:08:36Z</time>
      </trkpt>
      <trkpt lat="49.21026" lon="1.11675">
        <ele>133.6</ele>
        <time>2016-09-18T10:08:56Z</time>
      </trkpt>
      <trkpt lat="49.21035" lon="1.11665">
        <ele>133.7</ele>
        <time>2016-09-18T10:09:01Z</time>
      </trkpt>
      <trkpt lat="49.21043" lon="1.11654">
        <ele>133.8</ele>
        <time>2016-09-18T10:09:05Z</time>
      </trkpt>
      <trkpt lat="49.21049" lon="1.11644">
        <ele>133.9</ele>
        <time>2016-09-18T10:09:10Z</time>
      </trkpt>
      <trkpt lat="49.21045" lon="1.11658">
        <ele>134.1</ele>
        <time>2016-09-18T10:09:23Z</time>
      </trkpt>
      <trkpt lat="49.21038" lon="1.11669">
        <ele>134.2</ele>
        <time>2016-09-18T10:09:27Z</time>
      </trkpt>
      <trkpt lat="49.21028" lon="1.11675">
        <ele>134.2</ele>
        <time>2016-09-18T10:09:31Z</time>
      </trkpt>
      <trkpt lat="49.21018" lon="1.11683">
        <ele>134.2</ele>
        <time>2016-09-18T10:09:35Z</time>
      </trkpt>
      <trkpt lat="49.21017" lon="1.11699">
        <ele>134.1</ele>
        <time>2016-09-18T10:09:39Z</time>
      </trkpt>
      <trkpt lat="49.2102" lon="1.11713">
        <ele>134</ele>
        <time>2016-09-18T10:09:42Z</time>
      </trkpt>
      <trkpt lat="49.21025" lon="1.11731">
        <ele>133.9</ele>
        <time>2016-09-18T10:09:45Z</time>
      </trkpt>
      <trkpt lat="49.21029" lon="1.11746">
        <ele>133.8</ele>
        <time>2016-09-18T10:09:48Z</time>
      </trkpt>
      <trkpt lat="49.21035" lon="1.11761">
        <ele>133.6</ele>
        <time>2016-09-18T10:09:51Z</time>
      </trkpt>
      <trkpt lat="49.21043" lon="1.11778">
        <ele>133.4</ele>
        <time>2016-09-18T10:09:54Z</time>
      </trkpt>
      <trkpt lat="49.21046" lon="1.11797">
        <ele>133.2</ele>
        <time>2016-09-18T10:09:57Z</time>
      </trkpt>
      <trkpt lat="49.21046" lon="1.11817">
        <ele>133</ele>
        <time>2016-09-18T10:10:00Z</time>
      </trkpt>
      <trkpt lat="49.21047" lon="1.11831">
        <ele>132.8</ele>
        <time>2016-09-18T10:10:02Z</time>
      </trkpt>
      <trkpt lat="49.21049" lon="1.11846">
        <ele>132.7</ele>
        <time>2016-09-18T10:10:04Z</time>
      </trkpt>
      <trkpt lat="49.21052" lon="1.11861">
        <ele>132.5</ele>
        <time>2016-09-18T10:10:06Z</time>
      </trkpt>
      <trkpt lat="49.21054" lon="1.11876">
        <ele>132.3</ele>
        <time>2016-09-18T10:10:08Z</time>
      </trkpt>
      <trkpt lat="49.21055" lon="1.1189">
        <ele>132.1</ele>
        <time>2016-09-18T10:10:10Z</time>
      </trkpt>
      <trkpt lat="49.21058" lon="1.11906">
        <ele>131.8</ele>
        <time>2016-09-18T10:10:12Z</time>
      </trkpt>
      <trkpt lat="49.21061" lon="1.11919">
        <ele>131.5</ele>
        <time>2016-09-18T10:10:14Z</time>
      </trkpt>
      <trkpt lat="49.21062" lon="1.11933">
        <ele>131.1</ele>
        <time>2016-09-18T10:10:16Z</time>
      </trkpt>
      <trkpt lat="49.21066" lon="1.11946">
        <ele>130.7</ele>
        <time>2016-09-18T10:10:18Z</time>
      </trkpt>
      <trkpt lat="49.21072" lon="1.11965">
        <ele>130</ele>
        <time>2016-09-18T10:10:21Z</time>
      </trkpt>
      <trkpt lat="49.21074" lon="1.1198">
        <ele>129.5</ele>
        <time>2016-09-18T10:10:23Z</time>
      </trkpt>
      <trkpt lat="49.21074" lon="1.11994">
        <ele>129.1</ele>
        <time>2016-09-18T10:10:25Z</time>
      </trkpt>
      <trkpt lat="49.21071" lon="1.12013">
        <ele>128.5</ele>
        <time>2016-09-18T10:10:27Z</time>
      </trkpt>
      <trkpt lat="49.21067" lon="1.12027">
        <ele>128</ele>
        <time>2016-09-18T10:10:29Z</time>
      </trkpt>
      <trkpt lat="49.21068" lon="1.12048">
        <ele>127.4</ele>
        <time>2016-09-18T10:10:31Z</time>
      </trkpt>
      <trkpt lat="49.21069" lon="1.12067">
        <ele>126.7</ele>
        <time>2016-09-18T10:10:33Z</time>
      </trkpt>
      <trkpt lat="49.21069" lon="1.12086">
        <ele>126</ele>
        <time>2016-09-18T10:10:35Z</time>
      </trkpt>
      <trkpt lat="49.2107" lon="1.12103">
        <ele>125.2</ele>
        <time>2016-09-18T10:10:37Z</time>
      </trkpt>
      <trkpt lat="49.21073" lon="1.12121">
        <ele>124.3</ele>
        <time>2016-09-18T10:10:39Z</time>
      </trkpt>
      <trkpt lat="49.21074" lon="1.12135">
        <ele>123</ele>
        <time>2016-09-18T10:10:42Z</time>
      </trkpt>
      <trkpt lat="49.21076" lon="1.12153">
        <ele>121.4</ele>
        <time>2016-09-18T10:10:45Z</time>
      </trkpt>
      <trkpt lat="49.2108" lon="1.1217">
        <ele>120.3</ele>
        <time>2016-09-18T10:10:47Z</time>
      </trkpt>
      <trkpt lat="49.21086" lon="1.12183">
        <ele>119.1</ele>
        <time>2016-09-18T10:10:49Z</time>
      </trkpt>
      <trkpt lat="49.2109" lon="1.12196">
        <ele>117.7</ele>
        <time>2016-09-18T10:10:51Z</time>
      </trkpt>
      <trkpt lat="49.21091" lon="1.1221">
        <ele>116.4</ele>
        <time>2016-09-18T10:10:53Z</time>
      </trkpt>
      <trkpt lat="49.2109" lon="1.12224">
        <ele>115.1</ele>
        <time>2016-09-18T10:10:55Z</time>
      </trkpt>
      <trkpt lat="49.21088" lon="1.12242">
        <ele>113.6</ele>
        <time>2016-09-18T10:10:57Z</time>
      </trkpt>
      <trkpt lat="49.21083" lon="1.12259">
        <ele>111.5</ele>
        <time>2016-09-18T10:11:00Z</time>
      </trkpt>
      <trkpt lat="49.21078" lon="1.12275">
        <ele>109.2</ele>
        <time>2016-09-18T10:11:03Z</time>
      </trkpt>
      <trkpt lat="49.21077" lon="1.12291">
        <ele>107.8</ele>
        <time>2016-09-18T10:11:05Z</time>
      </trkpt>
      <trkpt lat="49.21074" lon="1.12306">
        <ele>106.4</ele>
        <time>2016-09-18T10:11:07Z</time>
      </trkpt>
      <trkpt lat="49.21075" lon="1.12323">
        <ele>104.7</ele>
        <time>2016-09-18T10:11:10Z</time>
      </trkpt>
      <trkpt lat="49.21079" lon="1.12339">
        <ele>102.7</ele>
        <time>2016-09-18T10:11:14Z</time>
      </trkpt>
      <trkpt lat="49.21085" lon="1.12357">
        <ele>101.5</ele>
        <time>2016-09-18T10:11:17Z</time>
      </trkpt>
      <trkpt lat="49.21091" lon="1.12372">
        <ele>100.4</ele>
        <time>2016-09-18T10:11:20Z</time>
      </trkpt>
      <trkpt lat="49.21092" lon="1.12389">
        <ele>99.2</ele>
        <time>2016-09-18T10:11:24Z</time>
      </trkpt>
      <trkpt lat="49.21087" lon="1.12405">
        <ele>98.1</ele>
        <time>2016-09-18T10:11:28Z</time>
      </trkpt>
      <trkpt lat="49.21078" lon="1.1242">
        <ele>97.2</ele>
        <time>2016-09-18T10:11:31Z</time>
      </trkpt>
      <trkpt lat="49.2107" lon="1.12433">
        <ele>96.4</ele>
        <time>2016-09-18T10:11:34Z</time>
      </trkpt>
      <trkpt lat="49.21065" lon="1.12451">
        <ele>95.7</ele>
        <time>2016-09-18T10:11:37Z</time>
      </trkpt>
      <trkpt lat="49.21063" lon="1.12468">
        <ele>94.9</ele>
        <time>2016-09-18T10:11:40Z</time>
      </trkpt>
      <trkpt lat="49.21058" lon="1.12481">
        <ele>93.8</ele>
        <time>2016-09-18T10:11:44Z</time>
      </trkpt>
      <trkpt lat="49.21055" lon="1.12495">
        <ele>93.1</ele>
        <time>2016-09-18T10:11:47Z</time>
      </trkpt>
      <trkpt lat="49.21054" lon="1.12513">
        <ele>92.4</ele>
        <time>2016-09-18T10:11:51Z</time>
      </trkpt>
      <trkpt lat="49.21056" lon="1.1253">
        <ele>91.9</ele>
        <time>2016-09-18T10:11:55Z</time>
      </trkpt>
      <trkpt lat="49.21052" lon="1.12543">
        <ele>91.6</ele>
        <time>2016-09-18T10:11:58Z</time>
      </trkpt>
      <trkpt lat="49.21046" lon="1.12555">
        <ele>91.2</ele>
        <time>2016-09-18T10:12:02Z</time>
      </trkpt>
      <trkpt lat="49.21043" lon="1.1257">
        <ele>90.9</ele>
        <time>2016-09-18T10:12:06Z</time>
      </trkpt>
      <trkpt lat="49.21047" lon="1.12586">
        <ele>90.5</ele>
        <time>2016-09-18T10:12:10Z</time>
      </trkpt>
      <trkpt lat="49.2105" lon="1.126">
        <ele>90.3</ele>
        <time>2016-09-18T10:12:13Z</time>
      </trkpt>
      <trkpt lat="49.21052" lon="1.12614">
        <ele>90.2</ele>
        <time>2016-09-18T10:12:16Z</time>
      </trkpt>
      <trkpt lat="49.21054" lon="1.12628">
        <ele>90</ele>
        <time>2016-09-18T10:12:19Z</time>
      </trkpt>
      <trkpt lat="49.21051" lon="1.12644">
        <ele>89.9</ele>
        <time>2016-09-18T10:12:24Z</time>
      </trkpt>
      <trkpt lat="49.21047" lon="1.12659">
        <ele>89.7</ele>
        <time>2016-09-18T10:12:28Z</time>
      </trkpt>
      <trkpt lat="49.21044" lon="1.12673">
        <ele>89.5</ele>
        <time>2016-09-18T10:12:31Z</time>
      </trkpt>
      <trkpt lat="49.21043" lon="1.1269">
        <ele>89.2</ele>
        <time>2016-09-18T10:12:35Z</time>
      </trkpt>
      <trkpt lat="49.21047" lon="1.12708">
        <ele>88.8</ele>
        <time>2016-09-18T10:12:39Z</time>
      </trkpt>
      <trkpt lat="49.21049" lon="1.12725">
        <ele>88.6</ele>
        <time>2016-09-18T10:12:42Z</time>
      </trkpt>
      <trkpt lat="49.21049" lon="1.12742">
        <ele>88.4</ele>
        <time>2016-09-18T10:12:46Z</time>
      </trkpt>
      <trkpt lat="49.21049" lon="1.12758">
        <ele>88.2</ele>
        <time>2016-09-18T10:12:49Z</time>
      </trkpt>
      <trkpt lat="49.21053" lon="1.12774">
        <ele>88.1</ele>
        <time>2016-09-18T10:12:52Z</time>
      </trkpt>
      <trkpt lat="49.21057" lon="1.12788">
        <ele>87.9</ele>
        <time>2016-09-18T10:12:56Z</time>
      </trkpt>
      <trkpt lat="49.21059" lon="1.12803">
        <ele>87.8</ele>
        <time>2016-09-18T10:13:00Z</time>
      </trkpt>
      <trkpt lat="49.2106" lon="1.12819">
        <ele>87.8</ele>
        <time>2016-09-18T10:13:04Z</time>
      </trkpt>
      <trkpt lat="49.21058" lon="1.12834">
        <ele>87.9</ele>
        <time>2016-09-18T10:13:10Z</time>
      </trkpt>
      <trkpt lat="49.21062" lon="1.12847">
        <ele>88.2</ele>
        <time>2016-09-18T10:13:15Z</time>
      </trkpt>
      <trkpt lat="49.21066" lon="1.12863">
        <ele>89.1</ele>
        <time>2016-09-18T10:13:21Z</time>
      </trkpt>
      <trkpt lat="49.2107" lon="1.12877">
        <ele>90</ele>
        <time>2016-09-18T10:13:26Z</time>
      </trkpt>
      <trkpt lat="49.21074" lon="1.12891">
        <ele>91.4</ele>
        <time>2016-09-18T10:13:32Z</time>
      </trkpt>
      <trkpt lat="49.21079" lon="1.12903">
        <ele>93.2</ele>
        <time>2016-09-18T10:13:39Z</time>
      </trkpt>
      <trkpt lat="49.21077" lon="1.12918">
        <ele>95</ele>
        <time>2016-09-18T10:13:46Z</time>
      </trkpt>
      <trkpt lat="49.21069" lon="1.12926">
        <ele>96.3</ele>
        <time>2016-09-18T10:13:53Z</time>
      </trkpt>
      <trkpt lat="49.21061" lon="1.12933">
        <ele>96.4</ele>
        <time>2016-09-18T10:13:58Z</time>
      </trkpt>
      <trkpt lat="49.21055" lon="1.12948">
        <ele>96.2</ele>
        <time>2016-09-18T10:14:02Z</time>
      </trkpt>
      <trkpt lat="49.21049" lon="1.12961">
        <ele>96</ele>
        <time>2016-09-18T10:14:05Z</time>
      </trkpt>
      <trkpt lat="49.21044" lon="1.12974">
        <ele>95.8</ele>
        <time>2016-09-18T10:14:08Z</time>
      </trkpt>
      <trkpt lat="49.21039" lon="1.12985">
        <ele>95.6</ele>
        <time>2016-09-18T10:14:11Z</time>
      </trkpt>
      <trkpt lat="49.21033" lon="1.12996">
        <ele>95.2</ele>
        <time>2016-09-18T10:14:19Z</time>
      </trkpt>
      <trkpt lat="49.21029" lon="1.13009">
        <ele>94.8</ele>
        <time>2016-09-18T10:14:26Z</time>
      </trkpt>
      <trkpt lat="49.21021" lon="1.13017">
        <ele>94.6</ele>
        <time>2016-09-18T10:14:30Z</time>
      </trkpt>
      <trkpt lat="49.21014" lon="1.13028">
        <ele>94.3</ele>
        <time>2016-09-18T10:14:33Z</time>
      </trkpt>
      <trkpt lat="49.21009" lon="1.13044">
        <ele>93.9</ele>
        <time>2016-09-18T10:14:36Z</time>
      </trkpt>
      <trkpt lat="49.21005" lon="1.1306">
        <ele>93.7</ele>
        <time>2016-09-18T10:14:39Z</time>
      </trkpt>
      <trkpt lat="49.21002" lon="1.13073">
        <ele>93.4</ele>
        <time>2016-09-18T10:14:42Z</time>
      </trkpt>
      <trkpt lat="49.20997" lon="1.13085">
        <ele>93.2</ele>
        <time>2016-09-18T10:14:46Z</time>
      </trkpt>
      <trkpt lat="49.20992" lon="1.13102">
        <ele>93</ele>
        <time>2016-09-18T10:14:52Z</time>
      </trkpt>
      <trkpt lat="49.20987" lon="1.13119">
        <ele>93.1</ele>
        <time>2016-09-18T10:14:56Z</time>
      </trkpt>
      <trkpt lat="49.20983" lon="1.13133">
        <ele>93.3</ele>
        <time>2016-09-18T10:15:00Z</time>
      </trkpt>
      <trkpt lat="49.20979" lon="1.13146">
        <ele>93.6</ele>
        <time>2016-09-18T10:15:07Z</time>
      </trkpt>
      <trkpt lat="49.20974" lon="1.13159">
        <ele>93.8</ele>
        <time>2016-09-18T10:15:19Z</time>
      </trkpt>
      <trkpt lat="49.20967" lon="1.13171">
        <ele>93.6</ele>
        <time>2016-09-18T10:15:23Z</time>
      </trkpt>
      <trkpt lat="49.20963" lon="1.13183">
        <ele>93.3</ele>
        <time>2016-09-18T10:15:27Z</time>
      </trkpt>
      <trkpt lat="49.20958" lon="1.13197">
        <ele>93</ele>
        <time>2016-09-18T10:15:30Z</time>
      </trkpt>
      <trkpt lat="49.20954" lon="1.13211">
        <ele>92.9</ele>
        <time>2016-09-18T10:15:33Z</time>
      </trkpt>
      <trkpt lat="49.20952" lon="1.13225">
        <ele>92.7</ele>
        <time>2016-09-18T10:15:37Z</time>
      </trkpt>
      <trkpt lat="49.20951" lon="1.13241">
        <ele>92.6</ele>
        <time>2016-09-18T10:15:41Z</time>
      </trkpt>
      <trkpt lat="49.20954" lon="1.13254">
        <ele>92.8</ele>
        <time>2016-09-18T10:15:47Z</time>
      </trkpt>
      <trkpt lat="49.20959" lon="1.13266">
        <ele>94.5</ele>
        <time>2016-09-18T10:15:58Z</time>
      </trkpt>
      <trkpt lat="49.20966" lon="1.13276">
        <ele>96.3</ele>
        <time>2016-09-18T10:16:09Z</time>
      </trkpt>
      <trkpt lat="49.20975" lon="1.13284">
        <ele>98.3</ele>
        <time>2016-09-18T10:16:20Z</time>
      </trkpt>
      <trkpt lat="49.20982" lon="1.13293">
        <ele>100.3</ele>
        <time>2016-09-18T10:16:30Z</time>
      </trkpt>
      <trkpt lat="49.20991" lon="1.13298">
        <ele>102.1</ele>
        <time>2016-09-18T10:16:40Z</time>
      </trkpt>
      <trkpt lat="49.21" lon="1.13306">
        <ele>103.8</ele>
        <time>2016-09-18T10:16:50Z</time>
      </trkpt>
      <trkpt lat="49.21008" lon="1.13314">
        <ele>104.5</ele>
        <time>2016-09-18T10:16:56Z</time>
      </trkpt>
      <trkpt lat="49.21017" lon="1.13318">
        <ele>105.1</ele>
        <time>2016-09-18T10:17:02Z</time>
      </trkpt>
      <trkpt lat="49.21026" lon="1.13312">
        <ele>105.9</ele>
        <time>2016-09-18T10:17:09Z</time>
      </trkpt>
      <trkpt lat="49.21033" lon="1.13302">
        <ele>106.9</ele>
        <time>2016-09-18T10:17:16Z</time>
      </trkpt>
      <trkpt lat="49.2104" lon="1.13293">
        <ele>107.8</ele>
        <time>2016-09-18T10:17:22Z</time>
      </trkpt>
      <trkpt lat="49.21046" lon="1.13283">
        <ele>108.6</ele>
        <time>2016-09-18T10:17:28Z</time>
      </trkpt>
      <trkpt lat="49.21052" lon="1.13272">
        <ele>109.3</ele>
        <time>2016-09-18T10:17:33Z</time>
      </trkpt>
      <trkpt lat="49.21059" lon="1.13259">
        <ele>110.1</ele>
        <time>2016-09-18T10:17:38Z</time>
      </trkpt>
      <trkpt lat="49.21067" lon="1.1325">
        <ele>110.8</ele>
        <time>2016-09-18T10:17:42Z</time>
      </trkpt>
      <trkpt lat="49.21074" lon="1.13238">
        <ele>111.5</ele>
        <time>2016-09-18T10:17:47Z</time>
      </trkpt>
      <trkpt lat="49.21081" lon="1.13226">
        <ele>112.2</ele>
        <time>2016-09-18T10:17:52Z</time>
      </trkpt>
      <trkpt lat="49.21087" lon="1.13213">
        <ele>112.8</ele>
        <time>2016-09-18T10:17:57Z</time>
      </trkpt>
      <trkpt lat="49.21093" lon="1.13199">
        <ele>113.4</ele>
        <time>2016-09-18T10:18:02Z</time>
      </trkpt>
      <trkpt lat="49.211" lon="1.13188">
        <ele>113.8</ele>
        <time>2016-09-18T10:18:06Z</time>
      </trkpt>
      <trkpt lat="49.21107" lon="1.13178">
        <ele>114.2</ele>
        <time>2016-09-18T10:18:10Z</time>
      </trkpt>
      <trkpt lat="49.21116" lon="1.13166">
        <ele>114.6</ele>
        <time>2016-09-18T10:18:14Z</time>
      </trkpt>
      <trkpt lat="49.21124" lon="1.13155">
        <ele>114.9</ele>
        <time>2016-09-18T10:18:17Z</time>
      </trkpt>
      <trkpt lat="49.21132" lon="1.13141">
        <ele>115.1</ele>
        <time>2016-09-18T10:18:20Z</time>
      </trkpt>
      <trkpt lat="49.2114" lon="1.13128">
        <ele>115.4</ele>
        <time>2016-09-18T10:18:23Z</time>
      </trkpt>
      <trkpt lat="49.21149" lon="1.13116">
        <ele>115.7</ele>
        <time>2016-09-18T10:18:26Z</time>
      </trkpt>
      <trkpt lat="49.2116" lon="1.13107">
        <ele>115.9</ele>
        <time>2016-09-18T10:18:29Z</time>
      </trkpt>
      <trkpt lat="49.21172" lon="1.13097">
        <ele>116.1</ele>
        <time>2016-09-18T10:18:32Z</time>
      </trkpt>
      <trkpt lat="49.21179" lon="1.13087">
        <ele>116.3</ele>
        <time>2016-09-18T10:18:34Z</time>
      </trkpt>
      <trkpt lat="49.21185" lon="1.13076">
        <ele>116.4</ele>
        <time>2016-09-18T10:18:36Z</time>
      </trkpt>
      <trkpt lat="49.21193" lon="1.1306">
        <ele>116.6</ele>
        <time>2016-09-18T10:18:39Z</time>
      </trkpt>
      <trkpt lat="49.21199" lon="1.13049">
        <ele>116.7</ele>
        <time>2016-09-18T10:18:41Z</time>
      </trkpt>
      <trkpt lat="49.21207" lon="1.13034">
        <ele>117</ele>
        <time>2016-09-18T10:18:44Z</time>
      </trkpt>
      <trkpt lat="49.21213" lon="1.13019">
        <ele>117.3</ele>
        <time>2016-09-18T10:18:47Z</time>
      </trkpt>
      <trkpt lat="49.21221" lon="1.13008">
        <ele>117.6</ele>
        <time>2016-09-18T10:18:50Z</time>
      </trkpt>
      <trkpt lat="49.21228" lon="1.13022">
        <ele>117.9</ele>
        <time>2016-09-18T10:18:54Z</time>
      </trkpt>
      <trkpt lat="49.21232" lon="1.13037">
        <ele>118.1</ele>
        <time>2016-09-18T10:18:57Z</time>
      </trkpt>
      <trkpt lat="49.21235" lon="1.1305">
        <ele>118.3</ele>
        <time>2016-09-18T10:19:00Z</time>
      </trkpt>
      <trkpt lat="49.21238" lon="1.13066">
        <ele>118.5</ele>
        <time>2016-09-18T10:19:04Z</time>
      </trkpt>
      <trkpt lat="49.21241" lon="1.13082">
        <ele>118.6</ele>
        <time>2016-09-18T10:19:08Z</time>
      </trkpt>
      <trkpt lat="49.21244" lon="1.131">
        <ele>118.7</ele>
        <time>2016-09-18T10:19:12Z</time>
      </trkpt>
      <trkpt lat="49.21242" lon="1.13116">
        <ele>118.7</ele>
        <time>2016-09-18T10:19:15Z</time>
      </trkpt>
      <trkpt lat="49.21242" lon="1.13135">
        <ele>118.8</ele>
        <time>2016-09-18T10:19:18Z</time>
      </trkpt>
      <trkpt lat="49.21239" lon="1.13148">
        <ele>118.8</ele>
        <time>2016-09-18T10:19:20Z</time>
      </trkpt>
      <trkpt lat="49.21237" lon="1.13167">
        <ele>118.8</ele>
        <time>2016-09-18T10:19:23Z</time>
      </trkpt>
      <trkpt lat="49.21234" lon="1.13185">
        <ele>118.8</ele>
        <time>2016-09-18T10:19:26Z</time>
      </trkpt>
      <trkpt lat="49.21233" lon="1.13201">
        <ele>118.9</ele>
        <time>2016-09-18T10:19:29Z</time>
      </trkpt>
      <trkpt lat="49.21232" lon="1.13215">
        <ele>118.9</ele>
        <time>2016-09-18T10:19:33Z</time>
      </trkpt>
      <trkpt lat="49.21232" lon="1.1323">
        <ele>118.9</ele>
        <time>2016-09-18T10:19:54Z</time>
      </trkpt>
      <trkpt lat="49.21229" lon="1.13249">
        <ele>118.9</ele>
        <time>2016-09-18T10:19:58Z</time>
      </trkpt>
      <trkpt lat="49.21227" lon="1.13263">
        <ele>118.9</ele>
        <time>2016-09-18T10:20:00Z</time>
      </trkpt>
      <trkpt lat="49.21225" lon="1.13279">
        <ele>118.9</ele>
        <time>2016-09-18T10:20:02Z</time>
      </trkpt>
      <trkpt lat="49.21223" lon="1.13296">
        <ele>118.9</ele>
        <time>2016-09-18T10:20:04Z</time>
      </trkpt>
      <trkpt lat="49.21222" lon="1.13311">
        <ele>118.9</ele>
        <time>2016-09-18T10:20:06Z</time>
      </trkpt>
      <trkpt lat="49.2122" lon="1.13326">
        <ele>118.9</ele>
        <time>2016-09-18T10:20:08Z</time>
      </trkpt>
      <trkpt lat="49.21217" lon="1.13346">
        <ele>118.9</ele>
        <time>2016-09-18T10:20:11Z</time>
      </trkpt>
      <trkpt lat="49.21215" lon="1.1336">
        <ele>118.9</ele>
        <time>2016-09-18T10:20:13Z</time>
      </trkpt>
      <trkpt lat="49.21213" lon="1.13373">
        <ele>119</ele>
        <time>2016-09-18T10:20:15Z</time>
      </trkpt>
      <trkpt lat="49.21206" lon="1.13388">
        <ele>119</ele>
        <time>2016-09-18T10:20:18Z</time>
      </trkpt>
      <trkpt lat="49.21197" lon="1.13393">
        <ele>119</ele>
        <time>2016-09-18T10:20:22Z</time>
      </trkpt>
      <trkpt lat="49.2119" lon="1.13405">
        <ele>119</ele>
        <time>2016-09-18T10:20:26Z</time>
      </trkpt>
      <trkpt lat="49.21186" lon="1.13422">
        <ele>119</ele>
        <time>2016-09-18T10:20:29Z</time>
      </trkpt>
      <trkpt lat="49.21184" lon="1.1344">
        <ele>119</ele>
        <time>2016-09-18T10:20:32Z</time>
      </trkpt>
      <trkpt lat="49.2118" lon="1.13459">
        <ele>119</ele>
        <time>2016-09-18T10:20:35Z</time>
      </trkpt>
      <trkpt lat="49.21178" lon="1.13475">
        <ele>119</ele>
        <time>2016-09-18T10:20:38Z</time>
      </trkpt>
      <trkpt lat="49.21175" lon="1.13495">
        <ele>118.9</ele>
        <time>2016-09-18T10:20:41Z</time>
      </trkpt>
      <trkpt lat="49.21172" lon="1.13515">
        <ele>118.9</ele>
        <time>2016-09-18T10:20:44Z</time>
      </trkpt>
      <trkpt lat="49.21171" lon="1.13529">
        <ele>118.8</ele>
        <time>2016-09-18T10:20:46Z</time>
      </trkpt>
      <trkpt lat="49.21168" lon="1.13543">
        <ele>118.8</ele>
        <time>2016-09-18T10:20:48Z</time>
      </trkpt>
      <trkpt lat="49.21166" lon="1.13559">
        <ele>118.7</ele>
        <time>2016-09-18T10:20:50Z</time>
      </trkpt>
      <trkpt lat="49.21164" lon="1.13574">
        <ele>118.7</ele>
        <time>2016-09-18T10:20:52Z</time>
      </trkpt>
      <trkpt lat="49.21163" lon="1.1359">
        <ele>118.6</ele>
        <time>2016-09-18T10:20:54Z</time>
      </trkpt>
      <trkpt lat="49.2116" lon="1.13606">
        <ele>118.6</ele>
        <time>2016-09-18T10:20:56Z</time>
      </trkpt>
      <trkpt lat="49.21157" lon="1.13621">
        <ele>118.5</ele>
        <time>2016-09-18T10:20:58Z</time>
      </trkpt>
      <trkpt lat="49.21154" lon="1.13636">
        <ele>118.5</ele>
        <time>2016-09-18T10:21:00Z</time>
      </trkpt>
      <trkpt lat="49.21152" lon="1.13651">
        <ele>118.4</ele>
        <time>2016-09-18T10:21:02Z</time>
      </trkpt>
      <trkpt lat="49.2115" lon="1.13668">
        <ele>118.3</ele>
        <time>2016-09-18T10:21:04Z</time>
      </trkpt>
      <trkpt lat="49.21148" lon="1.13683">
        <ele>118.2</ele>
        <time>2016-09-18T10:21:06Z</time>
      </trkpt>
      <trkpt lat="49.21145" lon="1.13696">
        <ele>118.2</ele>
        <time>2016-09-18T10:21:08Z</time>
      </trkpt>
      <trkpt lat="49.21143" lon="1.13713">
        <ele>118.1</ele>
        <time>2016-09-18T10:21:10Z</time>
      </trkpt>
      <trkpt lat="49.21141" lon="1.13731">
        <ele>118</ele>
        <time>2016-09-18T10:21:13Z</time>
      </trkpt>
      <trkpt lat="49.21138" lon="1.13746">
        <ele>117.9</ele>
        <time>2016-09-18T10:21:15Z</time>
      </trkpt>
      <trkpt lat="49.21136" lon="1.13761">
        <ele>117.9</ele>
        <time>2016-09-18T10:21:17Z</time>
      </trkpt>
      <trkpt lat="49.21133" lon="1.13776">
        <ele>117.8</ele>
        <time>2016-09-18T10:21:19Z</time>
      </trkpt>
      <trkpt lat="49.21131" lon="1.1379">
        <ele>117.8</ele>
        <time>2016-09-18T10:21:21Z</time>
      </trkpt>
      <trkpt lat="49.21129" lon="1.13807">
        <ele>117.7</ele>
        <time>2016-09-18T10:21:23Z</time>
      </trkpt>
      <trkpt lat="49.21128" lon="1.13821">
        <ele>117.6</ele>
        <time>2016-09-18T10:21:25Z</time>
      </trkpt>
      <trkpt lat="49.21126" lon="1.13835">
        <ele>117.5</ele>
        <time>2016-09-18T10:21:27Z</time>
      </trkpt>
      <trkpt lat="49.21123" lon="1.13852">
        <ele>117.4</ele>
        <time>2016-09-18T10:21:29Z</time>
      </trkpt>
      <trkpt lat="49.2112" lon="1.13873">
        <ele>117.3</ele>
        <time>2016-09-18T10:21:32Z</time>
      </trkpt>
      <trkpt lat="49.21118" lon="1.1389">
        <ele>117.1</ele>
        <time>2016-09-18T10:21:34Z</time>
      </trkpt>
      <trkpt lat="49.21115" lon="1.13905">
        <ele>117</ele>
        <time>2016-09-18T10:21:36Z</time>
      </trkpt>
      <trkpt lat="49.21113" lon="1.13919">
        <ele>116.8</ele>
        <time>2016-09-18T10:21:38Z</time>
      </trkpt>
      <trkpt lat="49.21111" lon="1.13934">
        <ele>116.6</ele>
        <time>2016-09-18T10:21:40Z</time>
      </trkpt>
      <trkpt lat="49.2111" lon="1.13949">
        <ele>116.5</ele>
        <time>2016-09-18T10:21:42Z</time>
      </trkpt>
      <trkpt lat="49.21108" lon="1.13963">
        <ele>116.4</ele>
        <time>2016-09-18T10:21:44Z</time>
      </trkpt>
      <trkpt lat="49.21106" lon="1.13979">
        <ele>116.3</ele>
        <time>2016-09-18T10:21:46Z</time>
      </trkpt>
      <trkpt lat="49.21103" lon="1.13996">
        <ele>116.2</ele>
        <time>2016-09-18T10:21:48Z</time>
      </trkpt>
      <trkpt lat="49.21101" lon="1.14012">
        <ele>116.1</ele>
        <time>2016-09-18T10:21:50Z</time>
      </trkpt>
      <trkpt lat="49.211" lon="1.14029">
        <ele>116</ele>
        <time>2016-09-18T10:21:52Z</time>
      </trkpt>
      <trkpt lat="49.21098" lon="1.14047">
        <ele>115.9</ele>
        <time>2016-09-18T10:21:54Z</time>
      </trkpt>
      <trkpt lat="49.21095" lon="1.14066">
        <ele>115.9</ele>
        <time>2016-09-18T10:21:56Z</time>
      </trkpt>
      <trkpt lat="49.21091" lon="1.14079">
        <ele>115.8</ele>
        <time>2016-09-18T10:21:58Z</time>
      </trkpt>
      <trkpt lat="49.21089" lon="1.14094">
        <ele>115.7</ele>
        <time>2016-09-18T10:22:00Z</time>
      </trkpt>
      <trkpt lat="49.21088" lon="1.14108">
        <ele>115.7</ele>
        <time>2016-09-18T10:22:02Z</time>
      </trkpt>
      <trkpt lat="49.21089" lon="1.14124">
        <ele>115.6</ele>
        <time>2016-09-18T10:22:05Z</time>
      </trkpt>
      <trkpt lat="49.21097" lon="1.14139">
        <ele>115.5</ele>
        <time>2016-09-18T10:22:08Z</time>
      </trkpt>
      <trkpt lat="49.2111" lon="1.14144">
        <ele>115.4</ele>
        <time>2016-09-18T10:22:11Z</time>
      </trkpt>
      <trkpt lat="49.21118" lon="1.14151">
        <ele>115.2</ele>
        <time>2016-09-18T10:22:13Z</time>
      </trkpt>
      <trkpt lat="49.21127" lon="1.14157">
        <ele>115</ele>
        <time>2016-09-18T10:22:15Z</time>
      </trkpt>
      <trkpt lat="49.21138" lon="1.14162">
        <ele>114.8</ele>
        <time>2016-09-18T10:22:17Z</time>
      </trkpt>
      <trkpt lat="49.21148" lon="1.14166">
        <ele>114</ele>
        <time>2016-09-18T10:22:19Z</time>
      </trkpt>
      <trkpt lat="49.21158" lon="1.14171">
        <ele>113.6</ele>
        <time>2016-09-18T10:22:21Z</time>
      </trkpt>
      <trkpt lat="49.2116" lon="1.14189">
        <ele>113</ele>
        <time>2016-09-18T10:22:24Z</time>
      </trkpt>
      <trkpt lat="49.2116" lon="1.14208">
        <ele>112.6</ele>
        <time>2016-09-18T10:22:26Z</time>
      </trkpt>
      <trkpt lat="49.21161" lon="1.14227">
        <ele>112</ele>
        <time>2016-09-18T10:22:28Z</time>
      </trkpt>
      <trkpt lat="49.21163" lon="1.14244">
        <ele>111.4</ele>
        <time>2016-09-18T10:22:30Z</time>
      </trkpt>
      <trkpt lat="49.21162" lon="1.14267">
        <ele>110.7</ele>
        <time>2016-09-18T10:22:32Z</time>
      </trkpt>
      <trkpt lat="49.21163" lon="1.14288">
        <ele>109.9</ele>
        <time>2016-09-18T10:22:34Z</time>
      </trkpt>
      <trkpt lat="49.21159" lon="1.14304">
        <ele>109.2</ele>
        <time>2016-09-18T10:22:36Z</time>
      </trkpt>
      <trkpt lat="49.21159" lon="1.1432">
        <ele>108.5</ele>
        <time>2016-09-18T10:22:38Z</time>
      </trkpt>
      <trkpt lat="49.21164" lon="1.14337">
        <ele>107.8</ele>
        <time>2016-09-18T10:22:40Z</time>
      </trkpt>
      <trkpt lat="49.21168" lon="1.14356">
        <ele>106.9</ele>
        <time>2016-09-18T10:22:42Z</time>
      </trkpt>
      <trkpt lat="49.21173" lon="1.14376">
        <ele>106</ele>
        <time>2016-09-18T10:22:44Z</time>
      </trkpt>
      <trkpt lat="49.21177" lon="1.14393">
        <ele>105.2</ele>
        <time>2016-09-18T10:22:46Z</time>
      </trkpt>
      <trkpt lat="49.21177" lon="1.1441">
        <ele>104.3</ele>
        <time>2016-09-18T10:22:48Z</time>
      </trkpt>
      <trkpt lat="49.21176" lon="1.14434">
        <ele>103.3</ele>
        <time>2016-09-18T10:22:50Z</time>
      </trkpt>
      <trkpt lat="49.21174" lon="1.14458">
        <ele>102.2</ele>
        <time>2016-09-18T10:22:52Z</time>
      </trkpt>
      <trkpt lat="49.21169" lon="1.14482">
        <ele>101.2</ele>
        <time>2016-09-18T10:22:54Z</time>
      </trkpt>
      <trkpt lat="49.21165" lon="1.14496">
        <ele>100.7</ele>
        <time>2016-09-18T10:22:55Z</time>
      </trkpt>
      <trkpt lat="49.21159" lon="1.14519">
        <ele>99.6</ele>
        <time>2016-09-18T10:22:57Z</time>
      </trkpt>
      <trkpt lat="49.21153" lon="1.14542">
        <ele>98.7</ele>
        <time>2016-09-18T10:22:59Z</time>
      </trkpt>
      <trkpt lat="49.21145" lon="1.14562">
        <ele>97.6</ele>
        <time>2016-09-18T10:23:01Z</time>
      </trkpt>
      <trkpt lat="49.21138" lon="1.14583">
        <ele>96.4</ele>
        <time>2016-09-18T10:23:03Z</time>
      </trkpt>
      <trkpt lat="49.2113" lon="1.14605">
        <ele>95.2</ele>
        <time>2016-09-18T10:23:05Z</time>
      </trkpt>
      <trkpt lat="49.21124" lon="1.14623">
        <ele>94</ele>
        <time>2016-09-18T10:23:07Z</time>
      </trkpt>
      <trkpt lat="49.2112" lon="1.14635">
        <ele>92.8</ele>
        <time>2016-09-18T10:23:09Z</time>
      </trkpt>
      <trkpt lat="49.21116" lon="1.1465">
        <ele>91.1</ele>
        <time>2016-09-18T10:23:12Z</time>
      </trkpt>
      <trkpt lat="49.21111" lon="1.1467">
        <ele>89.5</ele>
        <time>2016-09-18T10:23:15Z</time>
      </trkpt>
      <trkpt lat="49.21105" lon="1.14687">
        <ele>88.1</ele>
        <time>2016-09-18T10:23:18Z</time>
      </trkpt>
      <trkpt lat="49.21101" lon="1.147">
        <ele>87.2</ele>
        <time>2016-09-18T10:23:20Z</time>
      </trkpt>
      <trkpt lat="49.21097" lon="1.14714">
        <ele>86.2</ele>
        <time>2016-09-18T10:23:22Z</time>
      </trkpt>
      <trkpt lat="49.2109" lon="1.14728">
        <ele>85.2</ele>
        <time>2016-09-18T10:23:24Z</time>
      </trkpt>
      <trkpt lat="49.21084" lon="1.14744">
        <ele>84.3</ele>
        <time>2016-09-18T10:23:26Z</time>
      </trkpt>
      <trkpt lat="49.21081" lon="1.14757">
        <ele>83.3</ele>
        <time>2016-09-18T10:23:28Z</time>
      </trkpt>
      <trkpt lat="49.21075" lon="1.14767">
        <ele>82.3</ele>
        <time>2016-09-18T10:23:30Z</time>
      </trkpt>
      <trkpt lat="49.21065" lon="1.14783">
        <ele>80.9</ele>
        <time>2016-09-18T10:23:33Z</time>
      </trkpt>
      <trkpt lat="49.21059" lon="1.14797">
        <ele>79.9</ele>
        <time>2016-09-18T10:23:35Z</time>
      </trkpt>
      <trkpt lat="49.21053" lon="1.14808">
        <ele>79</ele>
        <time>2016-09-18T10:23:37Z</time>
      </trkpt>
      <trkpt lat="49.21047" lon="1.14823">
        <ele>78.1</ele>
        <time>2016-09-18T10:23:39Z</time>
      </trkpt>
      <trkpt lat="49.21041" lon="1.14835">
        <ele>77.2</ele>
        <time>2016-09-18T10:23:41Z</time>
      </trkpt>
      <trkpt lat="49.21037" lon="1.14849">
        <ele>76.3</ele>
        <time>2016-09-18T10:23:43Z</time>
      </trkpt>
      <trkpt lat="49.21032" lon="1.14864">
        <ele>75</ele>
        <time>2016-09-18T10:23:46Z</time>
      </trkpt>
      <trkpt lat="49.21027" lon="1.14883">
        <ele>73.8</ele>
        <time>2016-09-18T10:23:49Z</time>
      </trkpt>
      <trkpt lat="49.21023" lon="1.149">
        <ele>73</ele>
        <time>2016-09-18T10:23:51Z</time>
      </trkpt>
      <trkpt lat="49.2102" lon="1.14918">
        <ele>72.2</ele>
        <time>2016-09-18T10:23:53Z</time>
      </trkpt>
      <trkpt lat="49.21018" lon="1.14938">
        <ele>71.4</ele>
        <time>2016-09-18T10:23:55Z</time>
      </trkpt>
      <trkpt lat="49.21019" lon="1.14955">
        <ele>70.4</ele>
        <time>2016-09-18T10:23:57Z</time>
      </trkpt>
      <trkpt lat="49.21024" lon="1.14971">
        <ele>69</ele>
        <time>2016-09-18T10:24:00Z</time>
      </trkpt>
      <trkpt lat="49.21027" lon="1.14985">
        <ele>68.2</ele>
        <time>2016-09-18T10:24:02Z</time>
      </trkpt>
      <trkpt lat="49.21032" lon="1.15">
        <ele>67.5</ele>
        <time>2016-09-18T10:24:04Z</time>
      </trkpt>
      <trkpt lat="49.21037" lon="1.15016">
        <ele>66.7</ele>
        <time>2016-09-18T10:24:06Z</time>
      </trkpt>
      <trkpt lat="49.21045" lon="1.1503">
        <ele>65.8</ele>
        <time>2016-09-18T10:24:08Z</time>
      </trkpt>
      <trkpt lat="49.2105" lon="1.15043">
        <ele>64.9</ele>
        <time>2016-09-18T10:24:10Z</time>
      </trkpt>
      <trkpt lat="49.21055" lon="1.15057">
        <ele>63.7</ele>
        <time>2016-09-18T10:24:13Z</time>
      </trkpt>
      <trkpt lat="49.21059" lon="1.1507">
        <ele>62.6</ele>
        <time>2016-09-18T10:24:16Z</time>
      </trkpt>
      <trkpt lat="49.21069" lon="1.15077">
        <ele>61.8</ele>
        <time>2016-09-18T10:24:19Z</time>
      </trkpt>
      <trkpt lat="49.21079" lon="1.15083">
        <ele>60.9</ele>
        <time>2016-09-18T10:24:23Z</time>
      </trkpt>
      <trkpt lat="49.21089" lon="1.1509">
        <ele>60.3</ele>
        <time>2016-09-18T10:24:28Z</time>
      </trkpt>
      <trkpt lat="49.21096" lon="1.15102">
        <ele>60.2</ele>
        <time>2016-09-18T10:24:32Z</time>
      </trkpt>
      <trkpt lat="49.21104" lon="1.1511">
        <ele>60.3</ele>
        <time>2016-09-18T10:24:36Z</time>
      </trkpt>
      <trkpt lat="49.2111" lon="1.15121">
        <ele>60.5</ele>
        <time>2016-09-18T10:24:41Z</time>
      </trkpt>
      <trkpt lat="49.21117" lon="1.15131">
        <ele>60.8</ele>
        <time>2016-09-18T10:24:48Z</time>
      </trkpt>
      <trkpt lat="49.21125" lon="1.15141">
        <ele>61</ele>
        <time>2016-09-18T10:24:54Z</time>
      </trkpt>
      <trkpt lat="49.21133" lon="1.15152">
        <ele>61.4</ele>
        <time>2016-09-18T10:24:59Z</time>
      </trkpt>
      <trkpt lat="49.21142" lon="1.15159">
        <ele>62.2</ele>
        <time>2016-09-18T10:25:05Z</time>
      </trkpt>
      <trkpt lat="49.21145" lon="1.15179">
        <ele>63.3</ele>
        <time>2016-09-18T10:25:11Z</time>
      </trkpt>
      <trkpt lat="49.21144" lon="1.15193">
        <ele>63.5</ele>
        <time>2016-09-18T10:25:13Z</time>
      </trkpt>
      <trkpt lat="49.21146" lon="1.15214">
        <ele>63.6</ele>
        <time>2016-09-18T10:25:15Z</time>
      </trkpt>
      <trkpt lat="49.21152" lon="1.15233">
        <ele>63.4</ele>
        <time>2016-09-18T10:25:17Z</time>
      </trkpt>
      <trkpt lat="49.21161" lon="1.15256">
        <ele>63</ele>
        <time>2016-09-18T10:25:19Z</time>
      </trkpt>
      <trkpt lat="49.21168" lon="1.15266">
        <ele>62.7</ele>
        <time>2016-09-18T10:25:20Z</time>
      </trkpt>
      <trkpt lat="49.21175" lon="1.15276">
        <ele>62.4</ele>
        <time>2016-09-18T10:25:21Z</time>
      </trkpt>
      <trkpt lat="49.21186" lon="1.15295">
        <ele>61.5</ele>
        <time>2016-09-18T10:25:23Z</time>
      </trkpt>
      <trkpt lat="49.21191" lon="1.15319">
        <ele>60.4</ele>
        <time>2016-09-18T10:25:25Z</time>
      </trkpt>
      <trkpt lat="49.2119" lon="1.15346">
        <ele>59.2</ele>
        <time>2016-09-18T10:25:27Z</time>
      </trkpt>
      <trkpt lat="49.21188" lon="1.15362">
        <ele>58.6</ele>
        <time>2016-09-18T10:25:28Z</time>
      </trkpt>
      <trkpt lat="49.21186" lon="1.15378">
        <ele>57.9</ele>
        <time>2016-09-18T10:25:29Z</time>
      </trkpt>
      <trkpt lat="49.21183" lon="1.15395">
        <ele>57.3</ele>
        <time>2016-09-18T10:25:30Z</time>
      </trkpt>
      <trkpt lat="49.2118" lon="1.15412">
        <ele>56.5</ele>
        <time>2016-09-18T10:25:31Z</time>
      </trkpt>
      <trkpt lat="49.21177" lon="1.1543">
        <ele>55.7</ele>
        <time>2016-09-18T10:25:32Z</time>
      </trkpt>
      <trkpt lat="49.21174" lon="1.15448">
        <ele>54.8</ele>
        <time>2016-09-18T10:25:33Z</time>
      </trkpt>
      <trkpt lat="49.2117" lon="1.15467">
        <ele>54</ele>
        <time>2016-09-18T10:25:34Z</time>
      </trkpt>
      <trkpt lat="49.21167" lon="1.15485">
        <ele>53.2</ele>
        <time>2016-09-18T10:25:35Z</time>
      </trkpt>
      <trkpt lat="49.21163" lon="1.15503">
        <ele>52.4</ele>
        <time>2016-09-18T10:25:36Z</time>
      </trkpt>
      <trkpt lat="49.21159" lon="1.15521">
        <ele>51.5</ele>
        <time>2016-09-18T10:25:37Z</time>
      </trkpt>
      <trkpt lat="49.21156" lon="1.1554">
        <ele>50.6</ele>
        <time>2016-09-18T10:25:38Z</time>
      </trkpt>
      <trkpt lat="49.21152" lon="1.15559">
        <ele>49.7</ele>
        <time>2016-09-18T10:25:39Z</time>
      </trkpt>
      <trkpt lat="49.21149" lon="1.15577">
        <ele>48.8</ele>
        <time>2016-09-18T10:25:40Z</time>
      </trkpt>
      <trkpt lat="49.21147" lon="1.15596">
        <ele>47.9</ele>
        <time>2016-09-18T10:25:41Z</time>
      </trkpt>
      <trkpt lat="49.21144" lon="1.15615">
        <ele>47</ele>
        <time>2016-09-18T10:25:42Z</time>
      </trkpt>
      <trkpt lat="49.21142" lon="1.15634">
        <ele>46.1</ele>
        <time>2016-09-18T10:25:43Z</time>
      </trkpt>
      <trkpt lat="49.21139" lon="1.15652">
        <ele>45.2</ele>
        <time>2016-09-18T10:25:44Z</time>
      </trkpt>
      <trkpt lat="49.21137" lon="1.1567">
        <ele>44.3</ele>
        <time>2016-09-18T10:25:45Z</time>
      </trkpt>
      <trkpt lat="49.21135" lon="1.15688">
        <ele>43.5</ele>
        <time>2016-09-18T10:25:46Z</time>
      </trkpt>
      <trkpt lat="49.21133" lon="1.15705">
        <ele>42.7</ele>
        <time>2016-09-18T10:25:47Z</time>
      </trkpt>
      <trkpt lat="49.21131" lon="1.15722">
        <ele>41.9</ele>
        <time>2016-09-18T10:25:48Z</time>
      </trkpt>
      <trkpt lat="49.21129" lon="1.15739">
        <ele>41.1</ele>
        <time>2016-09-18T10:25:49Z</time>
      </trkpt>
      <trkpt lat="49.21127" lon="1.15755">
        <ele>40.4</ele>
        <time>2016-09-18T10:25:50Z</time>
      </trkpt>
      <trkpt lat="49.21125" lon="1.1577">
        <ele>39.7</ele>
        <time>2016-09-18T10:25:51Z</time>
      </trkpt>
      <trkpt lat="49.21124" lon="1.15785">
        <ele>39</ele>
        <time>2016-09-18T10:25:52Z</time>
      </trkpt>
      <trkpt lat="49.21123" lon="1.158">
        <ele>38.3</ele>
        <time>2016-09-18T10:25:53Z</time>
      </trkpt>
      <trkpt lat="49.21121" lon="1.15815">
        <ele>37.7</ele>
        <time>2016-09-18T10:25:54Z</time>
      </trkpt>
      <trkpt lat="49.2112" lon="1.15828">
        <ele>37</ele>
        <time>2016-09-18T10:25:55Z</time>
      </trkpt>
      <trkpt lat="49.21117" lon="1.15855">
        <ele>35.8</ele>
        <time>2016-09-18T10:25:57Z</time>
      </trkpt>
      <trkpt lat="49.21115" lon="1.15882">
        <ele>34.7</ele>
        <time>2016-09-18T10:25:59Z</time>
      </trkpt>
      <trkpt lat="49.21113" lon="1.15908">
        <ele>33.8</ele>
        <time>2016-09-18T10:26:01Z</time>
      </trkpt>
      <trkpt lat="49.21112" lon="1.15933">
        <ele>33</ele>
        <time>2016-09-18T10:26:03Z</time>
      </trkpt>
      <trkpt lat="49.2111" lon="1.15958">
        <ele>32.2</ele>
        <time>2016-09-18T10:26:05Z</time>
      </trkpt>
      <trkpt lat="49.21108" lon="1.15984">
        <ele>31.5</ele>
        <time>2016-09-18T10:26:07Z</time>
      </trkpt>
      <trkpt lat="49.21107" lon="1.16009">
        <ele>30.8</ele>
        <time>2016-09-18T10:26:09Z</time>
      </trkpt>
      <trkpt lat="49.21105" lon="1.16033">
        <ele>30.2</ele>
        <time>2016-09-18T10:26:11Z</time>
      </trkpt>
      <trkpt lat="49.21103" lon="1.16058">
        <ele>29.6</ele>
        <time>2016-09-18T10:26:13Z</time>
      </trkpt>
      <trkpt lat="49.21102" lon="1.16081">
        <ele>29.1</ele>
        <time>2016-09-18T10:26:15Z</time>
      </trkpt>
      <trkpt lat="49.21101" lon="1.16103">
        <ele>28.6</ele>
        <time>2016-09-18T10:26:17Z</time>
      </trkpt>
      <trkpt lat="49.21099" lon="1.16125">
        <ele>28.2</ele>
        <time>2016-09-18T10:26:19Z</time>
      </trkpt>
      <trkpt lat="49.21097" lon="1.16147">
        <ele>27.9</ele>
        <time>2016-09-18T10:26:21Z</time>
      </trkpt>
      <trkpt lat="49.21094" lon="1.16169">
        <ele>27.5</ele>
        <time>2016-09-18T10:26:23Z</time>
      </trkpt>
      <trkpt lat="49.21091" lon="1.16191">
        <ele>27.1</ele>
        <time>2016-09-18T10:26:25Z</time>
      </trkpt>
      <trkpt lat="49.21087" lon="1.16214">
        <ele>26.7</ele>
        <time>2016-09-18T10:26:27Z</time>
      </trkpt>
      <trkpt lat="49.21083" lon="1.16236">
        <ele>26.4</ele>
        <time>2016-09-18T10:26:29Z</time>
      </trkpt>
      <trkpt lat="49.21078" lon="1.16259">
        <ele>26.1</ele>
        <time>2016-09-18T10:26:31Z</time>
      </trkpt>
      <trkpt lat="49.21073" lon="1.16281">
        <ele>25.8</ele>
        <time>2016-09-18T10:26:33Z</time>
      </trkpt>
      <trkpt lat="49.21067" lon="1.16303">
        <ele>25.6</ele>
        <time>2016-09-18T10:26:35Z</time>
      </trkpt>
      <trkpt lat="49.21061" lon="1.16325">
        <ele>25.4</ele>
        <time>2016-09-18T10:26:37Z</time>
      </trkpt>
      <trkpt lat="49.21056" lon="1.16346">
        <ele>25.2</ele>
        <time>2016-09-18T10:26:39Z</time>
      </trkpt>
      <trkpt lat="49.21051" lon="1.16366">
        <ele>25</ele>
        <time>2016-09-18T10:26:41Z</time>
      </trkpt>
      <trkpt lat="49.21046" lon="1.16385">
        <ele>24.9</ele>
        <time>2016-09-18T10:26:43Z</time>
      </trkpt>
      <trkpt lat="49.21043" lon="1.16405">
        <ele>24.7</ele>
        <time>2016-09-18T10:26:45Z</time>
      </trkpt>
      <trkpt lat="49.21044" lon="1.16427">
        <ele>24.5</ele>
        <time>2016-09-18T10:26:47Z</time>
      </trkpt>
      <trkpt lat="49.21049" lon="1.16448">
        <ele>24.3</ele>
        <time>2016-09-18T10:26:49Z</time>
      </trkpt>
      <trkpt lat="49.21057" lon="1.16469">
        <ele>24.2</ele>
        <time>2016-09-18T10:26:51Z</time>
      </trkpt>
      <trkpt lat="49.21063" lon="1.16488">
        <ele>24</ele>
        <time>2016-09-18T10:26:53Z</time>
      </trkpt>
      <trkpt lat="49.2107" lon="1.16507">
        <ele>23.9</ele>
        <time>2016-09-18T10:26:55Z</time>
      </trkpt>
      <trkpt lat="49.21076" lon="1.16524">
        <ele>23.8</ele>
        <time>2016-09-18T10:26:57Z</time>
      </trkpt>
      <trkpt lat="49.21075" lon="1.16538">
        <ele>23.7</ele>
        <time>2016-09-18T10:26:59Z</time>
      </trkpt>
      <trkpt lat="49.21066" lon="1.16546">
        <ele>23.6</ele>
        <time>2016-09-18T10:27:01Z</time>
      </trkpt>
      <trkpt lat="49.21053" lon="1.16549">
        <ele>23.5</ele>
        <time>2016-09-18T10:27:03Z</time>
      </trkpt>
      <trkpt lat="49.2104" lon="1.16547">
        <ele>23.4</ele>
        <time>2016-09-18T10:27:05Z</time>
      </trkpt>
      <trkpt lat="49.21028" lon="1.16546">
        <ele>23.3</ele>
        <time>2016-09-18T10:27:07Z</time>
      </trkpt>
      <trkpt lat="49.2102" lon="1.16558">
        <ele>23.2</ele>
        <time>2016-09-18T10:27:09Z</time>
      </trkpt>
      <trkpt lat="49.21015" lon="1.16576">
        <ele>23.1</ele>
        <time>2016-09-18T10:27:11Z</time>
      </trkpt>
      <trkpt lat="49.21008" lon="1.16593">
        <ele>23</ele>
        <time>2016-09-18T10:27:13Z</time>
      </trkpt>
      <trkpt lat="49.21003" lon="1.1661">
        <ele>22.9</ele>
        <time>2016-09-18T10:27:15Z</time>
      </trkpt>
      <trkpt lat="49.21" lon="1.16629">
        <ele>22.9</ele>
        <time>2016-09-18T10:27:17Z</time>
      </trkpt>
      <trkpt lat="49.20998" lon="1.16647">
        <ele>22.8</ele>
        <time>2016-09-18T10:27:19Z</time>
      </trkpt>
      <trkpt lat="49.20998" lon="1.16665">
        <ele>22.7</ele>
        <time>2016-09-18T10:27:21Z</time>
      </trkpt>
      <trkpt lat="49.20997" lon="1.16681">
        <ele>22.7</ele>
        <time>2016-09-18T10:27:23Z</time>
      </trkpt>
      <trkpt lat="49.20997" lon="1.16698">
        <ele>22.7</ele>
        <time>2016-09-18T10:27:25Z</time>
      </trkpt>
      <trkpt lat="49.20997" lon="1.16715">
        <ele>22.6</ele>
        <time>2016-09-18T10:27:27Z</time>
      </trkpt>
      <trkpt lat="49.20998" lon="1.16733">
        <ele>22.6</ele>
        <time>2016-09-18T10:27:29Z</time>
      </trkpt>
      <trkpt lat="49.20999" lon="1.16751">
        <ele>22.6</ele>
        <time>2016-09-18T10:27:31Z</time>
      </trkpt>
      <trkpt lat="49.20999" lon="1.16769">
        <ele>22.5</ele>
        <time>2016-09-18T10:27:33Z</time>
      </trkpt>
      <trkpt lat="49.21" lon="1.16786">
        <ele>22.5</ele>
        <time>2016-09-18T10:27:35Z</time>
      </trkpt>
      <trkpt lat="49.21001" lon="1.16804">
        <ele>22.5</ele>
        <time>2016-09-18T10:27:37Z</time>
      </trkpt>
      <trkpt lat="49.21002" lon="1.16821">
        <ele>22.5</ele>
        <time>2016-09-18T10:27:39Z</time>
      </trkpt>
      <trkpt lat="49.21003" lon="1.16839">
        <ele>22.5</ele>
        <time>2016-09-18T10:27:41Z</time>
      </trkpt>
      <trkpt lat="49.21003" lon="1.16858">
        <ele>22.5</ele>
        <time>2016-09-18T10:27:43Z</time>
      </trkpt>
      <trkpt lat="49.21005" lon="1.16876">
        <ele>22.5</ele>
        <time>2016-09-18T10:27:45Z</time>
      </trkpt>
      <trkpt lat="49.21006" lon="1.16895">
        <ele>22.5</ele>
        <time>2016-09-18T10:27:47Z</time>
      </trkpt>
      <trkpt lat="49.21007" lon="1.16913">
        <ele>22.5</ele>
        <time>2016-09-18T10:27:49Z</time>
      </trkpt>
      <trkpt lat="49.21007" lon="1.16932">
        <ele>22.5</ele>
        <time>2016-09-18T10:27:51Z</time>
      </trkpt>
      <trkpt lat="49.21008" lon="1.16951">
        <ele>22.4</ele>
        <time>2016-09-18T10:27:53Z</time>
      </trkpt>
      <trkpt lat="49.21009" lon="1.16971">
        <ele>22.3</ele>
        <time>2016-09-18T10:27:55Z</time>
      </trkpt>
      <trkpt lat="49.2101" lon="1.16991">
        <ele>22.2</ele>
        <time>2016-09-18T10:27:57Z</time>
      </trkpt>
      <trkpt lat="49.21011" lon="1.17012">
        <ele>22</ele>
        <time>2016-09-18T10:27:59Z</time>
      </trkpt>
      <trkpt lat="49.21011" lon="1.17033">
        <ele>21.8</ele>
        <time>2016-09-18T10:28:01Z</time>
      </trkpt>
      <trkpt lat="49.21011" lon="1.17053">
        <ele>21.6</ele>
        <time>2016-09-18T10:28:03Z</time>
      </trkpt>
      <trkpt lat="49.21011" lon="1.17074">
        <ele>21.4</ele>
        <time>2016-09-18T10:28:05Z</time>
      </trkpt>
      <trkpt lat="49.21017" lon="1.1709">
        <ele>21.1</ele>
        <time>2016-09-18T10:28:07Z</time>
      </trkpt>
      <trkpt lat="49.21023" lon="1.17108">
        <ele>20.8</ele>
        <time>2016-09-18T10:28:09Z</time>
      </trkpt>
      <trkpt lat="49.21025" lon="1.17126">
        <ele>20.5</ele>
        <time>2016-09-18T10:28:11Z</time>
      </trkpt>
      <trkpt lat="49.21026" lon="1.17142">
        <ele>20.3</ele>
        <time>2016-09-18T10:28:13Z</time>
      </trkpt>
      <trkpt lat="49.21028" lon="1.17157">
        <ele>19.6</ele>
        <time>2016-09-18T10:28:18Z</time>
      </trkpt>
      <trkpt lat="49.21021" lon="1.17166">
        <ele>18.7</ele>
        <time>2016-09-18T10:28:25Z</time>
      </trkpt>
      <trkpt lat="49.21011" lon="1.17169">
        <ele>18.5</ele>
        <time>2016-09-18T10:28:28Z</time>
      </trkpt>
      <trkpt lat="49.21001" lon="1.17172">
        <ele>18.2</ele>
        <time>2016-09-18T10:28:31Z</time>
      </trkpt>
      <trkpt lat="49.20992" lon="1.17176">
        <ele>17.9</ele>
        <time>2016-09-18T10:28:35Z</time>
      </trkpt>
      <trkpt lat="49.20989" lon="1.17189">
        <ele>17.5</ele>
        <time>2016-09-18T10:28:42Z</time>
      </trkpt>
      <trkpt lat="49.2099" lon="1.17189">
        <ele>16.5</ele>
        <time>2016-09-18T10:29:23Z</time>
      </trkpt>
    </trkseg>
  </trk>
</gpx>